<?xml version="1.0" encoding="UTF-8" standalone="no" ?>
<gpx xmlns="http://www.topografix.com/GPX/1/1" xmlns:xsi="http://www.w3.org/2001/XMLSchema-instance" xsi:schemaLocation="http://www.topografix.com/GPX/1/1 http://www.topografix.com/GPX/1/1/gpx.xsd" version="1.1" creator="VisuGPX - https://www.visugpx.com">
  <metadata>
    <name>40- Rando des Epioux 2022</name>
    <desc><![CDATA[Les Epioux 2022 VTT]]></desc>
  </metadata>
  <trk>
    <name><![CDATA[40- Rando des sossons]]></name>
    <trkseg>
      <trkpt lat="49.75211" lon="5.30346">
        <ele>396</ele>
        <time>2022-06-11T05:59:55.000Z</time>
      </trkpt>
      <trkpt lat="49.75208" lon="5.30343">
        <ele>396.39999389648</ele>
        <time>2022-06-11T06:00:02.000Z</time>
      </trkpt>
      <trkpt lat="49.75203" lon="5.30339">
        <ele>397</ele>
        <time>2022-06-11T06:00:05.000Z</time>
      </trkpt>
      <trkpt lat="49.7519" lon="5.30336">
        <ele>397.79998779297</ele>
        <time>2022-06-11T06:00:11.000Z</time>
      </trkpt>
      <trkpt lat="49.75185" lon="5.30335">
        <ele>398.20001220703</ele>
        <time>2022-06-11T06:00:13.000Z</time>
      </trkpt>
      <trkpt lat="49.75174" lon="5.30335">
        <ele>398.79998779297</ele>
        <time>2022-06-11T06:00:17.000Z</time>
      </trkpt>
      <trkpt lat="49.75167" lon="5.30336">
        <ele>399.39999389648</ele>
        <time>2022-06-11T06:00:19.000Z</time>
      </trkpt>
      <trkpt lat="49.75154" lon="5.30338">
        <ele>400.79998779297</ele>
        <time>2022-06-11T06:00:23.000Z</time>
      </trkpt>
      <trkpt lat="49.75148" lon="5.30338">
        <ele>401.60000610352</ele>
        <time>2022-06-11T06:00:25.000Z</time>
      </trkpt>
      <trkpt lat="49.7514" lon="5.30338">
        <ele>402.39999389648</ele>
        <time>2022-06-11T06:00:28.000Z</time>
      </trkpt>
      <trkpt lat="49.7513" lon="5.3034">
        <ele>403.20001220703</ele>
        <time>2022-06-11T06:00:31.000Z</time>
      </trkpt>
      <trkpt lat="49.75119" lon="5.30343">
        <ele>404</ele>
        <time>2022-06-11T06:00:34.000Z</time>
      </trkpt>
      <trkpt lat="49.75107" lon="5.30345">
        <ele>404.79998779297</ele>
        <time>2022-06-11T06:00:38.000Z</time>
      </trkpt>
      <trkpt lat="49.75104" lon="5.30345">
        <ele>404.79998779297</ele>
        <time>2022-06-11T06:00:39.000Z</time>
      </trkpt>
      <trkpt lat="49.75079" lon="5.30348">
        <ele>406.39999389648</ele>
        <time>2022-06-11T06:00:46.000Z</time>
      </trkpt>
      <trkpt lat="49.75058" lon="5.30356">
        <ele>408.20001220703</ele>
        <time>2022-06-11T06:00:52.000Z</time>
      </trkpt>
      <trkpt lat="49.7504" lon="5.30361">
        <ele>409.39999389648</ele>
        <time>2022-06-11T06:00:58.000Z</time>
      </trkpt>
      <trkpt lat="49.75022" lon="5.30362">
        <ele>410.39999389648</ele>
        <time>2022-06-11T06:01:04.000Z</time>
      </trkpt>
      <trkpt lat="49.75006" lon="5.30366">
        <ele>410.60000610352</ele>
        <time>2022-06-11T06:01:10.000Z</time>
      </trkpt>
      <trkpt lat="49.75004" lon="5.30367">
        <ele>410.79998779297</ele>
        <time>2022-06-11T06:01:11.000Z</time>
      </trkpt>
      <trkpt lat="49.74984" lon="5.30373">
        <ele>412.39999389648</ele>
        <time>2022-06-11T06:01:16.000Z</time>
      </trkpt>
      <trkpt lat="49.7498" lon="5.30374">
        <ele>412.79998779297</ele>
        <time>2022-06-11T06:01:17.000Z</time>
      </trkpt>
      <trkpt lat="49.74966" lon="5.30379">
        <ele>414.79998779297</ele>
        <time>2022-06-11T06:01:23.000Z</time>
      </trkpt>
      <trkpt lat="49.74963" lon="5.3038">
        <ele>415.20001220703</ele>
        <time>2022-06-11T06:01:24.000Z</time>
      </trkpt>
      <trkpt lat="49.7495" lon="5.30388">
        <ele>417.20001220703</ele>
        <time>2022-06-11T06:01:28.000Z</time>
      </trkpt>
      <trkpt lat="49.74947" lon="5.30391">
        <ele>417.60000610352</ele>
        <time>2022-06-11T06:01:29.000Z</time>
      </trkpt>
      <trkpt lat="49.74934" lon="5.30402">
        <ele>419</ele>
        <time>2022-06-11T06:01:33.000Z</time>
      </trkpt>
      <trkpt lat="49.7493" lon="5.30406">
        <ele>419.39999389648</ele>
        <time>2022-06-11T06:01:34.000Z</time>
      </trkpt>
      <trkpt lat="49.7491" lon="5.30422">
        <ele>421.79998779297</ele>
        <time>2022-06-11T06:01:40.000Z</time>
      </trkpt>
      <trkpt lat="49.74903" lon="5.30427">
        <ele>422</ele>
        <time>2022-06-11T06:01:42.000Z</time>
      </trkpt>
      <trkpt lat="49.74889" lon="5.30438">
        <ele>422</ele>
        <time>2022-06-11T06:01:47.000Z</time>
      </trkpt>
      <trkpt lat="49.74873" lon="5.30446">
        <ele>422.20001220703</ele>
        <time>2022-06-11T06:01:53.000Z</time>
      </trkpt>
      <trkpt lat="49.74861" lon="5.30449">
        <ele>421.60000610352</ele>
        <time>2022-06-11T06:01:57.000Z</time>
      </trkpt>
      <trkpt lat="49.74855" lon="5.3045">
        <ele>421.60000610352</ele>
        <time>2022-06-11T06:01:59.000Z</time>
      </trkpt>
      <trkpt lat="49.74848" lon="5.30452">
        <ele>421.39999389648</ele>
        <time>2022-06-11T06:02:01.000Z</time>
      </trkpt>
      <trkpt lat="49.74835" lon="5.30451">
        <ele>421.20001220703</ele>
        <time>2022-06-11T06:02:05.000Z</time>
      </trkpt>
      <trkpt lat="49.74815" lon="5.30448">
        <ele>421.60000610352</ele>
        <time>2022-06-11T06:02:11.000Z</time>
      </trkpt>
      <trkpt lat="49.74812" lon="5.30448">
        <ele>421.79998779297</ele>
        <time>2022-06-11T06:02:12.000Z</time>
      </trkpt>
      <trkpt lat="49.74798" lon="5.30445">
        <ele>423.39999389648</ele>
        <time>2022-06-11T06:02:16.000Z</time>
      </trkpt>
      <trkpt lat="49.74791" lon="5.30444">
        <ele>424.20001220703</ele>
        <time>2022-06-11T06:02:18.000Z</time>
      </trkpt>
      <trkpt lat="49.74787" lon="5.30441">
        <ele>424.60000610352</ele>
        <time>2022-06-11T06:02:19.000Z</time>
      </trkpt>
      <trkpt lat="49.7478" lon="5.30433">
        <ele>425.60000610352</ele>
        <time>2022-06-11T06:02:22.000Z</time>
      </trkpt>
      <trkpt lat="49.74777" lon="5.30431">
        <ele>425.79998779297</ele>
        <time>2022-06-11T06:02:23.000Z</time>
      </trkpt>
      <trkpt lat="49.74769" lon="5.30419">
        <ele>426.79998779297</ele>
        <time>2022-06-11T06:02:27.000Z</time>
      </trkpt>
      <trkpt lat="49.74766" lon="5.30414">
        <ele>427</ele>
        <time>2022-06-11T06:02:28.000Z</time>
      </trkpt>
      <trkpt lat="49.74758" lon="5.30398">
        <ele>427.79998779297</ele>
        <time>2022-06-11T06:02:32.000Z</time>
      </trkpt>
      <trkpt lat="49.74756" lon="5.30395">
        <ele>428</ele>
        <time>2022-06-11T06:02:33.000Z</time>
      </trkpt>
      <trkpt lat="49.74749" lon="5.30383">
        <ele>428</ele>
        <time>2022-06-11T06:02:36.000Z</time>
      </trkpt>
      <trkpt lat="49.74742" lon="5.3037">
        <ele>428.39999389648</ele>
        <time>2022-06-11T06:02:39.000Z</time>
      </trkpt>
      <trkpt lat="49.74739" lon="5.30361">
        <ele>428.79998779297</ele>
        <time>2022-06-11T06:02:41.000Z</time>
      </trkpt>
      <trkpt lat="49.74736" lon="5.30339">
        <ele>429.60000610352</ele>
        <time>2022-06-11T06:02:45.000Z</time>
      </trkpt>
      <trkpt lat="49.74739" lon="5.30313">
        <ele>430.20001220703</ele>
        <time>2022-06-11T06:02:49.000Z</time>
      </trkpt>
      <trkpt lat="49.74741" lon="5.30299">
        <ele>430.20001220703</ele>
        <time>2022-06-11T06:02:51.000Z</time>
      </trkpt>
      <trkpt lat="49.74741" lon="5.30285">
        <ele>430.79998779297</ele>
        <time>2022-06-11T06:02:55.000Z</time>
      </trkpt>
      <trkpt lat="49.74741" lon="5.30263">
        <ele>431.79998779297</ele>
        <time>2022-06-11T06:03:01.000Z</time>
      </trkpt>
      <trkpt lat="49.7474" lon="5.3023">
        <ele>434.20001220703</ele>
        <time>2022-06-11T06:03:06.000Z</time>
      </trkpt>
      <trkpt lat="49.7474" lon="5.30206">
        <ele>435.60000610352</ele>
        <time>2022-06-11T06:03:09.000Z</time>
      </trkpt>
      <trkpt lat="49.74738" lon="5.30181">
        <ele>436.39999389648</ele>
        <time>2022-06-11T06:03:12.000Z</time>
      </trkpt>
      <trkpt lat="49.74729" lon="5.30145">
        <ele>437.39999389648</ele>
        <time>2022-06-11T06:03:17.000Z</time>
      </trkpt>
      <trkpt lat="49.74728" lon="5.3013">
        <ele>436.79998779297</ele>
        <time>2022-06-11T06:03:19.000Z</time>
      </trkpt>
      <trkpt lat="49.74726" lon="5.30114">
        <ele>435.60000610352</ele>
        <time>2022-06-11T06:03:21.000Z</time>
      </trkpt>
      <trkpt lat="49.74724" lon="5.30106">
        <ele>435</ele>
        <time>2022-06-11T06:03:22.000Z</time>
      </trkpt>
      <trkpt lat="49.74723" lon="5.30098">
        <ele>434.20001220703</ele>
        <time>2022-06-11T06:03:23.000Z</time>
      </trkpt>
      <trkpt lat="49.74719" lon="5.30083">
        <ele>432.60000610352</ele>
        <time>2022-06-11T06:03:25.000Z</time>
      </trkpt>
      <trkpt lat="49.74713" lon="5.30068">
        <ele>431.20001220703</ele>
        <time>2022-06-11T06:03:27.000Z</time>
      </trkpt>
      <trkpt lat="49.7471" lon="5.30061">
        <ele>430.79998779297</ele>
        <time>2022-06-11T06:03:28.000Z</time>
      </trkpt>
      <trkpt lat="49.74704" lon="5.3005">
        <ele>429.79998779297</ele>
        <time>2022-06-11T06:03:30.000Z</time>
      </trkpt>
      <trkpt lat="49.74698" lon="5.30047">
        <ele>429.60000610352</ele>
        <time>2022-06-11T06:03:32.000Z</time>
      </trkpt>
      <trkpt lat="49.74685" lon="5.30054">
        <ele>429.79998779297</ele>
        <time>2022-06-11T06:03:36.000Z</time>
      </trkpt>
      <trkpt lat="49.74682" lon="5.30056">
        <ele>429.79998779297</ele>
        <time>2022-06-11T06:03:37.000Z</time>
      </trkpt>
      <trkpt lat="49.7467" lon="5.30062">
        <ele>429</ele>
        <time>2022-06-11T06:03:40.000Z</time>
      </trkpt>
      <trkpt lat="49.74665" lon="5.30063">
        <ele>428.39999389648</ele>
        <time>2022-06-11T06:03:41.000Z</time>
      </trkpt>
      <trkpt lat="49.74654" lon="5.30067">
        <ele>427.20001220703</ele>
        <time>2022-06-11T06:03:43.000Z</time>
      </trkpt>
      <trkpt lat="49.74638" lon="5.30079">
        <ele>425.20001220703</ele>
        <time>2022-06-11T06:03:46.000Z</time>
      </trkpt>
      <trkpt lat="49.74632" lon="5.30082">
        <ele>424.60000610352</ele>
        <time>2022-06-11T06:03:47.000Z</time>
      </trkpt>
      <trkpt lat="49.74613" lon="5.30095">
        <ele>423.20001220703</ele>
        <time>2022-06-11T06:03:50.000Z</time>
      </trkpt>
      <trkpt lat="49.74607" lon="5.30099">
        <ele>422.79998779297</ele>
        <time>2022-06-11T06:03:51.000Z</time>
      </trkpt>
      <trkpt lat="49.74594" lon="5.30105">
        <ele>423</ele>
        <time>2022-06-11T06:03:53.000Z</time>
      </trkpt>
      <trkpt lat="49.74582" lon="5.30111">
        <ele>423</ele>
        <time>2022-06-11T06:03:55.000Z</time>
      </trkpt>
      <trkpt lat="49.74576" lon="5.30115">
        <ele>423.20001220703</ele>
        <time>2022-06-11T06:03:56.000Z</time>
      </trkpt>
      <trkpt lat="49.7457" lon="5.3012">
        <ele>423</ele>
        <time>2022-06-11T06:03:57.000Z</time>
      </trkpt>
      <trkpt lat="49.74552" lon="5.30137">
        <ele>423.20001220703</ele>
        <time>2022-06-11T06:04:00.000Z</time>
      </trkpt>
      <trkpt lat="49.74547" lon="5.30144">
        <ele>423.79998779297</ele>
        <time>2022-06-11T06:04:01.000Z</time>
      </trkpt>
      <trkpt lat="49.74522" lon="5.30169">
        <ele>424.20001220703</ele>
        <time>2022-06-11T06:04:05.000Z</time>
      </trkpt>
      <trkpt lat="49.74511" lon="5.30179">
        <ele>424.60000610352</ele>
        <time>2022-06-11T06:04:07.000Z</time>
      </trkpt>
      <trkpt lat="49.74505" lon="5.30183">
        <ele>424.60000610352</ele>
        <time>2022-06-11T06:04:08.000Z</time>
      </trkpt>
      <trkpt lat="49.74489" lon="5.3019">
        <ele>423.79998779297</ele>
        <time>2022-06-11T06:04:11.000Z</time>
      </trkpt>
      <trkpt lat="49.74462" lon="5.30201">
        <ele>421.79998779297</ele>
        <time>2022-06-11T06:04:16.000Z</time>
      </trkpt>
      <trkpt lat="49.74434" lon="5.30217">
        <ele>418.79998779297</ele>
        <time>2022-06-11T06:04:21.000Z</time>
      </trkpt>
      <trkpt lat="49.74417" lon="5.30229">
        <ele>417.60000610352</ele>
        <time>2022-06-11T06:04:24.000Z</time>
      </trkpt>
      <trkpt lat="49.74413" lon="5.30234">
        <ele>417.20001220703</ele>
        <time>2022-06-11T06:04:25.000Z</time>
      </trkpt>
      <trkpt lat="49.74408" lon="5.30238">
        <ele>416.79998779297</ele>
        <time>2022-06-11T06:04:26.000Z</time>
      </trkpt>
      <trkpt lat="49.74394" lon="5.30245">
        <ele>416</ele>
        <time>2022-06-11T06:04:29.000Z</time>
      </trkpt>
      <trkpt lat="49.74389" lon="5.30247">
        <ele>415.79998779297</ele>
        <time>2022-06-11T06:04:30.000Z</time>
      </trkpt>
      <trkpt lat="49.74379" lon="5.30254">
        <ele>415.39999389648</ele>
        <time>2022-06-11T06:04:32.000Z</time>
      </trkpt>
      <trkpt lat="49.74368" lon="5.30262">
        <ele>415.60000610352</ele>
        <time>2022-06-11T06:04:34.000Z</time>
      </trkpt>
      <trkpt lat="49.74363" lon="5.30263">
        <ele>416</ele>
        <time>2022-06-11T06:04:35.000Z</time>
      </trkpt>
      <trkpt lat="49.74353" lon="5.30276">
        <ele>416.60000610352</ele>
        <time>2022-06-11T06:04:38.000Z</time>
      </trkpt>
      <trkpt lat="49.74338" lon="5.30296">
        <ele>417</ele>
        <time>2022-06-11T06:04:42.000Z</time>
      </trkpt>
      <trkpt lat="49.74334" lon="5.30302">
        <ele>417</ele>
        <time>2022-06-11T06:04:43.000Z</time>
      </trkpt>
      <trkpt lat="49.7433" lon="5.30308">
        <ele>417</ele>
        <time>2022-06-11T06:04:44.000Z</time>
      </trkpt>
      <trkpt lat="49.74323" lon="5.30314">
        <ele>416.79998779297</ele>
        <time>2022-06-11T06:04:46.000Z</time>
      </trkpt>
      <trkpt lat="49.74322" lon="5.30315">
        <ele>416.60000610352</ele>
        <time>2022-06-11T06:04:47.000Z</time>
      </trkpt>
      <trkpt lat="49.74309" lon="5.30335">
        <ele>414.79998779297</ele>
        <time>2022-06-11T06:04:59.000Z</time>
      </trkpt>
      <trkpt lat="49.74307" lon="5.30344">
        <ele>414.79998779297</ele>
        <time>2022-06-11T06:05:02.000Z</time>
      </trkpt>
      <trkpt lat="49.74303" lon="5.30347">
        <ele>414.60000610352</ele>
        <time>2022-06-11T06:05:03.000Z</time>
      </trkpt>
      <trkpt lat="49.74301" lon="5.3035">
        <ele>414.20001220703</ele>
        <time>2022-06-11T06:05:04.000Z</time>
      </trkpt>
      <trkpt lat="49.74296" lon="5.30356">
        <ele>413.20001220703</ele>
        <time>2022-06-11T06:05:06.000Z</time>
      </trkpt>
      <trkpt lat="49.74284" lon="5.30369">
        <ele>411.39999389648</ele>
        <time>2022-06-11T06:05:09.000Z</time>
      </trkpt>
      <trkpt lat="49.74281" lon="5.30373">
        <ele>411.20001220703</ele>
        <time>2022-06-11T06:05:10.000Z</time>
      </trkpt>
      <trkpt lat="49.74267" lon="5.30391">
        <ele>408.79998779297</ele>
        <time>2022-06-11T06:05:14.000Z</time>
      </trkpt>
      <trkpt lat="49.74263" lon="5.30397">
        <ele>408.20001220703</ele>
        <time>2022-06-11T06:05:15.000Z</time>
      </trkpt>
      <trkpt lat="49.7426" lon="5.30403">
        <ele>407.79998779297</ele>
        <time>2022-06-11T06:05:16.000Z</time>
      </trkpt>
      <trkpt lat="49.7425" lon="5.30418">
        <ele>406</ele>
        <time>2022-06-11T06:05:19.000Z</time>
      </trkpt>
      <trkpt lat="49.74245" lon="5.30424">
        <ele>405.39999389648</ele>
        <time>2022-06-11T06:05:20.000Z</time>
      </trkpt>
      <trkpt lat="49.74235" lon="5.30435">
        <ele>403.79998779297</ele>
        <time>2022-06-11T06:05:22.000Z</time>
      </trkpt>
      <trkpt lat="49.74229" lon="5.30441">
        <ele>403.20001220703</ele>
        <time>2022-06-11T06:05:23.000Z</time>
      </trkpt>
      <trkpt lat="49.74219" lon="5.30451">
        <ele>402</ele>
        <time>2022-06-11T06:05:25.000Z</time>
      </trkpt>
      <trkpt lat="49.74211" lon="5.30456">
        <ele>401</ele>
        <time>2022-06-11T06:05:26.000Z</time>
      </trkpt>
      <trkpt lat="49.74196" lon="5.30462">
        <ele>399.20001220703</ele>
        <time>2022-06-11T06:05:28.000Z</time>
      </trkpt>
      <trkpt lat="49.74191" lon="5.30463">
        <ele>398.79998779297</ele>
        <time>2022-06-11T06:05:29.000Z</time>
      </trkpt>
      <trkpt lat="49.74186" lon="5.30464">
        <ele>398.20001220703</ele>
        <time>2022-06-11T06:05:30.000Z</time>
      </trkpt>
      <trkpt lat="49.7418" lon="5.30466">
        <ele>397.79998779297</ele>
        <time>2022-06-11T06:05:31.000Z</time>
      </trkpt>
      <trkpt lat="49.74165" lon="5.30472">
        <ele>397.20001220703</ele>
        <time>2022-06-11T06:05:34.000Z</time>
      </trkpt>
      <trkpt lat="49.7416" lon="5.30474">
        <ele>397.20001220703</ele>
        <time>2022-06-11T06:05:35.000Z</time>
      </trkpt>
      <trkpt lat="49.74155" lon="5.30474">
        <ele>397.20001220703</ele>
        <time>2022-06-11T06:05:36.000Z</time>
      </trkpt>
      <trkpt lat="49.74146" lon="5.30479">
        <ele>397</ele>
        <time>2022-06-11T06:05:38.000Z</time>
      </trkpt>
      <trkpt lat="49.74137" lon="5.30485">
        <ele>397</ele>
        <time>2022-06-11T06:05:40.000Z</time>
      </trkpt>
      <trkpt lat="49.74132" lon="5.3049">
        <ele>397.39999389648</ele>
        <time>2022-06-11T06:05:41.000Z</time>
      </trkpt>
      <trkpt lat="49.74127" lon="5.30493">
        <ele>397.60000610352</ele>
        <time>2022-06-11T06:05:42.000Z</time>
      </trkpt>
      <trkpt lat="49.74118" lon="5.30499">
        <ele>398</ele>
        <time>2022-06-11T06:05:44.000Z</time>
      </trkpt>
      <trkpt lat="49.74107" lon="5.30501">
        <ele>398.39999389648</ele>
        <time>2022-06-11T06:05:47.000Z</time>
      </trkpt>
      <trkpt lat="49.741" lon="5.305">
        <ele>398.60000610352</ele>
        <time>2022-06-11T06:05:49.000Z</time>
      </trkpt>
      <trkpt lat="49.74089" lon="5.30498">
        <ele>399.20001220703</ele>
        <time>2022-06-11T06:05:51.000Z</time>
      </trkpt>
      <trkpt lat="49.74076" lon="5.30497">
        <ele>399.60000610352</ele>
        <time>2022-06-11T06:05:54.000Z</time>
      </trkpt>
      <trkpt lat="49.74066" lon="5.30497">
        <ele>400</ele>
        <time>2022-06-11T06:05:56.000Z</time>
      </trkpt>
      <trkpt lat="49.74057" lon="5.30497">
        <ele>400</ele>
        <time>2022-06-11T06:05:58.000Z</time>
      </trkpt>
      <trkpt lat="49.7403" lon="5.30495">
        <ele>398.60000610352</ele>
        <time>2022-06-11T06:06:03.000Z</time>
      </trkpt>
      <trkpt lat="49.7401" lon="5.30497">
        <ele>396.60000610352</ele>
        <time>2022-06-11T06:06:06.000Z</time>
      </trkpt>
      <trkpt lat="49.74003" lon="5.305">
        <ele>395.79998779297</ele>
        <time>2022-06-11T06:06:07.000Z</time>
      </trkpt>
      <trkpt lat="49.73988" lon="5.30504">
        <ele>394</ele>
        <time>2022-06-11T06:06:09.000Z</time>
      </trkpt>
      <trkpt lat="49.73972" lon="5.30508">
        <ele>392.60000610352</ele>
        <time>2022-06-11T06:06:11.000Z</time>
      </trkpt>
      <trkpt lat="49.73964" lon="5.30511">
        <ele>392</ele>
        <time>2022-06-11T06:06:12.000Z</time>
      </trkpt>
      <trkpt lat="49.73957" lon="5.30513">
        <ele>391.20001220703</ele>
        <time>2022-06-11T06:06:13.000Z</time>
      </trkpt>
      <trkpt lat="49.73949" lon="5.30513">
        <ele>390</ele>
        <time>2022-06-11T06:06:14.000Z</time>
      </trkpt>
      <trkpt lat="49.73942" lon="5.30512">
        <ele>388.20001220703</ele>
        <time>2022-06-11T06:06:15.000Z</time>
      </trkpt>
      <trkpt lat="49.73935" lon="5.30512">
        <ele>387</ele>
        <time>2022-06-11T06:06:16.000Z</time>
      </trkpt>
      <trkpt lat="49.73922" lon="5.30514">
        <ele>384.79998779297</ele>
        <time>2022-06-11T06:06:18.000Z</time>
      </trkpt>
      <trkpt lat="49.73902" lon="5.30522">
        <ele>381.39999389648</ele>
        <time>2022-06-11T06:06:21.000Z</time>
      </trkpt>
      <trkpt lat="49.73895" lon="5.30526">
        <ele>380.39999389648</ele>
        <time>2022-06-11T06:06:22.000Z</time>
      </trkpt>
      <trkpt lat="49.73883" lon="5.30536">
        <ele>380.60000610352</ele>
        <time>2022-06-11T06:06:24.000Z</time>
      </trkpt>
      <trkpt lat="49.73871" lon="5.30544">
        <ele>380.60000610352</ele>
        <time>2022-06-11T06:06:26.000Z</time>
      </trkpt>
      <trkpt lat="49.73866" lon="5.30548">
        <ele>380.60000610352</ele>
        <time>2022-06-11T06:06:27.000Z</time>
      </trkpt>
      <trkpt lat="49.73861" lon="5.3055">
        <ele>380.39999389648</ele>
        <time>2022-06-11T06:06:28.000Z</time>
      </trkpt>
      <trkpt lat="49.73842" lon="5.30557">
        <ele>379.20001220703</ele>
        <time>2022-06-11T06:06:31.000Z</time>
      </trkpt>
      <trkpt lat="49.73815" lon="5.30569">
        <ele>378</ele>
        <time>2022-06-11T06:06:35.000Z</time>
      </trkpt>
      <trkpt lat="49.73801" lon="5.30578">
        <ele>377.79998779297</ele>
        <time>2022-06-11T06:06:37.000Z</time>
      </trkpt>
      <trkpt lat="49.73795" lon="5.30584">
        <ele>377.60000610352</ele>
        <time>2022-06-11T06:06:38.000Z</time>
      </trkpt>
      <trkpt lat="49.73782" lon="5.30595">
        <ele>376.60000610352</ele>
        <time>2022-06-11T06:06:40.000Z</time>
      </trkpt>
      <trkpt lat="49.73774" lon="5.30599">
        <ele>375.39999389648</ele>
        <time>2022-06-11T06:06:41.000Z</time>
      </trkpt>
      <trkpt lat="49.73752" lon="5.30607">
        <ele>372.20001220703</ele>
        <time>2022-06-11T06:06:44.000Z</time>
      </trkpt>
      <trkpt lat="49.73746" lon="5.30612">
        <ele>371.60000610352</ele>
        <time>2022-06-11T06:06:45.000Z</time>
      </trkpt>
      <trkpt lat="49.7374" lon="5.30617">
        <ele>371.20001220703</ele>
        <time>2022-06-11T06:06:46.000Z</time>
      </trkpt>
      <trkpt lat="49.73734" lon="5.30621">
        <ele>371</ele>
        <time>2022-06-11T06:06:47.000Z</time>
      </trkpt>
      <trkpt lat="49.73719" lon="5.30627">
        <ele>369.39999389648</ele>
        <time>2022-06-11T06:06:49.000Z</time>
      </trkpt>
      <trkpt lat="49.73711" lon="5.3063">
        <ele>369.20001220703</ele>
        <time>2022-06-11T06:06:50.000Z</time>
      </trkpt>
      <trkpt lat="49.73704" lon="5.30633">
        <ele>369</ele>
        <time>2022-06-11T06:06:51.000Z</time>
      </trkpt>
      <trkpt lat="49.73688" lon="5.30638">
        <ele>369.20001220703</ele>
        <time>2022-06-11T06:06:53.000Z</time>
      </trkpt>
      <trkpt lat="49.73672" lon="5.30643">
        <ele>369.60000610352</ele>
        <time>2022-06-11T06:06:55.000Z</time>
      </trkpt>
      <trkpt lat="49.73664" lon="5.30646">
        <ele>369.60000610352</ele>
        <time>2022-06-11T06:06:56.000Z</time>
      </trkpt>
      <trkpt lat="49.73657" lon="5.30647">
        <ele>369.39999389648</ele>
        <time>2022-06-11T06:06:57.000Z</time>
      </trkpt>
      <trkpt lat="49.73628" lon="5.30662">
        <ele>370.79998779297</ele>
        <time>2022-06-11T06:07:01.000Z</time>
      </trkpt>
      <trkpt lat="49.73622" lon="5.30668">
        <ele>371.60000610352</ele>
        <time>2022-06-11T06:07:02.000Z</time>
      </trkpt>
      <trkpt lat="49.7361" lon="5.30691">
        <ele>374.39999389648</ele>
        <time>2022-06-11T06:07:05.000Z</time>
      </trkpt>
      <trkpt lat="49.73606" lon="5.30699">
        <ele>374.79998779297</ele>
        <time>2022-06-11T06:07:06.000Z</time>
      </trkpt>
      <trkpt lat="49.73592" lon="5.30729">
        <ele>378</ele>
        <time>2022-06-11T06:07:11.000Z</time>
      </trkpt>
      <trkpt lat="49.73587" lon="5.30742">
        <ele>378.39999389648</ele>
        <time>2022-06-11T06:07:14.000Z</time>
      </trkpt>
      <trkpt lat="49.73583" lon="5.30751">
        <ele>378.60000610352</ele>
        <time>2022-06-11T06:07:16.000Z</time>
      </trkpt>
      <trkpt lat="49.73576" lon="5.30765">
        <ele>378.20001220703</ele>
        <time>2022-06-11T06:07:19.000Z</time>
      </trkpt>
      <trkpt lat="49.73569" lon="5.3078">
        <ele>377.79998779297</ele>
        <time>2022-06-11T06:07:22.000Z</time>
      </trkpt>
      <trkpt lat="49.73561" lon="5.308">
        <ele>379</ele>
        <time>2022-06-11T06:07:25.000Z</time>
      </trkpt>
      <trkpt lat="49.73552" lon="5.30821">
        <ele>380.60000610352</ele>
        <time>2022-06-11T06:07:29.000Z</time>
      </trkpt>
      <trkpt lat="49.7355" lon="5.30826">
        <ele>381.20001220703</ele>
        <time>2022-06-11T06:07:30.000Z</time>
      </trkpt>
      <trkpt lat="49.73548" lon="5.30833">
        <ele>381.79998779297</ele>
        <time>2022-06-11T06:07:32.000Z</time>
      </trkpt>
      <trkpt lat="49.73548" lon="5.30836">
        <ele>382.20001220703</ele>
        <time>2022-06-11T06:07:33.000Z</time>
      </trkpt>
      <trkpt lat="49.73548" lon="5.3084">
        <ele>382.39999389648</ele>
        <time>2022-06-11T06:07:34.000Z</time>
      </trkpt>
      <trkpt lat="49.73552" lon="5.30846">
        <ele>382.60000610352</ele>
        <time>2022-06-11T06:07:37.000Z</time>
      </trkpt>
      <trkpt lat="49.73554" lon="5.30847">
        <ele>382.60000610352</ele>
        <time>2022-06-11T06:07:38.000Z</time>
      </trkpt>
      <trkpt lat="49.73565" lon="5.30859">
        <ele>383.20001220703</ele>
        <time>2022-06-11T06:07:42.000Z</time>
      </trkpt>
      <trkpt lat="49.73568" lon="5.30864">
        <ele>383.60000610352</ele>
        <time>2022-06-11T06:07:43.000Z</time>
      </trkpt>
      <trkpt lat="49.73576" lon="5.30892">
        <ele>386</ele>
        <time>2022-06-11T06:07:48.000Z</time>
      </trkpt>
      <trkpt lat="49.7358" lon="5.30917">
        <ele>388.60000610352</ele>
        <time>2022-06-11T06:07:52.000Z</time>
      </trkpt>
      <trkpt lat="49.73582" lon="5.30924">
        <ele>389.39999389648</ele>
        <time>2022-06-11T06:07:53.000Z</time>
      </trkpt>
      <trkpt lat="49.73584" lon="5.30945">
        <ele>391.20001220703</ele>
        <time>2022-06-11T06:07:56.000Z</time>
      </trkpt>
      <trkpt lat="49.73584" lon="5.30952">
        <ele>391.60000610352</ele>
        <time>2022-06-11T06:07:57.000Z</time>
      </trkpt>
      <trkpt lat="49.73582" lon="5.30969">
        <ele>393</ele>
        <time>2022-06-11T06:08:00.000Z</time>
      </trkpt>
      <trkpt lat="49.73581" lon="5.3098">
        <ele>393.60000610352</ele>
        <time>2022-06-11T06:08:02.000Z</time>
      </trkpt>
      <trkpt lat="49.73581" lon="5.30997">
        <ele>394.39999389648</ele>
        <time>2022-06-11T06:08:05.000Z</time>
      </trkpt>
      <trkpt lat="49.73579" lon="5.31009">
        <ele>394.20001220703</ele>
        <time>2022-06-11T06:08:07.000Z</time>
      </trkpt>
      <trkpt lat="49.73578" lon="5.31024">
        <ele>394.20001220703</ele>
        <time>2022-06-11T06:08:10.000Z</time>
      </trkpt>
      <trkpt lat="49.73579" lon="5.31028">
        <ele>394.20001220703</ele>
        <time>2022-06-11T06:08:11.000Z</time>
      </trkpt>
      <trkpt lat="49.73588" lon="5.31041">
        <ele>394.79998779297</ele>
        <time>2022-06-11T06:08:15.000Z</time>
      </trkpt>
      <trkpt lat="49.73592" lon="5.3104">
        <ele>395</ele>
        <time>2022-06-11T06:08:16.000Z</time>
      </trkpt>
      <trkpt lat="49.736" lon="5.31039">
        <ele>394.60000610352</ele>
        <time>2022-06-11T06:08:18.000Z</time>
      </trkpt>
      <trkpt lat="49.7361" lon="5.31036">
        <ele>394.20001220703</ele>
        <time>2022-06-11T06:08:20.000Z</time>
      </trkpt>
      <trkpt lat="49.73634" lon="5.31014">
        <ele>391.39999389648</ele>
        <time>2022-06-11T06:08:27.000Z</time>
      </trkpt>
      <trkpt lat="49.73636" lon="5.31009">
        <ele>390.79998779297</ele>
        <time>2022-06-11T06:08:28.000Z</time>
      </trkpt>
      <trkpt lat="49.73645" lon="5.30992">
        <ele>389</ele>
        <time>2022-06-11T06:08:31.000Z</time>
      </trkpt>
      <trkpt lat="49.73648" lon="5.30985">
        <ele>388.79998779297</ele>
        <time>2022-06-11T06:08:32.000Z</time>
      </trkpt>
      <trkpt lat="49.73661" lon="5.30965">
        <ele>387.79998779297</ele>
        <time>2022-06-11T06:08:35.000Z</time>
      </trkpt>
      <trkpt lat="49.73666" lon="5.30959">
        <ele>387.20001220703</ele>
        <time>2022-06-11T06:08:36.000Z</time>
      </trkpt>
      <trkpt lat="49.73671" lon="5.30953">
        <ele>387.39999389648</ele>
        <time>2022-06-11T06:08:37.000Z</time>
      </trkpt>
      <trkpt lat="49.73688" lon="5.30934">
        <ele>385.20001220703</ele>
        <time>2022-06-11T06:08:40.000Z</time>
      </trkpt>
      <trkpt lat="49.73705" lon="5.30914">
        <ele>383.79998779297</ele>
        <time>2022-06-11T06:08:43.000Z</time>
      </trkpt>
      <trkpt lat="49.73709" lon="5.30907">
        <ele>382.79998779297</ele>
        <time>2022-06-11T06:08:44.000Z</time>
      </trkpt>
      <trkpt lat="49.73724" lon="5.30887">
        <ele>380.39999389648</ele>
        <time>2022-06-11T06:08:47.000Z</time>
      </trkpt>
      <trkpt lat="49.73729" lon="5.3088">
        <ele>380.20001220703</ele>
        <time>2022-06-11T06:08:48.000Z</time>
      </trkpt>
      <trkpt lat="49.73753" lon="5.30854">
        <ele>380.20001220703</ele>
        <time>2022-06-11T06:08:52.000Z</time>
      </trkpt>
      <trkpt lat="49.7376" lon="5.30849">
        <ele>380.20001220703</ele>
        <time>2022-06-11T06:08:53.000Z</time>
      </trkpt>
      <trkpt lat="49.73791" lon="5.30825">
        <ele>380.20001220703</ele>
        <time>2022-06-11T06:08:59.000Z</time>
      </trkpt>
      <trkpt lat="49.73801" lon="5.3082">
        <ele>380.60000610352</ele>
        <time>2022-06-11T06:09:01.000Z</time>
      </trkpt>
      <trkpt lat="49.73806" lon="5.30819">
        <ele>380.60000610352</ele>
        <time>2022-06-11T06:09:02.000Z</time>
      </trkpt>
      <trkpt lat="49.73818" lon="5.30816">
        <ele>381</ele>
        <time>2022-06-11T06:09:04.000Z</time>
      </trkpt>
      <trkpt lat="49.73828" lon="5.30812">
        <ele>381.79998779297</ele>
        <time>2022-06-11T06:09:06.000Z</time>
      </trkpt>
      <trkpt lat="49.73845" lon="5.30801">
        <ele>383.79998779297</ele>
        <time>2022-06-11T06:09:10.000Z</time>
      </trkpt>
      <trkpt lat="49.73849" lon="5.308">
        <ele>383.60000610352</ele>
        <time>2022-06-11T06:09:11.000Z</time>
      </trkpt>
      <trkpt lat="49.73854" lon="5.308">
        <ele>383.39999389648</ele>
        <time>2022-06-11T06:09:12.000Z</time>
      </trkpt>
      <trkpt lat="49.73864" lon="5.30801">
        <ele>383.20001220703</ele>
        <time>2022-06-11T06:09:14.000Z</time>
      </trkpt>
      <trkpt lat="49.7388" lon="5.308">
        <ele>383</ele>
        <time>2022-06-11T06:09:18.000Z</time>
      </trkpt>
      <trkpt lat="49.73887" lon="5.30799">
        <ele>383.20001220703</ele>
        <time>2022-06-11T06:09:20.000Z</time>
      </trkpt>
      <trkpt lat="49.73894" lon="5.30797">
        <ele>383.39999389648</ele>
        <time>2022-06-11T06:09:23.000Z</time>
      </trkpt>
      <trkpt lat="49.73903" lon="5.30797">
        <ele>384.39999389648</ele>
        <time>2022-06-11T06:09:26.000Z</time>
      </trkpt>
      <trkpt lat="49.73908" lon="5.30796">
        <ele>385</ele>
        <time>2022-06-11T06:09:28.000Z</time>
      </trkpt>
      <trkpt lat="49.73919" lon="5.30796">
        <ele>386.20001220703</ele>
        <time>2022-06-11T06:09:32.000Z</time>
      </trkpt>
      <trkpt lat="49.73933" lon="5.30795">
        <ele>387.79998779297</ele>
        <time>2022-06-11T06:09:38.000Z</time>
      </trkpt>
      <trkpt lat="49.73942" lon="5.30796">
        <ele>388.60000610352</ele>
        <time>2022-06-11T06:09:42.000Z</time>
      </trkpt>
      <trkpt lat="49.73949" lon="5.30796">
        <ele>389.39999389648</ele>
        <time>2022-06-11T06:09:44.000Z</time>
      </trkpt>
      <trkpt lat="49.73955" lon="5.30794">
        <ele>390.60000610352</ele>
        <time>2022-06-11T06:09:46.000Z</time>
      </trkpt>
      <trkpt lat="49.73966" lon="5.30792">
        <ele>392.39999389648</ele>
        <time>2022-06-11T06:09:50.000Z</time>
      </trkpt>
      <trkpt lat="49.73977" lon="5.30788">
        <ele>393.60000610352</ele>
        <time>2022-06-11T06:09:54.000Z</time>
      </trkpt>
      <trkpt lat="49.73982" lon="5.30785">
        <ele>394.60000610352</ele>
        <time>2022-06-11T06:09:56.000Z</time>
      </trkpt>
      <trkpt lat="49.73985" lon="5.30784">
        <ele>395.20001220703</ele>
        <time>2022-06-11T06:09:57.000Z</time>
      </trkpt>
      <trkpt lat="49.73995" lon="5.30785">
        <ele>396.39999389648</ele>
        <time>2022-06-11T06:10:01.000Z</time>
      </trkpt>
      <trkpt lat="49.74002" lon="5.30788">
        <ele>396.79998779297</ele>
        <time>2022-06-11T06:10:03.000Z</time>
      </trkpt>
      <trkpt lat="49.74011" lon="5.3079">
        <ele>397.60000610352</ele>
        <time>2022-06-11T06:10:05.000Z</time>
      </trkpt>
      <trkpt lat="49.74041" lon="5.30798">
        <ele>398.20001220703</ele>
        <time>2022-06-11T06:10:12.000Z</time>
      </trkpt>
      <trkpt lat="49.74058" lon="5.30802">
        <ele>395.20001220703</ele>
        <time>2022-06-11T06:10:16.000Z</time>
      </trkpt>
      <trkpt lat="49.74063" lon="5.30803">
        <ele>394.39999389648</ele>
        <time>2022-06-11T06:10:17.000Z</time>
      </trkpt>
      <trkpt lat="49.74072" lon="5.30809">
        <ele>393.60000610352</ele>
        <time>2022-06-11T06:10:20.000Z</time>
      </trkpt>
      <trkpt lat="49.74081" lon="5.30816">
        <ele>392.39999389648</ele>
        <time>2022-06-11T06:10:23.000Z</time>
      </trkpt>
      <trkpt lat="49.74098" lon="5.30829">
        <ele>392.39999389648</ele>
        <time>2022-06-11T06:10:28.000Z</time>
      </trkpt>
      <trkpt lat="49.74111" lon="5.30847">
        <ele>392.60000610352</ele>
        <time>2022-06-11T06:10:32.000Z</time>
      </trkpt>
      <trkpt lat="49.74122" lon="5.30866">
        <ele>392</ele>
        <time>2022-06-11T06:10:35.000Z</time>
      </trkpt>
      <trkpt lat="49.74126" lon="5.30871">
        <ele>391.79998779297</ele>
        <time>2022-06-11T06:10:36.000Z</time>
      </trkpt>
      <trkpt lat="49.74135" lon="5.30889">
        <ele>391</ele>
        <time>2022-06-11T06:10:40.000Z</time>
      </trkpt>
      <trkpt lat="49.74143" lon="5.309">
        <ele>391.39999389648</ele>
        <time>2022-06-11T06:10:44.000Z</time>
      </trkpt>
      <trkpt lat="49.74144" lon="5.30902">
        <ele>391.20001220703</ele>
        <time>2022-06-11T06:10:45.000Z</time>
      </trkpt>
      <trkpt lat="49.74153" lon="5.3091">
        <ele>392.60000610352</ele>
        <time>2022-06-11T06:10:49.000Z</time>
      </trkpt>
      <trkpt lat="49.74156" lon="5.30912">
        <ele>393</ele>
        <time>2022-06-11T06:10:50.000Z</time>
      </trkpt>
      <trkpt lat="49.74158" lon="5.30924">
        <ele>390.79998779297</ele>
        <time>2022-06-11T06:10:54.000Z</time>
      </trkpt>
      <trkpt lat="49.74163" lon="5.30933">
        <ele>390.20001220703</ele>
        <time>2022-06-11T06:10:58.000Z</time>
      </trkpt>
      <trkpt lat="49.74171" lon="5.30944">
        <ele>390.39999389648</ele>
        <time>2022-06-11T06:11:02.000Z</time>
      </trkpt>
      <trkpt lat="49.74181" lon="5.30956">
        <ele>391</ele>
        <time>2022-06-11T06:11:07.000Z</time>
      </trkpt>
      <trkpt lat="49.74191" lon="5.30978">
        <ele>389.20001220703</ele>
        <time>2022-06-11T06:11:13.000Z</time>
      </trkpt>
      <trkpt lat="49.74196" lon="5.30983">
        <ele>389.39999389648</ele>
        <time>2022-06-11T06:11:15.000Z</time>
      </trkpt>
      <trkpt lat="49.74202" lon="5.30997">
        <ele>387.79998779297</ele>
        <time>2022-06-11T06:11:19.000Z</time>
      </trkpt>
      <trkpt lat="49.74212" lon="5.31014">
        <ele>387.39999389648</ele>
        <time>2022-06-11T06:11:24.000Z</time>
      </trkpt>
      <trkpt lat="49.74214" lon="5.31015">
        <ele>387.79998779297</ele>
        <time>2022-06-11T06:11:25.000Z</time>
      </trkpt>
      <trkpt lat="49.7422" lon="5.31019">
        <ele>389</ele>
        <time>2022-06-11T06:11:27.000Z</time>
      </trkpt>
      <trkpt lat="49.74221" lon="5.31021">
        <ele>388.79998779297</ele>
        <time>2022-06-11T06:11:28.000Z</time>
      </trkpt>
      <trkpt lat="49.74227" lon="5.31032">
        <ele>389</ele>
        <time>2022-06-11T06:11:31.000Z</time>
      </trkpt>
      <trkpt lat="49.74234" lon="5.3104">
        <ele>390.60000610352</ele>
        <time>2022-06-11T06:11:34.000Z</time>
      </trkpt>
      <trkpt lat="49.74236" lon="5.31043">
        <ele>391</ele>
        <time>2022-06-11T06:11:35.000Z</time>
      </trkpt>
      <trkpt lat="49.74242" lon="5.31055">
        <ele>392.20001220703</ele>
        <time>2022-06-11T06:11:38.000Z</time>
      </trkpt>
      <trkpt lat="49.74245" lon="5.31059">
        <ele>392.79998779297</ele>
        <time>2022-06-11T06:11:39.000Z</time>
      </trkpt>
      <trkpt lat="49.74253" lon="5.31076">
        <ele>394.79998779297</ele>
        <time>2022-06-11T06:11:43.000Z</time>
      </trkpt>
      <trkpt lat="49.74256" lon="5.31083">
        <ele>395.39999389648</ele>
        <time>2022-06-11T06:11:45.000Z</time>
      </trkpt>
      <trkpt lat="49.74258" lon="5.31087">
        <ele>396</ele>
        <time>2022-06-11T06:11:46.000Z</time>
      </trkpt>
      <trkpt lat="49.74265" lon="5.31102">
        <ele>397.20001220703</ele>
        <time>2022-06-11T06:11:49.000Z</time>
      </trkpt>
      <trkpt lat="49.74276" lon="5.31117">
        <ele>399.39999389648</ele>
        <time>2022-06-11T06:11:53.000Z</time>
      </trkpt>
      <trkpt lat="49.74278" lon="5.3112">
        <ele>400</ele>
        <time>2022-06-11T06:11:54.000Z</time>
      </trkpt>
      <trkpt lat="49.74287" lon="5.31136">
        <ele>401.20001220703</ele>
        <time>2022-06-11T06:11:58.000Z</time>
      </trkpt>
      <trkpt lat="49.74289" lon="5.31141">
        <ele>401.20001220703</ele>
        <time>2022-06-11T06:11:59.000Z</time>
      </trkpt>
      <trkpt lat="49.74298" lon="5.31169">
        <ele>402</ele>
        <time>2022-06-11T06:12:03.000Z</time>
      </trkpt>
      <trkpt lat="49.74299" lon="5.31184">
        <ele>402</ele>
        <time>2022-06-11T06:12:05.000Z</time>
      </trkpt>
      <trkpt lat="49.74309" lon="5.31205">
        <ele>405.60000610352</ele>
        <time>2022-06-11T06:12:08.000Z</time>
      </trkpt>
      <trkpt lat="49.74317" lon="5.31218">
        <ele>407.79998779297</ele>
        <time>2022-06-11T06:12:10.000Z</time>
      </trkpt>
      <trkpt lat="49.7433" lon="5.31248">
        <ele>408.60000610352</ele>
        <time>2022-06-11T06:12:14.000Z</time>
      </trkpt>
      <trkpt lat="49.74336" lon="5.31278">
        <ele>408.79998779297</ele>
        <time>2022-06-11T06:12:18.000Z</time>
      </trkpt>
      <trkpt lat="49.74338" lon="5.31294">
        <ele>408.20001220703</ele>
        <time>2022-06-11T06:12:20.000Z</time>
      </trkpt>
      <trkpt lat="49.74341" lon="5.31302">
        <ele>408.20001220703</ele>
        <time>2022-06-11T06:12:21.000Z</time>
      </trkpt>
      <trkpt lat="49.74344" lon="5.31324">
        <ele>408.60000610352</ele>
        <time>2022-06-11T06:12:24.000Z</time>
      </trkpt>
      <trkpt lat="49.74343" lon="5.31333">
        <ele>408.39999389648</ele>
        <time>2022-06-11T06:12:25.000Z</time>
      </trkpt>
      <trkpt lat="49.7434" lon="5.31361">
        <ele>407</ele>
        <time>2022-06-11T06:12:28.000Z</time>
      </trkpt>
      <trkpt lat="49.74337" lon="5.31379">
        <ele>405.20001220703</ele>
        <time>2022-06-11T06:12:30.000Z</time>
      </trkpt>
      <trkpt lat="49.74333" lon="5.31399">
        <ele>403.60000610352</ele>
        <time>2022-06-11T06:12:32.000Z</time>
      </trkpt>
      <trkpt lat="49.74329" lon="5.3142">
        <ele>401.60000610352</ele>
        <time>2022-06-11T06:12:34.000Z</time>
      </trkpt>
      <trkpt lat="49.74328" lon="5.31448">
        <ele>400</ele>
        <time>2022-06-11T06:12:36.000Z</time>
      </trkpt>
      <trkpt lat="49.74327" lon="5.3146">
        <ele>400</ele>
        <time>2022-06-11T06:12:37.000Z</time>
      </trkpt>
      <trkpt lat="49.74328" lon="5.31473">
        <ele>400.39999389648</ele>
        <time>2022-06-11T06:12:38.000Z</time>
      </trkpt>
      <trkpt lat="49.74331" lon="5.31499">
        <ele>400.79998779297</ele>
        <time>2022-06-11T06:12:40.000Z</time>
      </trkpt>
      <trkpt lat="49.74333" lon="5.31511">
        <ele>401.60000610352</ele>
        <time>2022-06-11T06:12:41.000Z</time>
      </trkpt>
      <trkpt lat="49.74341" lon="5.31561">
        <ele>402.39999389648</ele>
        <time>2022-06-11T06:12:46.000Z</time>
      </trkpt>
      <trkpt lat="49.74351" lon="5.31605">
        <ele>402.39999389648</ele>
        <time>2022-06-11T06:12:51.000Z</time>
      </trkpt>
      <trkpt lat="49.74362" lon="5.31648">
        <ele>402.60000610352</ele>
        <time>2022-06-11T06:12:56.000Z</time>
      </trkpt>
      <trkpt lat="49.74365" lon="5.31655">
        <ele>402.60000610352</ele>
        <time>2022-06-11T06:12:57.000Z</time>
      </trkpt>
      <trkpt lat="49.7437" lon="5.31672">
        <ele>402</ele>
        <time>2022-06-11T06:12:59.000Z</time>
      </trkpt>
      <trkpt lat="49.74373" lon="5.31681">
        <ele>401.60000610352</ele>
        <time>2022-06-11T06:13:00.000Z</time>
      </trkpt>
      <trkpt lat="49.74387" lon="5.31721">
        <ele>398.60000610352</ele>
        <time>2022-06-11T06:13:04.000Z</time>
      </trkpt>
      <trkpt lat="49.74392" lon="5.31738">
        <ele>397.39999389648</ele>
        <time>2022-06-11T06:13:06.000Z</time>
      </trkpt>
      <trkpt lat="49.74394" lon="5.31748">
        <ele>396.20001220703</ele>
        <time>2022-06-11T06:13:07.000Z</time>
      </trkpt>
      <trkpt lat="49.74394" lon="5.31771">
        <ele>393.60000610352</ele>
        <time>2022-06-11T06:13:09.000Z</time>
      </trkpt>
      <trkpt lat="49.74393" lon="5.31793">
        <ele>388</ele>
        <time>2022-06-11T06:13:11.000Z</time>
      </trkpt>
      <trkpt lat="49.74394" lon="5.31812">
        <ele>384.39999389648</ele>
        <time>2022-06-11T06:13:13.000Z</time>
      </trkpt>
      <trkpt lat="49.74393" lon="5.31822">
        <ele>382.39999389648</ele>
        <time>2022-06-11T06:13:14.000Z</time>
      </trkpt>
      <trkpt lat="49.74393" lon="5.31833">
        <ele>380.20001220703</ele>
        <time>2022-06-11T06:13:15.000Z</time>
      </trkpt>
      <trkpt lat="49.74394" lon="5.31851">
        <ele>376.60000610352</ele>
        <time>2022-06-11T06:13:17.000Z</time>
      </trkpt>
      <trkpt lat="49.74393" lon="5.31863">
        <ele>373.20001220703</ele>
        <time>2022-06-11T06:13:18.000Z</time>
      </trkpt>
      <trkpt lat="49.74394" lon="5.31873">
        <ele>371.79998779297</ele>
        <time>2022-06-11T06:13:19.000Z</time>
      </trkpt>
      <trkpt lat="49.74395" lon="5.31881">
        <ele>370.20001220703</ele>
        <time>2022-06-11T06:13:20.000Z</time>
      </trkpt>
      <trkpt lat="49.74397" lon="5.31889">
        <ele>369.39999389648</ele>
        <time>2022-06-11T06:13:21.000Z</time>
      </trkpt>
      <trkpt lat="49.74399" lon="5.31896">
        <ele>369.20001220703</ele>
        <time>2022-06-11T06:13:22.000Z</time>
      </trkpt>
      <trkpt lat="49.74401" lon="5.31907">
        <ele>367.39999389648</ele>
        <time>2022-06-11T06:13:23.000Z</time>
      </trkpt>
      <trkpt lat="49.74401" lon="5.31916">
        <ele>365.20001220703</ele>
        <time>2022-06-11T06:13:24.000Z</time>
      </trkpt>
      <trkpt lat="49.74402" lon="5.31927">
        <ele>362.60000610352</ele>
        <time>2022-06-11T06:13:25.000Z</time>
      </trkpt>
      <trkpt lat="49.74402" lon="5.3195">
        <ele>357.20001220703</ele>
        <time>2022-06-11T06:13:27.000Z</time>
      </trkpt>
      <trkpt lat="49.74403" lon="5.31961">
        <ele>354.39999389648</ele>
        <time>2022-06-11T06:13:28.000Z</time>
      </trkpt>
      <trkpt lat="49.74405" lon="5.31972">
        <ele>352</ele>
        <time>2022-06-11T06:13:29.000Z</time>
      </trkpt>
      <trkpt lat="49.74407" lon="5.31984">
        <ele>350.60000610352</ele>
        <time>2022-06-11T06:13:30.000Z</time>
      </trkpt>
      <trkpt lat="49.7441" lon="5.31995">
        <ele>349.39999389648</ele>
        <time>2022-06-11T06:13:31.000Z</time>
      </trkpt>
      <trkpt lat="49.74412" lon="5.32007">
        <ele>347.79998779297</ele>
        <time>2022-06-11T06:13:32.000Z</time>
      </trkpt>
      <trkpt lat="49.74413" lon="5.32019">
        <ele>346</ele>
        <time>2022-06-11T06:13:33.000Z</time>
      </trkpt>
      <trkpt lat="49.74415" lon="5.32031">
        <ele>344.60000610352</ele>
        <time>2022-06-11T06:13:34.000Z</time>
      </trkpt>
      <trkpt lat="49.74416" lon="5.32043">
        <ele>342.79998779297</ele>
        <time>2022-06-11T06:13:35.000Z</time>
      </trkpt>
      <trkpt lat="49.74418" lon="5.32054">
        <ele>342</ele>
        <time>2022-06-11T06:13:36.000Z</time>
      </trkpt>
      <trkpt lat="49.74418" lon="5.32065">
        <ele>341.20001220703</ele>
        <time>2022-06-11T06:13:37.000Z</time>
      </trkpt>
      <trkpt lat="49.74418" lon="5.32075">
        <ele>340.39999389648</ele>
        <time>2022-06-11T06:13:38.000Z</time>
      </trkpt>
      <trkpt lat="49.74418" lon="5.32085">
        <ele>339.79998779297</ele>
        <time>2022-06-11T06:13:39.000Z</time>
      </trkpt>
      <trkpt lat="49.74417" lon="5.32093">
        <ele>339.20001220703</ele>
        <time>2022-06-11T06:13:40.000Z</time>
      </trkpt>
      <trkpt lat="49.74417" lon="5.32102">
        <ele>338.60000610352</ele>
        <time>2022-06-11T06:13:41.000Z</time>
      </trkpt>
      <trkpt lat="49.74416" lon="5.3211">
        <ele>338.39999389648</ele>
        <time>2022-06-11T06:13:42.000Z</time>
      </trkpt>
      <trkpt lat="49.74416" lon="5.32118">
        <ele>338</ele>
        <time>2022-06-11T06:13:43.000Z</time>
      </trkpt>
      <trkpt lat="49.74416" lon="5.32127">
        <ele>337.39999389648</ele>
        <time>2022-06-11T06:13:44.000Z</time>
      </trkpt>
      <trkpt lat="49.74415" lon="5.32134">
        <ele>336.60000610352</ele>
        <time>2022-06-11T06:13:45.000Z</time>
      </trkpt>
      <trkpt lat="49.74414" lon="5.32145">
        <ele>335.39999389648</ele>
        <time>2022-06-11T06:13:47.000Z</time>
      </trkpt>
      <trkpt lat="49.74414" lon="5.32152">
        <ele>335</ele>
        <time>2022-06-11T06:13:48.000Z</time>
      </trkpt>
      <trkpt lat="49.74414" lon="5.3216">
        <ele>334.60000610352</ele>
        <time>2022-06-11T06:13:49.000Z</time>
      </trkpt>
      <trkpt lat="49.74414" lon="5.32178">
        <ele>332.79998779297</ele>
        <time>2022-06-11T06:13:51.000Z</time>
      </trkpt>
      <trkpt lat="49.74413" lon="5.32188">
        <ele>332.39999389648</ele>
        <time>2022-06-11T06:13:52.000Z</time>
      </trkpt>
      <trkpt lat="49.74413" lon="5.32198">
        <ele>331.39999389648</ele>
        <time>2022-06-11T06:13:53.000Z</time>
      </trkpt>
      <trkpt lat="49.74413" lon="5.32208">
        <ele>330.39999389648</ele>
        <time>2022-06-11T06:13:54.000Z</time>
      </trkpt>
      <trkpt lat="49.74413" lon="5.32217">
        <ele>330</ele>
        <time>2022-06-11T06:13:55.000Z</time>
      </trkpt>
      <trkpt lat="49.74417" lon="5.32225">
        <ele>329.60000610352</ele>
        <time>2022-06-11T06:13:56.000Z</time>
      </trkpt>
      <trkpt lat="49.74423" lon="5.32244">
        <ele>328</ele>
        <time>2022-06-11T06:13:58.000Z</time>
      </trkpt>
      <trkpt lat="49.74424" lon="5.32274">
        <ele>325</ele>
        <time>2022-06-11T06:14:01.000Z</time>
      </trkpt>
      <trkpt lat="49.74423" lon="5.32297">
        <ele>323.20001220703</ele>
        <time>2022-06-11T06:14:03.000Z</time>
      </trkpt>
      <trkpt lat="49.74423" lon="5.3231">
        <ele>322.60000610352</ele>
        <time>2022-06-11T06:14:04.000Z</time>
      </trkpt>
      <trkpt lat="49.74422" lon="5.32321">
        <ele>322.20001220703</ele>
        <time>2022-06-11T06:14:05.000Z</time>
      </trkpt>
      <trkpt lat="49.74422" lon="5.32334">
        <ele>322.20001220703</ele>
        <time>2022-06-11T06:14:06.000Z</time>
      </trkpt>
      <trkpt lat="49.74422" lon="5.32346">
        <ele>322.60000610352</ele>
        <time>2022-06-11T06:14:07.000Z</time>
      </trkpt>
      <trkpt lat="49.74422" lon="5.32358">
        <ele>323.20001220703</ele>
        <time>2022-06-11T06:14:08.000Z</time>
      </trkpt>
      <trkpt lat="49.74422" lon="5.32369">
        <ele>325.20001220703</ele>
        <time>2022-06-11T06:14:09.000Z</time>
      </trkpt>
      <trkpt lat="49.74422" lon="5.32378">
        <ele>327</ele>
        <time>2022-06-11T06:14:10.000Z</time>
      </trkpt>
      <trkpt lat="49.74422" lon="5.32388">
        <ele>329</ele>
        <time>2022-06-11T06:14:11.000Z</time>
      </trkpt>
      <trkpt lat="49.74422" lon="5.32397">
        <ele>331.60000610352</ele>
        <time>2022-06-11T06:14:12.000Z</time>
      </trkpt>
      <trkpt lat="49.74439" lon="5.32407">
        <ele>335.60000610352</ele>
        <time>2022-06-11T06:14:14.000Z</time>
      </trkpt>
      <trkpt lat="49.74508" lon="5.32404">
        <ele>339.39999389648</ele>
        <time>2022-06-11T06:14:39.000Z</time>
      </trkpt>
      <trkpt lat="49.74513" lon="5.32401">
        <ele>338.79998779297</ele>
        <time>2022-06-11T06:14:40.000Z</time>
      </trkpt>
      <trkpt lat="49.74521" lon="5.32388">
        <ele>335.79998779297</ele>
        <time>2022-06-11T06:14:44.000Z</time>
      </trkpt>
      <trkpt lat="49.74522" lon="5.32385">
        <ele>335.20001220703</ele>
        <time>2022-06-11T06:14:45.000Z</time>
      </trkpt>
      <trkpt lat="49.74529" lon="5.32371">
        <ele>333</ele>
        <time>2022-06-11T06:14:49.000Z</time>
      </trkpt>
      <trkpt lat="49.74529" lon="5.32364">
        <ele>331.79998779297</ele>
        <time>2022-06-11T06:14:51.000Z</time>
      </trkpt>
      <trkpt lat="49.74518" lon="5.32351">
        <ele>329.79998779297</ele>
        <time>2022-06-11T06:14:55.000Z</time>
      </trkpt>
      <trkpt lat="49.74506" lon="5.32344">
        <ele>328.60000610352</ele>
        <time>2022-06-11T06:14:58.000Z</time>
      </trkpt>
      <trkpt lat="49.74498" lon="5.32342">
        <ele>327.39999389648</ele>
        <time>2022-06-11T06:15:00.000Z</time>
      </trkpt>
      <trkpt lat="49.7448" lon="5.32345">
        <ele>325.39999389648</ele>
        <time>2022-06-11T06:15:04.000Z</time>
      </trkpt>
      <trkpt lat="49.74472" lon="5.32347">
        <ele>324.79998779297</ele>
        <time>2022-06-11T06:15:06.000Z</time>
      </trkpt>
      <trkpt lat="49.74434" lon="5.32347">
        <ele>323</ele>
        <time>2022-06-11T06:15:14.000Z</time>
      </trkpt>
      <trkpt lat="49.74398" lon="5.32353">
        <ele>322</ele>
        <time>2022-06-11T06:15:21.000Z</time>
      </trkpt>
      <trkpt lat="49.74387" lon="5.32357">
        <ele>321.79998779297</ele>
        <time>2022-06-11T06:15:23.000Z</time>
      </trkpt>
      <trkpt lat="49.74365" lon="5.32363">
        <ele>321.79998779297</ele>
        <time>2022-06-11T06:15:27.000Z</time>
      </trkpt>
      <trkpt lat="49.74359" lon="5.32365">
        <ele>321.60000610352</ele>
        <time>2022-06-11T06:15:28.000Z</time>
      </trkpt>
      <trkpt lat="49.74333" lon="5.32363">
        <ele>320.20001220703</ele>
        <time>2022-06-11T06:15:33.000Z</time>
      </trkpt>
      <trkpt lat="49.74328" lon="5.32363">
        <ele>320.20001220703</ele>
        <time>2022-06-11T06:15:34.000Z</time>
      </trkpt>
      <trkpt lat="49.74302" lon="5.32368">
        <ele>320.20001220703</ele>
        <time>2022-06-11T06:15:40.000Z</time>
      </trkpt>
      <trkpt lat="49.74289" lon="5.32373">
        <ele>321</ele>
        <time>2022-06-11T06:15:44.000Z</time>
      </trkpt>
      <trkpt lat="49.74286" lon="5.32374">
        <ele>321.20001220703</ele>
        <time>2022-06-11T06:15:45.000Z</time>
      </trkpt>
      <trkpt lat="49.74276" lon="5.32379">
        <ele>323</ele>
        <time>2022-06-11T06:15:48.000Z</time>
      </trkpt>
      <trkpt lat="49.74269" lon="5.3238">
        <ele>323.79998779297</ele>
        <time>2022-06-11T06:15:50.000Z</time>
      </trkpt>
      <trkpt lat="49.74263" lon="5.32375">
        <ele>324.39999389648</ele>
        <time>2022-06-11T06:15:52.000Z</time>
      </trkpt>
      <trkpt lat="49.74259" lon="5.32371">
        <ele>324.79998779297</ele>
        <time>2022-06-11T06:15:53.000Z</time>
      </trkpt>
      <trkpt lat="49.74255" lon="5.32365">
        <ele>324.79998779297</ele>
        <time>2022-06-11T06:15:54.000Z</time>
      </trkpt>
      <trkpt lat="49.74246" lon="5.32344">
        <ele>323.39999389648</ele>
        <time>2022-06-11T06:15:57.000Z</time>
      </trkpt>
      <trkpt lat="49.74243" lon="5.32336">
        <ele>322.79998779297</ele>
        <time>2022-06-11T06:15:58.000Z</time>
      </trkpt>
      <trkpt lat="49.7424" lon="5.32329">
        <ele>322.39999389648</ele>
        <time>2022-06-11T06:15:59.000Z</time>
      </trkpt>
      <trkpt lat="49.74233" lon="5.32311">
        <ele>321.39999389648</ele>
        <time>2022-06-11T06:16:02.000Z</time>
      </trkpt>
      <trkpt lat="49.7423" lon="5.32292">
        <ele>320.20001220703</ele>
        <time>2022-06-11T06:16:06.000Z</time>
      </trkpt>
      <trkpt lat="49.74229" lon="5.32275">
        <ele>319.20001220703</ele>
        <time>2022-06-11T06:16:10.000Z</time>
      </trkpt>
      <trkpt lat="49.74229" lon="5.32271">
        <ele>318.79998779297</ele>
        <time>2022-06-11T06:16:11.000Z</time>
      </trkpt>
      <trkpt lat="49.74228" lon="5.32261">
        <ele>318.20001220703</ele>
        <time>2022-06-11T06:16:14.000Z</time>
      </trkpt>
      <trkpt lat="49.74221" lon="5.32256">
        <ele>318</ele>
        <time>2022-06-11T06:16:18.000Z</time>
      </trkpt>
      <trkpt lat="49.74217" lon="5.32255">
        <ele>318.20001220703</ele>
        <time>2022-06-11T06:16:20.000Z</time>
      </trkpt>
      <trkpt lat="49.74215" lon="5.32249">
        <ele>317.79998779297</ele>
        <time>2022-06-11T06:16:22.000Z</time>
      </trkpt>
      <trkpt lat="49.74217" lon="5.32231">
        <ele>315.79998779297</ele>
        <time>2022-06-11T06:16:26.000Z</time>
      </trkpt>
      <trkpt lat="49.74214" lon="5.32222">
        <ele>315</ele>
        <time>2022-06-11T06:16:29.000Z</time>
      </trkpt>
      <trkpt lat="49.74212" lon="5.3222">
        <ele>315</ele>
        <time>2022-06-11T06:16:30.000Z</time>
      </trkpt>
      <trkpt lat="49.7421" lon="5.32219">
        <ele>314.79998779297</ele>
        <time>2022-06-11T06:16:31.000Z</time>
      </trkpt>
      <trkpt lat="49.742" lon="5.32218">
        <ele>315.20001220703</ele>
        <time>2022-06-11T06:16:34.000Z</time>
      </trkpt>
      <trkpt lat="49.74197" lon="5.32217">
        <ele>315</ele>
        <time>2022-06-11T06:16:35.000Z</time>
      </trkpt>
      <trkpt lat="49.74193" lon="5.32211">
        <ele>314.79998779297</ele>
        <time>2022-06-11T06:16:37.000Z</time>
      </trkpt>
      <trkpt lat="49.74179" lon="5.3221">
        <ele>315.20001220703</ele>
        <time>2022-06-11T06:16:41.000Z</time>
      </trkpt>
      <trkpt lat="49.74176" lon="5.32211">
        <ele>315.39999389648</ele>
        <time>2022-06-11T06:16:42.000Z</time>
      </trkpt>
      <trkpt lat="49.74166" lon="5.32208">
        <ele>316</ele>
        <time>2022-06-11T06:16:45.000Z</time>
      </trkpt>
      <trkpt lat="49.74157" lon="5.32204">
        <ele>316.20001220703</ele>
        <time>2022-06-11T06:16:47.000Z</time>
      </trkpt>
      <trkpt lat="49.7415" lon="5.32203">
        <ele>316.60000610352</ele>
        <time>2022-06-11T06:16:49.000Z</time>
      </trkpt>
      <trkpt lat="49.74141" lon="5.32201">
        <ele>317</ele>
        <time>2022-06-11T06:16:52.000Z</time>
      </trkpt>
      <trkpt lat="49.74133" lon="5.32199">
        <ele>317.20001220703</ele>
        <time>2022-06-11T06:16:55.000Z</time>
      </trkpt>
      <trkpt lat="49.74122" lon="5.32198">
        <ele>317.39999389648</ele>
        <time>2022-06-11T06:16:59.000Z</time>
      </trkpt>
      <trkpt lat="49.74119" lon="5.32197">
        <ele>317.20001220703</ele>
        <time>2022-06-11T06:17:00.000Z</time>
      </trkpt>
      <trkpt lat="49.741" lon="5.32197">
        <ele>317.20001220703</ele>
        <time>2022-06-11T06:17:05.000Z</time>
      </trkpt>
      <trkpt lat="49.74097" lon="5.32196">
        <ele>317.20001220703</ele>
        <time>2022-06-11T06:17:06.000Z</time>
      </trkpt>
      <trkpt lat="49.7409" lon="5.32195">
        <ele>317.20001220703</ele>
        <time>2022-06-11T06:17:08.000Z</time>
      </trkpt>
      <trkpt lat="49.7407" lon="5.32193">
        <ele>316.39999389648</ele>
        <time>2022-06-11T06:17:14.000Z</time>
      </trkpt>
      <trkpt lat="49.74045" lon="5.32188">
        <ele>316</ele>
        <time>2022-06-11T06:17:21.000Z</time>
      </trkpt>
      <trkpt lat="49.7403" lon="5.32188">
        <ele>315.79998779297</ele>
        <time>2022-06-11T06:17:26.000Z</time>
      </trkpt>
      <trkpt lat="49.74018" lon="5.32184">
        <ele>315.20001220703</ele>
        <time>2022-06-11T06:17:30.000Z</time>
      </trkpt>
      <trkpt lat="49.74007" lon="5.3219">
        <ele>315</ele>
        <time>2022-06-11T06:17:34.000Z</time>
      </trkpt>
      <trkpt lat="49.73988" lon="5.32192">
        <ele>314.39999389648</ele>
        <time>2022-06-11T06:17:40.000Z</time>
      </trkpt>
      <trkpt lat="49.73973" lon="5.32184">
        <ele>313.20001220703</ele>
        <time>2022-06-11T06:17:44.000Z</time>
      </trkpt>
      <trkpt lat="49.73958" lon="5.32182">
        <ele>312.39999389648</ele>
        <time>2022-06-11T06:17:48.000Z</time>
      </trkpt>
      <trkpt lat="49.73955" lon="5.32183">
        <ele>312.39999389648</ele>
        <time>2022-06-11T06:17:49.000Z</time>
      </trkpt>
      <trkpt lat="49.7394" lon="5.32195">
        <ele>312</ele>
        <time>2022-06-11T06:17:54.000Z</time>
      </trkpt>
      <trkpt lat="49.73923" lon="5.32209">
        <ele>312</ele>
        <time>2022-06-11T06:17:59.000Z</time>
      </trkpt>
      <trkpt lat="49.73915" lon="5.32224">
        <ele>313</ele>
        <time>2022-06-11T06:18:04.000Z</time>
      </trkpt>
      <trkpt lat="49.73915" lon="5.32244">
        <ele>313.60000610352</ele>
        <time>2022-06-11T06:18:09.000Z</time>
      </trkpt>
      <trkpt lat="49.73913" lon="5.32259">
        <ele>313.60000610352</ele>
        <time>2022-06-11T06:18:13.000Z</time>
      </trkpt>
      <trkpt lat="49.73906" lon="5.32281">
        <ele>312.79998779297</ele>
        <time>2022-06-11T06:18:18.000Z</time>
      </trkpt>
      <trkpt lat="49.73904" lon="5.32304">
        <ele>310.60000610352</ele>
        <time>2022-06-11T06:18:22.000Z</time>
      </trkpt>
      <trkpt lat="49.73904" lon="5.32311">
        <ele>310.20001220703</ele>
        <time>2022-06-11T06:18:23.000Z</time>
      </trkpt>
      <trkpt lat="49.73902" lon="5.32334">
        <ele>308.39999389648</ele>
        <time>2022-06-11T06:18:26.000Z</time>
      </trkpt>
      <trkpt lat="49.73903" lon="5.32341">
        <ele>308.39999389648</ele>
        <time>2022-06-11T06:18:27.000Z</time>
      </trkpt>
      <trkpt lat="49.73904" lon="5.32349">
        <ele>308.20001220703</ele>
        <time>2022-06-11T06:18:28.000Z</time>
      </trkpt>
      <trkpt lat="49.73909" lon="5.32373">
        <ele>308</ele>
        <time>2022-06-11T06:18:32.000Z</time>
      </trkpt>
      <trkpt lat="49.73911" lon="5.32386">
        <ele>308</ele>
        <time>2022-06-11T06:18:34.000Z</time>
      </trkpt>
      <trkpt lat="49.73912" lon="5.32393">
        <ele>307.79998779297</ele>
        <time>2022-06-11T06:18:35.000Z</time>
      </trkpt>
      <trkpt lat="49.73914" lon="5.32409">
        <ele>308</ele>
        <time>2022-06-11T06:18:37.000Z</time>
      </trkpt>
      <trkpt lat="49.73915" lon="5.32425">
        <ele>308</ele>
        <time>2022-06-11T06:18:39.000Z</time>
      </trkpt>
      <trkpt lat="49.73917" lon="5.32448">
        <ele>308</ele>
        <time>2022-06-11T06:18:42.000Z</time>
      </trkpt>
      <trkpt lat="49.73917" lon="5.32456">
        <ele>308.39999389648</ele>
        <time>2022-06-11T06:18:43.000Z</time>
      </trkpt>
      <trkpt lat="49.73919" lon="5.32479">
        <ele>308.79998779297</ele>
        <time>2022-06-11T06:18:46.000Z</time>
      </trkpt>
      <trkpt lat="49.73926" lon="5.32505">
        <ele>309</ele>
        <time>2022-06-11T06:18:49.000Z</time>
      </trkpt>
      <trkpt lat="49.7393" lon="5.32517">
        <ele>309</ele>
        <time>2022-06-11T06:18:51.000Z</time>
      </trkpt>
      <trkpt lat="49.73944" lon="5.32548">
        <ele>308.60000610352</ele>
        <time>2022-06-11T06:18:57.000Z</time>
      </trkpt>
      <trkpt lat="49.73955" lon="5.3258">
        <ele>308.39999389648</ele>
        <time>2022-06-11T06:19:03.000Z</time>
      </trkpt>
      <trkpt lat="49.73965" lon="5.32616">
        <ele>309.20001220703</ele>
        <time>2022-06-11T06:19:09.000Z</time>
      </trkpt>
      <trkpt lat="49.73973" lon="5.32645">
        <ele>309.79998779297</ele>
        <time>2022-06-11T06:19:14.000Z</time>
      </trkpt>
      <trkpt lat="49.73987" lon="5.32665">
        <ele>310</ele>
        <time>2022-06-11T06:19:18.000Z</time>
      </trkpt>
      <trkpt lat="49.74001" lon="5.32699">
        <ele>308.60000610352</ele>
        <time>2022-06-11T06:19:23.000Z</time>
      </trkpt>
      <trkpt lat="49.74006" lon="5.32712">
        <ele>308.20001220703</ele>
        <time>2022-06-11T06:19:25.000Z</time>
      </trkpt>
      <trkpt lat="49.74014" lon="5.32728">
        <ele>309</ele>
        <time>2022-06-11T06:19:28.000Z</time>
      </trkpt>
      <trkpt lat="49.74029" lon="5.32756">
        <ele>311</ele>
        <time>2022-06-11T06:19:33.000Z</time>
      </trkpt>
      <trkpt lat="49.74038" lon="5.32777">
        <ele>312.20001220703</ele>
        <time>2022-06-11T06:19:38.000Z</time>
      </trkpt>
      <trkpt lat="49.74046" lon="5.32802">
        <ele>313.39999389648</ele>
        <time>2022-06-11T06:19:43.000Z</time>
      </trkpt>
      <trkpt lat="49.74056" lon="5.32823">
        <ele>313.79998779297</ele>
        <time>2022-06-11T06:19:47.000Z</time>
      </trkpt>
      <trkpt lat="49.74068" lon="5.3284">
        <ele>314.20001220703</ele>
        <time>2022-06-11T06:19:50.000Z</time>
      </trkpt>
      <trkpt lat="49.74071" lon="5.32847">
        <ele>314.20001220703</ele>
        <time>2022-06-11T06:19:51.000Z</time>
      </trkpt>
      <trkpt lat="49.74076" lon="5.32853">
        <ele>314.60000610352</ele>
        <time>2022-06-11T06:19:52.000Z</time>
      </trkpt>
      <trkpt lat="49.74083" lon="5.32879">
        <ele>312.60000610352</ele>
        <time>2022-06-11T06:19:56.000Z</time>
      </trkpt>
      <trkpt lat="49.74085" lon="5.32886">
        <ele>312.39999389648</ele>
        <time>2022-06-11T06:19:57.000Z</time>
      </trkpt>
      <trkpt lat="49.74097" lon="5.32921">
        <ele>312</ele>
        <time>2022-06-11T06:20:02.000Z</time>
      </trkpt>
      <trkpt lat="49.7412" lon="5.32984">
        <ele>313.79998779297</ele>
        <time>2022-06-11T06:20:10.000Z</time>
      </trkpt>
      <trkpt lat="49.74144" lon="5.33047">
        <ele>314.20001220703</ele>
        <time>2022-06-11T06:20:18.000Z</time>
      </trkpt>
      <trkpt lat="49.74155" lon="5.33087">
        <ele>313.20001220703</ele>
        <time>2022-06-11T06:20:23.000Z</time>
      </trkpt>
      <trkpt lat="49.74163" lon="5.33123">
        <ele>313</ele>
        <time>2022-06-11T06:20:27.000Z</time>
      </trkpt>
      <trkpt lat="49.74165" lon="5.33132">
        <ele>313.79998779297</ele>
        <time>2022-06-11T06:20:28.000Z</time>
      </trkpt>
      <trkpt lat="49.74169" lon="5.33141">
        <ele>314</ele>
        <time>2022-06-11T06:20:29.000Z</time>
      </trkpt>
      <trkpt lat="49.74175" lon="5.33159">
        <ele>314.39999389648</ele>
        <time>2022-06-11T06:20:31.000Z</time>
      </trkpt>
      <trkpt lat="49.74184" lon="5.33186">
        <ele>315.60000610352</ele>
        <time>2022-06-11T06:20:34.000Z</time>
      </trkpt>
      <trkpt lat="49.74201" lon="5.33227">
        <ele>314.39999389648</ele>
        <time>2022-06-11T06:20:39.000Z</time>
      </trkpt>
      <trkpt lat="49.74206" lon="5.33244">
        <ele>313.79998779297</ele>
        <time>2022-06-11T06:20:41.000Z</time>
      </trkpt>
      <trkpt lat="49.74228" lon="5.3331">
        <ele>313</ele>
        <time>2022-06-11T06:20:49.000Z</time>
      </trkpt>
      <trkpt lat="49.74246" lon="5.3336">
        <ele>312.20001220703</ele>
        <time>2022-06-11T06:20:55.000Z</time>
      </trkpt>
      <trkpt lat="49.74267" lon="5.33424">
        <ele>312.60000610352</ele>
        <time>2022-06-11T06:21:03.000Z</time>
      </trkpt>
      <trkpt lat="49.74286" lon="5.33483">
        <ele>315.39999389648</ele>
        <time>2022-06-11T06:21:10.000Z</time>
      </trkpt>
      <trkpt lat="49.74308" lon="5.33553">
        <ele>318.20001220703</ele>
        <time>2022-06-11T06:21:18.000Z</time>
      </trkpt>
      <trkpt lat="49.74318" lon="5.33596">
        <ele>318.39999389648</ele>
        <time>2022-06-11T06:21:23.000Z</time>
      </trkpt>
      <trkpt lat="49.74319" lon="5.33606">
        <ele>318</ele>
        <time>2022-06-11T06:21:24.000Z</time>
      </trkpt>
      <trkpt lat="49.74321" lon="5.33615">
        <ele>317.39999389648</ele>
        <time>2022-06-11T06:21:25.000Z</time>
      </trkpt>
      <trkpt lat="49.74326" lon="5.33674">
        <ele>316.20001220703</ele>
        <time>2022-06-11T06:21:31.000Z</time>
      </trkpt>
      <trkpt lat="49.74327" lon="5.33726">
        <ele>316.39999389648</ele>
        <time>2022-06-11T06:21:37.000Z</time>
      </trkpt>
      <trkpt lat="49.74327" lon="5.33749">
        <ele>316.79998779297</ele>
        <time>2022-06-11T06:21:40.000Z</time>
      </trkpt>
      <trkpt lat="49.74327" lon="5.33757">
        <ele>317</ele>
        <time>2022-06-11T06:21:42.000Z</time>
      </trkpt>
      <trkpt lat="49.74326" lon="5.3376">
        <ele>316.79998779297</ele>
        <time>2022-06-11T06:21:44.000Z</time>
      </trkpt>
      <trkpt lat="49.74325" lon="5.33761">
        <ele>316.60000610352</ele>
        <time>2022-06-11T06:21:45.000Z</time>
      </trkpt>
      <trkpt lat="49.74324" lon="5.33763">
        <ele>316.39999389648</ele>
        <time>2022-06-11T06:21:46.000Z</time>
      </trkpt>
      <trkpt lat="49.74316" lon="5.33794">
        <ele>313</ele>
        <time>2022-06-11T06:22:01.000Z</time>
      </trkpt>
      <trkpt lat="49.74314" lon="5.3381">
        <ele>312.20001220703</ele>
        <time>2022-06-11T06:22:05.000Z</time>
      </trkpt>
      <trkpt lat="49.7431" lon="5.33821">
        <ele>311.79998779297</ele>
        <time>2022-06-11T06:22:09.000Z</time>
      </trkpt>
      <trkpt lat="49.74309" lon="5.33827">
        <ele>311.79998779297</ele>
        <time>2022-06-11T06:22:11.000Z</time>
      </trkpt>
      <trkpt lat="49.74306" lon="5.33844">
        <ele>311.39999389648</ele>
        <time>2022-06-11T06:22:20.000Z</time>
      </trkpt>
      <trkpt lat="49.74305" lon="5.33854">
        <ele>311.39999389648</ele>
        <time>2022-06-11T06:22:22.000Z</time>
      </trkpt>
      <trkpt lat="49.74305" lon="5.33886">
        <ele>310.79998779297</ele>
        <time>2022-06-11T06:22:27.000Z</time>
      </trkpt>
      <trkpt lat="49.74305" lon="5.3389">
        <ele>310.79998779297</ele>
        <time>2022-06-11T06:22:28.000Z</time>
      </trkpt>
      <trkpt lat="49.74303" lon="5.33909">
        <ele>310.60000610352</ele>
        <time>2022-06-11T06:22:35.000Z</time>
      </trkpt>
      <trkpt lat="49.74303" lon="5.33912">
        <ele>310.60000610352</ele>
        <time>2022-06-11T06:22:36.000Z</time>
      </trkpt>
      <trkpt lat="49.74303" lon="5.33926">
        <ele>311.20001220703</ele>
        <time>2022-06-11T06:22:41.000Z</time>
      </trkpt>
      <trkpt lat="49.74302" lon="5.33929">
        <ele>311.20001220703</ele>
        <time>2022-06-11T06:22:42.000Z</time>
      </trkpt>
      <trkpt lat="49.7429" lon="5.33977">
        <ele>313.60000610352</ele>
        <time>2022-06-11T06:22:48.000Z</time>
      </trkpt>
      <trkpt lat="49.74274" lon="5.34015">
        <ele>312.39999389648</ele>
        <time>2022-06-11T06:22:53.000Z</time>
      </trkpt>
      <trkpt lat="49.74258" lon="5.34044">
        <ele>313</ele>
        <time>2022-06-11T06:22:58.000Z</time>
      </trkpt>
      <trkpt lat="49.74249" lon="5.34069">
        <ele>316.39999389648</ele>
        <time>2022-06-11T06:23:02.000Z</time>
      </trkpt>
      <trkpt lat="49.74239" lon="5.34103">
        <ele>317.39999389648</ele>
        <time>2022-06-11T06:23:07.000Z</time>
      </trkpt>
      <trkpt lat="49.74232" lon="5.34138">
        <ele>315.79998779297</ele>
        <time>2022-06-11T06:23:12.000Z</time>
      </trkpt>
      <trkpt lat="49.74229" lon="5.34161">
        <ele>315.20001220703</ele>
        <time>2022-06-11T06:23:15.000Z</time>
      </trkpt>
      <trkpt lat="49.74227" lon="5.34178">
        <ele>315</ele>
        <time>2022-06-11T06:23:17.000Z</time>
      </trkpt>
      <trkpt lat="49.74226" lon="5.3421">
        <ele>316.79998779297</ele>
        <time>2022-06-11T06:23:22.000Z</time>
      </trkpt>
      <trkpt lat="49.74231" lon="5.34237">
        <ele>316</ele>
        <time>2022-06-11T06:23:27.000Z</time>
      </trkpt>
      <trkpt lat="49.74236" lon="5.34267">
        <ele>317.79998779297</ele>
        <time>2022-06-11T06:23:31.000Z</time>
      </trkpt>
      <trkpt lat="49.74244" lon="5.34278">
        <ele>317.20001220703</ele>
        <time>2022-06-11T06:23:34.000Z</time>
      </trkpt>
      <trkpt lat="49.74251" lon="5.34283">
        <ele>316.20001220703</ele>
        <time>2022-06-11T06:23:36.000Z</time>
      </trkpt>
      <trkpt lat="49.74259" lon="5.34286">
        <ele>314.60000610352</ele>
        <time>2022-06-11T06:23:38.000Z</time>
      </trkpt>
      <trkpt lat="49.74272" lon="5.34287">
        <ele>313</ele>
        <time>2022-06-11T06:23:41.000Z</time>
      </trkpt>
      <trkpt lat="49.74296" lon="5.34293">
        <ele>312</ele>
        <time>2022-06-11T06:23:57.000Z</time>
      </trkpt>
      <trkpt lat="49.74301" lon="5.34291">
        <ele>312.39999389648</ele>
        <time>2022-06-11T06:23:59.000Z</time>
      </trkpt>
      <trkpt lat="49.74306" lon="5.3429">
        <ele>312.60000610352</ele>
        <time>2022-06-11T06:24:01.000Z</time>
      </trkpt>
      <trkpt lat="49.74308" lon="5.3429">
        <ele>312.60000610352</ele>
        <time>2022-06-11T06:24:02.000Z</time>
      </trkpt>
      <trkpt lat="49.74314" lon="5.34289">
        <ele>312.79998779297</ele>
        <time>2022-06-11T06:24:05.000Z</time>
      </trkpt>
      <trkpt lat="49.74335" lon="5.34281">
        <ele>314</ele>
        <time>2022-06-11T06:24:24.000Z</time>
      </trkpt>
      <trkpt lat="49.74337" lon="5.34282">
        <ele>314</ele>
        <time>2022-06-11T06:24:25.000Z</time>
      </trkpt>
      <trkpt lat="49.74342" lon="5.34282">
        <ele>314</ele>
        <time>2022-06-11T06:24:27.000Z</time>
      </trkpt>
      <trkpt lat="49.7435" lon="5.3428">
        <ele>314</ele>
        <time>2022-06-11T06:24:30.000Z</time>
      </trkpt>
      <trkpt lat="49.74362" lon="5.34276">
        <ele>314</ele>
        <time>2022-06-11T06:24:35.000Z</time>
      </trkpt>
      <trkpt lat="49.74365" lon="5.34274">
        <ele>314</ele>
        <time>2022-06-11T06:24:37.000Z</time>
      </trkpt>
      <trkpt lat="49.74368" lon="5.34273">
        <ele>314</ele>
        <time>2022-06-11T06:24:39.000Z</time>
      </trkpt>
      <trkpt lat="49.74371" lon="5.34274">
        <ele>313.79998779297</ele>
        <time>2022-06-11T06:24:41.000Z</time>
      </trkpt>
      <trkpt lat="49.74377" lon="5.34279">
        <ele>313.39999389648</ele>
        <time>2022-06-11T06:24:43.000Z</time>
      </trkpt>
      <trkpt lat="49.74395" lon="5.34299">
        <ele>311.20001220703</ele>
        <time>2022-06-11T06:24:48.000Z</time>
      </trkpt>
      <trkpt lat="49.744" lon="5.34305">
        <ele>310.60000610352</ele>
        <time>2022-06-11T06:24:49.000Z</time>
      </trkpt>
      <trkpt lat="49.74414" lon="5.34316">
        <ele>309.60000610352</ele>
        <time>2022-06-11T06:24:51.000Z</time>
      </trkpt>
      <trkpt lat="49.74421" lon="5.34319">
        <ele>309.39999389648</ele>
        <time>2022-06-11T06:24:52.000Z</time>
      </trkpt>
      <trkpt lat="49.7443" lon="5.34321">
        <ele>309.39999389648</ele>
        <time>2022-06-11T06:24:53.000Z</time>
      </trkpt>
      <trkpt lat="49.74447" lon="5.34321">
        <ele>310</ele>
        <time>2022-06-11T06:24:55.000Z</time>
      </trkpt>
      <trkpt lat="49.74456" lon="5.34321">
        <ele>311.20001220703</ele>
        <time>2022-06-11T06:24:56.000Z</time>
      </trkpt>
      <trkpt lat="49.74463" lon="5.3432">
        <ele>312.79998779297</ele>
        <time>2022-06-11T06:24:57.000Z</time>
      </trkpt>
      <trkpt lat="49.74471" lon="5.34321">
        <ele>314</ele>
        <time>2022-06-11T06:24:58.000Z</time>
      </trkpt>
      <trkpt lat="49.74486" lon="5.34324">
        <ele>315.79998779297</ele>
        <time>2022-06-11T06:25:00.000Z</time>
      </trkpt>
      <trkpt lat="49.74509" lon="5.34332">
        <ele>317</ele>
        <time>2022-06-11T06:25:03.000Z</time>
      </trkpt>
      <trkpt lat="49.74522" lon="5.34342">
        <ele>317.79998779297</ele>
        <time>2022-06-11T06:25:05.000Z</time>
      </trkpt>
      <trkpt lat="49.74533" lon="5.34353">
        <ele>318.20001220703</ele>
        <time>2022-06-11T06:25:07.000Z</time>
      </trkpt>
      <trkpt lat="49.74546" lon="5.34372">
        <ele>319</ele>
        <time>2022-06-11T06:25:10.000Z</time>
      </trkpt>
      <trkpt lat="49.74564" lon="5.34411">
        <ele>317.39999389648</ele>
        <time>2022-06-11T06:25:16.000Z</time>
      </trkpt>
      <trkpt lat="49.74577" lon="5.34444">
        <ele>315.20001220703</ele>
        <time>2022-06-11T06:25:21.000Z</time>
      </trkpt>
      <trkpt lat="49.74607" lon="5.3449">
        <ele>316.39999389648</ele>
        <time>2022-06-11T06:25:27.000Z</time>
      </trkpt>
      <trkpt lat="49.74618" lon="5.34505">
        <ele>316.60000610352</ele>
        <time>2022-06-11T06:25:29.000Z</time>
      </trkpt>
      <trkpt lat="49.7464" lon="5.34549">
        <ele>317.60000610352</ele>
        <time>2022-06-11T06:25:35.000Z</time>
      </trkpt>
      <trkpt lat="49.74647" lon="5.34562">
        <ele>318</ele>
        <time>2022-06-11T06:25:37.000Z</time>
      </trkpt>
      <trkpt lat="49.74657" lon="5.34582">
        <ele>319.20001220703</ele>
        <time>2022-06-11T06:25:40.000Z</time>
      </trkpt>
      <trkpt lat="49.74662" lon="5.34596">
        <ele>319.39999389648</ele>
        <time>2022-06-11T06:25:42.000Z</time>
      </trkpt>
      <trkpt lat="49.74669" lon="5.34618">
        <ele>319.39999389648</ele>
        <time>2022-06-11T06:25:45.000Z</time>
      </trkpt>
      <trkpt lat="49.74671" lon="5.34625">
        <ele>318.79998779297</ele>
        <time>2022-06-11T06:25:46.000Z</time>
      </trkpt>
      <trkpt lat="49.74675" lon="5.34639">
        <ele>318.20001220703</ele>
        <time>2022-06-11T06:25:48.000Z</time>
      </trkpt>
      <trkpt lat="49.74682" lon="5.34658">
        <ele>319.20001220703</ele>
        <time>2022-06-11T06:25:51.000Z</time>
      </trkpt>
      <trkpt lat="49.74685" lon="5.34673">
        <ele>319</ele>
        <time>2022-06-11T06:25:53.000Z</time>
      </trkpt>
      <trkpt lat="49.74687" lon="5.3468">
        <ele>319.20001220703</ele>
        <time>2022-06-11T06:25:54.000Z</time>
      </trkpt>
      <trkpt lat="49.74691" lon="5.34695">
        <ele>319.39999389648</ele>
        <time>2022-06-11T06:25:56.000Z</time>
      </trkpt>
      <trkpt lat="49.74707" lon="5.34734">
        <ele>320</ele>
        <time>2022-06-11T06:26:01.000Z</time>
      </trkpt>
      <trkpt lat="49.74711" lon="5.34742">
        <ele>320.60000610352</ele>
        <time>2022-06-11T06:26:02.000Z</time>
      </trkpt>
      <trkpt lat="49.74719" lon="5.34757">
        <ele>320.79998779297</ele>
        <time>2022-06-11T06:26:04.000Z</time>
      </trkpt>
      <trkpt lat="49.74724" lon="5.34772">
        <ele>320.79998779297</ele>
        <time>2022-06-11T06:26:06.000Z</time>
      </trkpt>
      <trkpt lat="49.74734" lon="5.3481">
        <ele>322.60000610352</ele>
        <time>2022-06-11T06:26:11.000Z</time>
      </trkpt>
      <trkpt lat="49.74734" lon="5.34817">
        <ele>323</ele>
        <time>2022-06-11T06:26:12.000Z</time>
      </trkpt>
      <trkpt lat="49.74733" lon="5.34836">
        <ele>323</ele>
        <time>2022-06-11T06:26:15.000Z</time>
      </trkpt>
      <trkpt lat="49.74729" lon="5.34858">
        <ele>322.39999389648</ele>
        <time>2022-06-11T06:26:18.000Z</time>
      </trkpt>
      <trkpt lat="49.74726" lon="5.34871">
        <ele>322.60000610352</ele>
        <time>2022-06-11T06:26:20.000Z</time>
      </trkpt>
      <trkpt lat="49.74713" lon="5.34903">
        <ele>322.39999389648</ele>
        <time>2022-06-11T06:26:25.000Z</time>
      </trkpt>
      <trkpt lat="49.74707" lon="5.34917">
        <ele>322.60000610352</ele>
        <time>2022-06-11T06:26:27.000Z</time>
      </trkpt>
      <trkpt lat="49.74703" lon="5.34924">
        <ele>322.79998779297</ele>
        <time>2022-06-11T06:26:28.000Z</time>
      </trkpt>
      <trkpt lat="49.7469" lon="5.34957">
        <ele>326.60000610352</ele>
        <time>2022-06-11T06:26:32.000Z</time>
      </trkpt>
      <trkpt lat="49.74685" lon="5.34963">
        <ele>326.39999389648</ele>
        <time>2022-06-11T06:26:33.000Z</time>
      </trkpt>
      <trkpt lat="49.74676" lon="5.34977">
        <ele>326.20001220703</ele>
        <time>2022-06-11T06:26:35.000Z</time>
      </trkpt>
      <trkpt lat="49.74665" lon="5.34989">
        <ele>326</ele>
        <time>2022-06-11T06:26:37.000Z</time>
      </trkpt>
      <trkpt lat="49.74638" lon="5.35013">
        <ele>325</ele>
        <time>2022-06-11T06:26:41.000Z</time>
      </trkpt>
      <trkpt lat="49.74631" lon="5.35018">
        <ele>325.79998779297</ele>
        <time>2022-06-11T06:26:42.000Z</time>
      </trkpt>
      <trkpt lat="49.74624" lon="5.35023">
        <ele>326.39999389648</ele>
        <time>2022-06-11T06:26:43.000Z</time>
      </trkpt>
      <trkpt lat="49.7461" lon="5.35031">
        <ele>327.79998779297</ele>
        <time>2022-06-11T06:26:45.000Z</time>
      </trkpt>
      <trkpt lat="49.7459" lon="5.35039">
        <ele>329</ele>
        <time>2022-06-11T06:26:48.000Z</time>
      </trkpt>
      <trkpt lat="49.74559" lon="5.35042">
        <ele>328.79998779297</ele>
        <time>2022-06-11T06:26:53.000Z</time>
      </trkpt>
      <trkpt lat="49.74553" lon="5.35041">
        <ele>328.20001220703</ele>
        <time>2022-06-11T06:26:54.000Z</time>
      </trkpt>
      <trkpt lat="49.74527" lon="5.35031">
        <ele>325.20001220703</ele>
        <time>2022-06-11T06:26:59.000Z</time>
      </trkpt>
      <trkpt lat="49.74517" lon="5.35025">
        <ele>324</ele>
        <time>2022-06-11T06:27:01.000Z</time>
      </trkpt>
      <trkpt lat="49.74491" lon="5.35008">
        <ele>323.39999389648</ele>
        <time>2022-06-11T06:27:06.000Z</time>
      </trkpt>
      <trkpt lat="49.74451" lon="5.34973">
        <ele>323</ele>
        <time>2022-06-11T06:27:14.000Z</time>
      </trkpt>
      <trkpt lat="49.74428" lon="5.34945">
        <ele>320.39999389648</ele>
        <time>2022-06-11T06:27:19.000Z</time>
      </trkpt>
      <trkpt lat="49.74403" lon="5.34906">
        <ele>318.20001220703</ele>
        <time>2022-06-11T06:27:25.000Z</time>
      </trkpt>
      <trkpt lat="49.74399" lon="5.34899">
        <ele>318.20001220703</ele>
        <time>2022-06-11T06:27:26.000Z</time>
      </trkpt>
      <trkpt lat="49.74387" lon="5.3488">
        <ele>317.39999389648</ele>
        <time>2022-06-11T06:27:29.000Z</time>
      </trkpt>
      <trkpt lat="49.74384" lon="5.34873">
        <ele>317</ele>
        <time>2022-06-11T06:27:30.000Z</time>
      </trkpt>
      <trkpt lat="49.7437" lon="5.34849">
        <ele>316.20001220703</ele>
        <time>2022-06-11T06:27:34.000Z</time>
      </trkpt>
      <trkpt lat="49.74367" lon="5.34843">
        <ele>316</ele>
        <time>2022-06-11T06:27:35.000Z</time>
      </trkpt>
      <trkpt lat="49.74353" lon="5.34822">
        <ele>314</ele>
        <time>2022-06-11T06:27:39.000Z</time>
      </trkpt>
      <trkpt lat="49.74352" lon="5.34819">
        <ele>313.79998779297</ele>
        <time>2022-06-11T06:27:40.000Z</time>
      </trkpt>
      <trkpt lat="49.74354" lon="5.34804">
        <ele>312.20001220703</ele>
        <time>2022-06-11T06:27:44.000Z</time>
      </trkpt>
      <trkpt lat="49.74349" lon="5.3479">
        <ele>311.60000610352</ele>
        <time>2022-06-11T06:27:47.000Z</time>
      </trkpt>
      <trkpt lat="49.74347" lon="5.34785">
        <ele>311.39999389648</ele>
        <time>2022-06-11T06:27:48.000Z</time>
      </trkpt>
      <trkpt lat="49.7433" lon="5.34763">
        <ele>311.39999389648</ele>
        <time>2022-06-11T06:27:53.000Z</time>
      </trkpt>
      <trkpt lat="49.74315" lon="5.34743">
        <ele>311.79998779297</ele>
        <time>2022-06-11T06:27:58.000Z</time>
      </trkpt>
      <trkpt lat="49.74312" lon="5.3474">
        <ele>311.60000610352</ele>
        <time>2022-06-11T06:27:59.000Z</time>
      </trkpt>
      <trkpt lat="49.74288" lon="5.34717">
        <ele>310.79998779297</ele>
        <time>2022-06-11T06:28:06.000Z</time>
      </trkpt>
      <trkpt lat="49.74278" lon="5.34709">
        <ele>310.79998779297</ele>
        <time>2022-06-11T06:28:10.000Z</time>
      </trkpt>
      <trkpt lat="49.74276" lon="5.34707">
        <ele>310.79998779297</ele>
        <time>2022-06-11T06:28:11.000Z</time>
      </trkpt>
      <trkpt lat="49.74269" lon="5.34699">
        <ele>310.79998779297</ele>
        <time>2022-06-11T06:28:13.000Z</time>
      </trkpt>
      <trkpt lat="49.7425" lon="5.34686">
        <ele>311.39999389648</ele>
        <time>2022-06-11T06:28:18.000Z</time>
      </trkpt>
      <trkpt lat="49.74242" lon="5.34681">
        <ele>311.79998779297</ele>
        <time>2022-06-11T06:28:20.000Z</time>
      </trkpt>
      <trkpt lat="49.74232" lon="5.34677">
        <ele>312.20001220703</ele>
        <time>2022-06-11T06:28:22.000Z</time>
      </trkpt>
      <trkpt lat="49.74211" lon="5.34667">
        <ele>313.39999389648</ele>
        <time>2022-06-11T06:28:27.000Z</time>
      </trkpt>
      <trkpt lat="49.74194" lon="5.34668">
        <ele>314.39999389648</ele>
        <time>2022-06-11T06:28:32.000Z</time>
      </trkpt>
      <trkpt lat="49.74178" lon="5.34676">
        <ele>315.60000610352</ele>
        <time>2022-06-11T06:28:37.000Z</time>
      </trkpt>
      <trkpt lat="49.74162" lon="5.34678">
        <ele>315.79998779297</ele>
        <time>2022-06-11T06:28:42.000Z</time>
      </trkpt>
      <trkpt lat="49.74161" lon="5.34676">
        <ele>315.60000610352</ele>
        <time>2022-06-11T06:28:43.000Z</time>
      </trkpt>
      <trkpt lat="49.74151" lon="5.34675">
        <ele>315.20001220703</ele>
        <time>2022-06-11T06:28:46.000Z</time>
      </trkpt>
      <trkpt lat="49.74149" lon="5.34676">
        <ele>315</ele>
        <time>2022-06-11T06:28:47.000Z</time>
      </trkpt>
      <trkpt lat="49.74134" lon="5.34681">
        <ele>314.39999389648</ele>
        <time>2022-06-11T06:28:51.000Z</time>
      </trkpt>
      <trkpt lat="49.74108" lon="5.3469">
        <ele>313.20001220703</ele>
        <time>2022-06-11T06:28:57.000Z</time>
      </trkpt>
      <trkpt lat="49.74098" lon="5.34696">
        <ele>313.20001220703</ele>
        <time>2022-06-11T06:28:59.000Z</time>
      </trkpt>
      <trkpt lat="49.74086" lon="5.34707">
        <ele>314.20001220703</ele>
        <time>2022-06-11T06:29:02.000Z</time>
      </trkpt>
      <trkpt lat="49.74073" lon="5.34718">
        <ele>314.20001220703</ele>
        <time>2022-06-11T06:29:05.000Z</time>
      </trkpt>
      <trkpt lat="49.74068" lon="5.34722">
        <ele>314.20001220703</ele>
        <time>2022-06-11T06:29:06.000Z</time>
      </trkpt>
      <trkpt lat="49.74063" lon="5.34727">
        <ele>314.60000610352</ele>
        <time>2022-06-11T06:29:07.000Z</time>
      </trkpt>
      <trkpt lat="49.74034" lon="5.34763">
        <ele>315.60000610352</ele>
        <time>2022-06-11T06:29:14.000Z</time>
      </trkpt>
      <trkpt lat="49.74018" lon="5.3479">
        <ele>316.20001220703</ele>
        <time>2022-06-11T06:29:20.000Z</time>
      </trkpt>
      <trkpt lat="49.74012" lon="5.34804">
        <ele>316.20001220703</ele>
        <time>2022-06-11T06:29:23.000Z</time>
      </trkpt>
      <trkpt lat="49.74008" lon="5.34815">
        <ele>317.20001220703</ele>
        <time>2022-06-11T06:29:25.000Z</time>
      </trkpt>
      <trkpt lat="49.74001" lon="5.3483">
        <ele>318.60000610352</ele>
        <time>2022-06-11T06:29:28.000Z</time>
      </trkpt>
      <trkpt lat="49.73995" lon="5.34848">
        <ele>320.39999389648</ele>
        <time>2022-06-11T06:29:31.000Z</time>
      </trkpt>
      <trkpt lat="49.73993" lon="5.34854">
        <ele>320.39999389648</ele>
        <time>2022-06-11T06:29:32.000Z</time>
      </trkpt>
      <trkpt lat="49.73987" lon="5.34879">
        <ele>321</ele>
        <time>2022-06-11T06:29:36.000Z</time>
      </trkpt>
      <trkpt lat="49.73985" lon="5.34885">
        <ele>321.20001220703</ele>
        <time>2022-06-11T06:29:37.000Z</time>
      </trkpt>
      <trkpt lat="49.73976" lon="5.34906">
        <ele>320.20001220703</ele>
        <time>2022-06-11T06:29:41.000Z</time>
      </trkpt>
      <trkpt lat="49.73975" lon="5.34911">
        <ele>320</ele>
        <time>2022-06-11T06:29:42.000Z</time>
      </trkpt>
      <trkpt lat="49.73965" lon="5.34927">
        <ele>319</ele>
        <time>2022-06-11T06:29:45.000Z</time>
      </trkpt>
      <trkpt lat="49.7396" lon="5.34934">
        <ele>318</ele>
        <time>2022-06-11T06:29:46.000Z</time>
      </trkpt>
      <trkpt lat="49.73956" lon="5.3494">
        <ele>317.20001220703</ele>
        <time>2022-06-11T06:29:47.000Z</time>
      </trkpt>
      <trkpt lat="49.73946" lon="5.34968">
        <ele>317</ele>
        <time>2022-06-11T06:29:50.000Z</time>
      </trkpt>
      <trkpt lat="49.73942" lon="5.34978">
        <ele>317.20001220703</ele>
        <time>2022-06-11T06:29:51.000Z</time>
      </trkpt>
      <trkpt lat="49.73936" lon="5.34995">
        <ele>317.79998779297</ele>
        <time>2022-06-11T06:29:53.000Z</time>
      </trkpt>
      <trkpt lat="49.73927" lon="5.3502">
        <ele>317.60000610352</ele>
        <time>2022-06-11T06:29:56.000Z</time>
      </trkpt>
      <trkpt lat="49.73907" lon="5.35084">
        <ele>317.60000610352</ele>
        <time>2022-06-11T06:30:03.000Z</time>
      </trkpt>
      <trkpt lat="49.73904" lon="5.35095">
        <ele>317.20001220703</ele>
        <time>2022-06-11T06:30:04.000Z</time>
      </trkpt>
      <trkpt lat="49.73903" lon="5.35124">
        <ele>317.39999389648</ele>
        <time>2022-06-11T06:30:07.000Z</time>
      </trkpt>
      <trkpt lat="49.73911" lon="5.3514">
        <ele>319</ele>
        <time>2022-06-11T06:30:10.000Z</time>
      </trkpt>
      <trkpt lat="49.73914" lon="5.35145">
        <ele>319.60000610352</ele>
        <time>2022-06-11T06:30:11.000Z</time>
      </trkpt>
      <trkpt lat="49.73919" lon="5.35155">
        <ele>321</ele>
        <time>2022-06-11T06:30:13.000Z</time>
      </trkpt>
      <trkpt lat="49.73925" lon="5.3517">
        <ele>322.39999389648</ele>
        <time>2022-06-11T06:30:15.000Z</time>
      </trkpt>
      <trkpt lat="49.73929" lon="5.35185">
        <ele>323.20001220703</ele>
        <time>2022-06-11T06:30:17.000Z</time>
      </trkpt>
      <trkpt lat="49.73933" lon="5.35199">
        <ele>324</ele>
        <time>2022-06-11T06:30:19.000Z</time>
      </trkpt>
      <trkpt lat="49.73934" lon="5.35206">
        <ele>324.60000610352</ele>
        <time>2022-06-11T06:30:20.000Z</time>
      </trkpt>
      <trkpt lat="49.73938" lon="5.35221">
        <ele>325.79998779297</ele>
        <time>2022-06-11T06:30:22.000Z</time>
      </trkpt>
      <trkpt lat="49.7394" lon="5.35243">
        <ele>328</ele>
        <time>2022-06-11T06:30:25.000Z</time>
      </trkpt>
      <trkpt lat="49.73941" lon="5.35263">
        <ele>331.60000610352</ele>
        <time>2022-06-11T06:30:29.000Z</time>
      </trkpt>
      <trkpt lat="49.73941" lon="5.35268">
        <ele>332.39999389648</ele>
        <time>2022-06-11T06:30:30.000Z</time>
      </trkpt>
      <trkpt lat="49.73943" lon="5.35279">
        <ele>334.20001220703</ele>
        <time>2022-06-11T06:30:32.000Z</time>
      </trkpt>
      <trkpt lat="49.73946" lon="5.35294">
        <ele>336.79998779297</ele>
        <time>2022-06-11T06:30:35.000Z</time>
      </trkpt>
      <trkpt lat="49.73949" lon="5.35304">
        <ele>338.60000610352</ele>
        <time>2022-06-11T06:30:37.000Z</time>
      </trkpt>
      <trkpt lat="49.73959" lon="5.35334">
        <ele>342.60000610352</ele>
        <time>2022-06-11T06:30:43.000Z</time>
      </trkpt>
      <trkpt lat="49.73961" lon="5.35341">
        <ele>343.60000610352</ele>
        <time>2022-06-11T06:30:44.000Z</time>
      </trkpt>
      <trkpt lat="49.73968" lon="5.35358">
        <ele>345.79998779297</ele>
        <time>2022-06-11T06:30:47.000Z</time>
      </trkpt>
      <trkpt lat="49.73973" lon="5.3537">
        <ele>347.20001220703</ele>
        <time>2022-06-11T06:30:49.000Z</time>
      </trkpt>
      <trkpt lat="49.73976" lon="5.35377">
        <ele>348</ele>
        <time>2022-06-11T06:30:50.000Z</time>
      </trkpt>
      <trkpt lat="49.73983" lon="5.35396">
        <ele>349.60000610352</ele>
        <time>2022-06-11T06:30:53.000Z</time>
      </trkpt>
      <trkpt lat="49.73988" lon="5.35413">
        <ele>350.79998779297</ele>
        <time>2022-06-11T06:30:56.000Z</time>
      </trkpt>
      <trkpt lat="49.7399" lon="5.35418">
        <ele>351</ele>
        <time>2022-06-11T06:30:57.000Z</time>
      </trkpt>
      <trkpt lat="49.73996" lon="5.35435">
        <ele>352.60000610352</ele>
        <time>2022-06-11T06:31:01.000Z</time>
      </trkpt>
      <trkpt lat="49.74" lon="5.3544">
        <ele>352.39999389648</ele>
        <time>2022-06-11T06:31:02.000Z</time>
      </trkpt>
      <trkpt lat="49.74005" lon="5.35451">
        <ele>353.60000610352</ele>
        <time>2022-06-11T06:31:04.000Z</time>
      </trkpt>
      <trkpt lat="49.74014" lon="5.35466">
        <ele>354.60000610352</ele>
        <time>2022-06-11T06:31:07.000Z</time>
      </trkpt>
      <trkpt lat="49.74017" lon="5.35471">
        <ele>355.20001220703</ele>
        <time>2022-06-11T06:31:08.000Z</time>
      </trkpt>
      <trkpt lat="49.74024" lon="5.35481">
        <ele>355.79998779297</ele>
        <time>2022-06-11T06:31:10.000Z</time>
      </trkpt>
      <trkpt lat="49.7405" lon="5.35499">
        <ele>354.39999389648</ele>
        <time>2022-06-11T06:31:14.000Z</time>
      </trkpt>
      <trkpt lat="49.74056" lon="5.35501">
        <ele>353.79998779297</ele>
        <time>2022-06-11T06:31:15.000Z</time>
      </trkpt>
      <trkpt lat="49.74072" lon="5.35511">
        <ele>353.60000610352</ele>
        <time>2022-06-11T06:31:19.000Z</time>
      </trkpt>
      <trkpt lat="49.74081" lon="5.35516">
        <ele>354</ele>
        <time>2022-06-11T06:31:21.000Z</time>
      </trkpt>
      <trkpt lat="49.74104" lon="5.35531">
        <ele>355</ele>
        <time>2022-06-11T06:31:26.000Z</time>
      </trkpt>
      <trkpt lat="49.74116" lon="5.35537">
        <ele>355</ele>
        <time>2022-06-11T06:31:28.000Z</time>
      </trkpt>
      <trkpt lat="49.74129" lon="5.35549">
        <ele>354.20001220703</ele>
        <time>2022-06-11T06:31:32.000Z</time>
      </trkpt>
      <trkpt lat="49.74136" lon="5.35557">
        <ele>353.79998779297</ele>
        <time>2022-06-11T06:31:34.000Z</time>
      </trkpt>
      <trkpt lat="49.74152" lon="5.35576">
        <ele>353.39999389648</ele>
        <time>2022-06-11T06:31:39.000Z</time>
      </trkpt>
      <trkpt lat="49.74169" lon="5.35597">
        <ele>353.39999389648</ele>
        <time>2022-06-11T06:31:44.000Z</time>
      </trkpt>
      <trkpt lat="49.74172" lon="5.35602">
        <ele>353.60000610352</ele>
        <time>2022-06-11T06:31:45.000Z</time>
      </trkpt>
      <trkpt lat="49.74186" lon="5.35627">
        <ele>352.60000610352</ele>
        <time>2022-06-11T06:31:50.000Z</time>
      </trkpt>
      <trkpt lat="49.74193" lon="5.35638">
        <ele>351.79998779297</ele>
        <time>2022-06-11T06:31:52.000Z</time>
      </trkpt>
      <trkpt lat="49.74199" lon="5.35648">
        <ele>351</ele>
        <time>2022-06-11T06:31:54.000Z</time>
      </trkpt>
      <trkpt lat="49.74207" lon="5.35662">
        <ele>351.39999389648</ele>
        <time>2022-06-11T06:31:57.000Z</time>
      </trkpt>
      <trkpt lat="49.74209" lon="5.35667">
        <ele>351.79998779297</ele>
        <time>2022-06-11T06:31:58.000Z</time>
      </trkpt>
      <trkpt lat="49.74214" lon="5.35682">
        <ele>353.39999389648</ele>
        <time>2022-06-11T06:32:01.000Z</time>
      </trkpt>
      <trkpt lat="49.74224" lon="5.35702">
        <ele>355.60000610352</ele>
        <time>2022-06-11T06:32:05.000Z</time>
      </trkpt>
      <trkpt lat="49.74229" lon="5.35712">
        <ele>356.79998779297</ele>
        <time>2022-06-11T06:32:07.000Z</time>
      </trkpt>
      <trkpt lat="49.74235" lon="5.35726">
        <ele>358.39999389648</ele>
        <time>2022-06-11T06:32:10.000Z</time>
      </trkpt>
      <trkpt lat="49.74245" lon="5.35746">
        <ele>360.20001220703</ele>
        <time>2022-06-11T06:32:14.000Z</time>
      </trkpt>
      <trkpt lat="49.74253" lon="5.3576">
        <ele>361.20001220703</ele>
        <time>2022-06-11T06:32:17.000Z</time>
      </trkpt>
      <trkpt lat="49.74256" lon="5.35765">
        <ele>361.39999389648</ele>
        <time>2022-06-11T06:32:18.000Z</time>
      </trkpt>
      <trkpt lat="49.74266" lon="5.35783">
        <ele>363</ele>
        <time>2022-06-11T06:32:22.000Z</time>
      </trkpt>
      <trkpt lat="49.7427" lon="5.35787">
        <ele>363</ele>
        <time>2022-06-11T06:32:23.000Z</time>
      </trkpt>
      <trkpt lat="49.74287" lon="5.35798">
        <ele>362.20001220703</ele>
        <time>2022-06-11T06:32:28.000Z</time>
      </trkpt>
      <trkpt lat="49.74295" lon="5.358">
        <ele>361.79998779297</ele>
        <time>2022-06-11T06:32:30.000Z</time>
      </trkpt>
      <trkpt lat="49.74319" lon="5.35811">
        <ele>361.60000610352</ele>
        <time>2022-06-11T06:32:36.000Z</time>
      </trkpt>
      <trkpt lat="49.7433" lon="5.35816">
        <ele>362.60000610352</ele>
        <time>2022-06-11T06:32:39.000Z</time>
      </trkpt>
      <trkpt lat="49.74352" lon="5.35825">
        <ele>363.79998779297</ele>
        <time>2022-06-11T06:32:44.000Z</time>
      </trkpt>
      <trkpt lat="49.74356" lon="5.35826">
        <ele>364</ele>
        <time>2022-06-11T06:32:45.000Z</time>
      </trkpt>
      <trkpt lat="49.7438" lon="5.35838">
        <ele>363.79998779297</ele>
        <time>2022-06-11T06:32:50.000Z</time>
      </trkpt>
      <trkpt lat="49.74405" lon="5.35853">
        <ele>363.39999389648</ele>
        <time>2022-06-11T06:32:55.000Z</time>
      </trkpt>
      <trkpt lat="49.74408" lon="5.35859">
        <ele>363.60000610352</ele>
        <time>2022-06-11T06:32:56.000Z</time>
      </trkpt>
      <trkpt lat="49.74417" lon="5.35879">
        <ele>365</ele>
        <time>2022-06-11T06:32:59.000Z</time>
      </trkpt>
      <trkpt lat="49.74424" lon="5.35895">
        <ele>365.39999389648</ele>
        <time>2022-06-11T06:33:01.000Z</time>
      </trkpt>
      <trkpt lat="49.74429" lon="5.35908">
        <ele>365.60000610352</ele>
        <time>2022-06-11T06:33:03.000Z</time>
      </trkpt>
      <trkpt lat="49.74435" lon="5.35921">
        <ele>365.20001220703</ele>
        <time>2022-06-11T06:33:05.000Z</time>
      </trkpt>
      <trkpt lat="49.7444" lon="5.35935">
        <ele>364.60000610352</ele>
        <time>2022-06-11T06:33:07.000Z</time>
      </trkpt>
      <trkpt lat="49.74442" lon="5.3595">
        <ele>364.39999389648</ele>
        <time>2022-06-11T06:33:09.000Z</time>
      </trkpt>
      <trkpt lat="49.74443" lon="5.3597">
        <ele>364.39999389648</ele>
        <time>2022-06-11T06:33:12.000Z</time>
      </trkpt>
      <trkpt lat="49.74444" lon="5.35992">
        <ele>365</ele>
        <time>2022-06-11T06:33:15.000Z</time>
      </trkpt>
      <trkpt lat="49.74447" lon="5.36029">
        <ele>365.39999389648</ele>
        <time>2022-06-11T06:33:20.000Z</time>
      </trkpt>
      <trkpt lat="49.7445" lon="5.36044">
        <ele>365</ele>
        <time>2022-06-11T06:33:22.000Z</time>
      </trkpt>
      <trkpt lat="49.74458" lon="5.36063">
        <ele>364.79998779297</ele>
        <time>2022-06-11T06:33:25.000Z</time>
      </trkpt>
      <trkpt lat="49.74466" lon="5.36075">
        <ele>364.60000610352</ele>
        <time>2022-06-11T06:33:27.000Z</time>
      </trkpt>
      <trkpt lat="49.74475" lon="5.36092">
        <ele>364.79998779297</ele>
        <time>2022-06-11T06:33:30.000Z</time>
      </trkpt>
      <trkpt lat="49.74478" lon="5.36098">
        <ele>365</ele>
        <time>2022-06-11T06:33:31.000Z</time>
      </trkpt>
      <trkpt lat="49.74484" lon="5.3611">
        <ele>365.39999389648</ele>
        <time>2022-06-11T06:33:33.000Z</time>
      </trkpt>
      <trkpt lat="49.74486" lon="5.36123">
        <ele>365.79998779297</ele>
        <time>2022-06-11T06:33:35.000Z</time>
      </trkpt>
      <trkpt lat="49.74488" lon="5.36141">
        <ele>366.79998779297</ele>
        <time>2022-06-11T06:33:38.000Z</time>
      </trkpt>
      <trkpt lat="49.74486" lon="5.36152">
        <ele>367.39999389648</ele>
        <time>2022-06-11T06:33:40.000Z</time>
      </trkpt>
      <trkpt lat="49.74483" lon="5.36162">
        <ele>368</ele>
        <time>2022-06-11T06:33:42.000Z</time>
      </trkpt>
      <trkpt lat="49.74481" lon="5.36175">
        <ele>369.39999389648</ele>
        <time>2022-06-11T06:33:45.000Z</time>
      </trkpt>
      <trkpt lat="49.7448" lon="5.36179">
        <ele>369.79998779297</ele>
        <time>2022-06-11T06:33:46.000Z</time>
      </trkpt>
      <trkpt lat="49.74478" lon="5.36196">
        <ele>371.60000610352</ele>
        <time>2022-06-11T06:33:49.000Z</time>
      </trkpt>
      <trkpt lat="49.74472" lon="5.36218">
        <ele>373.79998779297</ele>
        <time>2022-06-11T06:33:53.000Z</time>
      </trkpt>
      <trkpt lat="49.74463" lon="5.36239">
        <ele>375</ele>
        <time>2022-06-11T06:33:57.000Z</time>
      </trkpt>
      <trkpt lat="49.74456" lon="5.3626">
        <ele>375.39999389648</ele>
        <time>2022-06-11T06:34:01.000Z</time>
      </trkpt>
      <trkpt lat="49.74451" lon="5.36275">
        <ele>375</ele>
        <time>2022-06-11T06:34:04.000Z</time>
      </trkpt>
      <trkpt lat="49.74444" lon="5.36292">
        <ele>376.20001220703</ele>
        <time>2022-06-11T06:34:08.000Z</time>
      </trkpt>
      <trkpt lat="49.7444" lon="5.36306">
        <ele>377</ele>
        <time>2022-06-11T06:34:13.000Z</time>
      </trkpt>
      <trkpt lat="49.74438" lon="5.36313">
        <ele>377.39999389648</ele>
        <time>2022-06-11T06:34:15.000Z</time>
      </trkpt>
      <trkpt lat="49.74435" lon="5.36329">
        <ele>377.20001220703</ele>
        <time>2022-06-11T06:34:20.000Z</time>
      </trkpt>
      <trkpt lat="49.74425" lon="5.36358">
        <ele>378.20001220703</ele>
        <time>2022-06-11T06:34:26.000Z</time>
      </trkpt>
      <trkpt lat="49.74421" lon="5.36367">
        <ele>378.60000610352</ele>
        <time>2022-06-11T06:34:28.000Z</time>
      </trkpt>
      <trkpt lat="49.7441" lon="5.36395">
        <ele>380.39999389648</ele>
        <time>2022-06-11T06:34:33.000Z</time>
      </trkpt>
      <trkpt lat="49.74403" lon="5.36411">
        <ele>382</ele>
        <time>2022-06-11T06:34:36.000Z</time>
      </trkpt>
      <trkpt lat="49.74398" lon="5.36421">
        <ele>382.79998779297</ele>
        <time>2022-06-11T06:34:38.000Z</time>
      </trkpt>
      <trkpt lat="49.74394" lon="5.36427">
        <ele>383.20001220703</ele>
        <time>2022-06-11T06:34:39.000Z</time>
      </trkpt>
      <trkpt lat="49.74381" lon="5.36438">
        <ele>385.39999389648</ele>
        <time>2022-06-11T06:34:42.000Z</time>
      </trkpt>
      <trkpt lat="49.74377" lon="5.36442">
        <ele>386.39999389648</ele>
        <time>2022-06-11T06:34:43.000Z</time>
      </trkpt>
      <trkpt lat="49.74364" lon="5.36451">
        <ele>389</ele>
        <time>2022-06-11T06:34:45.000Z</time>
      </trkpt>
      <trkpt lat="49.74352" lon="5.36453">
        <ele>390.79998779297</ele>
        <time>2022-06-11T06:34:48.000Z</time>
      </trkpt>
      <trkpt lat="49.74348" lon="5.36452">
        <ele>391.20001220703</ele>
        <time>2022-06-11T06:34:49.000Z</time>
      </trkpt>
      <trkpt lat="49.74339" lon="5.36449">
        <ele>392.20001220703</ele>
        <time>2022-06-11T06:34:52.000Z</time>
      </trkpt>
      <trkpt lat="49.74336" lon="5.36446">
        <ele>392.60000610352</ele>
        <time>2022-06-11T06:34:53.000Z</time>
      </trkpt>
      <trkpt lat="49.74324" lon="5.36434">
        <ele>394.60000610352</ele>
        <time>2022-06-11T06:34:57.000Z</time>
      </trkpt>
      <trkpt lat="49.74322" lon="5.36431">
        <ele>395</ele>
        <time>2022-06-11T06:34:58.000Z</time>
      </trkpt>
      <trkpt lat="49.7431" lon="5.36418">
        <ele>397</ele>
        <time>2022-06-11T06:35:02.000Z</time>
      </trkpt>
      <trkpt lat="49.74307" lon="5.36415">
        <ele>397.39999389648</ele>
        <time>2022-06-11T06:35:03.000Z</time>
      </trkpt>
      <trkpt lat="49.7429" lon="5.364">
        <ele>399</ele>
        <time>2022-06-11T06:35:08.000Z</time>
      </trkpt>
      <trkpt lat="49.74283" lon="5.36393">
        <ele>399.60000610352</ele>
        <time>2022-06-11T06:35:10.000Z</time>
      </trkpt>
      <trkpt lat="49.74272" lon="5.36383">
        <ele>398.60000610352</ele>
        <time>2022-06-11T06:35:13.000Z</time>
      </trkpt>
      <trkpt lat="49.74267" lon="5.36374">
        <ele>398.20001220703</ele>
        <time>2022-06-11T06:35:15.000Z</time>
      </trkpt>
      <trkpt lat="49.74257" lon="5.36345">
        <ele>396.60000610352</ele>
        <time>2022-06-11T06:35:20.000Z</time>
      </trkpt>
      <trkpt lat="49.74253" lon="5.3633">
        <ele>395.39999389648</ele>
        <time>2022-06-11T06:35:22.000Z</time>
      </trkpt>
      <trkpt lat="49.74247" lon="5.36318">
        <ele>395</ele>
        <time>2022-06-11T06:35:25.000Z</time>
      </trkpt>
      <trkpt lat="49.74242" lon="5.36306">
        <ele>394.20001220703</ele>
        <time>2022-06-11T06:35:27.000Z</time>
      </trkpt>
      <trkpt lat="49.74232" lon="5.36292">
        <ele>393.60000610352</ele>
        <time>2022-06-11T06:35:30.000Z</time>
      </trkpt>
      <trkpt lat="49.74228" lon="5.36286">
        <ele>393.60000610352</ele>
        <time>2022-06-11T06:35:31.000Z</time>
      </trkpt>
      <trkpt lat="49.7422" lon="5.36269">
        <ele>394</ele>
        <time>2022-06-11T06:35:34.000Z</time>
      </trkpt>
      <trkpt lat="49.74217" lon="5.36263">
        <ele>394.39999389648</ele>
        <time>2022-06-11T06:35:35.000Z</time>
      </trkpt>
      <trkpt lat="49.74205" lon="5.36243">
        <ele>395.20001220703</ele>
        <time>2022-06-11T06:35:39.000Z</time>
      </trkpt>
      <trkpt lat="49.74193" lon="5.36228">
        <ele>396</ele>
        <time>2022-06-11T06:35:42.000Z</time>
      </trkpt>
      <trkpt lat="49.74189" lon="5.36224">
        <ele>396.20001220703</ele>
        <time>2022-06-11T06:35:43.000Z</time>
      </trkpt>
      <trkpt lat="49.74184" lon="5.36221">
        <ele>396.60000610352</ele>
        <time>2022-06-11T06:35:44.000Z</time>
      </trkpt>
      <trkpt lat="49.74167" lon="5.36209">
        <ele>397.39999389648</ele>
        <time>2022-06-11T06:35:48.000Z</time>
      </trkpt>
      <trkpt lat="49.74148" lon="5.36204">
        <ele>397.60000610352</ele>
        <time>2022-06-11T06:35:53.000Z</time>
      </trkpt>
      <trkpt lat="49.74145" lon="5.36206">
        <ele>397.39999389648</ele>
        <time>2022-06-11T06:35:54.000Z</time>
      </trkpt>
      <trkpt lat="49.74138" lon="5.36214">
        <ele>396.79998779297</ele>
        <time>2022-06-11T06:35:56.000Z</time>
      </trkpt>
      <trkpt lat="49.74135" lon="5.36218">
        <ele>396.60000610352</ele>
        <time>2022-06-11T06:35:57.000Z</time>
      </trkpt>
      <trkpt lat="49.74124" lon="5.36231">
        <ele>395</ele>
        <time>2022-06-11T06:36:00.000Z</time>
      </trkpt>
      <trkpt lat="49.74115" lon="5.3624">
        <ele>394.39999389648</ele>
        <time>2022-06-11T06:36:02.000Z</time>
      </trkpt>
      <trkpt lat="49.741" lon="5.36255">
        <ele>392.79998779297</ele>
        <time>2022-06-11T06:36:05.000Z</time>
      </trkpt>
      <trkpt lat="49.74084" lon="5.36272">
        <ele>390.79998779297</ele>
        <time>2022-06-11T06:36:08.000Z</time>
      </trkpt>
      <trkpt lat="49.74073" lon="5.36285">
        <ele>389.39999389648</ele>
        <time>2022-06-11T06:36:10.000Z</time>
      </trkpt>
      <trkpt lat="49.74066" lon="5.36289">
        <ele>388.39999389648</ele>
        <time>2022-06-11T06:36:11.000Z</time>
      </trkpt>
      <trkpt lat="49.74058" lon="5.36292">
        <ele>387.39999389648</ele>
        <time>2022-06-11T06:36:12.000Z</time>
      </trkpt>
      <trkpt lat="49.74051" lon="5.36293">
        <ele>387</ele>
        <time>2022-06-11T06:36:13.000Z</time>
      </trkpt>
      <trkpt lat="49.74044" lon="5.36296">
        <ele>386.60000610352</ele>
        <time>2022-06-11T06:36:14.000Z</time>
      </trkpt>
      <trkpt lat="49.74025" lon="5.36305">
        <ele>385.20001220703</ele>
        <time>2022-06-11T06:36:17.000Z</time>
      </trkpt>
      <trkpt lat="49.74017" lon="5.36309">
        <ele>384.60000610352</ele>
        <time>2022-06-11T06:36:18.000Z</time>
      </trkpt>
      <trkpt lat="49.73997" lon="5.36319">
        <ele>382.39999389648</ele>
        <time>2022-06-11T06:36:21.000Z</time>
      </trkpt>
      <trkpt lat="49.73991" lon="5.36323">
        <ele>381.60000610352</ele>
        <time>2022-06-11T06:36:22.000Z</time>
      </trkpt>
      <trkpt lat="49.73979" lon="5.36329">
        <ele>380</ele>
        <time>2022-06-11T06:36:24.000Z</time>
      </trkpt>
      <trkpt lat="49.73968" lon="5.36333">
        <ele>377.39999389648</ele>
        <time>2022-06-11T06:36:26.000Z</time>
      </trkpt>
      <trkpt lat="49.73963" lon="5.36334">
        <ele>376.20001220703</ele>
        <time>2022-06-11T06:36:27.000Z</time>
      </trkpt>
      <trkpt lat="49.73958" lon="5.36334">
        <ele>375.20001220703</ele>
        <time>2022-06-11T06:36:28.000Z</time>
      </trkpt>
      <trkpt lat="49.73952" lon="5.36334">
        <ele>374</ele>
        <time>2022-06-11T06:36:29.000Z</time>
      </trkpt>
      <trkpt lat="49.73946" lon="5.36333">
        <ele>371.60000610352</ele>
        <time>2022-06-11T06:36:30.000Z</time>
      </trkpt>
      <trkpt lat="49.73938" lon="5.36318">
        <ele>368.60000610352</ele>
        <time>2022-06-11T06:36:32.000Z</time>
      </trkpt>
      <trkpt lat="49.73933" lon="5.36302">
        <ele>366.39999389648</ele>
        <time>2022-06-11T06:36:34.000Z</time>
      </trkpt>
      <trkpt lat="49.73931" lon="5.36283">
        <ele>365.20001220703</ele>
        <time>2022-06-11T06:36:36.000Z</time>
      </trkpt>
      <trkpt lat="49.73933" lon="5.36274">
        <ele>365.39999389648</ele>
        <time>2022-06-11T06:36:37.000Z</time>
      </trkpt>
      <trkpt lat="49.73936" lon="5.36258">
        <ele>366.20001220703</ele>
        <time>2022-06-11T06:36:39.000Z</time>
      </trkpt>
      <trkpt lat="49.73938" lon="5.36249">
        <ele>366.60000610352</ele>
        <time>2022-06-11T06:36:40.000Z</time>
      </trkpt>
      <trkpt lat="49.73942" lon="5.36231">
        <ele>368.20001220703</ele>
        <time>2022-06-11T06:36:42.000Z</time>
      </trkpt>
      <trkpt lat="49.73943" lon="5.36222">
        <ele>368.20001220703</ele>
        <time>2022-06-11T06:36:43.000Z</time>
      </trkpt>
      <trkpt lat="49.73943" lon="5.36202">
        <ele>368</ele>
        <time>2022-06-11T06:36:45.000Z</time>
      </trkpt>
      <trkpt lat="49.73942" lon="5.36192">
        <ele>367.79998779297</ele>
        <time>2022-06-11T06:36:46.000Z</time>
      </trkpt>
      <trkpt lat="49.73941" lon="5.36182">
        <ele>367.39999389648</ele>
        <time>2022-06-11T06:36:47.000Z</time>
      </trkpt>
      <trkpt lat="49.73935" lon="5.3615">
        <ele>366</ele>
        <time>2022-06-11T06:36:50.000Z</time>
      </trkpt>
      <trkpt lat="49.73932" lon="5.36139">
        <ele>364.79998779297</ele>
        <time>2022-06-11T06:36:51.000Z</time>
      </trkpt>
      <trkpt lat="49.73926" lon="5.36115">
        <ele>362.39999389648</ele>
        <time>2022-06-11T06:36:53.000Z</time>
      </trkpt>
      <trkpt lat="49.73921" lon="5.36093">
        <ele>360.79998779297</ele>
        <time>2022-06-11T06:36:55.000Z</time>
      </trkpt>
      <trkpt lat="49.73914" lon="5.3607">
        <ele>358.79998779297</ele>
        <time>2022-06-11T06:36:57.000Z</time>
      </trkpt>
      <trkpt lat="49.73907" lon="5.36044">
        <ele>355.79998779297</ele>
        <time>2022-06-11T06:36:59.000Z</time>
      </trkpt>
      <trkpt lat="49.73899" lon="5.36016">
        <ele>352.79998779297</ele>
        <time>2022-06-11T06:37:01.000Z</time>
      </trkpt>
      <trkpt lat="49.73895" lon="5.36002">
        <ele>350.79998779297</ele>
        <time>2022-06-11T06:37:02.000Z</time>
      </trkpt>
      <trkpt lat="49.73892" lon="5.35988">
        <ele>349.60000610352</ele>
        <time>2022-06-11T06:37:03.000Z</time>
      </trkpt>
      <trkpt lat="49.73889" lon="5.35974">
        <ele>348.79998779297</ele>
        <time>2022-06-11T06:37:04.000Z</time>
      </trkpt>
      <trkpt lat="49.73887" lon="5.35961">
        <ele>348.39999389648</ele>
        <time>2022-06-11T06:37:05.000Z</time>
      </trkpt>
      <trkpt lat="49.73881" lon="5.35933">
        <ele>348.20001220703</ele>
        <time>2022-06-11T06:37:07.000Z</time>
      </trkpt>
      <trkpt lat="49.73877" lon="5.35904">
        <ele>350.39999389648</ele>
        <time>2022-06-11T06:37:09.000Z</time>
      </trkpt>
      <trkpt lat="49.73875" lon="5.35889">
        <ele>351.39999389648</ele>
        <time>2022-06-11T06:37:10.000Z</time>
      </trkpt>
      <trkpt lat="49.7387" lon="5.3586">
        <ele>351.79998779297</ele>
        <time>2022-06-11T06:37:12.000Z</time>
      </trkpt>
      <trkpt lat="49.73868" lon="5.35845">
        <ele>351.60000610352</ele>
        <time>2022-06-11T06:37:13.000Z</time>
      </trkpt>
      <trkpt lat="49.73865" lon="5.3583">
        <ele>350.79998779297</ele>
        <time>2022-06-11T06:37:14.000Z</time>
      </trkpt>
      <trkpt lat="49.73861" lon="5.358">
        <ele>348.39999389648</ele>
        <time>2022-06-11T06:37:16.000Z</time>
      </trkpt>
      <trkpt lat="49.73857" lon="5.3577">
        <ele>345.60000610352</ele>
        <time>2022-06-11T06:37:18.000Z</time>
      </trkpt>
      <trkpt lat="49.73855" lon="5.35757">
        <ele>344.79998779297</ele>
        <time>2022-06-11T06:37:19.000Z</time>
      </trkpt>
      <trkpt lat="49.73854" lon="5.35745">
        <ele>344.20001220703</ele>
        <time>2022-06-11T06:37:20.000Z</time>
      </trkpt>
      <trkpt lat="49.73852" lon="5.3572">
        <ele>344.20001220703</ele>
        <time>2022-06-11T06:37:22.000Z</time>
      </trkpt>
      <trkpt lat="49.73849" lon="5.35708">
        <ele>343.20001220703</ele>
        <time>2022-06-11T06:37:23.000Z</time>
      </trkpt>
      <trkpt lat="49.73843" lon="5.35683">
        <ele>340</ele>
        <time>2022-06-11T06:37:25.000Z</time>
      </trkpt>
      <trkpt lat="49.73836" lon="5.35656">
        <ele>337.79998779297</ele>
        <time>2022-06-11T06:37:27.000Z</time>
      </trkpt>
      <trkpt lat="49.73831" lon="5.35633">
        <ele>337</ele>
        <time>2022-06-11T06:37:29.000Z</time>
      </trkpt>
      <trkpt lat="49.73826" lon="5.35609">
        <ele>335.20001220703</ele>
        <time>2022-06-11T06:37:31.000Z</time>
      </trkpt>
      <trkpt lat="49.73821" lon="5.35584">
        <ele>333.39999389648</ele>
        <time>2022-06-11T06:37:33.000Z</time>
      </trkpt>
      <trkpt lat="49.73818" lon="5.35572">
        <ele>332.20001220703</ele>
        <time>2022-06-11T06:37:34.000Z</time>
      </trkpt>
      <trkpt lat="49.73816" lon="5.3556">
        <ele>330.79998779297</ele>
        <time>2022-06-11T06:37:35.000Z</time>
      </trkpt>
      <trkpt lat="49.73812" lon="5.35548">
        <ele>329.39999389648</ele>
        <time>2022-06-11T06:37:36.000Z</time>
      </trkpt>
      <trkpt lat="49.73809" lon="5.35535">
        <ele>329</ele>
        <time>2022-06-11T06:37:37.000Z</time>
      </trkpt>
      <trkpt lat="49.73806" lon="5.35523">
        <ele>328.79998779297</ele>
        <time>2022-06-11T06:37:38.000Z</time>
      </trkpt>
      <trkpt lat="49.73801" lon="5.35501">
        <ele>328</ele>
        <time>2022-06-11T06:37:40.000Z</time>
      </trkpt>
      <trkpt lat="49.73796" lon="5.35479">
        <ele>327.20001220703</ele>
        <time>2022-06-11T06:37:42.000Z</time>
      </trkpt>
      <trkpt lat="49.73794" lon="5.35459">
        <ele>325.79998779297</ele>
        <time>2022-06-11T06:37:44.000Z</time>
      </trkpt>
      <trkpt lat="49.73793" lon="5.35446">
        <ele>325</ele>
        <time>2022-06-11T06:37:46.000Z</time>
      </trkpt>
      <trkpt lat="49.73789" lon="5.35446">
        <ele>323.20001220703</ele>
        <time>2022-06-11T06:37:49.000Z</time>
      </trkpt>
      <trkpt lat="49.73791" lon="5.35454">
        <ele>324.39999389648</ele>
        <time>2022-06-11T06:37:52.000Z</time>
      </trkpt>
      <trkpt lat="49.73792" lon="5.35458">
        <ele>325</ele>
        <time>2022-06-11T06:37:53.000Z</time>
      </trkpt>
      <trkpt lat="49.73794" lon="5.3548">
        <ele>326</ele>
        <time>2022-06-11T06:37:57.000Z</time>
      </trkpt>
      <trkpt lat="49.73793" lon="5.35493">
        <ele>325.20001220703</ele>
        <time>2022-06-11T06:37:58.000Z</time>
      </trkpt>
      <trkpt lat="49.73791" lon="5.3552">
        <ele>322.79998779297</ele>
        <time>2022-06-11T06:38:00.000Z</time>
      </trkpt>
      <trkpt lat="49.73788" lon="5.35548">
        <ele>321.20001220703</ele>
        <time>2022-06-11T06:38:02.000Z</time>
      </trkpt>
      <trkpt lat="49.73787" lon="5.35564">
        <ele>320.79998779297</ele>
        <time>2022-06-11T06:38:03.000Z</time>
      </trkpt>
      <trkpt lat="49.73783" lon="5.35597">
        <ele>320.39999389648</ele>
        <time>2022-06-11T06:38:05.000Z</time>
      </trkpt>
      <trkpt lat="49.73781" lon="5.35625">
        <ele>320.20001220703</ele>
        <time>2022-06-11T06:38:07.000Z</time>
      </trkpt>
      <trkpt lat="49.73783" lon="5.35659">
        <ele>319.79998779297</ele>
        <time>2022-06-11T06:38:10.000Z</time>
      </trkpt>
      <trkpt lat="49.73788" lon="5.35699">
        <ele>319.79998779297</ele>
        <time>2022-06-11T06:38:14.000Z</time>
      </trkpt>
      <trkpt lat="49.7379" lon="5.35751">
        <ele>318.79998779297</ele>
        <time>2022-06-11T06:38:20.000Z</time>
      </trkpt>
      <trkpt lat="49.73792" lon="5.35768">
        <ele>318.60000610352</ele>
        <time>2022-06-11T06:38:22.000Z</time>
      </trkpt>
      <trkpt lat="49.73793" lon="5.35776">
        <ele>318.79998779297</ele>
        <time>2022-06-11T06:38:23.000Z</time>
      </trkpt>
      <trkpt lat="49.73799" lon="5.35799">
        <ele>320.20001220703</ele>
        <time>2022-06-11T06:38:26.000Z</time>
      </trkpt>
      <trkpt lat="49.73806" lon="5.35853">
        <ele>323</ele>
        <time>2022-06-11T06:38:32.000Z</time>
      </trkpt>
      <trkpt lat="49.73807" lon="5.35863">
        <ele>322.60000610352</ele>
        <time>2022-06-11T06:38:33.000Z</time>
      </trkpt>
      <trkpt lat="49.73807" lon="5.35893">
        <ele>320.60000610352</ele>
        <time>2022-06-11T06:38:36.000Z</time>
      </trkpt>
      <trkpt lat="49.7381" lon="5.35914">
        <ele>319.39999389648</ele>
        <time>2022-06-11T06:38:38.000Z</time>
      </trkpt>
      <trkpt lat="49.73811" lon="5.35923">
        <ele>319</ele>
        <time>2022-06-11T06:38:39.000Z</time>
      </trkpt>
      <trkpt lat="49.73817" lon="5.35977">
        <ele>317.79998779297</ele>
        <time>2022-06-11T06:38:45.000Z</time>
      </trkpt>
      <trkpt lat="49.73818" lon="5.35995">
        <ele>318.79998779297</ele>
        <time>2022-06-11T06:38:47.000Z</time>
      </trkpt>
      <trkpt lat="49.73818" lon="5.36022">
        <ele>319</ele>
        <time>2022-06-11T06:38:50.000Z</time>
      </trkpt>
      <trkpt lat="49.73821" lon="5.36049">
        <ele>319.79998779297</ele>
        <time>2022-06-11T06:38:53.000Z</time>
      </trkpt>
      <trkpt lat="49.73821" lon="5.36066">
        <ele>320.20001220703</ele>
        <time>2022-06-11T06:38:55.000Z</time>
      </trkpt>
      <trkpt lat="49.73825" lon="5.36112">
        <ele>319.39999389648</ele>
        <time>2022-06-11T06:39:01.000Z</time>
      </trkpt>
      <trkpt lat="49.73827" lon="5.36118">
        <ele>319.60000610352</ele>
        <time>2022-06-11T06:39:02.000Z</time>
      </trkpt>
      <trkpt lat="49.73829" lon="5.36131">
        <ele>320</ele>
        <time>2022-06-11T06:39:04.000Z</time>
      </trkpt>
      <trkpt lat="49.73828" lon="5.36147">
        <ele>319.79998779297</ele>
        <time>2022-06-11T06:39:06.000Z</time>
      </trkpt>
      <trkpt lat="49.73827" lon="5.3619">
        <ele>321</ele>
        <time>2022-06-11T06:39:11.000Z</time>
      </trkpt>
      <trkpt lat="49.73838" lon="5.36241">
        <ele>322.79998779297</ele>
        <time>2022-06-11T06:39:17.000Z</time>
      </trkpt>
      <trkpt lat="49.73844" lon="5.36296">
        <ele>321.60000610352</ele>
        <time>2022-06-11T06:39:24.000Z</time>
      </trkpt>
      <trkpt lat="49.73846" lon="5.36335">
        <ele>321.20001220703</ele>
        <time>2022-06-11T06:39:30.000Z</time>
      </trkpt>
      <trkpt lat="49.73846" lon="5.36341">
        <ele>321.20001220703</ele>
        <time>2022-06-11T06:39:31.000Z</time>
      </trkpt>
      <trkpt lat="49.73846" lon="5.36358">
        <ele>321</ele>
        <time>2022-06-11T06:39:34.000Z</time>
      </trkpt>
      <trkpt lat="49.73847" lon="5.36379">
        <ele>321.79998779297</ele>
        <time>2022-06-11T06:39:38.000Z</time>
      </trkpt>
      <trkpt lat="49.73849" lon="5.36402">
        <ele>325</ele>
        <time>2022-06-11T06:39:43.000Z</time>
      </trkpt>
      <trkpt lat="49.73849" lon="5.36407">
        <ele>325.79998779297</ele>
        <time>2022-06-11T06:39:44.000Z</time>
      </trkpt>
      <trkpt lat="49.73846" lon="5.36426">
        <ele>328.39999389648</ele>
        <time>2022-06-11T06:39:47.000Z</time>
      </trkpt>
      <trkpt lat="49.73845" lon="5.36432">
        <ele>329</ele>
        <time>2022-06-11T06:39:48.000Z</time>
      </trkpt>
      <trkpt lat="49.73841" lon="5.36449">
        <ele>331.20001220703</ele>
        <time>2022-06-11T06:39:52.000Z</time>
      </trkpt>
      <trkpt lat="49.7383" lon="5.36473">
        <ele>333.79998779297</ele>
        <time>2022-06-11T06:39:57.000Z</time>
      </trkpt>
      <trkpt lat="49.73826" lon="5.36479">
        <ele>334</ele>
        <time>2022-06-11T06:39:58.000Z</time>
      </trkpt>
      <trkpt lat="49.7381" lon="5.36505">
        <ele>331.20001220703</ele>
        <time>2022-06-11T06:40:02.000Z</time>
      </trkpt>
      <trkpt lat="49.73805" lon="5.36511">
        <ele>330</ele>
        <time>2022-06-11T06:40:03.000Z</time>
      </trkpt>
      <trkpt lat="49.73786" lon="5.36535">
        <ele>323.20001220703</ele>
        <time>2022-06-11T06:40:07.000Z</time>
      </trkpt>
      <trkpt lat="49.73779" lon="5.36539">
        <ele>322.20001220703</ele>
        <time>2022-06-11T06:40:08.000Z</time>
      </trkpt>
      <trkpt lat="49.73754" lon="5.36553">
        <ele>316.39999389648</ele>
        <time>2022-06-11T06:40:11.000Z</time>
      </trkpt>
      <trkpt lat="49.73746" lon="5.36557">
        <ele>317.60000610352</ele>
        <time>2022-06-11T06:40:12.000Z</time>
      </trkpt>
      <trkpt lat="49.73731" lon="5.36559">
        <ele>317.39999389648</ele>
        <time>2022-06-11T06:40:14.000Z</time>
      </trkpt>
      <trkpt lat="49.73718" lon="5.36559">
        <ele>316.20001220703</ele>
        <time>2022-06-11T06:40:16.000Z</time>
      </trkpt>
      <trkpt lat="49.73711" lon="5.3656">
        <ele>316</ele>
        <time>2022-06-11T06:40:17.000Z</time>
      </trkpt>
      <trkpt lat="49.73694" lon="5.36562">
        <ele>317.39999389648</ele>
        <time>2022-06-11T06:40:20.000Z</time>
      </trkpt>
      <trkpt lat="49.73689" lon="5.36561">
        <ele>317.79998779297</ele>
        <time>2022-06-11T06:40:21.000Z</time>
      </trkpt>
      <trkpt lat="49.73661" lon="5.36556">
        <ele>319.39999389648</ele>
        <time>2022-06-11T06:40:26.000Z</time>
      </trkpt>
      <trkpt lat="49.73628" lon="5.36543">
        <ele>320.39999389648</ele>
        <time>2022-06-11T06:40:32.000Z</time>
      </trkpt>
      <trkpt lat="49.73599" lon="5.36524">
        <ele>322</ele>
        <time>2022-06-11T06:40:38.000Z</time>
      </trkpt>
      <trkpt lat="49.73582" lon="5.36519">
        <ele>325.20001220703</ele>
        <time>2022-06-11T06:40:43.000Z</time>
      </trkpt>
      <trkpt lat="49.73576" lon="5.36519">
        <ele>326.79998779297</ele>
        <time>2022-06-11T06:40:45.000Z</time>
      </trkpt>
      <trkpt lat="49.73564" lon="5.36519">
        <ele>329.20001220703</ele>
        <time>2022-06-11T06:40:48.000Z</time>
      </trkpt>
      <trkpt lat="49.73549" lon="5.36518">
        <ele>330.20001220703</ele>
        <time>2022-06-11T06:40:52.000Z</time>
      </trkpt>
      <trkpt lat="49.73538" lon="5.36517">
        <ele>331</ele>
        <time>2022-06-11T06:40:55.000Z</time>
      </trkpt>
      <trkpt lat="49.73526" lon="5.36514">
        <ele>331.20001220703</ele>
        <time>2022-06-11T06:40:58.000Z</time>
      </trkpt>
      <trkpt lat="49.7351" lon="5.36508">
        <ele>331.20001220703</ele>
        <time>2022-06-11T06:41:02.000Z</time>
      </trkpt>
      <trkpt lat="49.73506" lon="5.36506">
        <ele>331.20001220703</ele>
        <time>2022-06-11T06:41:03.000Z</time>
      </trkpt>
      <trkpt lat="49.7348" lon="5.36494">
        <ele>332.60000610352</ele>
        <time>2022-06-11T06:41:10.000Z</time>
      </trkpt>
      <trkpt lat="49.73477" lon="5.36494">
        <ele>332.79998779297</ele>
        <time>2022-06-11T06:41:11.000Z</time>
      </trkpt>
      <trkpt lat="49.73462" lon="5.36493">
        <ele>334.20001220703</ele>
        <time>2022-06-11T06:41:15.000Z</time>
      </trkpt>
      <trkpt lat="49.73458" lon="5.36493">
        <ele>334.60000610352</ele>
        <time>2022-06-11T06:41:16.000Z</time>
      </trkpt>
      <trkpt lat="49.73438" lon="5.36491">
        <ele>336</ele>
        <time>2022-06-11T06:41:21.000Z</time>
      </trkpt>
      <trkpt lat="49.7343" lon="5.3649">
        <ele>336.39999389648</ele>
        <time>2022-06-11T06:41:23.000Z</time>
      </trkpt>
      <trkpt lat="49.73422" lon="5.36489">
        <ele>336.60000610352</ele>
        <time>2022-06-11T06:41:25.000Z</time>
      </trkpt>
      <trkpt lat="49.73405" lon="5.36487">
        <ele>337.20001220703</ele>
        <time>2022-06-11T06:41:29.000Z</time>
      </trkpt>
      <trkpt lat="49.73397" lon="5.36486">
        <ele>337.79998779297</ele>
        <time>2022-06-11T06:41:31.000Z</time>
      </trkpt>
      <trkpt lat="49.73381" lon="5.36485">
        <ele>338.20001220703</ele>
        <time>2022-06-11T06:41:35.000Z</time>
      </trkpt>
      <trkpt lat="49.73364" lon="5.36482">
        <ele>339</ele>
        <time>2022-06-11T06:41:39.000Z</time>
      </trkpt>
      <trkpt lat="49.73351" lon="5.36481">
        <ele>339.79998779297</ele>
        <time>2022-06-11T06:41:42.000Z</time>
      </trkpt>
      <trkpt lat="49.73347" lon="5.3648">
        <ele>340.20001220703</ele>
        <time>2022-06-11T06:41:43.000Z</time>
      </trkpt>
      <trkpt lat="49.73319" lon="5.36476">
        <ele>341.39999389648</ele>
        <time>2022-06-11T06:41:49.000Z</time>
      </trkpt>
      <trkpt lat="49.73302" lon="5.36473">
        <ele>341.60000610352</ele>
        <time>2022-06-11T06:41:53.000Z</time>
      </trkpt>
      <trkpt lat="49.73289" lon="5.36472">
        <ele>341.79998779297</ele>
        <time>2022-06-11T06:41:56.000Z</time>
      </trkpt>
      <trkpt lat="49.73285" lon="5.36471">
        <ele>341.60000610352</ele>
        <time>2022-06-11T06:41:57.000Z</time>
      </trkpt>
      <trkpt lat="49.73268" lon="5.36467">
        <ele>341.39999389648</ele>
        <time>2022-06-11T06:42:01.000Z</time>
      </trkpt>
      <trkpt lat="49.73259" lon="5.36465">
        <ele>341</ele>
        <time>2022-06-11T06:42:03.000Z</time>
      </trkpt>
      <trkpt lat="49.73255" lon="5.36466">
        <ele>341.79998779297</ele>
        <time>2022-06-11T06:42:05.000Z</time>
      </trkpt>
      <trkpt lat="49.73252" lon="5.36468">
        <ele>342.60000610352</ele>
        <time>2022-06-11T06:42:06.000Z</time>
      </trkpt>
      <trkpt lat="49.7325" lon="5.36469">
        <ele>343.20001220703</ele>
        <time>2022-06-11T06:42:07.000Z</time>
      </trkpt>
      <trkpt lat="49.73242" lon="5.36474">
        <ele>345.79998779297</ele>
        <time>2022-06-11T06:42:10.000Z</time>
      </trkpt>
      <trkpt lat="49.73234" lon="5.36478">
        <ele>348</ele>
        <time>2022-06-11T06:42:13.000Z</time>
      </trkpt>
      <trkpt lat="49.73231" lon="5.36483">
        <ele>349.60000610352</ele>
        <time>2022-06-11T06:42:15.000Z</time>
      </trkpt>
      <trkpt lat="49.73229" lon="5.36485">
        <ele>350.60000610352</ele>
        <time>2022-06-11T06:42:16.000Z</time>
      </trkpt>
      <trkpt lat="49.73229" lon="5.36489">
        <ele>351.60000610352</ele>
        <time>2022-06-11T06:42:17.000Z</time>
      </trkpt>
      <trkpt lat="49.73228" lon="5.36497">
        <ele>353.20001220703</ele>
        <time>2022-06-11T06:42:19.000Z</time>
      </trkpt>
      <trkpt lat="49.73228" lon="5.36501">
        <ele>354</ele>
        <time>2022-06-11T06:42:20.000Z</time>
      </trkpt>
      <trkpt lat="49.73229" lon="5.36508">
        <ele>355</ele>
        <time>2022-06-11T06:42:22.000Z</time>
      </trkpt>
      <trkpt lat="49.73229" lon="5.36515">
        <ele>356.39999389648</ele>
        <time>2022-06-11T06:42:24.000Z</time>
      </trkpt>
      <trkpt lat="49.73229" lon="5.36524">
        <ele>357.79998779297</ele>
        <time>2022-06-11T06:42:26.000Z</time>
      </trkpt>
      <trkpt lat="49.7323" lon="5.36528">
        <ele>358.39999389648</ele>
        <time>2022-06-11T06:42:27.000Z</time>
      </trkpt>
      <trkpt lat="49.73233" lon="5.3654">
        <ele>359.60000610352</ele>
        <time>2022-06-11T06:42:30.000Z</time>
      </trkpt>
      <trkpt lat="49.73236" lon="5.36549">
        <ele>360.39999389648</ele>
        <time>2022-06-11T06:42:32.000Z</time>
      </trkpt>
      <trkpt lat="49.73239" lon="5.36556">
        <ele>361.39999389648</ele>
        <time>2022-06-11T06:42:34.000Z</time>
      </trkpt>
      <trkpt lat="49.73242" lon="5.36567">
        <ele>362.79998779297</ele>
        <time>2022-06-11T06:42:37.000Z</time>
      </trkpt>
      <trkpt lat="49.73242" lon="5.36571">
        <ele>363.20001220703</ele>
        <time>2022-06-11T06:42:38.000Z</time>
      </trkpt>
      <trkpt lat="49.73244" lon="5.36576">
        <ele>363.79998779297</ele>
        <time>2022-06-11T06:42:40.000Z</time>
      </trkpt>
      <trkpt lat="49.73246" lon="5.36586">
        <ele>365.20001220703</ele>
        <time>2022-06-11T06:42:43.000Z</time>
      </trkpt>
      <trkpt lat="49.73249" lon="5.36598">
        <ele>366.60000610352</ele>
        <time>2022-06-11T06:42:46.000Z</time>
      </trkpt>
      <trkpt lat="49.7325" lon="5.36602">
        <ele>366.79998779297</ele>
        <time>2022-06-11T06:42:47.000Z</time>
      </trkpt>
      <trkpt lat="49.73254" lon="5.36608">
        <ele>367.20001220703</ele>
        <time>2022-06-11T06:42:49.000Z</time>
      </trkpt>
      <trkpt lat="49.73257" lon="5.36616">
        <ele>367.79998779297</ele>
        <time>2022-06-11T06:42:51.000Z</time>
      </trkpt>
      <trkpt lat="49.73258" lon="5.36626">
        <ele>369</ele>
        <time>2022-06-11T06:42:54.000Z</time>
      </trkpt>
      <trkpt lat="49.73259" lon="5.36637">
        <ele>370.20001220703</ele>
        <time>2022-06-11T06:42:57.000Z</time>
      </trkpt>
      <trkpt lat="49.7326" lon="5.36648">
        <ele>370.60000610352</ele>
        <time>2022-06-11T06:43:00.000Z</time>
      </trkpt>
      <trkpt lat="49.7326" lon="5.36652">
        <ele>370.79998779297</ele>
        <time>2022-06-11T06:43:01.000Z</time>
      </trkpt>
      <trkpt lat="49.73261" lon="5.3666">
        <ele>371</ele>
        <time>2022-06-11T06:43:03.000Z</time>
      </trkpt>
      <trkpt lat="49.73263" lon="5.36671">
        <ele>371.60000610352</ele>
        <time>2022-06-11T06:43:06.000Z</time>
      </trkpt>
      <trkpt lat="49.73264" lon="5.36675">
        <ele>371.79998779297</ele>
        <time>2022-06-11T06:43:07.000Z</time>
      </trkpt>
      <trkpt lat="49.73266" lon="5.36688">
        <ele>372.79998779297</ele>
        <time>2022-06-11T06:43:10.000Z</time>
      </trkpt>
      <trkpt lat="49.73268" lon="5.36699">
        <ele>373.60000610352</ele>
        <time>2022-06-11T06:43:13.000Z</time>
      </trkpt>
      <trkpt lat="49.73272" lon="5.36716">
        <ele>374.39999389648</ele>
        <time>2022-06-11T06:43:17.000Z</time>
      </trkpt>
      <trkpt lat="49.73274" lon="5.36723">
        <ele>375</ele>
        <time>2022-06-11T06:43:19.000Z</time>
      </trkpt>
      <trkpt lat="49.73275" lon="5.36735">
        <ele>375.79998779297</ele>
        <time>2022-06-11T06:43:22.000Z</time>
      </trkpt>
      <trkpt lat="49.73275" lon="5.36748">
        <ele>376.79998779297</ele>
        <time>2022-06-11T06:43:25.000Z</time>
      </trkpt>
      <trkpt lat="49.73274" lon="5.36762">
        <ele>377.20001220703</ele>
        <time>2022-06-11T06:43:28.000Z</time>
      </trkpt>
      <trkpt lat="49.73273" lon="5.36785">
        <ele>378.79998779297</ele>
        <time>2022-06-11T06:43:32.000Z</time>
      </trkpt>
      <trkpt lat="49.73272" lon="5.36802">
        <ele>379.20001220703</ele>
        <time>2022-06-11T06:43:35.000Z</time>
      </trkpt>
      <trkpt lat="49.73271" lon="5.36811">
        <ele>379.39999389648</ele>
        <time>2022-06-11T06:43:37.000Z</time>
      </trkpt>
      <trkpt lat="49.73268" lon="5.36827">
        <ele>379.79998779297</ele>
        <time>2022-06-11T06:43:40.000Z</time>
      </trkpt>
      <trkpt lat="49.73265" lon="5.36845">
        <ele>380.39999389648</ele>
        <time>2022-06-11T06:43:43.000Z</time>
      </trkpt>
      <trkpt lat="49.73265" lon="5.36863">
        <ele>381.39999389648</ele>
        <time>2022-06-11T06:43:46.000Z</time>
      </trkpt>
      <trkpt lat="49.73267" lon="5.36881">
        <ele>382.60000610352</ele>
        <time>2022-06-11T06:43:49.000Z</time>
      </trkpt>
      <trkpt lat="49.73269" lon="5.36892">
        <ele>383</ele>
        <time>2022-06-11T06:43:51.000Z</time>
      </trkpt>
      <trkpt lat="49.73272" lon="5.36912">
        <ele>383.39999389648</ele>
        <time>2022-06-11T06:43:55.000Z</time>
      </trkpt>
      <trkpt lat="49.73269" lon="5.36941">
        <ele>383.60000610352</ele>
        <time>2022-06-11T06:44:00.000Z</time>
      </trkpt>
      <trkpt lat="49.7326" lon="5.36979">
        <ele>383.20001220703</ele>
        <time>2022-06-11T06:44:06.000Z</time>
      </trkpt>
      <trkpt lat="49.73248" lon="5.37028">
        <ele>383</ele>
        <time>2022-06-11T06:44:11.000Z</time>
      </trkpt>
      <trkpt lat="49.73245" lon="5.37061">
        <ele>382.60000610352</ele>
        <time>2022-06-11T06:44:14.000Z</time>
      </trkpt>
      <trkpt lat="49.73245" lon="5.3707">
        <ele>382.39999389648</ele>
        <time>2022-06-11T06:44:15.000Z</time>
      </trkpt>
      <trkpt lat="49.73244" lon="5.37088">
        <ele>382.20001220703</ele>
        <time>2022-06-11T06:44:17.000Z</time>
      </trkpt>
      <trkpt lat="49.7324" lon="5.37116">
        <ele>381</ele>
        <time>2022-06-11T06:44:20.000Z</time>
      </trkpt>
      <trkpt lat="49.73233" lon="5.37148">
        <ele>379.39999389648</ele>
        <time>2022-06-11T06:44:23.000Z</time>
      </trkpt>
      <trkpt lat="49.73228" lon="5.37172">
        <ele>378.60000610352</ele>
        <time>2022-06-11T06:44:25.000Z</time>
      </trkpt>
      <trkpt lat="49.73227" lon="5.37182">
        <ele>378.39999389648</ele>
        <time>2022-06-11T06:44:26.000Z</time>
      </trkpt>
      <trkpt lat="49.73227" lon="5.37196">
        <ele>378</ele>
        <time>2022-06-11T06:44:28.000Z</time>
      </trkpt>
      <trkpt lat="49.73226" lon="5.37209">
        <ele>378</ele>
        <time>2022-06-11T06:44:30.000Z</time>
      </trkpt>
      <trkpt lat="49.73223" lon="5.37239">
        <ele>376.79998779297</ele>
        <time>2022-06-11T06:44:33.000Z</time>
      </trkpt>
      <trkpt lat="49.73222" lon="5.37256">
        <ele>376.79998779297</ele>
        <time>2022-06-11T06:44:35.000Z</time>
      </trkpt>
      <trkpt lat="49.73223" lon="5.37264">
        <ele>376.79998779297</ele>
        <time>2022-06-11T06:44:36.000Z</time>
      </trkpt>
      <trkpt lat="49.73226" lon="5.37269">
        <ele>377</ele>
        <time>2022-06-11T06:44:37.000Z</time>
      </trkpt>
      <trkpt lat="49.73231" lon="5.37273">
        <ele>377</ele>
        <time>2022-06-11T06:44:39.000Z</time>
      </trkpt>
      <trkpt lat="49.73233" lon="5.37274">
        <ele>377.20001220703</ele>
        <time>2022-06-11T06:44:40.000Z</time>
      </trkpt>
      <trkpt lat="49.73238" lon="5.37275">
        <ele>377.39999389648</ele>
        <time>2022-06-11T06:44:42.000Z</time>
      </trkpt>
      <trkpt lat="49.73245" lon="5.37275">
        <ele>377.60000610352</ele>
        <time>2022-06-11T06:44:46.000Z</time>
      </trkpt>
      <trkpt lat="49.73248" lon="5.37275">
        <ele>377.60000610352</ele>
        <time>2022-06-11T06:44:47.000Z</time>
      </trkpt>
      <trkpt lat="49.73264" lon="5.37272">
        <ele>378.60000610352</ele>
        <time>2022-06-11T06:44:51.000Z</time>
      </trkpt>
      <trkpt lat="49.73277" lon="5.37274">
        <ele>379.39999389648</ele>
        <time>2022-06-11T06:44:54.000Z</time>
      </trkpt>
      <trkpt lat="49.73281" lon="5.37275">
        <ele>379.79998779297</ele>
        <time>2022-06-11T06:44:55.000Z</time>
      </trkpt>
      <trkpt lat="49.73289" lon="5.3728">
        <ele>380.39999389648</ele>
        <time>2022-06-11T06:44:58.000Z</time>
      </trkpt>
      <trkpt lat="49.73296" lon="5.37284">
        <ele>380.79998779297</ele>
        <time>2022-06-11T06:45:00.000Z</time>
      </trkpt>
      <trkpt lat="49.73306" lon="5.37288">
        <ele>381.60000610352</ele>
        <time>2022-06-11T06:45:03.000Z</time>
      </trkpt>
      <trkpt lat="49.73316" lon="5.37289">
        <ele>382.20001220703</ele>
        <time>2022-06-11T06:45:06.000Z</time>
      </trkpt>
      <trkpt lat="49.73324" lon="5.37289">
        <ele>382.39999389648</ele>
        <time>2022-06-11T06:45:08.000Z</time>
      </trkpt>
      <trkpt lat="49.73341" lon="5.37295">
        <ele>383</ele>
        <time>2022-06-11T06:45:12.000Z</time>
      </trkpt>
      <trkpt lat="49.73344" lon="5.37297">
        <ele>383</ele>
        <time>2022-06-11T06:45:13.000Z</time>
      </trkpt>
      <trkpt lat="49.73362" lon="5.37302">
        <ele>383</ele>
        <time>2022-06-11T06:45:18.000Z</time>
      </trkpt>
      <trkpt lat="49.73376" lon="5.37305">
        <ele>382.79998779297</ele>
        <time>2022-06-11T06:45:22.000Z</time>
      </trkpt>
      <trkpt lat="49.73384" lon="5.37307">
        <ele>382.60000610352</ele>
        <time>2022-06-11T06:45:24.000Z</time>
      </trkpt>
      <trkpt lat="49.73412" lon="5.37311">
        <ele>382.60000610352</ele>
        <time>2022-06-11T06:45:31.000Z</time>
      </trkpt>
      <trkpt lat="49.73419" lon="5.37311">
        <ele>382.60000610352</ele>
        <time>2022-06-11T06:45:33.000Z</time>
      </trkpt>
      <trkpt lat="49.73439" lon="5.37309">
        <ele>383.60000610352</ele>
        <time>2022-06-11T06:45:36.000Z</time>
      </trkpt>
      <trkpt lat="49.73446" lon="5.37308">
        <ele>384.20001220703</ele>
        <time>2022-06-11T06:45:37.000Z</time>
      </trkpt>
      <trkpt lat="49.73477" lon="5.37294">
        <ele>387.20001220703</ele>
        <time>2022-06-11T06:45:42.000Z</time>
      </trkpt>
      <trkpt lat="49.73486" lon="5.37289">
        <ele>387.39999389648</ele>
        <time>2022-06-11T06:45:44.000Z</time>
      </trkpt>
      <trkpt lat="49.735" lon="5.37283">
        <ele>387.60000610352</ele>
        <time>2022-06-11T06:45:47.000Z</time>
      </trkpt>
      <trkpt lat="49.73514" lon="5.37276">
        <ele>388.20001220703</ele>
        <time>2022-06-11T06:45:50.000Z</time>
      </trkpt>
      <trkpt lat="49.73519" lon="5.37273">
        <ele>388.39999389648</ele>
        <time>2022-06-11T06:45:51.000Z</time>
      </trkpt>
      <trkpt lat="49.73527" lon="5.37266">
        <ele>388.79998779297</ele>
        <time>2022-06-11T06:45:53.000Z</time>
      </trkpt>
      <trkpt lat="49.73532" lon="5.37263">
        <ele>389</ele>
        <time>2022-06-11T06:45:54.000Z</time>
      </trkpt>
      <trkpt lat="49.73546" lon="5.37258">
        <ele>389</ele>
        <time>2022-06-11T06:45:57.000Z</time>
      </trkpt>
      <trkpt lat="49.73549" lon="5.37256">
        <ele>389</ele>
        <time>2022-06-11T06:45:58.000Z</time>
      </trkpt>
      <trkpt lat="49.73563" lon="5.37255">
        <ele>389</ele>
        <time>2022-06-11T06:46:02.000Z</time>
      </trkpt>
      <trkpt lat="49.73579" lon="5.37263">
        <ele>388.39999389648</ele>
        <time>2022-06-11T06:46:06.000Z</time>
      </trkpt>
      <trkpt lat="49.73602" lon="5.37264">
        <ele>387.20001220703</ele>
        <time>2022-06-11T06:46:11.000Z</time>
      </trkpt>
      <trkpt lat="49.73611" lon="5.3727">
        <ele>386.60000610352</ele>
        <time>2022-06-11T06:46:14.000Z</time>
      </trkpt>
      <trkpt lat="49.73611" lon="5.37289">
        <ele>386</ele>
        <time>2022-06-11T06:46:17.000Z</time>
      </trkpt>
      <trkpt lat="49.73614" lon="5.37329">
        <ele>383</ele>
        <time>2022-06-11T06:46:22.000Z</time>
      </trkpt>
      <trkpt lat="49.73618" lon="5.37339">
        <ele>382.39999389648</ele>
        <time>2022-06-11T06:46:23.000Z</time>
      </trkpt>
      <trkpt lat="49.73628" lon="5.37357">
        <ele>381.79998779297</ele>
        <time>2022-06-11T06:46:25.000Z</time>
      </trkpt>
      <trkpt lat="49.73632" lon="5.37365">
        <ele>381.79998779297</ele>
        <time>2022-06-11T06:46:26.000Z</time>
      </trkpt>
      <trkpt lat="49.73636" lon="5.37373">
        <ele>381.79998779297</ele>
        <time>2022-06-11T06:46:27.000Z</time>
      </trkpt>
      <trkpt lat="49.73643" lon="5.37386">
        <ele>381.79998779297</ele>
        <time>2022-06-11T06:46:29.000Z</time>
      </trkpt>
      <trkpt lat="49.7365" lon="5.37396">
        <ele>382.39999389648</ele>
        <time>2022-06-11T06:46:31.000Z</time>
      </trkpt>
      <trkpt lat="49.73655" lon="5.37409">
        <ele>382.79998779297</ele>
        <time>2022-06-11T06:46:33.000Z</time>
      </trkpt>
      <trkpt lat="49.73664" lon="5.37433">
        <ele>382.60000610352</ele>
        <time>2022-06-11T06:46:37.000Z</time>
      </trkpt>
      <trkpt lat="49.73677" lon="5.37459">
        <ele>384</ele>
        <time>2022-06-11T06:46:42.000Z</time>
      </trkpt>
      <trkpt lat="49.73679" lon="5.37465">
        <ele>384.20001220703</ele>
        <time>2022-06-11T06:46:43.000Z</time>
      </trkpt>
      <trkpt lat="49.73686" lon="5.3748">
        <ele>385</ele>
        <time>2022-06-11T06:46:46.000Z</time>
      </trkpt>
      <trkpt lat="49.7369" lon="5.37484">
        <ele>385.20001220703</ele>
        <time>2022-06-11T06:46:47.000Z</time>
      </trkpt>
      <trkpt lat="49.73701" lon="5.37503">
        <ele>386.39999389648</ele>
        <time>2022-06-11T06:46:51.000Z</time>
      </trkpt>
      <trkpt lat="49.73714" lon="5.37524">
        <ele>388.79998779297</ele>
        <time>2022-06-11T06:46:54.000Z</time>
      </trkpt>
      <trkpt lat="49.73719" lon="5.37531">
        <ele>389.79998779297</ele>
        <time>2022-06-11T06:46:55.000Z</time>
      </trkpt>
      <trkpt lat="49.73734" lon="5.37556">
        <ele>392.20001220703</ele>
        <time>2022-06-11T06:47:00.000Z</time>
      </trkpt>
      <trkpt lat="49.7374" lon="5.37565">
        <ele>392.39999389648</ele>
        <time>2022-06-11T06:47:02.000Z</time>
      </trkpt>
      <trkpt lat="49.73751" lon="5.37588">
        <ele>393</ele>
        <time>2022-06-11T06:47:07.000Z</time>
      </trkpt>
      <trkpt lat="49.73765" lon="5.37612">
        <ele>392.60000610352</ele>
        <time>2022-06-11T06:47:11.000Z</time>
      </trkpt>
      <trkpt lat="49.7377" lon="5.37619">
        <ele>392.60000610352</ele>
        <time>2022-06-11T06:47:12.000Z</time>
      </trkpt>
      <trkpt lat="49.73788" lon="5.37648">
        <ele>391.60000610352</ele>
        <time>2022-06-11T06:47:18.000Z</time>
      </trkpt>
      <trkpt lat="49.738" lon="5.37664">
        <ele>391.60000610352</ele>
        <time>2022-06-11T06:47:24.000Z</time>
      </trkpt>
      <trkpt lat="49.73804" lon="5.37684">
        <ele>392.39999389648</ele>
        <time>2022-06-11T06:47:28.000Z</time>
      </trkpt>
      <trkpt lat="49.7381" lon="5.37697">
        <ele>392.60000610352</ele>
        <time>2022-06-11T06:47:30.000Z</time>
      </trkpt>
      <trkpt lat="49.73815" lon="5.3771">
        <ele>392.20001220703</ele>
        <time>2022-06-11T06:47:32.000Z</time>
      </trkpt>
      <trkpt lat="49.73824" lon="5.3774">
        <ele>391.20001220703</ele>
        <time>2022-06-11T06:47:36.000Z</time>
      </trkpt>
      <trkpt lat="49.73829" lon="5.37747">
        <ele>391</ele>
        <time>2022-06-11T06:47:37.000Z</time>
      </trkpt>
      <trkpt lat="49.73844" lon="5.37766">
        <ele>389.79998779297</ele>
        <time>2022-06-11T06:47:40.000Z</time>
      </trkpt>
      <trkpt lat="49.73852" lon="5.37778">
        <ele>389.39999389648</ele>
        <time>2022-06-11T06:47:42.000Z</time>
      </trkpt>
      <trkpt lat="49.73866" lon="5.3779">
        <ele>389.39999389648</ele>
        <time>2022-06-11T06:47:45.000Z</time>
      </trkpt>
      <trkpt lat="49.73875" lon="5.378">
        <ele>389.60000610352</ele>
        <time>2022-06-11T06:47:47.000Z</time>
      </trkpt>
      <trkpt lat="49.73878" lon="5.37805">
        <ele>389.79998779297</ele>
        <time>2022-06-11T06:47:48.000Z</time>
      </trkpt>
      <trkpt lat="49.73882" lon="5.37808">
        <ele>390</ele>
        <time>2022-06-11T06:47:49.000Z</time>
      </trkpt>
      <trkpt lat="49.73893" lon="5.37816">
        <ele>390.79998779297</ele>
        <time>2022-06-11T06:47:52.000Z</time>
      </trkpt>
      <trkpt lat="49.73898" lon="5.37818">
        <ele>391.39999389648</ele>
        <time>2022-06-11T06:47:53.000Z</time>
      </trkpt>
      <trkpt lat="49.73926" lon="5.37828">
        <ele>394.20001220703</ele>
        <time>2022-06-11T06:47:59.000Z</time>
      </trkpt>
      <trkpt lat="49.7393" lon="5.37829">
        <ele>394.20001220703</ele>
        <time>2022-06-11T06:48:00.000Z</time>
      </trkpt>
      <trkpt lat="49.73941" lon="5.37831">
        <ele>394.60000610352</ele>
        <time>2022-06-11T06:48:04.000Z</time>
      </trkpt>
      <trkpt lat="49.73943" lon="5.37833">
        <ele>394.60000610352</ele>
        <time>2022-06-11T06:48:05.000Z</time>
      </trkpt>
      <trkpt lat="49.73957" lon="5.37845">
        <ele>394.39999389648</ele>
        <time>2022-06-11T06:48:10.000Z</time>
      </trkpt>
      <trkpt lat="49.73961" lon="5.37847">
        <ele>394.39999389648</ele>
        <time>2022-06-11T06:48:11.000Z</time>
      </trkpt>
      <trkpt lat="49.73984" lon="5.37843">
        <ele>395</ele>
        <time>2022-06-11T06:48:17.000Z</time>
      </trkpt>
      <trkpt lat="49.74002" lon="5.37832">
        <ele>395.79998779297</ele>
        <time>2022-06-11T06:48:22.000Z</time>
      </trkpt>
      <trkpt lat="49.74022" lon="5.37821">
        <ele>395.79998779297</ele>
        <time>2022-06-11T06:48:27.000Z</time>
      </trkpt>
      <trkpt lat="49.74041" lon="5.3781">
        <ele>395.79998779297</ele>
        <time>2022-06-11T06:48:32.000Z</time>
      </trkpt>
      <trkpt lat="49.74045" lon="5.37807">
        <ele>395.79998779297</ele>
        <time>2022-06-11T06:48:33.000Z</time>
      </trkpt>
      <trkpt lat="49.74067" lon="5.37785">
        <ele>396</ele>
        <time>2022-06-11T06:48:39.000Z</time>
      </trkpt>
      <trkpt lat="49.74086" lon="5.37775">
        <ele>396</ele>
        <time>2022-06-11T06:48:44.000Z</time>
      </trkpt>
      <trkpt lat="49.74107" lon="5.37769">
        <ele>396.20001220703</ele>
        <time>2022-06-11T06:48:50.000Z</time>
      </trkpt>
      <trkpt lat="49.74127" lon="5.37767">
        <ele>396.60000610352</ele>
        <time>2022-06-11T06:48:55.000Z</time>
      </trkpt>
      <trkpt lat="49.74144" lon="5.37774">
        <ele>397</ele>
        <time>2022-06-11T06:49:00.000Z</time>
      </trkpt>
      <trkpt lat="49.7417" lon="5.37777">
        <ele>397.79998779297</ele>
        <time>2022-06-11T06:49:05.000Z</time>
      </trkpt>
      <trkpt lat="49.74188" lon="5.37782">
        <ele>398.60000610352</ele>
        <time>2022-06-11T06:49:09.000Z</time>
      </trkpt>
      <trkpt lat="49.74197" lon="5.37783">
        <ele>398.79998779297</ele>
        <time>2022-06-11T06:49:11.000Z</time>
      </trkpt>
      <trkpt lat="49.74212" lon="5.37782">
        <ele>400.20001220703</ele>
        <time>2022-06-11T06:49:14.000Z</time>
      </trkpt>
      <trkpt lat="49.74221" lon="5.37782">
        <ele>401</ele>
        <time>2022-06-11T06:49:16.000Z</time>
      </trkpt>
      <trkpt lat="49.74232" lon="5.37783">
        <ele>402.39999389648</ele>
        <time>2022-06-11T06:49:19.000Z</time>
      </trkpt>
      <trkpt lat="49.7424" lon="5.37781">
        <ele>403.20001220703</ele>
        <time>2022-06-11T06:49:21.000Z</time>
      </trkpt>
      <trkpt lat="49.74254" lon="5.37781">
        <ele>404.79998779297</ele>
        <time>2022-06-11T06:49:25.000Z</time>
      </trkpt>
      <trkpt lat="49.74265" lon="5.3778">
        <ele>405.20001220703</ele>
        <time>2022-06-11T06:49:28.000Z</time>
      </trkpt>
      <trkpt lat="49.74282" lon="5.3778">
        <ele>406</ele>
        <time>2022-06-11T06:49:32.000Z</time>
      </trkpt>
      <trkpt lat="49.74293" lon="5.37778">
        <ele>405.79998779297</ele>
        <time>2022-06-11T06:49:34.000Z</time>
      </trkpt>
      <trkpt lat="49.74316" lon="5.3777">
        <ele>405.79998779297</ele>
        <time>2022-06-11T06:49:39.000Z</time>
      </trkpt>
      <trkpt lat="49.7432" lon="5.3777">
        <ele>405.79998779297</ele>
        <time>2022-06-11T06:49:40.000Z</time>
      </trkpt>
      <trkpt lat="49.74332" lon="5.37768">
        <ele>405.79998779297</ele>
        <time>2022-06-11T06:49:44.000Z</time>
      </trkpt>
      <trkpt lat="49.74347" lon="5.37763">
        <ele>405.79998779297</ele>
        <time>2022-06-11T06:49:48.000Z</time>
      </trkpt>
      <trkpt lat="49.74363" lon="5.37765">
        <ele>405.20001220703</ele>
        <time>2022-06-11T06:49:51.000Z</time>
      </trkpt>
      <trkpt lat="49.74368" lon="5.37766">
        <ele>405</ele>
        <time>2022-06-11T06:49:52.000Z</time>
      </trkpt>
      <trkpt lat="49.74384" lon="5.37767">
        <ele>404.39999389648</ele>
        <time>2022-06-11T06:49:55.000Z</time>
      </trkpt>
      <trkpt lat="49.74395" lon="5.37762">
        <ele>404.39999389648</ele>
        <time>2022-06-11T06:49:57.000Z</time>
      </trkpt>
      <trkpt lat="49.74406" lon="5.37759">
        <ele>404.20001220703</ele>
        <time>2022-06-11T06:49:59.000Z</time>
      </trkpt>
      <trkpt lat="49.7441" lon="5.37757">
        <ele>404.20001220703</ele>
        <time>2022-06-11T06:50:00.000Z</time>
      </trkpt>
      <trkpt lat="49.74419" lon="5.37756">
        <ele>403.79998779297</ele>
        <time>2022-06-11T06:50:02.000Z</time>
      </trkpt>
      <trkpt lat="49.74424" lon="5.37755">
        <ele>403.60000610352</ele>
        <time>2022-06-11T06:50:03.000Z</time>
      </trkpt>
      <trkpt lat="49.74449" lon="5.37746">
        <ele>402.20001220703</ele>
        <time>2022-06-11T06:50:08.000Z</time>
      </trkpt>
      <trkpt lat="49.74471" lon="5.37738">
        <ele>401.60000610352</ele>
        <time>2022-06-11T06:50:12.000Z</time>
      </trkpt>
      <trkpt lat="49.74482" lon="5.37739">
        <ele>401.20001220703</ele>
        <time>2022-06-11T06:50:14.000Z</time>
      </trkpt>
      <trkpt lat="49.74517" lon="5.37737">
        <ele>403</ele>
        <time>2022-06-11T06:50:21.000Z</time>
      </trkpt>
      <trkpt lat="49.74533" lon="5.37731">
        <ele>403.39999389648</ele>
        <time>2022-06-11T06:50:25.000Z</time>
      </trkpt>
      <trkpt lat="49.74555" lon="5.37719">
        <ele>405.39999389648</ele>
        <time>2022-06-11T06:50:31.000Z</time>
      </trkpt>
      <trkpt lat="49.74559" lon="5.37717">
        <ele>405.79998779297</ele>
        <time>2022-06-11T06:50:32.000Z</time>
      </trkpt>
      <trkpt lat="49.74572" lon="5.37707">
        <ele>406.39999389648</ele>
        <time>2022-06-11T06:50:36.000Z</time>
      </trkpt>
      <trkpt lat="49.74594" lon="5.37706">
        <ele>407</ele>
        <time>2022-06-11T06:50:41.000Z</time>
      </trkpt>
      <trkpt lat="49.74619" lon="5.37705">
        <ele>407</ele>
        <time>2022-06-11T06:50:47.000Z</time>
      </trkpt>
      <trkpt lat="49.74624" lon="5.37704">
        <ele>407</ele>
        <time>2022-06-11T06:50:48.000Z</time>
      </trkpt>
      <trkpt lat="49.7463" lon="5.37707">
        <ele>406.79998779297</ele>
        <time>2022-06-11T06:50:49.000Z</time>
      </trkpt>
      <trkpt lat="49.74634" lon="5.37712">
        <ele>406.39999389648</ele>
        <time>2022-06-11T06:50:50.000Z</time>
      </trkpt>
      <trkpt lat="49.74642" lon="5.37723">
        <ele>405.60000610352</ele>
        <time>2022-06-11T06:50:52.000Z</time>
      </trkpt>
      <trkpt lat="49.74656" lon="5.37741">
        <ele>404.39999389648</ele>
        <time>2022-06-11T06:50:55.000Z</time>
      </trkpt>
      <trkpt lat="49.74672" lon="5.3776">
        <ele>403.39999389648</ele>
        <time>2022-06-11T06:50:59.000Z</time>
      </trkpt>
      <trkpt lat="49.74675" lon="5.37765">
        <ele>403.20001220703</ele>
        <time>2022-06-11T06:51:00.000Z</time>
      </trkpt>
      <trkpt lat="49.74685" lon="5.37782">
        <ele>402.60000610352</ele>
        <time>2022-06-11T06:51:03.000Z</time>
      </trkpt>
      <trkpt lat="49.74688" lon="5.37786">
        <ele>402.60000610352</ele>
        <time>2022-06-11T06:51:04.000Z</time>
      </trkpt>
      <trkpt lat="49.74696" lon="5.37798">
        <ele>402.79998779297</ele>
        <time>2022-06-11T06:51:08.000Z</time>
      </trkpt>
      <trkpt lat="49.74703" lon="5.37808">
        <ele>403.20001220703</ele>
        <time>2022-06-11T06:51:12.000Z</time>
      </trkpt>
      <trkpt lat="49.74709" lon="5.37816">
        <ele>403.60000610352</ele>
        <time>2022-06-11T06:51:15.000Z</time>
      </trkpt>
      <trkpt lat="49.74715" lon="5.37821">
        <ele>404</ele>
        <time>2022-06-11T06:51:18.000Z</time>
      </trkpt>
      <trkpt lat="49.74725" lon="5.37829">
        <ele>404.79998779297</ele>
        <time>2022-06-11T06:51:22.000Z</time>
      </trkpt>
      <trkpt lat="49.74735" lon="5.37838">
        <ele>406</ele>
        <time>2022-06-11T06:51:26.000Z</time>
      </trkpt>
      <trkpt lat="49.7474" lon="5.37841">
        <ele>406.60000610352</ele>
        <time>2022-06-11T06:51:28.000Z</time>
      </trkpt>
      <trkpt lat="49.74748" lon="5.37847">
        <ele>407.39999389648</ele>
        <time>2022-06-11T06:51:31.000Z</time>
      </trkpt>
      <trkpt lat="49.74758" lon="5.37857">
        <ele>409</ele>
        <time>2022-06-11T06:51:35.000Z</time>
      </trkpt>
      <trkpt lat="49.74761" lon="5.37859">
        <ele>409.20001220703</ele>
        <time>2022-06-11T06:51:36.000Z</time>
      </trkpt>
      <trkpt lat="49.7477" lon="5.37872">
        <ele>410</ele>
        <time>2022-06-11T06:51:41.000Z</time>
      </trkpt>
      <trkpt lat="49.74783" lon="5.37884">
        <ele>411</ele>
        <time>2022-06-11T06:51:46.000Z</time>
      </trkpt>
      <trkpt lat="49.74794" lon="5.37893">
        <ele>411.39999389648</ele>
        <time>2022-06-11T06:51:49.000Z</time>
      </trkpt>
      <trkpt lat="49.74807" lon="5.37903">
        <ele>411.79998779297</ele>
        <time>2022-06-11T06:51:52.000Z</time>
      </trkpt>
      <trkpt lat="49.74828" lon="5.37915">
        <ele>412.60000610352</ele>
        <time>2022-06-11T06:51:56.000Z</time>
      </trkpt>
      <trkpt lat="49.7484" lon="5.37919">
        <ele>413</ele>
        <time>2022-06-11T06:51:58.000Z</time>
      </trkpt>
      <trkpt lat="49.74867" lon="5.37926">
        <ele>414</ele>
        <time>2022-06-11T06:52:03.000Z</time>
      </trkpt>
      <trkpt lat="49.74875" lon="5.37927">
        <ele>414.39999389648</ele>
        <time>2022-06-11T06:52:04.000Z</time>
      </trkpt>
      <trkpt lat="49.74887" lon="5.3793">
        <ele>415.20001220703</ele>
        <time>2022-06-11T06:52:06.000Z</time>
      </trkpt>
      <trkpt lat="49.74891" lon="5.37933">
        <ele>415.60000610352</ele>
        <time>2022-06-11T06:52:07.000Z</time>
      </trkpt>
      <trkpt lat="49.74915" lon="5.37938">
        <ele>417.20001220703</ele>
        <time>2022-06-11T06:52:12.000Z</time>
      </trkpt>
      <trkpt lat="49.74934" lon="5.37935">
        <ele>419.20001220703</ele>
        <time>2022-06-11T06:52:16.000Z</time>
      </trkpt>
      <trkpt lat="49.74937" lon="5.37933">
        <ele>419.39999389648</ele>
        <time>2022-06-11T06:52:17.000Z</time>
      </trkpt>
      <trkpt lat="49.74951" lon="5.37924">
        <ele>420.39999389648</ele>
        <time>2022-06-11T06:52:24.000Z</time>
      </trkpt>
      <trkpt lat="49.74956" lon="5.37922">
        <ele>420.39999389648</ele>
        <time>2022-06-11T06:52:27.000Z</time>
      </trkpt>
      <trkpt lat="49.74959" lon="5.37923">
        <ele>420.60000610352</ele>
        <time>2022-06-11T06:52:28.000Z</time>
      </trkpt>
      <trkpt lat="49.74965" lon="5.37927">
        <ele>421</ele>
        <time>2022-06-11T06:52:31.000Z</time>
      </trkpt>
      <trkpt lat="49.74975" lon="5.37925">
        <ele>421.60000610352</ele>
        <time>2022-06-11T06:52:33.000Z</time>
      </trkpt>
      <trkpt lat="49.74983" lon="5.37925">
        <ele>422</ele>
        <time>2022-06-11T06:52:35.000Z</time>
      </trkpt>
      <trkpt lat="49.74998" lon="5.3792">
        <ele>422</ele>
        <time>2022-06-11T06:52:39.000Z</time>
      </trkpt>
      <trkpt lat="49.75017" lon="5.37925">
        <ele>421.60000610352</ele>
        <time>2022-06-11T06:52:45.000Z</time>
      </trkpt>
      <trkpt lat="49.75034" lon="5.37931">
        <ele>421.39999389648</ele>
        <time>2022-06-11T06:52:50.000Z</time>
      </trkpt>
      <trkpt lat="49.7505" lon="5.37938">
        <ele>420.60000610352</ele>
        <time>2022-06-11T06:52:56.000Z</time>
      </trkpt>
      <trkpt lat="49.7507" lon="5.37939">
        <ele>419.60000610352</ele>
        <time>2022-06-11T06:53:01.000Z</time>
      </trkpt>
      <trkpt lat="49.75086" lon="5.37946">
        <ele>418</ele>
        <time>2022-06-11T06:53:04.000Z</time>
      </trkpt>
      <trkpt lat="49.75098" lon="5.37956">
        <ele>416.60000610352</ele>
        <time>2022-06-11T06:53:06.000Z</time>
      </trkpt>
      <trkpt lat="49.75107" lon="5.37967">
        <ele>415.60000610352</ele>
        <time>2022-06-11T06:53:08.000Z</time>
      </trkpt>
      <trkpt lat="49.75123" lon="5.37986">
        <ele>413.20001220703</ele>
        <time>2022-06-11T06:53:11.000Z</time>
      </trkpt>
      <trkpt lat="49.75128" lon="5.37994">
        <ele>412.20001220703</ele>
        <time>2022-06-11T06:53:12.000Z</time>
      </trkpt>
      <trkpt lat="49.75134" lon="5.38014">
        <ele>410.79998779297</ele>
        <time>2022-06-11T06:53:14.000Z</time>
      </trkpt>
      <trkpt lat="49.75135" lon="5.38024">
        <ele>410.39999389648</ele>
        <time>2022-06-11T06:53:15.000Z</time>
      </trkpt>
      <trkpt lat="49.75137" lon="5.38034">
        <ele>410</ele>
        <time>2022-06-11T06:53:16.000Z</time>
      </trkpt>
      <trkpt lat="49.75138" lon="5.38044">
        <ele>409.60000610352</ele>
        <time>2022-06-11T06:53:17.000Z</time>
      </trkpt>
      <trkpt lat="49.75138" lon="5.38054">
        <ele>409</ele>
        <time>2022-06-11T06:53:18.000Z</time>
      </trkpt>
      <trkpt lat="49.75135" lon="5.38075">
        <ele>408.39999389648</ele>
        <time>2022-06-11T06:53:20.000Z</time>
      </trkpt>
      <trkpt lat="49.75133" lon="5.38086">
        <ele>408.20001220703</ele>
        <time>2022-06-11T06:53:21.000Z</time>
      </trkpt>
      <trkpt lat="49.75131" lon="5.38097">
        <ele>408</ele>
        <time>2022-06-11T06:53:22.000Z</time>
      </trkpt>
      <trkpt lat="49.75128" lon="5.3812">
        <ele>407.60000610352</ele>
        <time>2022-06-11T06:53:24.000Z</time>
      </trkpt>
      <trkpt lat="49.75127" lon="5.38133">
        <ele>407.20001220703</ele>
        <time>2022-06-11T06:53:25.000Z</time>
      </trkpt>
      <trkpt lat="49.75126" lon="5.38144">
        <ele>407</ele>
        <time>2022-06-11T06:53:26.000Z</time>
      </trkpt>
      <trkpt lat="49.75126" lon="5.38156">
        <ele>406.20001220703</ele>
        <time>2022-06-11T06:53:27.000Z</time>
      </trkpt>
      <trkpt lat="49.75126" lon="5.38167">
        <ele>405.39999389648</ele>
        <time>2022-06-11T06:53:28.000Z</time>
      </trkpt>
      <trkpt lat="49.75128" lon="5.38189">
        <ele>404.79998779297</ele>
        <time>2022-06-11T06:53:30.000Z</time>
      </trkpt>
      <trkpt lat="49.75135" lon="5.38212">
        <ele>402</ele>
        <time>2022-06-11T06:53:32.000Z</time>
      </trkpt>
      <trkpt lat="49.75145" lon="5.38232">
        <ele>398.39999389648</ele>
        <time>2022-06-11T06:53:34.000Z</time>
      </trkpt>
      <trkpt lat="49.75156" lon="5.38249">
        <ele>396</ele>
        <time>2022-06-11T06:53:36.000Z</time>
      </trkpt>
      <trkpt lat="49.75169" lon="5.3826">
        <ele>396</ele>
        <time>2022-06-11T06:53:38.000Z</time>
      </trkpt>
      <trkpt lat="49.75177" lon="5.38266">
        <ele>395.79998779297</ele>
        <time>2022-06-11T06:53:39.000Z</time>
      </trkpt>
      <trkpt lat="49.75183" lon="5.38274">
        <ele>395.20001220703</ele>
        <time>2022-06-11T06:53:40.000Z</time>
      </trkpt>
      <trkpt lat="49.7519" lon="5.38281">
        <ele>394.39999389648</ele>
        <time>2022-06-11T06:53:41.000Z</time>
      </trkpt>
      <trkpt lat="49.75203" lon="5.38293">
        <ele>393.20001220703</ele>
        <time>2022-06-11T06:53:43.000Z</time>
      </trkpt>
      <trkpt lat="49.75215" lon="5.38305">
        <ele>392.60000610352</ele>
        <time>2022-06-11T06:53:45.000Z</time>
      </trkpt>
      <trkpt lat="49.75233" lon="5.38326">
        <ele>391.79998779297</ele>
        <time>2022-06-11T06:53:48.000Z</time>
      </trkpt>
      <trkpt lat="49.75245" lon="5.38342">
        <ele>390.79998779297</ele>
        <time>2022-06-11T06:53:50.000Z</time>
      </trkpt>
      <trkpt lat="49.75257" lon="5.38358">
        <ele>390</ele>
        <time>2022-06-11T06:53:52.000Z</time>
      </trkpt>
      <trkpt lat="49.75274" lon="5.38375">
        <ele>388.20001220703</ele>
        <time>2022-06-11T06:53:54.000Z</time>
      </trkpt>
      <trkpt lat="49.75282" lon="5.38383">
        <ele>387.39999389648</ele>
        <time>2022-06-11T06:53:55.000Z</time>
      </trkpt>
      <trkpt lat="49.75291" lon="5.38391">
        <ele>387</ele>
        <time>2022-06-11T06:53:56.000Z</time>
      </trkpt>
      <trkpt lat="49.75307" lon="5.38412">
        <ele>386.20001220703</ele>
        <time>2022-06-11T06:53:58.000Z</time>
      </trkpt>
      <trkpt lat="49.75322" lon="5.38436">
        <ele>384.39999389648</ele>
        <time>2022-06-11T06:54:00.000Z</time>
      </trkpt>
      <trkpt lat="49.75333" lon="5.38459">
        <ele>382.79998779297</ele>
        <time>2022-06-11T06:54:02.000Z</time>
      </trkpt>
      <trkpt lat="49.75341" lon="5.3848">
        <ele>381.60000610352</ele>
        <time>2022-06-11T06:54:04.000Z</time>
      </trkpt>
      <trkpt lat="49.75346" lon="5.38489">
        <ele>381.60000610352</ele>
        <time>2022-06-11T06:54:05.000Z</time>
      </trkpt>
      <trkpt lat="49.75365" lon="5.38527">
        <ele>381</ele>
        <time>2022-06-11T06:54:09.000Z</time>
      </trkpt>
      <trkpt lat="49.75379" lon="5.3856">
        <ele>380.79998779297</ele>
        <time>2022-06-11T06:54:14.000Z</time>
      </trkpt>
      <trkpt lat="49.75383" lon="5.38569">
        <ele>381</ele>
        <time>2022-06-11T06:54:19.000Z</time>
      </trkpt>
      <trkpt lat="49.75383" lon="5.3857">
        <ele>381</ele>
        <time>2022-06-11T06:54:46.000Z</time>
      </trkpt>
      <trkpt lat="49.75386" lon="5.38574">
        <ele>381.20001220703</ele>
        <time>2022-06-11T06:54:48.000Z</time>
      </trkpt>
      <trkpt lat="49.75387" lon="5.38576">
        <ele>381.20001220703</ele>
        <time>2022-06-11T06:54:51.000Z</time>
      </trkpt>
      <trkpt lat="49.75391" lon="5.38582">
        <ele>381.39999389648</ele>
        <time>2022-06-11T06:54:53.000Z</time>
      </trkpt>
      <trkpt lat="49.75394" lon="5.38591">
        <ele>381.20001220703</ele>
        <time>2022-06-11T06:54:55.000Z</time>
      </trkpt>
      <trkpt lat="49.75399" lon="5.38608">
        <ele>380.79998779297</ele>
        <time>2022-06-11T06:54:58.000Z</time>
      </trkpt>
      <trkpt lat="49.75401" lon="5.38614">
        <ele>380.79998779297</ele>
        <time>2022-06-11T06:54:59.000Z</time>
      </trkpt>
      <trkpt lat="49.75412" lon="5.38636">
        <ele>382</ele>
        <time>2022-06-11T06:55:03.000Z</time>
      </trkpt>
      <trkpt lat="49.75415" lon="5.38643">
        <ele>381.79998779297</ele>
        <time>2022-06-11T06:55:04.000Z</time>
      </trkpt>
      <trkpt lat="49.75423" lon="5.3866">
        <ele>381.20001220703</ele>
        <time>2022-06-11T06:55:07.000Z</time>
      </trkpt>
      <trkpt lat="49.75427" lon="5.38674">
        <ele>380.20001220703</ele>
        <time>2022-06-11T06:55:09.000Z</time>
      </trkpt>
      <trkpt lat="49.75429" lon="5.38679">
        <ele>379.79998779297</ele>
        <time>2022-06-11T06:55:10.000Z</time>
      </trkpt>
      <trkpt lat="49.75437" lon="5.38697">
        <ele>378.79998779297</ele>
        <time>2022-06-11T06:55:13.000Z</time>
      </trkpt>
      <trkpt lat="49.75443" lon="5.38707">
        <ele>378.79998779297</ele>
        <time>2022-06-11T06:55:15.000Z</time>
      </trkpt>
      <trkpt lat="49.75446" lon="5.38713">
        <ele>378.60000610352</ele>
        <time>2022-06-11T06:55:16.000Z</time>
      </trkpt>
      <trkpt lat="49.75465" lon="5.38748">
        <ele>377.79998779297</ele>
        <time>2022-06-11T06:55:22.000Z</time>
      </trkpt>
      <trkpt lat="49.75468" lon="5.38758">
        <ele>377.20001220703</ele>
        <time>2022-06-11T06:55:24.000Z</time>
      </trkpt>
      <trkpt lat="49.75469" lon="5.38764">
        <ele>376.79998779297</ele>
        <time>2022-06-11T06:55:25.000Z</time>
      </trkpt>
      <trkpt lat="49.75473" lon="5.38798">
        <ele>376.20001220703</ele>
        <time>2022-06-11T06:55:30.000Z</time>
      </trkpt>
      <trkpt lat="49.75473" lon="5.38805">
        <ele>376</ele>
        <time>2022-06-11T06:55:31.000Z</time>
      </trkpt>
      <trkpt lat="49.75477" lon="5.38827">
        <ele>375.79998779297</ele>
        <time>2022-06-11T06:55:35.000Z</time>
      </trkpt>
      <trkpt lat="49.75485" lon="5.38846">
        <ele>376</ele>
        <time>2022-06-11T06:55:38.000Z</time>
      </trkpt>
      <trkpt lat="49.75489" lon="5.38853">
        <ele>376.20001220703</ele>
        <time>2022-06-11T06:55:39.000Z</time>
      </trkpt>
      <trkpt lat="49.75502" lon="5.3888">
        <ele>375.60000610352</ele>
        <time>2022-06-11T06:55:43.000Z</time>
      </trkpt>
      <trkpt lat="49.75509" lon="5.38893">
        <ele>374.60000610352</ele>
        <time>2022-06-11T06:55:45.000Z</time>
      </trkpt>
      <trkpt lat="49.75519" lon="5.38909">
        <ele>373.79998779297</ele>
        <time>2022-06-11T06:55:48.000Z</time>
      </trkpt>
      <trkpt lat="49.75526" lon="5.38918">
        <ele>373</ele>
        <time>2022-06-11T06:55:50.000Z</time>
      </trkpt>
      <trkpt lat="49.75545" lon="5.38947">
        <ele>368.60000610352</ele>
        <time>2022-06-11T06:55:56.000Z</time>
      </trkpt>
      <trkpt lat="49.75561" lon="5.38955">
        <ele>370.20001220703</ele>
        <time>2022-06-11T06:56:00.000Z</time>
      </trkpt>
      <trkpt lat="49.75591" lon="5.38956">
        <ele>371.60000610352</ele>
        <time>2022-06-11T06:56:06.000Z</time>
      </trkpt>
      <trkpt lat="49.75627" lon="5.38947">
        <ele>374</ele>
        <time>2022-06-11T06:56:13.000Z</time>
      </trkpt>
      <trkpt lat="49.75635" lon="5.3894">
        <ele>376.39999389648</ele>
        <time>2022-06-11T06:56:15.000Z</time>
      </trkpt>
      <trkpt lat="49.7564" lon="5.38929">
        <ele>379.39999389648</ele>
        <time>2022-06-11T06:56:17.000Z</time>
      </trkpt>
      <trkpt lat="49.75643" lon="5.38924">
        <ele>380.20001220703</ele>
        <time>2022-06-11T06:56:18.000Z</time>
      </trkpt>
      <trkpt lat="49.75646" lon="5.38918">
        <ele>381</ele>
        <time>2022-06-11T06:56:19.000Z</time>
      </trkpt>
      <trkpt lat="49.7566" lon="5.38886">
        <ele>382.39999389648</ele>
        <time>2022-06-11T06:56:25.000Z</time>
      </trkpt>
      <trkpt lat="49.75662" lon="5.38879">
        <ele>382.79998779297</ele>
        <time>2022-06-11T06:56:26.000Z</time>
      </trkpt>
      <trkpt lat="49.75663" lon="5.38873">
        <ele>383.39999389648</ele>
        <time>2022-06-11T06:56:27.000Z</time>
      </trkpt>
      <trkpt lat="49.75665" lon="5.38855">
        <ele>385.20001220703</ele>
        <time>2022-06-11T06:56:30.000Z</time>
      </trkpt>
      <trkpt lat="49.75668" lon="5.38836">
        <ele>386.20001220703</ele>
        <time>2022-06-11T06:56:33.000Z</time>
      </trkpt>
      <trkpt lat="49.75667" lon="5.38823">
        <ele>387.20001220703</ele>
        <time>2022-06-11T06:56:36.000Z</time>
      </trkpt>
      <trkpt lat="49.75667" lon="5.38803">
        <ele>387.20001220703</ele>
        <time>2022-06-11T06:56:40.000Z</time>
      </trkpt>
      <trkpt lat="49.75668" lon="5.38784">
        <ele>387.39999389648</ele>
        <time>2022-06-11T06:56:43.000Z</time>
      </trkpt>
      <trkpt lat="49.75668" lon="5.38772">
        <ele>387.79998779297</ele>
        <time>2022-06-11T06:56:45.000Z</time>
      </trkpt>
      <trkpt lat="49.75667" lon="5.38755">
        <ele>388.60000610352</ele>
        <time>2022-06-11T06:56:48.000Z</time>
      </trkpt>
      <trkpt lat="49.75665" lon="5.38748">
        <ele>389.20001220703</ele>
        <time>2022-06-11T06:56:49.000Z</time>
      </trkpt>
      <trkpt lat="49.75657" lon="5.38725">
        <ele>391.20001220703</ele>
        <time>2022-06-11T06:56:53.000Z</time>
      </trkpt>
      <trkpt lat="49.75645" lon="5.38694">
        <ele>394.20001220703</ele>
        <time>2022-06-11T06:56:58.000Z</time>
      </trkpt>
      <trkpt lat="49.75641" lon="5.38682">
        <ele>394.79998779297</ele>
        <time>2022-06-11T06:57:00.000Z</time>
      </trkpt>
      <trkpt lat="49.75634" lon="5.38665">
        <ele>395.60000610352</ele>
        <time>2022-06-11T06:57:03.000Z</time>
      </trkpt>
      <trkpt lat="49.75626" lon="5.38641">
        <ele>397.20001220703</ele>
        <time>2022-06-11T06:57:07.000Z</time>
      </trkpt>
      <trkpt lat="49.75624" lon="5.38635">
        <ele>397.79998779297</ele>
        <time>2022-06-11T06:57:08.000Z</time>
      </trkpt>
      <trkpt lat="49.75615" lon="5.38614">
        <ele>397.79998779297</ele>
        <time>2022-06-11T06:57:12.000Z</time>
      </trkpt>
      <trkpt lat="49.75611" lon="5.38604">
        <ele>397.39999389648</ele>
        <time>2022-06-11T06:57:14.000Z</time>
      </trkpt>
      <trkpt lat="49.75605" lon="5.38587">
        <ele>397.20001220703</ele>
        <time>2022-06-11T06:57:17.000Z</time>
      </trkpt>
      <trkpt lat="49.75597" lon="5.38571">
        <ele>396.79998779297</ele>
        <time>2022-06-11T06:57:20.000Z</time>
      </trkpt>
      <trkpt lat="49.75595" lon="5.38566">
        <ele>396.60000610352</ele>
        <time>2022-06-11T06:57:21.000Z</time>
      </trkpt>
      <trkpt lat="49.75582" lon="5.38544">
        <ele>397</ele>
        <time>2022-06-11T06:57:26.000Z</time>
      </trkpt>
      <trkpt lat="49.75579" lon="5.38538">
        <ele>397</ele>
        <time>2022-06-11T06:57:27.000Z</time>
      </trkpt>
      <trkpt lat="49.75574" lon="5.38527">
        <ele>397.20001220703</ele>
        <time>2022-06-11T06:57:29.000Z</time>
      </trkpt>
      <trkpt lat="49.7557" lon="5.3851">
        <ele>396.79998779297</ele>
        <time>2022-06-11T06:57:32.000Z</time>
      </trkpt>
      <trkpt lat="49.75567" lon="5.38504">
        <ele>396.60000610352</ele>
        <time>2022-06-11T06:57:33.000Z</time>
      </trkpt>
      <trkpt lat="49.75562" lon="5.38483">
        <ele>396.60000610352</ele>
        <time>2022-06-11T06:57:36.000Z</time>
      </trkpt>
      <trkpt lat="49.75559" lon="5.38472">
        <ele>397</ele>
        <time>2022-06-11T06:57:38.000Z</time>
      </trkpt>
      <trkpt lat="49.75556" lon="5.3846">
        <ele>397.79998779297</ele>
        <time>2022-06-11T06:57:40.000Z</time>
      </trkpt>
      <trkpt lat="49.75554" lon="5.38449">
        <ele>398.20001220703</ele>
        <time>2022-06-11T06:57:42.000Z</time>
      </trkpt>
      <trkpt lat="49.75549" lon="5.38411">
        <ele>399.39999389648</ele>
        <time>2022-06-11T06:57:48.000Z</time>
      </trkpt>
      <trkpt lat="49.75549" lon="5.38404">
        <ele>399.79998779297</ele>
        <time>2022-06-11T06:57:49.000Z</time>
      </trkpt>
      <trkpt lat="49.75544" lon="5.38376">
        <ele>401.60000610352</ele>
        <time>2022-06-11T06:57:54.000Z</time>
      </trkpt>
      <trkpt lat="49.75542" lon="5.3837">
        <ele>402.39999389648</ele>
        <time>2022-06-11T06:57:55.000Z</time>
      </trkpt>
      <trkpt lat="49.75534" lon="5.38348">
        <ele>404.79998779297</ele>
        <time>2022-06-11T06:57:59.000Z</time>
      </trkpt>
      <trkpt lat="49.75532" lon="5.38336">
        <ele>405</ele>
        <time>2022-06-11T06:58:01.000Z</time>
      </trkpt>
      <trkpt lat="49.75527" lon="5.38324">
        <ele>405.39999389648</ele>
        <time>2022-06-11T06:58:03.000Z</time>
      </trkpt>
      <trkpt lat="49.75518" lon="5.38308">
        <ele>406</ele>
        <time>2022-06-11T06:58:06.000Z</time>
      </trkpt>
      <trkpt lat="49.75515" lon="5.38303">
        <ele>406.20001220703</ele>
        <time>2022-06-11T06:58:07.000Z</time>
      </trkpt>
      <trkpt lat="49.75507" lon="5.38287">
        <ele>407</ele>
        <time>2022-06-11T06:58:10.000Z</time>
      </trkpt>
      <trkpt lat="49.75501" lon="5.38276">
        <ele>407.20001220703</ele>
        <time>2022-06-11T06:58:12.000Z</time>
      </trkpt>
      <trkpt lat="49.75496" lon="5.38265">
        <ele>408</ele>
        <time>2022-06-11T06:58:14.000Z</time>
      </trkpt>
      <trkpt lat="49.75489" lon="5.38241">
        <ele>409.20001220703</ele>
        <time>2022-06-11T06:58:18.000Z</time>
      </trkpt>
      <trkpt lat="49.7548" lon="5.3822">
        <ele>411.79998779297</ele>
        <time>2022-06-11T06:58:22.000Z</time>
      </trkpt>
      <trkpt lat="49.75478" lon="5.38215">
        <ele>412.20001220703</ele>
        <time>2022-06-11T06:58:23.000Z</time>
      </trkpt>
      <trkpt lat="49.75476" lon="5.38203">
        <ele>413</ele>
        <time>2022-06-11T06:58:25.000Z</time>
      </trkpt>
      <trkpt lat="49.75475" lon="5.38173">
        <ele>415.20001220703</ele>
        <time>2022-06-11T06:58:29.000Z</time>
      </trkpt>
      <trkpt lat="49.75475" lon="5.38165">
        <ele>415.79998779297</ele>
        <time>2022-06-11T06:58:30.000Z</time>
      </trkpt>
      <trkpt lat="49.75477" lon="5.3812">
        <ele>417.79998779297</ele>
        <time>2022-06-11T06:58:36.000Z</time>
      </trkpt>
      <trkpt lat="49.75479" lon="5.38111">
        <ele>418</ele>
        <time>2022-06-11T06:58:37.000Z</time>
      </trkpt>
      <trkpt lat="49.75486" lon="5.38067">
        <ele>414.39999389648</ele>
        <time>2022-06-11T06:58:42.000Z</time>
      </trkpt>
      <trkpt lat="49.75489" lon="5.38049">
        <ele>413.20001220703</ele>
        <time>2022-06-11T06:58:45.000Z</time>
      </trkpt>
      <trkpt lat="49.75493" lon="5.38011">
        <ele>412</ele>
        <time>2022-06-11T06:58:51.000Z</time>
      </trkpt>
      <trkpt lat="49.75494" lon="5.38005">
        <ele>412</ele>
        <time>2022-06-11T06:58:52.000Z</time>
      </trkpt>
      <trkpt lat="49.75493" lon="5.37958">
        <ele>414.20001220703</ele>
        <time>2022-06-11T06:58:59.000Z</time>
      </trkpt>
      <trkpt lat="49.75493" lon="5.37952">
        <ele>414.60000610352</ele>
        <time>2022-06-11T06:59:00.000Z</time>
      </trkpt>
      <trkpt lat="49.75502" lon="5.37929">
        <ele>414.79998779297</ele>
        <time>2022-06-11T06:59:04.000Z</time>
      </trkpt>
      <trkpt lat="49.75517" lon="5.37926">
        <ele>413.79998779297</ele>
        <time>2022-06-11T06:59:07.000Z</time>
      </trkpt>
      <trkpt lat="49.75531" lon="5.37941">
        <ele>412.20001220703</ele>
        <time>2022-06-11T06:59:11.000Z</time>
      </trkpt>
      <trkpt lat="49.75531" lon="5.3796">
        <ele>411.39999389648</ele>
        <time>2022-06-11T06:59:14.000Z</time>
      </trkpt>
      <trkpt lat="49.7553" lon="5.37968">
        <ele>411</ele>
        <time>2022-06-11T06:59:15.000Z</time>
      </trkpt>
      <trkpt lat="49.75526" lon="5.38016">
        <ele>410</ele>
        <time>2022-06-11T06:59:20.000Z</time>
      </trkpt>
      <trkpt lat="49.75526" lon="5.38044">
        <ele>409.60000610352</ele>
        <time>2022-06-11T06:59:23.000Z</time>
      </trkpt>
      <trkpt lat="49.75527" lon="5.38052">
        <ele>410</ele>
        <time>2022-06-11T06:59:24.000Z</time>
      </trkpt>
      <trkpt lat="49.75528" lon="5.38061">
        <ele>409.60000610352</ele>
        <time>2022-06-11T06:59:25.000Z</time>
      </trkpt>
      <trkpt lat="49.75529" lon="5.3808">
        <ele>409.39999389648</ele>
        <time>2022-06-11T06:59:27.000Z</time>
      </trkpt>
      <trkpt lat="49.75529" lon="5.38088">
        <ele>409</ele>
        <time>2022-06-11T06:59:28.000Z</time>
      </trkpt>
      <trkpt lat="49.75529" lon="5.38098">
        <ele>408.79998779297</ele>
        <time>2022-06-11T06:59:29.000Z</time>
      </trkpt>
      <trkpt lat="49.75528" lon="5.38117">
        <ele>408.60000610352</ele>
        <time>2022-06-11T06:59:31.000Z</time>
      </trkpt>
      <trkpt lat="49.75528" lon="5.38126">
        <ele>408.39999389648</ele>
        <time>2022-06-11T06:59:32.000Z</time>
      </trkpt>
      <trkpt lat="49.75528" lon="5.38156">
        <ele>406.60000610352</ele>
        <time>2022-06-11T06:59:35.000Z</time>
      </trkpt>
      <trkpt lat="49.75529" lon="5.38166">
        <ele>405.79998779297</ele>
        <time>2022-06-11T06:59:36.000Z</time>
      </trkpt>
      <trkpt lat="49.75532" lon="5.38175">
        <ele>404.39999389648</ele>
        <time>2022-06-11T06:59:37.000Z</time>
      </trkpt>
      <trkpt lat="49.75536" lon="5.38184">
        <ele>402.79998779297</ele>
        <time>2022-06-11T06:59:38.000Z</time>
      </trkpt>
      <trkpt lat="49.75544" lon="5.38203">
        <ele>400.20001220703</ele>
        <time>2022-06-11T06:59:41.000Z</time>
      </trkpt>
      <trkpt lat="49.75548" lon="5.38227">
        <ele>398.39999389648</ele>
        <time>2022-06-11T06:59:44.000Z</time>
      </trkpt>
      <trkpt lat="49.75549" lon="5.38238">
        <ele>398</ele>
        <time>2022-06-11T06:59:45.000Z</time>
      </trkpt>
      <trkpt lat="49.7555" lon="5.38258">
        <ele>397.79998779297</ele>
        <time>2022-06-11T06:59:47.000Z</time>
      </trkpt>
      <trkpt lat="49.75558" lon="5.38275">
        <ele>396.79998779297</ele>
        <time>2022-06-11T06:59:49.000Z</time>
      </trkpt>
      <trkpt lat="49.75563" lon="5.38286">
        <ele>396.79998779297</ele>
        <time>2022-06-11T06:59:50.000Z</time>
      </trkpt>
      <trkpt lat="49.75571" lon="5.38303">
        <ele>397</ele>
        <time>2022-06-11T06:59:52.000Z</time>
      </trkpt>
      <trkpt lat="49.75577" lon="5.38323">
        <ele>396</ele>
        <time>2022-06-11T06:59:54.000Z</time>
      </trkpt>
      <trkpt lat="49.75584" lon="5.38343">
        <ele>394.39999389648</ele>
        <time>2022-06-11T06:59:56.000Z</time>
      </trkpt>
      <trkpt lat="49.75592" lon="5.38365">
        <ele>392.39999389648</ele>
        <time>2022-06-11T06:59:58.000Z</time>
      </trkpt>
      <trkpt lat="49.756" lon="5.38386">
        <ele>390.60000610352</ele>
        <time>2022-06-11T07:00:00.000Z</time>
      </trkpt>
      <trkpt lat="49.75608" lon="5.38408">
        <ele>388.20001220703</ele>
        <time>2022-06-11T07:00:02.000Z</time>
      </trkpt>
      <trkpt lat="49.75615" lon="5.38419">
        <ele>387.20001220703</ele>
        <time>2022-06-11T07:00:03.000Z</time>
      </trkpt>
      <trkpt lat="49.75623" lon="5.38431">
        <ele>386.39999389648</ele>
        <time>2022-06-11T07:00:04.000Z</time>
      </trkpt>
      <trkpt lat="49.75638" lon="5.38453">
        <ele>386.39999389648</ele>
        <time>2022-06-11T07:00:06.000Z</time>
      </trkpt>
      <trkpt lat="49.7565" lon="5.38474">
        <ele>387.60000610352</ele>
        <time>2022-06-11T07:00:08.000Z</time>
      </trkpt>
      <trkpt lat="49.75661" lon="5.38493">
        <ele>390</ele>
        <time>2022-06-11T07:00:10.000Z</time>
      </trkpt>
      <trkpt lat="49.75665" lon="5.38507">
        <ele>390.39999389648</ele>
        <time>2022-06-11T07:00:12.000Z</time>
      </trkpt>
      <trkpt lat="49.75665" lon="5.38526">
        <ele>390.20001220703</ele>
        <time>2022-06-11T07:00:14.000Z</time>
      </trkpt>
      <trkpt lat="49.75666" lon="5.38533">
        <ele>389.79998779297</ele>
        <time>2022-06-11T07:00:15.000Z</time>
      </trkpt>
      <trkpt lat="49.75666" lon="5.38541">
        <ele>389.20001220703</ele>
        <time>2022-06-11T07:00:17.000Z</time>
      </trkpt>
      <trkpt lat="49.75664" lon="5.38549">
        <ele>389.60000610352</ele>
        <time>2022-06-11T07:00:20.000Z</time>
      </trkpt>
      <trkpt lat="49.75665" lon="5.38569">
        <ele>390</ele>
        <time>2022-06-11T07:00:23.000Z</time>
      </trkpt>
      <trkpt lat="49.75662" lon="5.38583">
        <ele>390.20001220703</ele>
        <time>2022-06-11T07:00:25.000Z</time>
      </trkpt>
      <trkpt lat="49.75662" lon="5.38598">
        <ele>390.20001220703</ele>
        <time>2022-06-11T07:00:27.000Z</time>
      </trkpt>
      <trkpt lat="49.75663" lon="5.38605">
        <ele>390.20001220703</ele>
        <time>2022-06-11T07:00:28.000Z</time>
      </trkpt>
      <trkpt lat="49.75663" lon="5.38641">
        <ele>390</ele>
        <time>2022-06-11T07:00:34.000Z</time>
      </trkpt>
      <trkpt lat="49.75666" lon="5.38655">
        <ele>389.39999389648</ele>
        <time>2022-06-11T07:00:36.000Z</time>
      </trkpt>
      <trkpt lat="49.75672" lon="5.3867">
        <ele>388.20001220703</ele>
        <time>2022-06-11T07:00:38.000Z</time>
      </trkpt>
      <trkpt lat="49.75674" lon="5.38677">
        <ele>387.60000610352</ele>
        <time>2022-06-11T07:00:39.000Z</time>
      </trkpt>
      <trkpt lat="49.75678" lon="5.38685">
        <ele>386.79998779297</ele>
        <time>2022-06-11T07:00:40.000Z</time>
      </trkpt>
      <trkpt lat="49.75685" lon="5.387">
        <ele>385.20001220703</ele>
        <time>2022-06-11T07:00:42.000Z</time>
      </trkpt>
      <trkpt lat="49.75688" lon="5.38711">
        <ele>384.39999389648</ele>
        <time>2022-06-11T07:00:43.000Z</time>
      </trkpt>
      <trkpt lat="49.75694" lon="5.38726">
        <ele>383.20001220703</ele>
        <time>2022-06-11T07:00:45.000Z</time>
      </trkpt>
      <trkpt lat="49.75695" lon="5.38735">
        <ele>382.60000610352</ele>
        <time>2022-06-11T07:00:46.000Z</time>
      </trkpt>
      <trkpt lat="49.75697" lon="5.38749">
        <ele>381.79998779297</ele>
        <time>2022-06-11T07:00:48.000Z</time>
      </trkpt>
      <trkpt lat="49.75696" lon="5.38765">
        <ele>379.39999389648</ele>
        <time>2022-06-11T07:00:50.000Z</time>
      </trkpt>
      <trkpt lat="49.75696" lon="5.38774">
        <ele>379</ele>
        <time>2022-06-11T07:00:51.000Z</time>
      </trkpt>
      <trkpt lat="49.75693" lon="5.38791">
        <ele>377.39999389648</ele>
        <time>2022-06-11T07:00:53.000Z</time>
      </trkpt>
      <trkpt lat="49.75687" lon="5.38818">
        <ele>377.20001220703</ele>
        <time>2022-06-11T07:00:56.000Z</time>
      </trkpt>
      <trkpt lat="49.75685" lon="5.38833">
        <ele>378.39999389648</ele>
        <time>2022-06-11T07:00:58.000Z</time>
      </trkpt>
      <trkpt lat="49.75683" lon="5.38848">
        <ele>378.20001220703</ele>
        <time>2022-06-11T07:01:00.000Z</time>
      </trkpt>
      <trkpt lat="49.7568" lon="5.38869">
        <ele>377.79998779297</ele>
        <time>2022-06-11T07:01:03.000Z</time>
      </trkpt>
      <trkpt lat="49.75678" lon="5.38883">
        <ele>376.39999389648</ele>
        <time>2022-06-11T07:01:05.000Z</time>
      </trkpt>
      <trkpt lat="49.75676" lon="5.38899">
        <ele>374.79998779297</ele>
        <time>2022-06-11T07:01:07.000Z</time>
      </trkpt>
      <trkpt lat="49.75673" lon="5.38919">
        <ele>372.20001220703</ele>
        <time>2022-06-11T07:01:09.000Z</time>
      </trkpt>
      <trkpt lat="49.75672" lon="5.38928">
        <ele>370.60000610352</ele>
        <time>2022-06-11T07:01:10.000Z</time>
      </trkpt>
      <trkpt lat="49.75668" lon="5.38948">
        <ele>367</ele>
        <time>2022-06-11T07:01:12.000Z</time>
      </trkpt>
      <trkpt lat="49.75664" lon="5.38967">
        <ele>362</ele>
        <time>2022-06-11T07:01:14.000Z</time>
      </trkpt>
      <trkpt lat="49.75659" lon="5.38987">
        <ele>359.39999389648</ele>
        <time>2022-06-11T07:01:16.000Z</time>
      </trkpt>
      <trkpt lat="49.75655" lon="5.39006">
        <ele>355.39999389648</ele>
        <time>2022-06-11T07:01:18.000Z</time>
      </trkpt>
      <trkpt lat="49.75649" lon="5.39016">
        <ele>352.60000610352</ele>
        <time>2022-06-11T07:01:20.000Z</time>
      </trkpt>
      <trkpt lat="49.75641" lon="5.3902">
        <ele>351.79998779297</ele>
        <time>2022-06-11T07:01:22.000Z</time>
      </trkpt>
      <trkpt lat="49.75639" lon="5.39021">
        <ele>351.60000610352</ele>
        <time>2022-06-11T07:01:23.000Z</time>
      </trkpt>
      <trkpt lat="49.75636" lon="5.39035">
        <ele>349</ele>
        <time>2022-06-11T07:01:26.000Z</time>
      </trkpt>
      <trkpt lat="49.7564" lon="5.39044">
        <ele>346.60000610352</ele>
        <time>2022-06-11T07:01:28.000Z</time>
      </trkpt>
      <trkpt lat="49.75643" lon="5.39053">
        <ele>344.20001220703</ele>
        <time>2022-06-11T07:01:30.000Z</time>
      </trkpt>
      <trkpt lat="49.75647" lon="5.39056">
        <ele>343.39999389648</ele>
        <time>2022-06-11T07:01:31.000Z</time>
      </trkpt>
      <trkpt lat="49.75651" lon="5.39059">
        <ele>343.39999389648</ele>
        <time>2022-06-11T07:01:32.000Z</time>
      </trkpt>
      <trkpt lat="49.75662" lon="5.39067">
        <ele>343</ele>
        <time>2022-06-11T07:01:34.000Z</time>
      </trkpt>
      <trkpt lat="49.75666" lon="5.39073">
        <ele>342.60000610352</ele>
        <time>2022-06-11T07:01:35.000Z</time>
      </trkpt>
      <trkpt lat="49.7569" lon="5.39099">
        <ele>343.60000610352</ele>
        <time>2022-06-11T07:01:41.000Z</time>
      </trkpt>
      <trkpt lat="49.757" lon="5.39109">
        <ele>344.60000610352</ele>
        <time>2022-06-11T07:01:43.000Z</time>
      </trkpt>
      <trkpt lat="49.75712" lon="5.39126">
        <ele>344</ele>
        <time>2022-06-11T07:01:46.000Z</time>
      </trkpt>
      <trkpt lat="49.75746" lon="5.39157">
        <ele>344.20001220703</ele>
        <time>2022-06-11T07:01:52.000Z</time>
      </trkpt>
      <trkpt lat="49.75765" lon="5.3917">
        <ele>344.79998779297</ele>
        <time>2022-06-11T07:01:56.000Z</time>
      </trkpt>
      <trkpt lat="49.75796" lon="5.39184">
        <ele>346.39999389648</ele>
        <time>2022-06-11T07:02:02.000Z</time>
      </trkpt>
      <trkpt lat="49.75829" lon="5.39196">
        <ele>349.39999389648</ele>
        <time>2022-06-11T07:02:08.000Z</time>
      </trkpt>
      <trkpt lat="49.75854" lon="5.39202">
        <ele>349.60000610352</ele>
        <time>2022-06-11T07:02:13.000Z</time>
      </trkpt>
      <trkpt lat="49.75859" lon="5.39202">
        <ele>349.39999389648</ele>
        <time>2022-06-11T07:02:14.000Z</time>
      </trkpt>
      <trkpt lat="49.75883" lon="5.39206">
        <ele>346.79998779297</ele>
        <time>2022-06-11T07:02:19.000Z</time>
      </trkpt>
      <trkpt lat="49.75892" lon="5.39207">
        <ele>345.60000610352</ele>
        <time>2022-06-11T07:02:21.000Z</time>
      </trkpt>
      <trkpt lat="49.75907" lon="5.39206">
        <ele>345.39999389648</ele>
        <time>2022-06-11T07:02:24.000Z</time>
      </trkpt>
      <trkpt lat="49.75923" lon="5.39203">
        <ele>345.39999389648</ele>
        <time>2022-06-11T07:02:27.000Z</time>
      </trkpt>
      <trkpt lat="49.75942" lon="5.39199">
        <ele>346.79998779297</ele>
        <time>2022-06-11T07:02:31.000Z</time>
      </trkpt>
      <trkpt lat="49.75951" lon="5.39198">
        <ele>347.39999389648</ele>
        <time>2022-06-11T07:02:33.000Z</time>
      </trkpt>
      <trkpt lat="49.75956" lon="5.39197">
        <ele>347.60000610352</ele>
        <time>2022-06-11T07:02:34.000Z</time>
      </trkpt>
      <trkpt lat="49.7596" lon="5.392">
        <ele>347.60000610352</ele>
        <time>2022-06-11T07:02:35.000Z</time>
      </trkpt>
      <trkpt lat="49.75968" lon="5.3921">
        <ele>347.20001220703</ele>
        <time>2022-06-11T07:02:37.000Z</time>
      </trkpt>
      <trkpt lat="49.76002" lon="5.39259">
        <ele>342.79998779297</ele>
        <time>2022-06-11T07:02:45.000Z</time>
      </trkpt>
      <trkpt lat="49.76042" lon="5.39319">
        <ele>338.39999389648</ele>
        <time>2022-06-11T07:02:54.000Z</time>
      </trkpt>
      <trkpt lat="49.7605" lon="5.39331">
        <ele>338</ele>
        <time>2022-06-11T07:02:56.000Z</time>
      </trkpt>
      <trkpt lat="49.76068" lon="5.39354">
        <ele>338.39999389648</ele>
        <time>2022-06-11T07:03:00.000Z</time>
      </trkpt>
      <trkpt lat="49.76082" lon="5.39368">
        <ele>338.39999389648</ele>
        <time>2022-06-11T07:03:03.000Z</time>
      </trkpt>
      <trkpt lat="49.76128" lon="5.39414">
        <ele>338.60000610352</ele>
        <time>2022-06-11T07:03:13.000Z</time>
      </trkpt>
      <trkpt lat="49.76137" lon="5.39424">
        <ele>339</ele>
        <time>2022-06-11T07:03:15.000Z</time>
      </trkpt>
      <trkpt lat="49.76175" lon="5.39458">
        <ele>339.39999389648</ele>
        <time>2022-06-11T07:03:23.000Z</time>
      </trkpt>
      <trkpt lat="49.76196" lon="5.39459">
        <ele>340.39999389648</ele>
        <time>2022-06-11T07:03:27.000Z</time>
      </trkpt>
      <trkpt lat="49.76214" lon="5.39456">
        <ele>341.39999389648</ele>
        <time>2022-06-11T07:03:31.000Z</time>
      </trkpt>
      <trkpt lat="49.76222" lon="5.39459">
        <ele>341.39999389648</ele>
        <time>2022-06-11T07:03:33.000Z</time>
      </trkpt>
      <trkpt lat="49.76226" lon="5.39462">
        <ele>341.20001220703</ele>
        <time>2022-06-11T07:03:35.000Z</time>
      </trkpt>
      <trkpt lat="49.7623" lon="5.39468">
        <ele>341</ele>
        <time>2022-06-11T07:05:41.000Z</time>
      </trkpt>
      <trkpt lat="49.76234" lon="5.39473">
        <ele>340.79998779297</ele>
        <time>2022-06-11T07:05:43.000Z</time>
      </trkpt>
      <trkpt lat="49.76243" lon="5.39489">
        <ele>339.79998779297</ele>
        <time>2022-06-11T07:05:47.000Z</time>
      </trkpt>
      <trkpt lat="49.76246" lon="5.39494">
        <ele>339.60000610352</ele>
        <time>2022-06-11T07:05:48.000Z</time>
      </trkpt>
      <trkpt lat="49.76263" lon="5.39514">
        <ele>339.39999389648</ele>
        <time>2022-06-11T07:05:52.000Z</time>
      </trkpt>
      <trkpt lat="49.76269" lon="5.39519">
        <ele>339.39999389648</ele>
        <time>2022-06-11T07:05:53.000Z</time>
      </trkpt>
      <trkpt lat="49.76285" lon="5.39515">
        <ele>339</ele>
        <time>2022-06-11T07:05:56.000Z</time>
      </trkpt>
      <trkpt lat="49.76292" lon="5.39503">
        <ele>339</ele>
        <time>2022-06-11T07:05:58.000Z</time>
      </trkpt>
      <trkpt lat="49.76295" lon="5.39497">
        <ele>339.39999389648</ele>
        <time>2022-06-11T07:05:59.000Z</time>
      </trkpt>
      <trkpt lat="49.763" lon="5.39492">
        <ele>339.60000610352</ele>
        <time>2022-06-11T07:06:00.000Z</time>
      </trkpt>
      <trkpt lat="49.76316" lon="5.39475">
        <ele>341.79998779297</ele>
        <time>2022-06-11T07:06:05.000Z</time>
      </trkpt>
      <trkpt lat="49.76323" lon="5.39465">
        <ele>342.60000610352</ele>
        <time>2022-06-11T07:06:08.000Z</time>
      </trkpt>
      <trkpt lat="49.76331" lon="5.39459">
        <ele>343.39999389648</ele>
        <time>2022-06-11T07:06:10.000Z</time>
      </trkpt>
      <trkpt lat="49.76365" lon="5.3943">
        <ele>344.20001220703</ele>
        <time>2022-06-11T07:06:18.000Z</time>
      </trkpt>
      <trkpt lat="49.76392" lon="5.39403">
        <ele>346.39999389648</ele>
        <time>2022-06-11T07:06:25.000Z</time>
      </trkpt>
      <trkpt lat="49.76399" lon="5.39397">
        <ele>346.60000610352</ele>
        <time>2022-06-11T07:06:27.000Z</time>
      </trkpt>
      <trkpt lat="49.76416" lon="5.39379">
        <ele>346.60000610352</ele>
        <time>2022-06-11T07:06:32.000Z</time>
      </trkpt>
      <trkpt lat="49.76427" lon="5.39367">
        <ele>346.60000610352</ele>
        <time>2022-06-11T07:06:35.000Z</time>
      </trkpt>
      <trkpt lat="49.76441" lon="5.39351">
        <ele>347.20001220703</ele>
        <time>2022-06-11T07:06:39.000Z</time>
      </trkpt>
      <trkpt lat="49.76452" lon="5.39332">
        <ele>348</ele>
        <time>2022-06-11T07:06:43.000Z</time>
      </trkpt>
      <trkpt lat="49.76464" lon="5.39305">
        <ele>349.20001220703</ele>
        <time>2022-06-11T07:06:48.000Z</time>
      </trkpt>
      <trkpt lat="49.76465" lon="5.39299">
        <ele>349.39999389648</ele>
        <time>2022-06-11T07:06:49.000Z</time>
      </trkpt>
      <trkpt lat="49.76466" lon="5.39286">
        <ele>349.60000610352</ele>
        <time>2022-06-11T07:06:51.000Z</time>
      </trkpt>
      <trkpt lat="49.76467" lon="5.39261">
        <ele>350.60000610352</ele>
        <time>2022-06-11T07:06:55.000Z</time>
      </trkpt>
      <trkpt lat="49.76462" lon="5.39222">
        <ele>350.39999389648</ele>
        <time>2022-06-11T07:07:01.000Z</time>
      </trkpt>
      <trkpt lat="49.76457" lon="5.39183">
        <ele>350.79998779297</ele>
        <time>2022-06-11T07:07:07.000Z</time>
      </trkpt>
      <trkpt lat="49.76455" lon="5.39164">
        <ele>351.20001220703</ele>
        <time>2022-06-11T07:07:10.000Z</time>
      </trkpt>
      <trkpt lat="49.76451" lon="5.39145">
        <ele>352.39999389648</ele>
        <time>2022-06-11T07:07:13.000Z</time>
      </trkpt>
      <trkpt lat="49.76447" lon="5.39119">
        <ele>354.79998779297</ele>
        <time>2022-06-11T07:07:17.000Z</time>
      </trkpt>
      <trkpt lat="49.76445" lon="5.39113">
        <ele>355.39999389648</ele>
        <time>2022-06-11T07:07:18.000Z</time>
      </trkpt>
      <trkpt lat="49.76442" lon="5.39095">
        <ele>356.60000610352</ele>
        <time>2022-06-11T07:07:21.000Z</time>
      </trkpt>
      <trkpt lat="49.76443" lon="5.39077">
        <ele>357.79998779297</ele>
        <time>2022-06-11T07:07:24.000Z</time>
      </trkpt>
      <trkpt lat="49.76445" lon="5.39067">
        <ele>358.20001220703</ele>
        <time>2022-06-11T07:07:26.000Z</time>
      </trkpt>
      <trkpt lat="49.76454" lon="5.39048">
        <ele>359.20001220703</ele>
        <time>2022-06-11T07:07:30.000Z</time>
      </trkpt>
      <trkpt lat="49.76459" lon="5.39037">
        <ele>360</ele>
        <time>2022-06-11T07:07:33.000Z</time>
      </trkpt>
      <trkpt lat="49.76463" lon="5.39031">
        <ele>361.20001220703</ele>
        <time>2022-06-11T07:07:35.000Z</time>
      </trkpt>
      <trkpt lat="49.76467" lon="5.39026">
        <ele>362.60000610352</ele>
        <time>2022-06-11T07:07:37.000Z</time>
      </trkpt>
      <trkpt lat="49.76473" lon="5.39019">
        <ele>364.39999389648</ele>
        <time>2022-06-11T07:07:39.000Z</time>
      </trkpt>
      <trkpt lat="49.76479" lon="5.39013">
        <ele>366.20001220703</ele>
        <time>2022-06-11T07:07:41.000Z</time>
      </trkpt>
      <trkpt lat="49.76485" lon="5.39007">
        <ele>368.39999389648</ele>
        <time>2022-06-11T07:07:43.000Z</time>
      </trkpt>
      <trkpt lat="49.76493" lon="5.39">
        <ele>370.60000610352</ele>
        <time>2022-06-11T07:07:46.000Z</time>
      </trkpt>
      <trkpt lat="49.76497" lon="5.38996">
        <ele>372</ele>
        <time>2022-06-11T07:07:48.000Z</time>
      </trkpt>
      <trkpt lat="49.765" lon="5.38993">
        <ele>372.60000610352</ele>
        <time>2022-06-11T07:07:49.000Z</time>
      </trkpt>
      <trkpt lat="49.76503" lon="5.3899">
        <ele>373.60000610352</ele>
        <time>2022-06-11T07:07:50.000Z</time>
      </trkpt>
      <trkpt lat="49.76511" lon="5.38981">
        <ele>376</ele>
        <time>2022-06-11T07:07:53.000Z</time>
      </trkpt>
      <trkpt lat="49.76519" lon="5.38968">
        <ele>378.60000610352</ele>
        <time>2022-06-11T07:07:56.000Z</time>
      </trkpt>
      <trkpt lat="49.76528" lon="5.38953">
        <ele>381</ele>
        <time>2022-06-11T07:07:59.000Z</time>
      </trkpt>
      <trkpt lat="49.76533" lon="5.38943">
        <ele>381.79998779297</ele>
        <time>2022-06-11T07:08:01.000Z</time>
      </trkpt>
      <trkpt lat="49.76536" lon="5.38939">
        <ele>382.20001220703</ele>
        <time>2022-06-11T07:08:02.000Z</time>
      </trkpt>
      <trkpt lat="49.76541" lon="5.38931">
        <ele>383.39999389648</ele>
        <time>2022-06-11T07:08:04.000Z</time>
      </trkpt>
      <trkpt lat="49.76547" lon="5.38918">
        <ele>384.39999389648</ele>
        <time>2022-06-11T07:08:07.000Z</time>
      </trkpt>
      <trkpt lat="49.76552" lon="5.38905">
        <ele>385.20001220703</ele>
        <time>2022-06-11T07:08:10.000Z</time>
      </trkpt>
      <trkpt lat="49.76554" lon="5.389">
        <ele>385.60000610352</ele>
        <time>2022-06-11T07:08:11.000Z</time>
      </trkpt>
      <trkpt lat="49.76563" lon="5.38882">
        <ele>387</ele>
        <time>2022-06-11T07:08:15.000Z</time>
      </trkpt>
      <trkpt lat="49.76571" lon="5.38863">
        <ele>387</ele>
        <time>2022-06-11T07:08:19.000Z</time>
      </trkpt>
      <trkpt lat="49.76577" lon="5.38849">
        <ele>387.39999389648</ele>
        <time>2022-06-11T07:08:22.000Z</time>
      </trkpt>
      <trkpt lat="49.76584" lon="5.38836">
        <ele>387.20001220703</ele>
        <time>2022-06-11T07:08:25.000Z</time>
      </trkpt>
      <trkpt lat="49.76592" lon="5.38818">
        <ele>387</ele>
        <time>2022-06-11T07:08:29.000Z</time>
      </trkpt>
      <trkpt lat="49.76598" lon="5.38805">
        <ele>387.79998779297</ele>
        <time>2022-06-11T07:08:32.000Z</time>
      </trkpt>
      <trkpt lat="49.76607" lon="5.38791">
        <ele>389.20001220703</ele>
        <time>2022-06-11T07:08:36.000Z</time>
      </trkpt>
      <trkpt lat="49.7661" lon="5.38789">
        <ele>389.60000610352</ele>
        <time>2022-06-11T07:08:37.000Z</time>
      </trkpt>
      <trkpt lat="49.76614" lon="5.38783">
        <ele>390.20001220703</ele>
        <time>2022-06-11T07:08:39.000Z</time>
      </trkpt>
      <trkpt lat="49.76621" lon="5.38774">
        <ele>391.39999389648</ele>
        <time>2022-06-11T07:08:42.000Z</time>
      </trkpt>
      <trkpt lat="49.76629" lon="5.38762">
        <ele>393.79998779297</ele>
        <time>2022-06-11T07:08:45.000Z</time>
      </trkpt>
      <trkpt lat="49.76639" lon="5.38753">
        <ele>396.20001220703</ele>
        <time>2022-06-11T07:08:48.000Z</time>
      </trkpt>
      <trkpt lat="49.76642" lon="5.38751">
        <ele>397</ele>
        <time>2022-06-11T07:08:49.000Z</time>
      </trkpt>
      <trkpt lat="49.76652" lon="5.38746">
        <ele>398.60000610352</ele>
        <time>2022-06-11T07:08:52.000Z</time>
      </trkpt>
      <trkpt lat="49.76661" lon="5.38738">
        <ele>400.20001220703</ele>
        <time>2022-06-11T07:08:55.000Z</time>
      </trkpt>
      <trkpt lat="49.76665" lon="5.38736">
        <ele>400.79998779297</ele>
        <time>2022-06-11T07:08:56.000Z</time>
      </trkpt>
      <trkpt lat="49.76676" lon="5.38728">
        <ele>402.60000610352</ele>
        <time>2022-06-11T07:08:59.000Z</time>
      </trkpt>
      <trkpt lat="49.76687" lon="5.38721">
        <ele>403.79998779297</ele>
        <time>2022-06-11T07:09:02.000Z</time>
      </trkpt>
      <trkpt lat="49.76691" lon="5.38719">
        <ele>404.20001220703</ele>
        <time>2022-06-11T07:09:03.000Z</time>
      </trkpt>
      <trkpt lat="49.76714" lon="5.3871">
        <ele>405</ele>
        <time>2022-06-11T07:09:08.000Z</time>
      </trkpt>
      <trkpt lat="49.76719" lon="5.38707">
        <ele>405</ele>
        <time>2022-06-11T07:09:09.000Z</time>
      </trkpt>
      <trkpt lat="49.76735" lon="5.38693">
        <ele>404.79998779297</ele>
        <time>2022-06-11T07:09:12.000Z</time>
      </trkpt>
      <trkpt lat="49.7674" lon="5.38687">
        <ele>404.20001220703</ele>
        <time>2022-06-11T07:09:13.000Z</time>
      </trkpt>
      <trkpt lat="49.76752" lon="5.38674">
        <ele>403.39999389648</ele>
        <time>2022-06-11T07:09:15.000Z</time>
      </trkpt>
      <trkpt lat="49.76764" lon="5.3866">
        <ele>402.79998779297</ele>
        <time>2022-06-11T07:09:17.000Z</time>
      </trkpt>
      <trkpt lat="49.76777" lon="5.38644">
        <ele>402.20001220703</ele>
        <time>2022-06-11T07:09:19.000Z</time>
      </trkpt>
      <trkpt lat="49.7679" lon="5.38628">
        <ele>401.79998779297</ele>
        <time>2022-06-11T07:09:21.000Z</time>
      </trkpt>
      <trkpt lat="49.76797" lon="5.3862">
        <ele>401.60000610352</ele>
        <time>2022-06-11T07:09:22.000Z</time>
      </trkpt>
      <trkpt lat="49.76804" lon="5.38613">
        <ele>401.39999389648</ele>
        <time>2022-06-11T07:09:23.000Z</time>
      </trkpt>
      <trkpt lat="49.76818" lon="5.38599">
        <ele>400.60000610352</ele>
        <time>2022-06-11T07:09:25.000Z</time>
      </trkpt>
      <trkpt lat="49.76832" lon="5.38588">
        <ele>399.60000610352</ele>
        <time>2022-06-11T07:09:27.000Z</time>
      </trkpt>
      <trkpt lat="49.76839" lon="5.38583">
        <ele>399.20001220703</ele>
        <time>2022-06-11T07:09:28.000Z</time>
      </trkpt>
      <trkpt lat="49.76858" lon="5.38567">
        <ele>397.20001220703</ele>
        <time>2022-06-11T07:09:31.000Z</time>
      </trkpt>
      <trkpt lat="49.7687" lon="5.38553">
        <ele>396.79998779297</ele>
        <time>2022-06-11T07:09:33.000Z</time>
      </trkpt>
      <trkpt lat="49.76876" lon="5.38545">
        <ele>395.79998779297</ele>
        <time>2022-06-11T07:09:34.000Z</time>
      </trkpt>
      <trkpt lat="49.76887" lon="5.38528">
        <ele>393.39999389648</ele>
        <time>2022-06-11T07:09:36.000Z</time>
      </trkpt>
      <trkpt lat="49.76893" lon="5.38519">
        <ele>392.20001220703</ele>
        <time>2022-06-11T07:09:37.000Z</time>
      </trkpt>
      <trkpt lat="49.76899" lon="5.3851">
        <ele>391</ele>
        <time>2022-06-11T07:09:38.000Z</time>
      </trkpt>
      <trkpt lat="49.76905" lon="5.385">
        <ele>389.79998779297</ele>
        <time>2022-06-11T07:09:39.000Z</time>
      </trkpt>
      <trkpt lat="49.76911" lon="5.38491">
        <ele>388.39999389648</ele>
        <time>2022-06-11T07:09:40.000Z</time>
      </trkpt>
      <trkpt lat="49.76916" lon="5.38481">
        <ele>386.79998779297</ele>
        <time>2022-06-11T07:09:41.000Z</time>
      </trkpt>
      <trkpt lat="49.76921" lon="5.3847">
        <ele>385.39999389648</ele>
        <time>2022-06-11T07:09:42.000Z</time>
      </trkpt>
      <trkpt lat="49.76924" lon="5.38457">
        <ele>384.60000610352</ele>
        <time>2022-06-11T07:09:43.000Z</time>
      </trkpt>
      <trkpt lat="49.76927" lon="5.38432">
        <ele>383.39999389648</ele>
        <time>2022-06-11T07:09:45.000Z</time>
      </trkpt>
      <trkpt lat="49.7693" lon="5.3841">
        <ele>382.39999389648</ele>
        <time>2022-06-11T07:09:47.000Z</time>
      </trkpt>
      <trkpt lat="49.76934" lon="5.38379">
        <ele>381.39999389648</ele>
        <time>2022-06-11T07:09:50.000Z</time>
      </trkpt>
      <trkpt lat="49.76935" lon="5.38359">
        <ele>380.39999389648</ele>
        <time>2022-06-11T07:09:52.000Z</time>
      </trkpt>
      <trkpt lat="49.76934" lon="5.38342">
        <ele>379.79998779297</ele>
        <time>2022-06-11T07:09:54.000Z</time>
      </trkpt>
      <trkpt lat="49.76933" lon="5.38333">
        <ele>379.39999389648</ele>
        <time>2022-06-11T07:09:55.000Z</time>
      </trkpt>
      <trkpt lat="49.76932" lon="5.38324">
        <ele>379.20001220703</ele>
        <time>2022-06-11T07:09:56.000Z</time>
      </trkpt>
      <trkpt lat="49.76932" lon="5.38305">
        <ele>378.60000610352</ele>
        <time>2022-06-11T07:09:58.000Z</time>
      </trkpt>
      <trkpt lat="49.76933" lon="5.38285">
        <ele>377.79998779297</ele>
        <time>2022-06-11T07:10:00.000Z</time>
      </trkpt>
      <trkpt lat="49.76934" lon="5.38276">
        <ele>377.39999389648</ele>
        <time>2022-06-11T07:10:01.000Z</time>
      </trkpt>
      <trkpt lat="49.76937" lon="5.3827">
        <ele>377</ele>
        <time>2022-06-11T07:10:02.000Z</time>
      </trkpt>
      <trkpt lat="49.76942" lon="5.38267">
        <ele>376.79998779297</ele>
        <time>2022-06-11T07:10:03.000Z</time>
      </trkpt>
      <trkpt lat="49.76946" lon="5.38267">
        <ele>376.39999389648</ele>
        <time>2022-06-11T07:10:04.000Z</time>
      </trkpt>
      <trkpt lat="49.76952" lon="5.38267">
        <ele>376</ele>
        <time>2022-06-11T07:10:05.000Z</time>
      </trkpt>
      <trkpt lat="49.76957" lon="5.38267">
        <ele>375.60000610352</ele>
        <time>2022-06-11T07:10:06.000Z</time>
      </trkpt>
      <trkpt lat="49.76964" lon="5.38267">
        <ele>375.20001220703</ele>
        <time>2022-06-11T07:10:07.000Z</time>
      </trkpt>
      <trkpt lat="49.76976" lon="5.38269">
        <ele>374.20001220703</ele>
        <time>2022-06-11T07:10:09.000Z</time>
      </trkpt>
      <trkpt lat="49.76993" lon="5.38279">
        <ele>372.20001220703</ele>
        <time>2022-06-11T07:10:12.000Z</time>
      </trkpt>
      <trkpt lat="49.77004" lon="5.38304">
        <ele>370.60000610352</ele>
        <time>2022-06-11T07:10:15.000Z</time>
      </trkpt>
      <trkpt lat="49.77008" lon="5.38324">
        <ele>370</ele>
        <time>2022-06-11T07:10:17.000Z</time>
      </trkpt>
      <trkpt lat="49.7701" lon="5.38335">
        <ele>370</ele>
        <time>2022-06-11T07:10:18.000Z</time>
      </trkpt>
      <trkpt lat="49.77011" lon="5.38356">
        <ele>370</ele>
        <time>2022-06-11T07:10:20.000Z</time>
      </trkpt>
      <trkpt lat="49.77011" lon="5.38367">
        <ele>369.79998779297</ele>
        <time>2022-06-11T07:10:21.000Z</time>
      </trkpt>
      <trkpt lat="49.77008" lon="5.38396">
        <ele>370</ele>
        <time>2022-06-11T07:10:24.000Z</time>
      </trkpt>
      <trkpt lat="49.76997" lon="5.38457">
        <ele>371.20001220703</ele>
        <time>2022-06-11T07:10:31.000Z</time>
      </trkpt>
      <trkpt lat="49.76996" lon="5.38466">
        <ele>371.20001220703</ele>
        <time>2022-06-11T07:10:32.000Z</time>
      </trkpt>
      <trkpt lat="49.76978" lon="5.38535">
        <ele>371.60000610352</ele>
        <time>2022-06-11T07:10:40.000Z</time>
      </trkpt>
      <trkpt lat="49.76964" lon="5.38598">
        <ele>372.60000610352</ele>
        <time>2022-06-11T07:10:47.000Z</time>
      </trkpt>
      <trkpt lat="49.76954" lon="5.38668">
        <ele>366.39999389648</ele>
        <time>2022-06-11T07:10:54.000Z</time>
      </trkpt>
      <trkpt lat="49.76948" lon="5.38711">
        <ele>368.20001220703</ele>
        <time>2022-06-11T07:10:58.000Z</time>
      </trkpt>
      <trkpt lat="49.76945" lon="5.38741">
        <ele>368</ele>
        <time>2022-06-11T07:11:01.000Z</time>
      </trkpt>
      <trkpt lat="49.76937" lon="5.38795">
        <ele>369.60000610352</ele>
        <time>2022-06-11T07:11:07.000Z</time>
      </trkpt>
      <trkpt lat="49.76932" lon="5.38831">
        <ele>370.60000610352</ele>
        <time>2022-06-11T07:11:11.000Z</time>
      </trkpt>
      <trkpt lat="49.76929" lon="5.38848">
        <ele>371</ele>
        <time>2022-06-11T07:11:13.000Z</time>
      </trkpt>
      <trkpt lat="49.76926" lon="5.38875">
        <ele>372</ele>
        <time>2022-06-11T07:11:16.000Z</time>
      </trkpt>
      <trkpt lat="49.76923" lon="5.38911">
        <ele>374.20001220703</ele>
        <time>2022-06-11T07:11:20.000Z</time>
      </trkpt>
      <trkpt lat="49.76923" lon="5.38921">
        <ele>373.60000610352</ele>
        <time>2022-06-11T07:11:21.000Z</time>
      </trkpt>
      <trkpt lat="49.76932" lon="5.38957">
        <ele>369</ele>
        <time>2022-06-11T07:11:25.000Z</time>
      </trkpt>
      <trkpt lat="49.76935" lon="5.38967">
        <ele>367.60000610352</ele>
        <time>2022-06-11T07:11:26.000Z</time>
      </trkpt>
      <trkpt lat="49.76938" lon="5.38977">
        <ele>366.39999389648</ele>
        <time>2022-06-11T07:11:27.000Z</time>
      </trkpt>
      <trkpt lat="49.76942" lon="5.39007">
        <ele>362.79998779297</ele>
        <time>2022-06-11T07:11:30.000Z</time>
      </trkpt>
      <trkpt lat="49.76945" lon="5.39025">
        <ele>361</ele>
        <time>2022-06-11T07:11:32.000Z</time>
      </trkpt>
      <trkpt lat="49.76951" lon="5.39059">
        <ele>358.39999389648</ele>
        <time>2022-06-11T07:11:36.000Z</time>
      </trkpt>
      <trkpt lat="49.76952" lon="5.39098">
        <ele>359.60000610352</ele>
        <time>2022-06-11T07:11:40.000Z</time>
      </trkpt>
      <trkpt lat="49.76951" lon="5.39109">
        <ele>360.20001220703</ele>
        <time>2022-06-11T07:11:41.000Z</time>
      </trkpt>
      <trkpt lat="49.76947" lon="5.39127">
        <ele>360.60000610352</ele>
        <time>2022-06-11T07:11:43.000Z</time>
      </trkpt>
      <trkpt lat="49.76941" lon="5.39143">
        <ele>361.79998779297</ele>
        <time>2022-06-11T07:11:45.000Z</time>
      </trkpt>
      <trkpt lat="49.76933" lon="5.39156">
        <ele>362.20001220703</ele>
        <time>2022-06-11T07:11:47.000Z</time>
      </trkpt>
      <trkpt lat="49.76925" lon="5.39168">
        <ele>362.60000610352</ele>
        <time>2022-06-11T07:11:49.000Z</time>
      </trkpt>
      <trkpt lat="49.769" lon="5.39214">
        <ele>360.60000610352</ele>
        <time>2022-06-11T07:11:56.000Z</time>
      </trkpt>
      <trkpt lat="49.76881" lon="5.39263">
        <ele>354.60000610352</ele>
        <time>2022-06-11T07:12:03.000Z</time>
      </trkpt>
      <trkpt lat="49.76872" lon="5.39284">
        <ele>353</ele>
        <time>2022-06-11T07:12:06.000Z</time>
      </trkpt>
      <trkpt lat="49.76864" lon="5.39298">
        <ele>351.39999389648</ele>
        <time>2022-06-11T07:12:08.000Z</time>
      </trkpt>
      <trkpt lat="49.7686" lon="5.39305">
        <ele>351.20001220703</ele>
        <time>2022-06-11T07:12:09.000Z</time>
      </trkpt>
      <trkpt lat="49.76855" lon="5.39312">
        <ele>350.79998779297</ele>
        <time>2022-06-11T07:12:10.000Z</time>
      </trkpt>
      <trkpt lat="49.7685" lon="5.39322">
        <ele>348.79998779297</ele>
        <time>2022-06-11T07:12:11.000Z</time>
      </trkpt>
      <trkpt lat="49.76847" lon="5.39332">
        <ele>346.20001220703</ele>
        <time>2022-06-11T07:12:12.000Z</time>
      </trkpt>
      <trkpt lat="49.76847" lon="5.39342">
        <ele>344</ele>
        <time>2022-06-11T07:12:13.000Z</time>
      </trkpt>
      <trkpt lat="49.76849" lon="5.39361">
        <ele>339.39999389648</ele>
        <time>2022-06-11T07:12:15.000Z</time>
      </trkpt>
      <trkpt lat="49.7685" lon="5.3937">
        <ele>338.39999389648</ele>
        <time>2022-06-11T07:12:16.000Z</time>
      </trkpt>
      <trkpt lat="49.76852" lon="5.39378">
        <ele>337.20001220703</ele>
        <time>2022-06-11T07:12:17.000Z</time>
      </trkpt>
      <trkpt lat="49.76855" lon="5.39395">
        <ele>335.60000610352</ele>
        <time>2022-06-11T07:12:19.000Z</time>
      </trkpt>
      <trkpt lat="49.76857" lon="5.39404">
        <ele>335.39999389648</ele>
        <time>2022-06-11T07:12:20.000Z</time>
      </trkpt>
      <trkpt lat="49.76865" lon="5.39459">
        <ele>336</ele>
        <time>2022-06-11T07:12:26.000Z</time>
      </trkpt>
      <trkpt lat="49.76872" lon="5.39509">
        <ele>337.60000610352</ele>
        <time>2022-06-11T07:12:32.000Z</time>
      </trkpt>
      <trkpt lat="49.76873" lon="5.39518">
        <ele>338.20001220703</ele>
        <time>2022-06-11T07:12:33.000Z</time>
      </trkpt>
      <trkpt lat="49.76882" lon="5.39534">
        <ele>338.39999389648</ele>
        <time>2022-06-11T07:12:36.000Z</time>
      </trkpt>
      <trkpt lat="49.76898" lon="5.39538">
        <ele>337.39999389648</ele>
        <time>2022-06-11T07:12:39.000Z</time>
      </trkpt>
      <trkpt lat="49.7692" lon="5.39552">
        <ele>338</ele>
        <time>2022-06-11T07:12:43.000Z</time>
      </trkpt>
      <trkpt lat="49.76933" lon="5.39571">
        <ele>339</ele>
        <time>2022-06-11T07:12:46.000Z</time>
      </trkpt>
      <trkpt lat="49.76937" lon="5.39578">
        <ele>339.39999389648</ele>
        <time>2022-06-11T07:12:47.000Z</time>
      </trkpt>
      <trkpt lat="49.76949" lon="5.39599">
        <ele>340.39999389648</ele>
        <time>2022-06-11T07:12:50.000Z</time>
      </trkpt>
      <trkpt lat="49.76957" lon="5.39611">
        <ele>340.79998779297</ele>
        <time>2022-06-11T07:12:52.000Z</time>
      </trkpt>
      <trkpt lat="49.7696" lon="5.39617">
        <ele>340.79998779297</ele>
        <time>2022-06-11T07:12:53.000Z</time>
      </trkpt>
      <trkpt lat="49.76975" lon="5.39622">
        <ele>339.79998779297</ele>
        <time>2022-06-11T07:12:56.000Z</time>
      </trkpt>
      <trkpt lat="49.76985" lon="5.39619">
        <ele>339</ele>
        <time>2022-06-11T07:12:58.000Z</time>
      </trkpt>
      <trkpt lat="49.7699" lon="5.39617">
        <ele>338.60000610352</ele>
        <time>2022-06-11T07:12:59.000Z</time>
      </trkpt>
      <trkpt lat="49.77002" lon="5.39613">
        <ele>338.20001220703</ele>
        <time>2022-06-11T07:13:01.000Z</time>
      </trkpt>
      <trkpt lat="49.77026" lon="5.39617">
        <ele>338</ele>
        <time>2022-06-11T07:13:05.000Z</time>
      </trkpt>
      <trkpt lat="49.77033" lon="5.39618">
        <ele>338</ele>
        <time>2022-06-11T07:13:06.000Z</time>
      </trkpt>
      <trkpt lat="49.77039" lon="5.39619">
        <ele>338</ele>
        <time>2022-06-11T07:13:07.000Z</time>
      </trkpt>
      <trkpt lat="49.77058" lon="5.39615">
        <ele>338.60000610352</ele>
        <time>2022-06-11T07:13:10.000Z</time>
      </trkpt>
      <trkpt lat="49.77064" lon="5.39613">
        <ele>338.79998779297</ele>
        <time>2022-06-11T07:13:11.000Z</time>
      </trkpt>
      <trkpt lat="49.77095" lon="5.39594">
        <ele>339.79998779297</ele>
        <time>2022-06-11T07:13:17.000Z</time>
      </trkpt>
      <trkpt lat="49.77116" lon="5.39579">
        <ele>341.79998779297</ele>
        <time>2022-06-11T07:13:22.000Z</time>
      </trkpt>
      <trkpt lat="49.77123" lon="5.39573">
        <ele>342.60000610352</ele>
        <time>2022-06-11T07:13:24.000Z</time>
      </trkpt>
      <trkpt lat="49.77131" lon="5.39569">
        <ele>343.79998779297</ele>
        <time>2022-06-11T07:13:26.000Z</time>
      </trkpt>
      <trkpt lat="49.77141" lon="5.39563">
        <ele>344.79998779297</ele>
        <time>2022-06-11T07:13:29.000Z</time>
      </trkpt>
      <trkpt lat="49.77148" lon="5.39561">
        <ele>345.79998779297</ele>
        <time>2022-06-11T07:13:31.000Z</time>
      </trkpt>
      <trkpt lat="49.77151" lon="5.3956">
        <ele>347</ele>
        <time>2022-06-11T07:13:32.000Z</time>
      </trkpt>
      <trkpt lat="49.77161" lon="5.39556">
        <ele>350.60000610352</ele>
        <time>2022-06-11T07:13:35.000Z</time>
      </trkpt>
      <trkpt lat="49.77172" lon="5.39551">
        <ele>354.20001220703</ele>
        <time>2022-06-11T07:13:38.000Z</time>
      </trkpt>
      <trkpt lat="49.77183" lon="5.39548">
        <ele>357.39999389648</ele>
        <time>2022-06-11T07:13:41.000Z</time>
      </trkpt>
      <trkpt lat="49.77194" lon="5.39543">
        <ele>360.60000610352</ele>
        <time>2022-06-11T07:13:44.000Z</time>
      </trkpt>
      <trkpt lat="49.77203" lon="5.39537">
        <ele>363.79998779297</ele>
        <time>2022-06-11T07:13:47.000Z</time>
      </trkpt>
      <trkpt lat="49.77206" lon="5.39535">
        <ele>364.39999389648</ele>
        <time>2022-06-11T07:13:48.000Z</time>
      </trkpt>
      <trkpt lat="49.77213" lon="5.39531">
        <ele>365.79998779297</ele>
        <time>2022-06-11T07:13:50.000Z</time>
      </trkpt>
      <trkpt lat="49.77223" lon="5.39524">
        <ele>368.39999389648</ele>
        <time>2022-06-11T07:13:53.000Z</time>
      </trkpt>
      <trkpt lat="49.77234" lon="5.39518">
        <ele>370</ele>
        <time>2022-06-11T07:13:56.000Z</time>
      </trkpt>
      <trkpt lat="49.77237" lon="5.39516">
        <ele>370.20001220703</ele>
        <time>2022-06-11T07:13:57.000Z</time>
      </trkpt>
      <trkpt lat="49.77251" lon="5.39509">
        <ele>371.60000610352</ele>
        <time>2022-06-11T07:14:01.000Z</time>
      </trkpt>
      <trkpt lat="49.77262" lon="5.39507">
        <ele>372.20001220703</ele>
        <time>2022-06-11T07:14:04.000Z</time>
      </trkpt>
      <trkpt lat="49.77266" lon="5.39506">
        <ele>372</ele>
        <time>2022-06-11T07:14:05.000Z</time>
      </trkpt>
      <trkpt lat="49.77273" lon="5.39506">
        <ele>372</ele>
        <time>2022-06-11T07:14:07.000Z</time>
      </trkpt>
      <trkpt lat="49.77283" lon="5.39503">
        <ele>372.39999389648</ele>
        <time>2022-06-11T07:14:10.000Z</time>
      </trkpt>
      <trkpt lat="49.77294" lon="5.395">
        <ele>371.79998779297</ele>
        <time>2022-06-11T07:14:13.000Z</time>
      </trkpt>
      <trkpt lat="49.77298" lon="5.39498">
        <ele>371.60000610352</ele>
        <time>2022-06-11T07:14:14.000Z</time>
      </trkpt>
      <trkpt lat="49.7732" lon="5.39485">
        <ele>370.79998779297</ele>
        <time>2022-06-11T07:14:19.000Z</time>
      </trkpt>
      <trkpt lat="49.77331" lon="5.39477">
        <ele>370.39999389648</ele>
        <time>2022-06-11T07:14:21.000Z</time>
      </trkpt>
      <trkpt lat="49.7735" lon="5.39463">
        <ele>369.60000610352</ele>
        <time>2022-06-11T07:14:24.000Z</time>
      </trkpt>
      <trkpt lat="49.77356" lon="5.39458">
        <ele>369.39999389648</ele>
        <time>2022-06-11T07:14:25.000Z</time>
      </trkpt>
      <trkpt lat="49.77362" lon="5.39452">
        <ele>370.20001220703</ele>
        <time>2022-06-11T07:14:26.000Z</time>
      </trkpt>
      <trkpt lat="49.77374" lon="5.39438">
        <ele>371.60000610352</ele>
        <time>2022-06-11T07:14:28.000Z</time>
      </trkpt>
      <trkpt lat="49.77385" lon="5.39423">
        <ele>371.39999389648</ele>
        <time>2022-06-11T07:14:30.000Z</time>
      </trkpt>
      <trkpt lat="49.77396" lon="5.39411">
        <ele>371.20001220703</ele>
        <time>2022-06-11T07:14:32.000Z</time>
      </trkpt>
      <trkpt lat="49.77401" lon="5.39405">
        <ele>370.79998779297</ele>
        <time>2022-06-11T07:14:33.000Z</time>
      </trkpt>
      <trkpt lat="49.77407" lon="5.39401">
        <ele>370</ele>
        <time>2022-06-11T07:14:34.000Z</time>
      </trkpt>
      <trkpt lat="49.77417" lon="5.39394">
        <ele>368.79998779297</ele>
        <time>2022-06-11T07:14:36.000Z</time>
      </trkpt>
      <trkpt lat="49.77421" lon="5.39389">
        <ele>368.39999389648</ele>
        <time>2022-06-11T07:14:37.000Z</time>
      </trkpt>
      <trkpt lat="49.77425" lon="5.39384">
        <ele>368</ele>
        <time>2022-06-11T07:14:38.000Z</time>
      </trkpt>
      <trkpt lat="49.77447" lon="5.39364">
        <ele>365</ele>
        <time>2022-06-11T07:14:43.000Z</time>
      </trkpt>
      <trkpt lat="49.77456" lon="5.39358">
        <ele>363.79998779297</ele>
        <time>2022-06-11T07:14:45.000Z</time>
      </trkpt>
      <trkpt lat="49.77477" lon="5.39347">
        <ele>363.20001220703</ele>
        <time>2022-06-11T07:14:49.000Z</time>
      </trkpt>
      <trkpt lat="49.77483" lon="5.39344">
        <ele>363</ele>
        <time>2022-06-11T07:14:50.000Z</time>
      </trkpt>
      <trkpt lat="49.77501" lon="5.39334">
        <ele>362.39999389648</ele>
        <time>2022-06-11T07:14:53.000Z</time>
      </trkpt>
      <trkpt lat="49.77513" lon="5.39325">
        <ele>361.79998779297</ele>
        <time>2022-06-11T07:14:55.000Z</time>
      </trkpt>
      <trkpt lat="49.77519" lon="5.3932">
        <ele>361.60000610352</ele>
        <time>2022-06-11T07:14:56.000Z</time>
      </trkpt>
      <trkpt lat="49.77529" lon="5.39309">
        <ele>361.20001220703</ele>
        <time>2022-06-11T07:14:58.000Z</time>
      </trkpt>
      <trkpt lat="49.77533" lon="5.39305">
        <ele>361</ele>
        <time>2022-06-11T07:14:59.000Z</time>
      </trkpt>
      <trkpt lat="49.77548" lon="5.39298">
        <ele>359.20001220703</ele>
        <time>2022-06-11T07:15:02.000Z</time>
      </trkpt>
      <trkpt lat="49.77553" lon="5.39296">
        <ele>358.39999389648</ele>
        <time>2022-06-11T07:15:03.000Z</time>
      </trkpt>
      <trkpt lat="49.77572" lon="5.39285">
        <ele>355.39999389648</ele>
        <time>2022-06-11T07:15:07.000Z</time>
      </trkpt>
      <trkpt lat="49.77602" lon="5.39274">
        <ele>352</ele>
        <time>2022-06-11T07:15:13.000Z</time>
      </trkpt>
      <trkpt lat="49.77629" lon="5.39267">
        <ele>353</ele>
        <time>2022-06-11T07:15:18.000Z</time>
      </trkpt>
      <trkpt lat="49.7764" lon="5.39261">
        <ele>354</ele>
        <time>2022-06-11T07:15:20.000Z</time>
      </trkpt>
      <trkpt lat="49.77663" lon="5.39247">
        <ele>357.20001220703</ele>
        <time>2022-06-11T07:15:25.000Z</time>
      </trkpt>
      <trkpt lat="49.77679" lon="5.39242">
        <ele>358.79998779297</ele>
        <time>2022-06-11T07:15:28.000Z</time>
      </trkpt>
      <trkpt lat="49.77688" lon="5.39236">
        <ele>360</ele>
        <time>2022-06-11T07:15:30.000Z</time>
      </trkpt>
      <trkpt lat="49.77715" lon="5.39216">
        <ele>361.60000610352</ele>
        <time>2022-06-11T07:15:35.000Z</time>
      </trkpt>
      <trkpt lat="49.77723" lon="5.39209">
        <ele>361.60000610352</ele>
        <time>2022-06-11T07:15:37.000Z</time>
      </trkpt>
      <trkpt lat="49.77727" lon="5.39205">
        <ele>361.79998779297</ele>
        <time>2022-06-11T07:15:38.000Z</time>
      </trkpt>
      <trkpt lat="49.7773" lon="5.39203">
        <ele>362</ele>
        <time>2022-06-11T07:15:39.000Z</time>
      </trkpt>
      <trkpt lat="49.77734" lon="5.392">
        <ele>362</ele>
        <time>2022-06-11T07:15:40.000Z</time>
      </trkpt>
      <trkpt lat="49.77741" lon="5.39195">
        <ele>361.79998779297</ele>
        <time>2022-06-11T07:15:42.000Z</time>
      </trkpt>
      <trkpt lat="49.77749" lon="5.3919">
        <ele>361.39999389648</ele>
        <time>2022-06-11T07:15:44.000Z</time>
      </trkpt>
      <trkpt lat="49.77753" lon="5.39187">
        <ele>361</ele>
        <time>2022-06-11T07:15:45.000Z</time>
      </trkpt>
      <trkpt lat="49.77771" lon="5.39177">
        <ele>361</ele>
        <time>2022-06-11T07:15:49.000Z</time>
      </trkpt>
      <trkpt lat="49.77776" lon="5.39175">
        <ele>361.39999389648</ele>
        <time>2022-06-11T07:15:50.000Z</time>
      </trkpt>
      <trkpt lat="49.77781" lon="5.39172">
        <ele>361.79998779297</ele>
        <time>2022-06-11T07:15:51.000Z</time>
      </trkpt>
      <trkpt lat="49.77795" lon="5.39161">
        <ele>363.20001220703</ele>
        <time>2022-06-11T07:15:54.000Z</time>
      </trkpt>
      <trkpt lat="49.778" lon="5.39159">
        <ele>363.60000610352</ele>
        <time>2022-06-11T07:15:55.000Z</time>
      </trkpt>
      <trkpt lat="49.77805" lon="5.39157">
        <ele>363.79998779297</ele>
        <time>2022-06-11T07:15:56.000Z</time>
      </trkpt>
      <trkpt lat="49.7782" lon="5.39154">
        <ele>364</ele>
        <time>2022-06-11T07:15:59.000Z</time>
      </trkpt>
      <trkpt lat="49.77826" lon="5.39154">
        <ele>363.60000610352</ele>
        <time>2022-06-11T07:16:00.000Z</time>
      </trkpt>
      <trkpt lat="49.77832" lon="5.39153">
        <ele>363.20001220703</ele>
        <time>2022-06-11T07:16:01.000Z</time>
      </trkpt>
      <trkpt lat="49.77855" lon="5.39149">
        <ele>362</ele>
        <time>2022-06-11T07:16:05.000Z</time>
      </trkpt>
      <trkpt lat="49.77867" lon="5.39145">
        <ele>360.39999389648</ele>
        <time>2022-06-11T07:16:07.000Z</time>
      </trkpt>
      <trkpt lat="49.77876" lon="5.39135">
        <ele>360</ele>
        <time>2022-06-11T07:16:09.000Z</time>
      </trkpt>
      <trkpt lat="49.77889" lon="5.39107">
        <ele>359.79998779297</ele>
        <time>2022-06-11T07:16:12.000Z</time>
      </trkpt>
      <trkpt lat="49.779" lon="5.39086">
        <ele>359.39999389648</ele>
        <time>2022-06-11T07:16:14.000Z</time>
      </trkpt>
      <trkpt lat="49.77908" lon="5.39077">
        <ele>358.79998779297</ele>
        <time>2022-06-11T07:16:15.000Z</time>
      </trkpt>
      <trkpt lat="49.77916" lon="5.39069">
        <ele>358</ele>
        <time>2022-06-11T07:16:16.000Z</time>
      </trkpt>
      <trkpt lat="49.77923" lon="5.39062">
        <ele>357.20001220703</ele>
        <time>2022-06-11T07:16:17.000Z</time>
      </trkpt>
      <trkpt lat="49.77929" lon="5.39055">
        <ele>356.79998779297</ele>
        <time>2022-06-11T07:16:18.000Z</time>
      </trkpt>
      <trkpt lat="49.77934" lon="5.39049">
        <ele>356.60000610352</ele>
        <time>2022-06-11T07:16:19.000Z</time>
      </trkpt>
      <trkpt lat="49.77936" lon="5.39036">
        <ele>356.60000610352</ele>
        <time>2022-06-11T07:16:22.000Z</time>
      </trkpt>
      <trkpt lat="49.77933" lon="5.39032">
        <ele>356.60000610352</ele>
        <time>2022-06-11T07:16:24.000Z</time>
      </trkpt>
      <trkpt lat="49.77931" lon="5.39026">
        <ele>356.60000610352</ele>
        <time>2022-06-11T07:16:26.000Z</time>
      </trkpt>
      <trkpt lat="49.77927" lon="5.39021">
        <ele>356.79998779297</ele>
        <time>2022-06-11T07:16:28.000Z</time>
      </trkpt>
      <trkpt lat="49.77925" lon="5.39019">
        <ele>357</ele>
        <time>2022-06-11T07:16:29.000Z</time>
      </trkpt>
      <trkpt lat="49.77916" lon="5.39003">
        <ele>357.60000610352</ele>
        <time>2022-06-11T07:16:34.000Z</time>
      </trkpt>
      <trkpt lat="49.77907" lon="5.38977">
        <ele>358.39999389648</ele>
        <time>2022-06-11T07:16:40.000Z</time>
      </trkpt>
      <trkpt lat="49.77905" lon="5.38971">
        <ele>358.79998779297</ele>
        <time>2022-06-11T07:16:41.000Z</time>
      </trkpt>
      <trkpt lat="49.77897" lon="5.3895">
        <ele>360.39999389648</ele>
        <time>2022-06-11T07:16:45.000Z</time>
      </trkpt>
      <trkpt lat="49.77889" lon="5.3893">
        <ele>361.60000610352</ele>
        <time>2022-06-11T07:16:50.000Z</time>
      </trkpt>
      <trkpt lat="49.77888" lon="5.38927">
        <ele>361.79998779297</ele>
        <time>2022-06-11T07:16:51.000Z</time>
      </trkpt>
      <trkpt lat="49.77885" lon="5.38902">
        <ele>362.79998779297</ele>
        <time>2022-06-11T07:16:57.000Z</time>
      </trkpt>
      <trkpt lat="49.77883" lon="5.38861">
        <ele>366.60000610352</ele>
        <time>2022-06-11T07:17:03.000Z</time>
      </trkpt>
      <trkpt lat="49.7788" lon="5.38834">
        <ele>368.79998779297</ele>
        <time>2022-06-11T07:17:07.000Z</time>
      </trkpt>
      <trkpt lat="49.7788" lon="5.3882">
        <ele>369.60000610352</ele>
        <time>2022-06-11T07:17:09.000Z</time>
      </trkpt>
      <trkpt lat="49.7788" lon="5.38807">
        <ele>370.20001220703</ele>
        <time>2022-06-11T07:17:11.000Z</time>
      </trkpt>
      <trkpt lat="49.77878" lon="5.38788">
        <ele>371.39999389648</ele>
        <time>2022-06-11T07:17:14.000Z</time>
      </trkpt>
      <trkpt lat="49.77877" lon="5.38781">
        <ele>371.79998779297</ele>
        <time>2022-06-11T07:17:15.000Z</time>
      </trkpt>
      <trkpt lat="49.77872" lon="5.38748">
        <ele>373.39999389648</ele>
        <time>2022-06-11T07:17:20.000Z</time>
      </trkpt>
      <trkpt lat="49.77871" lon="5.38742">
        <ele>373.60000610352</ele>
        <time>2022-06-11T07:17:21.000Z</time>
      </trkpt>
      <trkpt lat="49.77868" lon="5.38721">
        <ele>374.60000610352</ele>
        <time>2022-06-11T07:17:24.000Z</time>
      </trkpt>
      <trkpt lat="49.77863" lon="5.38698">
        <ele>375.20001220703</ele>
        <time>2022-06-11T07:17:27.000Z</time>
      </trkpt>
      <trkpt lat="49.77859" lon="5.38685">
        <ele>375.20001220703</ele>
        <time>2022-06-11T07:17:29.000Z</time>
      </trkpt>
      <trkpt lat="49.77856" lon="5.38637">
        <ele>374.60000610352</ele>
        <time>2022-06-11T07:17:36.000Z</time>
      </trkpt>
      <trkpt lat="49.77854" lon="5.38621">
        <ele>374.39999389648</ele>
        <time>2022-06-11T07:17:39.000Z</time>
      </trkpt>
      <trkpt lat="49.77853" lon="5.38614">
        <ele>374.39999389648</ele>
        <time>2022-06-11T07:17:40.000Z</time>
      </trkpt>
      <trkpt lat="49.7785" lon="5.38587">
        <ele>374.39999389648</ele>
        <time>2022-06-11T07:17:44.000Z</time>
      </trkpt>
      <trkpt lat="49.77849" lon="5.38569">
        <ele>375.39999389648</ele>
        <time>2022-06-11T07:17:47.000Z</time>
      </trkpt>
      <trkpt lat="49.77849" lon="5.38552">
        <ele>377</ele>
        <time>2022-06-11T07:17:50.000Z</time>
      </trkpt>
      <trkpt lat="49.7785" lon="5.3854">
        <ele>377.79998779297</ele>
        <time>2022-06-11T07:17:52.000Z</time>
      </trkpt>
      <trkpt lat="49.77852" lon="5.38515">
        <ele>379.60000610352</ele>
        <time>2022-06-11T07:17:56.000Z</time>
      </trkpt>
      <trkpt lat="49.77851" lon="5.38507">
        <ele>379.39999389648</ele>
        <time>2022-06-11T07:17:57.000Z</time>
      </trkpt>
      <trkpt lat="49.77851" lon="5.38472">
        <ele>379.79998779297</ele>
        <time>2022-06-11T07:18:02.000Z</time>
      </trkpt>
      <trkpt lat="49.77851" lon="5.38465">
        <ele>379.79998779297</ele>
        <time>2022-06-11T07:18:03.000Z</time>
      </trkpt>
      <trkpt lat="49.77852" lon="5.38431">
        <ele>380.20001220703</ele>
        <time>2022-06-11T07:18:08.000Z</time>
      </trkpt>
      <trkpt lat="49.77852" lon="5.38424">
        <ele>380.20001220703</ele>
        <time>2022-06-11T07:18:09.000Z</time>
      </trkpt>
      <trkpt lat="49.77851" lon="5.38397">
        <ele>382.79998779297</ele>
        <time>2022-06-11T07:18:13.000Z</time>
      </trkpt>
      <trkpt lat="49.77855" lon="5.38381">
        <ele>385.39999389648</ele>
        <time>2022-06-11T07:18:16.000Z</time>
      </trkpt>
      <trkpt lat="49.77858" lon="5.38371">
        <ele>386.60000610352</ele>
        <time>2022-06-11T07:18:18.000Z</time>
      </trkpt>
      <trkpt lat="49.77866" lon="5.38338">
        <ele>388.60000610352</ele>
        <time>2022-06-11T07:18:23.000Z</time>
      </trkpt>
      <trkpt lat="49.77873" lon="5.38312">
        <ele>389.60000610352</ele>
        <time>2022-06-11T07:18:27.000Z</time>
      </trkpt>
      <trkpt lat="49.77875" lon="5.38306">
        <ele>389.79998779297</ele>
        <time>2022-06-11T07:18:28.000Z</time>
      </trkpt>
      <trkpt lat="49.77878" lon="5.38293">
        <ele>389.60000610352</ele>
        <time>2022-06-11T07:18:30.000Z</time>
      </trkpt>
      <trkpt lat="49.77878" lon="5.38265">
        <ele>388.60000610352</ele>
        <time>2022-06-11T07:18:35.000Z</time>
      </trkpt>
      <trkpt lat="49.77874" lon="5.38242">
        <ele>388.20001220703</ele>
        <time>2022-06-11T07:18:38.000Z</time>
      </trkpt>
      <trkpt lat="49.7787" lon="5.38228">
        <ele>388</ele>
        <time>2022-06-11T07:18:40.000Z</time>
      </trkpt>
      <trkpt lat="49.77861" lon="5.38185">
        <ele>388.79998779297</ele>
        <time>2022-06-11T07:18:46.000Z</time>
      </trkpt>
      <trkpt lat="49.77858" lon="5.38165">
        <ele>391.20001220703</ele>
        <time>2022-06-11T07:18:49.000Z</time>
      </trkpt>
      <trkpt lat="49.77856" lon="5.3815">
        <ele>392.20001220703</ele>
        <time>2022-06-11T07:18:51.000Z</time>
      </trkpt>
      <trkpt lat="49.77847" lon="5.38111">
        <ele>393.20001220703</ele>
        <time>2022-06-11T07:18:56.000Z</time>
      </trkpt>
      <trkpt lat="49.77844" lon="5.38103">
        <ele>392.60000610352</ele>
        <time>2022-06-11T07:18:57.000Z</time>
      </trkpt>
      <trkpt lat="49.77833" lon="5.38078">
        <ele>390.39999389648</ele>
        <time>2022-06-11T07:19:00.000Z</time>
      </trkpt>
      <trkpt lat="49.77825" lon="5.38054">
        <ele>390.39999389648</ele>
        <time>2022-06-11T07:19:03.000Z</time>
      </trkpt>
      <trkpt lat="49.77815" lon="5.38015">
        <ele>391.39999389648</ele>
        <time>2022-06-11T07:19:08.000Z</time>
      </trkpt>
      <trkpt lat="49.7781" lon="5.37988">
        <ele>392.39999389648</ele>
        <time>2022-06-11T07:19:12.000Z</time>
      </trkpt>
      <trkpt lat="49.77809" lon="5.37981">
        <ele>392.39999389648</ele>
        <time>2022-06-11T07:19:13.000Z</time>
      </trkpt>
      <trkpt lat="49.77808" lon="5.37968">
        <ele>392.20001220703</ele>
        <time>2022-06-11T07:19:15.000Z</time>
      </trkpt>
      <trkpt lat="49.77806" lon="5.37941">
        <ele>391.79998779297</ele>
        <time>2022-06-11T07:19:19.000Z</time>
      </trkpt>
      <trkpt lat="49.77801" lon="5.37908">
        <ele>390.79998779297</ele>
        <time>2022-06-11T07:19:24.000Z</time>
      </trkpt>
      <trkpt lat="49.77792" lon="5.37869">
        <ele>390</ele>
        <time>2022-06-11T07:19:29.000Z</time>
      </trkpt>
      <trkpt lat="49.77786" lon="5.3784">
        <ele>391.20001220703</ele>
        <time>2022-06-11T07:19:33.000Z</time>
      </trkpt>
      <trkpt lat="49.77781" lon="5.37817">
        <ele>391.79998779297</ele>
        <time>2022-06-11T07:19:36.000Z</time>
      </trkpt>
      <trkpt lat="49.77776" lon="5.37775">
        <ele>393.79998779297</ele>
        <time>2022-06-11T07:19:42.000Z</time>
      </trkpt>
      <trkpt lat="49.77775" lon="5.37734">
        <ele>395.20001220703</ele>
        <time>2022-06-11T07:19:48.000Z</time>
      </trkpt>
      <trkpt lat="49.77774" lon="5.37719">
        <ele>395.60000610352</ele>
        <time>2022-06-11T07:19:50.000Z</time>
      </trkpt>
      <trkpt lat="49.77766" lon="5.37693">
        <ele>395.39999389648</ele>
        <time>2022-06-11T07:19:53.000Z</time>
      </trkpt>
      <trkpt lat="49.77757" lon="5.37671">
        <ele>395.39999389648</ele>
        <time>2022-06-11T07:19:56.000Z</time>
      </trkpt>
      <trkpt lat="49.77752" lon="5.37658">
        <ele>394.79998779297</ele>
        <time>2022-06-11T07:19:58.000Z</time>
      </trkpt>
      <trkpt lat="49.77749" lon="5.37651">
        <ele>394.20001220703</ele>
        <time>2022-06-11T07:19:59.000Z</time>
      </trkpt>
      <trkpt lat="49.77746" lon="5.37644">
        <ele>393.60000610352</ele>
        <time>2022-06-11T07:20:00.000Z</time>
      </trkpt>
      <trkpt lat="49.77739" lon="5.37624">
        <ele>392.79998779297</ele>
        <time>2022-06-11T07:20:03.000Z</time>
      </trkpt>
      <trkpt lat="49.77737" lon="5.37617">
        <ele>392.79998779297</ele>
        <time>2022-06-11T07:20:04.000Z</time>
      </trkpt>
      <trkpt lat="49.77728" lon="5.37585">
        <ele>394.39999389648</ele>
        <time>2022-06-11T07:20:09.000Z</time>
      </trkpt>
      <trkpt lat="49.77725" lon="5.37566">
        <ele>396.20001220703</ele>
        <time>2022-06-11T07:20:12.000Z</time>
      </trkpt>
      <trkpt lat="49.77721" lon="5.37547">
        <ele>397.79998779297</ele>
        <time>2022-06-11T07:20:15.000Z</time>
      </trkpt>
      <trkpt lat="49.77717" lon="5.3752">
        <ele>399</ele>
        <time>2022-06-11T07:20:19.000Z</time>
      </trkpt>
      <trkpt lat="49.77715" lon="5.37502">
        <ele>399.20001220703</ele>
        <time>2022-06-11T07:20:23.000Z</time>
      </trkpt>
      <trkpt lat="49.77707" lon="5.37477">
        <ele>398.60000610352</ele>
        <time>2022-06-11T07:20:50.000Z</time>
      </trkpt>
      <trkpt lat="49.77707" lon="5.37473">
        <ele>398.39999389648</ele>
        <time>2022-06-11T07:20:51.000Z</time>
      </trkpt>
      <trkpt lat="49.77706" lon="5.37456">
        <ele>399</ele>
        <time>2022-06-11T07:20:55.000Z</time>
      </trkpt>
      <trkpt lat="49.77708" lon="5.37445">
        <ele>399.39999389648</ele>
        <time>2022-06-11T07:20:57.000Z</time>
      </trkpt>
      <trkpt lat="49.77713" lon="5.37425">
        <ele>399.79998779297</ele>
        <time>2022-06-11T07:21:01.000Z</time>
      </trkpt>
      <trkpt lat="49.77715" lon="5.37407">
        <ele>399.79998779297</ele>
        <time>2022-06-11T07:21:04.000Z</time>
      </trkpt>
      <trkpt lat="49.77713" lon="5.37387">
        <ele>399.79998779297</ele>
        <time>2022-06-11T07:21:07.000Z</time>
      </trkpt>
      <trkpt lat="49.77714" lon="5.37381">
        <ele>400.20001220703</ele>
        <time>2022-06-11T07:21:08.000Z</time>
      </trkpt>
      <trkpt lat="49.77715" lon="5.37356">
        <ele>401.60000610352</ele>
        <time>2022-06-11T07:21:12.000Z</time>
      </trkpt>
      <trkpt lat="49.77717" lon="5.37345">
        <ele>402.39999389648</ele>
        <time>2022-06-11T07:21:14.000Z</time>
      </trkpt>
      <trkpt lat="49.7772" lon="5.37327">
        <ele>403.39999389648</ele>
        <time>2022-06-11T07:21:17.000Z</time>
      </trkpt>
      <trkpt lat="49.77724" lon="5.37315">
        <ele>404</ele>
        <time>2022-06-11T07:21:19.000Z</time>
      </trkpt>
      <trkpt lat="49.77729" lon="5.37296">
        <ele>404.39999389648</ele>
        <time>2022-06-11T07:21:22.000Z</time>
      </trkpt>
      <trkpt lat="49.77731" lon="5.37282">
        <ele>405.60000610352</ele>
        <time>2022-06-11T07:21:24.000Z</time>
      </trkpt>
      <trkpt lat="49.77733" lon="5.37276">
        <ele>406</ele>
        <time>2022-06-11T07:21:25.000Z</time>
      </trkpt>
      <trkpt lat="49.7774" lon="5.37248">
        <ele>408.20001220703</ele>
        <time>2022-06-11T07:21:30.000Z</time>
      </trkpt>
      <trkpt lat="49.77746" lon="5.37232">
        <ele>409.79998779297</ele>
        <time>2022-06-11T07:21:33.000Z</time>
      </trkpt>
      <trkpt lat="49.77748" lon="5.37223">
        <ele>410.79998779297</ele>
        <time>2022-06-11T07:21:35.000Z</time>
      </trkpt>
      <trkpt lat="49.77749" lon="5.37206">
        <ele>412.39999389648</ele>
        <time>2022-06-11T07:21:38.000Z</time>
      </trkpt>
      <trkpt lat="49.77748" lon="5.37183">
        <ele>413.39999389648</ele>
        <time>2022-06-11T07:21:41.000Z</time>
      </trkpt>
      <trkpt lat="49.77747" lon="5.37175">
        <ele>413.39999389648</ele>
        <time>2022-06-11T07:21:42.000Z</time>
      </trkpt>
      <trkpt lat="49.77745" lon="5.37152">
        <ele>413.39999389648</ele>
        <time>2022-06-11T07:21:45.000Z</time>
      </trkpt>
      <trkpt lat="49.77747" lon="5.37139">
        <ele>413.79998779297</ele>
        <time>2022-06-11T07:21:47.000Z</time>
      </trkpt>
      <trkpt lat="49.77748" lon="5.37133">
        <ele>414</ele>
        <time>2022-06-11T07:21:48.000Z</time>
      </trkpt>
      <trkpt lat="49.7775" lon="5.37128">
        <ele>414.20001220703</ele>
        <time>2022-06-11T07:21:49.000Z</time>
      </trkpt>
      <trkpt lat="49.77754" lon="5.37115">
        <ele>414.79998779297</ele>
        <time>2022-06-11T07:21:51.000Z</time>
      </trkpt>
      <trkpt lat="49.77758" lon="5.37103">
        <ele>415</ele>
        <time>2022-06-11T07:21:53.000Z</time>
      </trkpt>
      <trkpt lat="49.77759" lon="5.37098">
        <ele>415</ele>
        <time>2022-06-11T07:21:54.000Z</time>
      </trkpt>
      <trkpt lat="49.77764" lon="5.37079">
        <ele>415.20001220703</ele>
        <time>2022-06-11T07:21:58.000Z</time>
      </trkpt>
      <trkpt lat="49.77767" lon="5.37069">
        <ele>415.39999389648</ele>
        <time>2022-06-11T07:22:00.000Z</time>
      </trkpt>
      <trkpt lat="49.77769" lon="5.37058">
        <ele>415.60000610352</ele>
        <time>2022-06-11T07:22:02.000Z</time>
      </trkpt>
      <trkpt lat="49.77774" lon="5.37041">
        <ele>416.20001220703</ele>
        <time>2022-06-11T07:22:05.000Z</time>
      </trkpt>
      <trkpt lat="49.77775" lon="5.37036">
        <ele>416.20001220703</ele>
        <time>2022-06-11T07:22:06.000Z</time>
      </trkpt>
      <trkpt lat="49.77776" lon="5.3703">
        <ele>416.39999389648</ele>
        <time>2022-06-11T07:22:07.000Z</time>
      </trkpt>
      <trkpt lat="49.77777" lon="5.37007">
        <ele>416.39999389648</ele>
        <time>2022-06-11T07:22:11.000Z</time>
      </trkpt>
      <trkpt lat="49.77776" lon="5.36975">
        <ele>416.39999389648</ele>
        <time>2022-06-11T07:22:16.000Z</time>
      </trkpt>
      <trkpt lat="49.77774" lon="5.36959">
        <ele>416.39999389648</ele>
        <time>2022-06-11T07:22:18.000Z</time>
      </trkpt>
      <trkpt lat="49.77769" lon="5.36933">
        <ele>416.39999389648</ele>
        <time>2022-06-11T07:22:21.000Z</time>
      </trkpt>
      <trkpt lat="49.77762" lon="5.36895">
        <ele>416</ele>
        <time>2022-06-11T07:22:25.000Z</time>
      </trkpt>
      <trkpt lat="49.77761" lon="5.36873">
        <ele>415.39999389648</ele>
        <time>2022-06-11T07:22:27.000Z</time>
      </trkpt>
      <trkpt lat="49.77762" lon="5.3685">
        <ele>414.60000610352</ele>
        <time>2022-06-11T07:22:29.000Z</time>
      </trkpt>
      <trkpt lat="49.77764" lon="5.36824">
        <ele>413.60000610352</ele>
        <time>2022-06-11T07:22:31.000Z</time>
      </trkpt>
      <trkpt lat="49.77766" lon="5.3681">
        <ele>413</ele>
        <time>2022-06-11T07:22:32.000Z</time>
      </trkpt>
      <trkpt lat="49.77768" lon="5.36794">
        <ele>412</ele>
        <time>2022-06-11T07:22:33.000Z</time>
      </trkpt>
      <trkpt lat="49.77772" lon="5.36763">
        <ele>409.60000610352</ele>
        <time>2022-06-11T07:22:35.000Z</time>
      </trkpt>
      <trkpt lat="49.77777" lon="5.36733">
        <ele>407.20001220703</ele>
        <time>2022-06-11T07:22:37.000Z</time>
      </trkpt>
      <trkpt lat="49.77784" lon="5.36709">
        <ele>405.79998779297</ele>
        <time>2022-06-11T07:22:39.000Z</time>
      </trkpt>
      <trkpt lat="49.7779" lon="5.36698">
        <ele>406.20001220703</ele>
        <time>2022-06-11T07:22:40.000Z</time>
      </trkpt>
      <trkpt lat="49.77797" lon="5.36689">
        <ele>405.39999389648</ele>
        <time>2022-06-11T07:22:41.000Z</time>
      </trkpt>
      <trkpt lat="49.77813" lon="5.36674">
        <ele>404.39999389648</ele>
        <time>2022-06-11T07:22:43.000Z</time>
      </trkpt>
      <trkpt lat="49.77827" lon="5.3666">
        <ele>402.60000610352</ele>
        <time>2022-06-11T07:22:45.000Z</time>
      </trkpt>
      <trkpt lat="49.77842" lon="5.36648">
        <ele>399.20001220703</ele>
        <time>2022-06-11T07:22:47.000Z</time>
      </trkpt>
      <trkpt lat="49.7785" lon="5.36642">
        <ele>397.39999389648</ele>
        <time>2022-06-11T07:22:48.000Z</time>
      </trkpt>
      <trkpt lat="49.77858" lon="5.36634">
        <ele>395.39999389648</ele>
        <time>2022-06-11T07:22:49.000Z</time>
      </trkpt>
      <trkpt lat="49.77864" lon="5.36627">
        <ele>393.79998779297</ele>
        <time>2022-06-11T07:22:50.000Z</time>
      </trkpt>
      <trkpt lat="49.77868" lon="5.36618">
        <ele>393.20001220703</ele>
        <time>2022-06-11T07:22:51.000Z</time>
      </trkpt>
      <trkpt lat="49.77867" lon="5.36596">
        <ele>393.79998779297</ele>
        <time>2022-06-11T07:22:54.000Z</time>
      </trkpt>
      <trkpt lat="49.77865" lon="5.36589">
        <ele>394.20001220703</ele>
        <time>2022-06-11T07:22:55.000Z</time>
      </trkpt>
      <trkpt lat="49.77858" lon="5.36561">
        <ele>396.20001220703</ele>
        <time>2022-06-11T07:23:00.000Z</time>
      </trkpt>
      <trkpt lat="49.77851" lon="5.36543">
        <ele>397.60000610352</ele>
        <time>2022-06-11T07:23:03.000Z</time>
      </trkpt>
      <trkpt lat="49.77847" lon="5.36531">
        <ele>398</ele>
        <time>2022-06-11T07:23:05.000Z</time>
      </trkpt>
      <trkpt lat="49.77845" lon="5.36525">
        <ele>398.60000610352</ele>
        <time>2022-06-11T07:23:06.000Z</time>
      </trkpt>
      <trkpt lat="49.77843" lon="5.3652">
        <ele>398.79998779297</ele>
        <time>2022-06-11T07:23:07.000Z</time>
      </trkpt>
      <trkpt lat="49.77835" lon="5.36504">
        <ele>400</ele>
        <time>2022-06-11T07:23:10.000Z</time>
      </trkpt>
      <trkpt lat="49.77826" lon="5.36487">
        <ele>401.60000610352</ele>
        <time>2022-06-11T07:23:13.000Z</time>
      </trkpt>
      <trkpt lat="49.77821" lon="5.36475">
        <ele>402.60000610352</ele>
        <time>2022-06-11T07:23:15.000Z</time>
      </trkpt>
      <trkpt lat="49.77809" lon="5.36453">
        <ele>404.39999389648</ele>
        <time>2022-06-11T07:23:19.000Z</time>
      </trkpt>
      <trkpt lat="49.77801" lon="5.36437">
        <ele>405.39999389648</ele>
        <time>2022-06-11T07:23:22.000Z</time>
      </trkpt>
      <trkpt lat="49.77797" lon="5.36427">
        <ele>405.79998779297</ele>
        <time>2022-06-11T07:23:24.000Z</time>
      </trkpt>
      <trkpt lat="49.77795" lon="5.36422">
        <ele>406</ele>
        <time>2022-06-11T07:23:25.000Z</time>
      </trkpt>
      <trkpt lat="49.77784" lon="5.36402">
        <ele>407.20001220703</ele>
        <time>2022-06-11T07:23:29.000Z</time>
      </trkpt>
      <trkpt lat="49.77781" lon="5.36396">
        <ele>407.39999389648</ele>
        <time>2022-06-11T07:23:30.000Z</time>
      </trkpt>
      <trkpt lat="49.77776" lon="5.36375">
        <ele>407.79998779297</ele>
        <time>2022-06-11T07:23:34.000Z</time>
      </trkpt>
      <trkpt lat="49.77778" lon="5.36363">
        <ele>407.60000610352</ele>
        <time>2022-06-11T07:23:36.000Z</time>
      </trkpt>
      <trkpt lat="49.7778" lon="5.3635">
        <ele>407.60000610352</ele>
        <time>2022-06-11T07:23:38.000Z</time>
      </trkpt>
      <trkpt lat="49.77782" lon="5.36331">
        <ele>408.20001220703</ele>
        <time>2022-06-11T07:23:41.000Z</time>
      </trkpt>
      <trkpt lat="49.77783" lon="5.36324">
        <ele>408.39999389648</ele>
        <time>2022-06-11T07:23:42.000Z</time>
      </trkpt>
      <trkpt lat="49.77783" lon="5.36318">
        <ele>408.60000610352</ele>
        <time>2022-06-11T07:23:44.000Z</time>
      </trkpt>
      <trkpt lat="49.77784" lon="5.36311">
        <ele>408.79998779297</ele>
        <time>2022-06-11T07:23:45.000Z</time>
      </trkpt>
      <trkpt lat="49.77788" lon="5.3628">
        <ele>408.60000610352</ele>
        <time>2022-06-11T07:23:49.000Z</time>
      </trkpt>
      <trkpt lat="49.77788" lon="5.36234">
        <ele>408.20001220703</ele>
        <time>2022-06-11T07:23:55.000Z</time>
      </trkpt>
      <trkpt lat="49.7779" lon="5.36196">
        <ele>406.60000610352</ele>
        <time>2022-06-11T07:23:59.000Z</time>
      </trkpt>
      <trkpt lat="49.7779" lon="5.36188">
        <ele>406.39999389648</ele>
        <time>2022-06-11T07:24:00.000Z</time>
      </trkpt>
      <trkpt lat="49.77789" lon="5.36169">
        <ele>405.60000610352</ele>
        <time>2022-06-11T07:24:02.000Z</time>
      </trkpt>
      <trkpt lat="49.7779" lon="5.36143">
        <ele>405.39999389648</ele>
        <time>2022-06-11T07:24:05.000Z</time>
      </trkpt>
      <trkpt lat="49.77791" lon="5.36134">
        <ele>405.39999389648</ele>
        <time>2022-06-11T07:24:06.000Z</time>
      </trkpt>
      <trkpt lat="49.77791" lon="5.36124">
        <ele>405</ele>
        <time>2022-06-11T07:24:07.000Z</time>
      </trkpt>
      <trkpt lat="49.77789" lon="5.36096">
        <ele>404.79998779297</ele>
        <time>2022-06-11T07:24:10.000Z</time>
      </trkpt>
      <trkpt lat="49.77788" lon="5.36087">
        <ele>404.79998779297</ele>
        <time>2022-06-11T07:24:11.000Z</time>
      </trkpt>
      <trkpt lat="49.77785" lon="5.36054">
        <ele>405</ele>
        <time>2022-06-11T07:24:15.000Z</time>
      </trkpt>
      <trkpt lat="49.77784" lon="5.36046">
        <ele>404.79998779297</ele>
        <time>2022-06-11T07:24:16.000Z</time>
      </trkpt>
      <trkpt lat="49.77788" lon="5.36008">
        <ele>403.20001220703</ele>
        <time>2022-06-11T07:24:21.000Z</time>
      </trkpt>
      <trkpt lat="49.7779" lon="5.3599">
        <ele>402.60000610352</ele>
        <time>2022-06-11T07:24:23.000Z</time>
      </trkpt>
      <trkpt lat="49.77794" lon="5.35974">
        <ele>401.79998779297</ele>
        <time>2022-06-11T07:24:25.000Z</time>
      </trkpt>
      <trkpt lat="49.778" lon="5.35932">
        <ele>402.60000610352</ele>
        <time>2022-06-11T07:24:30.000Z</time>
      </trkpt>
      <trkpt lat="49.778" lon="5.35924">
        <ele>403.20001220703</ele>
        <time>2022-06-11T07:24:31.000Z</time>
      </trkpt>
      <trkpt lat="49.778" lon="5.35885">
        <ele>407</ele>
        <time>2022-06-11T07:24:36.000Z</time>
      </trkpt>
      <trkpt lat="49.77805" lon="5.35854">
        <ele>409</ele>
        <time>2022-06-11T07:24:40.000Z</time>
      </trkpt>
      <trkpt lat="49.77808" lon="5.35846">
        <ele>409.20001220703</ele>
        <time>2022-06-11T07:24:41.000Z</time>
      </trkpt>
      <trkpt lat="49.77811" lon="5.35824">
        <ele>409.79998779297</ele>
        <time>2022-06-11T07:24:44.000Z</time>
      </trkpt>
      <trkpt lat="49.77811" lon="5.35818">
        <ele>409.79998779297</ele>
        <time>2022-06-11T07:24:45.000Z</time>
      </trkpt>
      <trkpt lat="49.77813" lon="5.35786">
        <ele>408.79998779297</ele>
        <time>2022-06-11T07:24:49.000Z</time>
      </trkpt>
      <trkpt lat="49.77812" lon="5.35779">
        <ele>408.39999389648</ele>
        <time>2022-06-11T07:24:50.000Z</time>
      </trkpt>
      <trkpt lat="49.77808" lon="5.35769">
        <ele>408</ele>
        <time>2022-06-11T07:24:52.000Z</time>
      </trkpt>
      <trkpt lat="49.77801" lon="5.35755">
        <ele>407.79998779297</ele>
        <time>2022-06-11T07:24:54.000Z</time>
      </trkpt>
      <trkpt lat="49.77789" lon="5.35723">
        <ele>407.79998779297</ele>
        <time>2022-06-11T07:24:58.000Z</time>
      </trkpt>
      <trkpt lat="49.77769" lon="5.35682">
        <ele>408.20001220703</ele>
        <time>2022-06-11T07:25:03.000Z</time>
      </trkpt>
      <trkpt lat="49.77755" lon="5.35637">
        <ele>408.79998779297</ele>
        <time>2022-06-11T07:25:09.000Z</time>
      </trkpt>
      <trkpt lat="49.77751" lon="5.35629">
        <ele>408.39999389648</ele>
        <time>2022-06-11T07:25:10.000Z</time>
      </trkpt>
      <trkpt lat="49.77741" lon="5.356">
        <ele>407</ele>
        <time>2022-06-11T07:25:14.000Z</time>
      </trkpt>
      <trkpt lat="49.77739" lon="5.35592">
        <ele>407.20001220703</ele>
        <time>2022-06-11T07:25:15.000Z</time>
      </trkpt>
      <trkpt lat="49.77738" lon="5.35583">
        <ele>407.20001220703</ele>
        <time>2022-06-11T07:25:16.000Z</time>
      </trkpt>
      <trkpt lat="49.77736" lon="5.35566">
        <ele>407.20001220703</ele>
        <time>2022-06-11T07:25:18.000Z</time>
      </trkpt>
      <trkpt lat="49.77735" lon="5.35557">
        <ele>407.20001220703</ele>
        <time>2022-06-11T07:25:19.000Z</time>
      </trkpt>
      <trkpt lat="49.77733" lon="5.3555">
        <ele>407</ele>
        <time>2022-06-11T07:25:20.000Z</time>
      </trkpt>
      <trkpt lat="49.77726" lon="5.35538">
        <ele>406.79998779297</ele>
        <time>2022-06-11T07:25:22.000Z</time>
      </trkpt>
      <trkpt lat="49.7772" lon="5.35525">
        <ele>406.20001220703</ele>
        <time>2022-06-11T07:25:24.000Z</time>
      </trkpt>
      <trkpt lat="49.77718" lon="5.35516">
        <ele>406.39999389648</ele>
        <time>2022-06-11T07:25:25.000Z</time>
      </trkpt>
      <trkpt lat="49.77712" lon="5.35498">
        <ele>406.60000610352</ele>
        <time>2022-06-11T07:25:27.000Z</time>
      </trkpt>
      <trkpt lat="49.77706" lon="5.35484">
        <ele>406.79998779297</ele>
        <time>2022-06-11T07:25:29.000Z</time>
      </trkpt>
      <trkpt lat="49.77699" lon="5.35472">
        <ele>406.60000610352</ele>
        <time>2022-06-11T07:25:31.000Z</time>
      </trkpt>
      <trkpt lat="49.77691" lon="5.35458">
        <ele>406.60000610352</ele>
        <time>2022-06-11T07:25:33.000Z</time>
      </trkpt>
      <trkpt lat="49.77675" lon="5.35425">
        <ele>406</ele>
        <time>2022-06-11T07:25:37.000Z</time>
      </trkpt>
      <trkpt lat="49.77659" lon="5.35391">
        <ele>405.20001220703</ele>
        <time>2022-06-11T07:25:42.000Z</time>
      </trkpt>
      <trkpt lat="49.77655" lon="5.35376">
        <ele>405</ele>
        <time>2022-06-11T07:25:44.000Z</time>
      </trkpt>
      <trkpt lat="49.77649" lon="5.35353">
        <ele>405</ele>
        <time>2022-06-11T07:25:47.000Z</time>
      </trkpt>
      <trkpt lat="49.77642" lon="5.35315">
        <ele>405.20001220703</ele>
        <time>2022-06-11T07:25:52.000Z</time>
      </trkpt>
      <trkpt lat="49.77633" lon="5.35276">
        <ele>407</ele>
        <time>2022-06-11T07:25:57.000Z</time>
      </trkpt>
      <trkpt lat="49.77632" lon="5.35268">
        <ele>407.20001220703</ele>
        <time>2022-06-11T07:25:58.000Z</time>
      </trkpt>
      <trkpt lat="49.77631" lon="5.35259">
        <ele>407.60000610352</ele>
        <time>2022-06-11T07:25:59.000Z</time>
      </trkpt>
      <trkpt lat="49.7763" lon="5.35233">
        <ele>409</ele>
        <time>2022-06-11T07:26:02.000Z</time>
      </trkpt>
      <trkpt lat="49.7763" lon="5.35225">
        <ele>409.39999389648</ele>
        <time>2022-06-11T07:26:03.000Z</time>
      </trkpt>
      <trkpt lat="49.77621" lon="5.3517">
        <ele>410</ele>
        <time>2022-06-11T07:26:10.000Z</time>
      </trkpt>
      <trkpt lat="49.77621" lon="5.35144">
        <ele>410</ele>
        <time>2022-06-11T07:26:14.000Z</time>
      </trkpt>
      <trkpt lat="49.77623" lon="5.3513">
        <ele>409.60000610352</ele>
        <time>2022-06-11T07:26:16.000Z</time>
      </trkpt>
      <trkpt lat="49.77625" lon="5.35115">
        <ele>409</ele>
        <time>2022-06-11T07:26:18.000Z</time>
      </trkpt>
      <trkpt lat="49.77628" lon="5.35099">
        <ele>407.79998779297</ele>
        <time>2022-06-11T07:26:20.000Z</time>
      </trkpt>
      <trkpt lat="49.77635" lon="5.35077">
        <ele>405.79998779297</ele>
        <time>2022-06-11T07:26:23.000Z</time>
      </trkpt>
      <trkpt lat="49.77643" lon="5.35057">
        <ele>404.60000610352</ele>
        <time>2022-06-11T07:26:26.000Z</time>
      </trkpt>
      <trkpt lat="49.77646" lon="5.35052">
        <ele>404</ele>
        <time>2022-06-11T07:26:27.000Z</time>
      </trkpt>
      <trkpt lat="49.77651" lon="5.3504">
        <ele>403.20001220703</ele>
        <time>2022-06-11T07:26:29.000Z</time>
      </trkpt>
      <trkpt lat="49.77656" lon="5.3503">
        <ele>402.20001220703</ele>
        <time>2022-06-11T07:26:31.000Z</time>
      </trkpt>
      <trkpt lat="49.77663" lon="5.35019">
        <ele>401.39999389648</ele>
        <time>2022-06-11T07:26:34.000Z</time>
      </trkpt>
      <trkpt lat="49.77676" lon="5.35002">
        <ele>400.79998779297</ele>
        <time>2022-06-11T07:26:38.000Z</time>
      </trkpt>
      <trkpt lat="49.77679" lon="5.34998">
        <ele>400.60000610352</ele>
        <time>2022-06-11T07:26:39.000Z</time>
      </trkpt>
      <trkpt lat="49.77696" lon="5.34983">
        <ele>399.79998779297</ele>
        <time>2022-06-11T07:26:43.000Z</time>
      </trkpt>
      <trkpt lat="49.777" lon="5.3498">
        <ele>399.79998779297</ele>
        <time>2022-06-11T07:26:44.000Z</time>
      </trkpt>
      <trkpt lat="49.77706" lon="5.3497">
        <ele>399.60000610352</ele>
        <time>2022-06-11T07:26:48.000Z</time>
      </trkpt>
      <trkpt lat="49.77703" lon="5.34969">
        <ele>400</ele>
        <time>2022-06-11T07:26:50.000Z</time>
      </trkpt>
      <trkpt lat="49.777" lon="5.3497">
        <ele>400</ele>
        <time>2022-06-11T07:26:51.000Z</time>
      </trkpt>
      <trkpt lat="49.77691" lon="5.3498">
        <ele>400.39999389648</ele>
        <time>2022-06-11T07:26:54.000Z</time>
      </trkpt>
      <trkpt lat="49.77684" lon="5.34986">
        <ele>400.60000610352</ele>
        <time>2022-06-11T07:26:56.000Z</time>
      </trkpt>
      <trkpt lat="49.77659" lon="5.35009">
        <ele>402.20001220703</ele>
        <time>2022-06-11T07:27:03.000Z</time>
      </trkpt>
      <trkpt lat="49.77649" lon="5.35016">
        <ele>403</ele>
        <time>2022-06-11T07:27:05.000Z</time>
      </trkpt>
      <trkpt lat="49.7763" lon="5.35031">
        <ele>404.39999389648</ele>
        <time>2022-06-11T07:27:09.000Z</time>
      </trkpt>
      <trkpt lat="49.77627" lon="5.35034">
        <ele>404.79998779297</ele>
        <time>2022-06-11T07:27:10.000Z</time>
      </trkpt>
      <trkpt lat="49.77612" lon="5.35049">
        <ele>405.60000610352</ele>
        <time>2022-06-11T07:27:14.000Z</time>
      </trkpt>
      <trkpt lat="49.77605" lon="5.35048">
        <ele>405.39999389648</ele>
        <time>2022-06-11T07:27:16.000Z</time>
      </trkpt>
      <trkpt lat="49.77601" lon="5.35045">
        <ele>405.20001220703</ele>
        <time>2022-06-11T07:27:17.000Z</time>
      </trkpt>
      <trkpt lat="49.77592" lon="5.35031">
        <ele>404.39999389648</ele>
        <time>2022-06-11T07:27:20.000Z</time>
      </trkpt>
      <trkpt lat="49.77589" lon="5.35026">
        <ele>404</ele>
        <time>2022-06-11T07:27:21.000Z</time>
      </trkpt>
      <trkpt lat="49.77586" lon="5.35021">
        <ele>404</ele>
        <time>2022-06-11T07:27:22.000Z</time>
      </trkpt>
      <trkpt lat="49.7758" lon="5.35009">
        <ele>404</ele>
        <time>2022-06-11T07:27:24.000Z</time>
      </trkpt>
      <trkpt lat="49.77577" lon="5.35001">
        <ele>404</ele>
        <time>2022-06-11T07:27:25.000Z</time>
      </trkpt>
      <trkpt lat="49.77563" lon="5.34952">
        <ele>406.79998779297</ele>
        <time>2022-06-11T07:27:31.000Z</time>
      </trkpt>
      <trkpt lat="49.77556" lon="5.34907">
        <ele>409.20001220703</ele>
        <time>2022-06-11T07:27:36.000Z</time>
      </trkpt>
      <trkpt lat="49.77553" lon="5.34891">
        <ele>409.79998779297</ele>
        <time>2022-06-11T07:27:38.000Z</time>
      </trkpt>
      <trkpt lat="49.7755" lon="5.34876">
        <ele>410.39999389648</ele>
        <time>2022-06-11T07:27:40.000Z</time>
      </trkpt>
      <trkpt lat="49.77546" lon="5.34828">
        <ele>410.60000610352</ele>
        <time>2022-06-11T07:27:46.000Z</time>
      </trkpt>
      <trkpt lat="49.7754" lon="5.34772">
        <ele>412</ele>
        <time>2022-06-11T07:27:53.000Z</time>
      </trkpt>
      <trkpt lat="49.77535" lon="5.34745">
        <ele>413</ele>
        <time>2022-06-11T07:27:56.000Z</time>
      </trkpt>
      <trkpt lat="49.77537" lon="5.34737">
        <ele>413.20001220703</ele>
        <time>2022-06-11T07:27:57.000Z</time>
      </trkpt>
      <trkpt lat="49.77542" lon="5.34721">
        <ele>413.60000610352</ele>
        <time>2022-06-11T07:27:59.000Z</time>
      </trkpt>
      <trkpt lat="49.77545" lon="5.34714">
        <ele>413.60000610352</ele>
        <time>2022-06-11T07:28:00.000Z</time>
      </trkpt>
      <trkpt lat="49.77548" lon="5.34706">
        <ele>413.60000610352</ele>
        <time>2022-06-11T07:28:01.000Z</time>
      </trkpt>
      <trkpt lat="49.77556" lon="5.34691">
        <ele>414.60000610352</ele>
        <time>2022-06-11T07:28:03.000Z</time>
      </trkpt>
      <trkpt lat="49.77568" lon="5.34667">
        <ele>415.60000610352</ele>
        <time>2022-06-11T07:28:06.000Z</time>
      </trkpt>
      <trkpt lat="49.77589" lon="5.34632">
        <ele>414</ele>
        <time>2022-06-11T07:28:11.000Z</time>
      </trkpt>
      <trkpt lat="49.77596" lon="5.34618">
        <ele>413.20001220703</ele>
        <time>2022-06-11T07:28:13.000Z</time>
      </trkpt>
      <trkpt lat="49.77599" lon="5.34609">
        <ele>412.79998779297</ele>
        <time>2022-06-11T07:28:14.000Z</time>
      </trkpt>
      <trkpt lat="49.77601" lon="5.34601">
        <ele>412.60000610352</ele>
        <time>2022-06-11T07:28:15.000Z</time>
      </trkpt>
      <trkpt lat="49.77606" lon="5.34583">
        <ele>412.20001220703</ele>
        <time>2022-06-11T07:28:17.000Z</time>
      </trkpt>
      <trkpt lat="49.77607" lon="5.34574">
        <ele>412.20001220703</ele>
        <time>2022-06-11T07:28:18.000Z</time>
      </trkpt>
      <trkpt lat="49.77609" lon="5.34539">
        <ele>412.39999389648</ele>
        <time>2022-06-11T07:28:22.000Z</time>
      </trkpt>
      <trkpt lat="49.77609" lon="5.3453">
        <ele>412.79998779297</ele>
        <time>2022-06-11T07:28:23.000Z</time>
      </trkpt>
      <trkpt lat="49.77608" lon="5.34486">
        <ele>412.60000610352</ele>
        <time>2022-06-11T07:28:28.000Z</time>
      </trkpt>
      <trkpt lat="49.77608" lon="5.34425">
        <ele>413</ele>
        <time>2022-06-11T07:28:35.000Z</time>
      </trkpt>
      <trkpt lat="49.7761" lon="5.3435">
        <ele>412.60000610352</ele>
        <time>2022-06-11T07:28:44.000Z</time>
      </trkpt>
      <trkpt lat="49.7761" lon="5.34309">
        <ele>413.39999389648</ele>
        <time>2022-06-11T07:28:49.000Z</time>
      </trkpt>
      <trkpt lat="49.77611" lon="5.34286">
        <ele>413.60000610352</ele>
        <time>2022-06-11T07:28:52.000Z</time>
      </trkpt>
      <trkpt lat="49.77611" lon="5.34279">
        <ele>413.79998779297</ele>
        <time>2022-06-11T07:28:53.000Z</time>
      </trkpt>
      <trkpt lat="49.77609" lon="5.3424">
        <ele>415.79998779297</ele>
        <time>2022-06-11T07:28:58.000Z</time>
      </trkpt>
      <trkpt lat="49.77609" lon="5.3421">
        <ele>417.79998779297</ele>
        <time>2022-06-11T07:29:02.000Z</time>
      </trkpt>
      <trkpt lat="49.77608" lon="5.34186">
        <ele>419.60000610352</ele>
        <time>2022-06-11T07:29:05.000Z</time>
      </trkpt>
      <trkpt lat="49.77608" lon="5.34178">
        <ele>420.20001220703</ele>
        <time>2022-06-11T07:29:06.000Z</time>
      </trkpt>
      <trkpt lat="49.77608" lon="5.34149">
        <ele>422</ele>
        <time>2022-06-11T07:29:10.000Z</time>
      </trkpt>
      <trkpt lat="49.77608" lon="5.34142">
        <ele>422.39999389648</ele>
        <time>2022-06-11T07:29:11.000Z</time>
      </trkpt>
      <trkpt lat="49.77608" lon="5.34128">
        <ele>423</ele>
        <time>2022-06-11T07:29:13.000Z</time>
      </trkpt>
      <trkpt lat="49.77608" lon="5.34107">
        <ele>424</ele>
        <time>2022-06-11T07:29:16.000Z</time>
      </trkpt>
      <trkpt lat="49.77609" lon="5.34095">
        <ele>424.39999389648</ele>
        <time>2022-06-11T07:29:18.000Z</time>
      </trkpt>
      <trkpt lat="49.7761" lon="5.34073">
        <ele>425.20001220703</ele>
        <time>2022-06-11T07:29:21.000Z</time>
      </trkpt>
      <trkpt lat="49.77612" lon="5.34045">
        <ele>426.79998779297</ele>
        <time>2022-06-11T07:29:25.000Z</time>
      </trkpt>
      <trkpt lat="49.77616" lon="5.34016">
        <ele>428</ele>
        <time>2022-06-11T07:29:30.000Z</time>
      </trkpt>
      <trkpt lat="49.77619" lon="5.33993">
        <ele>429</ele>
        <time>2022-06-11T07:29:35.000Z</time>
      </trkpt>
      <trkpt lat="49.7762" lon="5.33987">
        <ele>429</ele>
        <time>2022-06-11T07:29:36.000Z</time>
      </trkpt>
      <trkpt lat="49.77629" lon="5.33951">
        <ele>428.39999389648</ele>
        <time>2022-06-11T07:29:43.000Z</time>
      </trkpt>
      <trkpt lat="49.77638" lon="5.33928">
        <ele>428.60000610352</ele>
        <time>2022-06-11T07:29:49.000Z</time>
      </trkpt>
      <trkpt lat="49.7765" lon="5.3391">
        <ele>427.79998779297</ele>
        <time>2022-06-11T07:29:53.000Z</time>
      </trkpt>
      <trkpt lat="49.77674" lon="5.33876">
        <ele>425</ele>
        <time>2022-06-11T07:29:59.000Z</time>
      </trkpt>
      <trkpt lat="49.77681" lon="5.33866">
        <ele>423.79998779297</ele>
        <time>2022-06-11T07:30:01.000Z</time>
      </trkpt>
      <trkpt lat="49.77698" lon="5.33843">
        <ele>424.20001220703</ele>
        <time>2022-06-11T07:30:05.000Z</time>
      </trkpt>
      <trkpt lat="49.77724" lon="5.33809">
        <ele>423.79998779297</ele>
        <time>2022-06-11T07:30:11.000Z</time>
      </trkpt>
      <trkpt lat="49.7774" lon="5.33785">
        <ele>423.79998779297</ele>
        <time>2022-06-11T07:30:15.000Z</time>
      </trkpt>
      <trkpt lat="49.77752" lon="5.33772">
        <ele>423.79998779297</ele>
        <time>2022-06-11T07:30:18.000Z</time>
      </trkpt>
      <trkpt lat="49.77755" lon="5.33767">
        <ele>423.79998779297</ele>
        <time>2022-06-11T07:30:19.000Z</time>
      </trkpt>
      <trkpt lat="49.77763" lon="5.33756">
        <ele>424.20001220703</ele>
        <time>2022-06-11T07:30:23.000Z</time>
      </trkpt>
      <trkpt lat="49.7777" lon="5.33744">
        <ele>424.79998779297</ele>
        <time>2022-06-11T07:30:28.000Z</time>
      </trkpt>
      <trkpt lat="49.77772" lon="5.33741">
        <ele>424.79998779297</ele>
        <time>2022-06-11T07:30:29.000Z</time>
      </trkpt>
      <trkpt lat="49.77787" lon="5.33717">
        <ele>425</ele>
        <time>2022-06-11T07:30:34.000Z</time>
      </trkpt>
      <trkpt lat="49.77811" lon="5.33677">
        <ele>425.39999389648</ele>
        <time>2022-06-11T07:30:40.000Z</time>
      </trkpt>
      <trkpt lat="49.77819" lon="5.33666">
        <ele>425.39999389648</ele>
        <time>2022-06-11T07:30:42.000Z</time>
      </trkpt>
      <trkpt lat="49.77825" lon="5.3366">
        <ele>426.39999389648</ele>
        <time>2022-06-11T07:30:44.000Z</time>
      </trkpt>
      <trkpt lat="49.77828" lon="5.33656">
        <ele>426.79998779297</ele>
        <time>2022-06-11T07:30:45.000Z</time>
      </trkpt>
      <trkpt lat="49.77839" lon="5.3364">
        <ele>427.79998779297</ele>
        <time>2022-06-11T07:30:49.000Z</time>
      </trkpt>
      <trkpt lat="49.77841" lon="5.33635">
        <ele>428</ele>
        <time>2022-06-11T07:30:50.000Z</time>
      </trkpt>
      <trkpt lat="49.77851" lon="5.33618">
        <ele>429</ele>
        <time>2022-06-11T07:30:53.000Z</time>
      </trkpt>
      <trkpt lat="49.77854" lon="5.33613">
        <ele>429</ele>
        <time>2022-06-11T07:30:54.000Z</time>
      </trkpt>
      <trkpt lat="49.77866" lon="5.33598">
        <ele>429</ele>
        <time>2022-06-11T07:30:58.000Z</time>
      </trkpt>
      <trkpt lat="49.77888" lon="5.33574">
        <ele>427.60000610352</ele>
        <time>2022-06-11T07:31:04.000Z</time>
      </trkpt>
      <trkpt lat="49.77893" lon="5.33571">
        <ele>427.20001220703</ele>
        <time>2022-06-11T07:31:05.000Z</time>
      </trkpt>
      <trkpt lat="49.77913" lon="5.33558">
        <ele>425.39999389648</ele>
        <time>2022-06-11T07:31:09.000Z</time>
      </trkpt>
      <trkpt lat="49.77938" lon="5.33536">
        <ele>424</ele>
        <time>2022-06-11T07:31:15.000Z</time>
      </trkpt>
      <trkpt lat="49.77939" lon="5.33535">
        <ele>424</ele>
        <time>2022-06-11T07:31:16.000Z</time>
      </trkpt>
      <trkpt lat="49.77941" lon="5.33537">
        <ele>424.20001220703</ele>
        <time>2022-06-11T07:31:18.000Z</time>
      </trkpt>
      <trkpt lat="49.77946" lon="5.33536">
        <ele>424.60000610352</ele>
        <time>2022-06-11T07:31:20.000Z</time>
      </trkpt>
      <trkpt lat="49.77953" lon="5.33534">
        <ele>425.20001220703</ele>
        <time>2022-06-11T07:31:22.000Z</time>
      </trkpt>
      <trkpt lat="49.77965" lon="5.33532">
        <ele>426.39999389648</ele>
        <time>2022-06-11T07:31:24.000Z</time>
      </trkpt>
      <trkpt lat="49.7798" lon="5.33532">
        <ele>428</ele>
        <time>2022-06-11T07:31:26.000Z</time>
      </trkpt>
      <trkpt lat="49.78023" lon="5.33528">
        <ele>435.39999389648</ele>
        <time>2022-06-11T07:31:33.000Z</time>
      </trkpt>
      <trkpt lat="49.78067" lon="5.33528">
        <ele>438.60000610352</ele>
        <time>2022-06-11T07:31:40.000Z</time>
      </trkpt>
      <trkpt lat="49.78079" lon="5.33528">
        <ele>437.60000610352</ele>
        <time>2022-06-11T07:31:42.000Z</time>
      </trkpt>
      <trkpt lat="49.78104" lon="5.33531">
        <ele>435.79998779297</ele>
        <time>2022-06-11T07:31:46.000Z</time>
      </trkpt>
      <trkpt lat="49.78155" lon="5.33533">
        <ele>432.60000610352</ele>
        <time>2022-06-11T07:31:54.000Z</time>
      </trkpt>
      <trkpt lat="49.78162" lon="5.33532">
        <ele>432.60000610352</ele>
        <time>2022-06-11T07:31:55.000Z</time>
      </trkpt>
      <trkpt lat="49.78195" lon="5.33529">
        <ele>434.20001220703</ele>
        <time>2022-06-11T07:32:00.000Z</time>
      </trkpt>
      <trkpt lat="49.7822" lon="5.33521">
        <ele>435</ele>
        <time>2022-06-11T07:32:04.000Z</time>
      </trkpt>
      <trkpt lat="49.78255" lon="5.33501">
        <ele>434.60000610352</ele>
        <time>2022-06-11T07:32:10.000Z</time>
      </trkpt>
      <trkpt lat="49.78265" lon="5.33492">
        <ele>434.79998779297</ele>
        <time>2022-06-11T07:32:12.000Z</time>
      </trkpt>
      <trkpt lat="49.78279" lon="5.33478">
        <ele>434.20001220703</ele>
        <time>2022-06-11T07:32:15.000Z</time>
      </trkpt>
      <trkpt lat="49.78293" lon="5.33463">
        <ele>433.79998779297</ele>
        <time>2022-06-11T07:32:18.000Z</time>
      </trkpt>
      <trkpt lat="49.783" lon="5.33448">
        <ele>433.79998779297</ele>
        <time>2022-06-11T07:32:20.000Z</time>
      </trkpt>
      <trkpt lat="49.78312" lon="5.33416">
        <ele>433.20001220703</ele>
        <time>2022-06-11T07:32:24.000Z</time>
      </trkpt>
      <trkpt lat="49.78314" lon="5.33406">
        <ele>432.60000610352</ele>
        <time>2022-06-11T07:32:25.000Z</time>
      </trkpt>
      <trkpt lat="49.78317" lon="5.33378">
        <ele>431</ele>
        <time>2022-06-11T07:32:28.000Z</time>
      </trkpt>
      <trkpt lat="49.78318" lon="5.3336">
        <ele>431</ele>
        <time>2022-06-11T07:32:30.000Z</time>
      </trkpt>
      <trkpt lat="49.78321" lon="5.33295">
        <ele>431.39999389648</ele>
        <time>2022-06-11T07:32:37.000Z</time>
      </trkpt>
      <trkpt lat="49.78321" lon="5.33286">
        <ele>431.39999389648</ele>
        <time>2022-06-11T07:32:38.000Z</time>
      </trkpt>
      <trkpt lat="49.7832" lon="5.33222">
        <ele>430.60000610352</ele>
        <time>2022-06-11T07:32:45.000Z</time>
      </trkpt>
      <trkpt lat="49.78318" lon="5.33186">
        <ele>430.60000610352</ele>
        <time>2022-06-11T07:32:49.000Z</time>
      </trkpt>
      <trkpt lat="49.78316" lon="5.33178">
        <ele>430.39999389648</ele>
        <time>2022-06-11T07:32:50.000Z</time>
      </trkpt>
      <trkpt lat="49.78313" lon="5.33133">
        <ele>429</ele>
        <time>2022-06-11T07:32:55.000Z</time>
      </trkpt>
      <trkpt lat="49.78315" lon="5.33096">
        <ele>428</ele>
        <time>2022-06-11T07:32:59.000Z</time>
      </trkpt>
      <trkpt lat="49.78316" lon="5.33078">
        <ele>428</ele>
        <time>2022-06-11T07:33:01.000Z</time>
      </trkpt>
      <trkpt lat="49.7832" lon="5.33053">
        <ele>428.39999389648</ele>
        <time>2022-06-11T07:33:04.000Z</time>
      </trkpt>
      <trkpt lat="49.78325" lon="5.33038">
        <ele>429.20001220703</ele>
        <time>2022-06-11T07:33:06.000Z</time>
      </trkpt>
      <trkpt lat="49.78331" lon="5.33018">
        <ele>430.20001220703</ele>
        <time>2022-06-11T07:33:09.000Z</time>
      </trkpt>
      <trkpt lat="49.78335" lon="5.33002">
        <ele>431.20001220703</ele>
        <time>2022-06-11T07:33:11.000Z</time>
      </trkpt>
      <trkpt lat="49.7834" lon="5.32979">
        <ele>431.39999389648</ele>
        <time>2022-06-11T07:33:14.000Z</time>
      </trkpt>
      <trkpt lat="49.78345" lon="5.32966">
        <ele>431</ele>
        <time>2022-06-11T07:33:16.000Z</time>
      </trkpt>
      <trkpt lat="49.78351" lon="5.32947">
        <ele>430.79998779297</ele>
        <time>2022-06-11T07:33:20.000Z</time>
      </trkpt>
      <trkpt lat="49.78357" lon="5.32917">
        <ele>430.20001220703</ele>
        <time>2022-06-11T07:33:25.000Z</time>
      </trkpt>
      <trkpt lat="49.78359" lon="5.3291">
        <ele>430.20001220703</ele>
        <time>2022-06-11T07:33:26.000Z</time>
      </trkpt>
      <trkpt lat="49.78369" lon="5.3288">
        <ele>429.79998779297</ele>
        <time>2022-06-11T07:33:30.000Z</time>
      </trkpt>
      <trkpt lat="49.78378" lon="5.32849">
        <ele>429.79998779297</ele>
        <time>2022-06-11T07:33:34.000Z</time>
      </trkpt>
      <trkpt lat="49.78384" lon="5.32833">
        <ele>430.60000610352</ele>
        <time>2022-06-11T07:33:36.000Z</time>
      </trkpt>
      <trkpt lat="49.78399" lon="5.32786">
        <ele>432</ele>
        <time>2022-06-11T07:33:42.000Z</time>
      </trkpt>
      <trkpt lat="49.7841" lon="5.32757">
        <ele>433</ele>
        <time>2022-06-11T07:33:46.000Z</time>
      </trkpt>
      <trkpt lat="49.78414" lon="5.32744">
        <ele>433.20001220703</ele>
        <time>2022-06-11T07:33:48.000Z</time>
      </trkpt>
      <trkpt lat="49.7842" lon="5.32722">
        <ele>433</ele>
        <time>2022-06-11T07:33:51.000Z</time>
      </trkpt>
      <trkpt lat="49.78423" lon="5.32715">
        <ele>432.79998779297</ele>
        <time>2022-06-11T07:33:52.000Z</time>
      </trkpt>
      <trkpt lat="49.78426" lon="5.32708">
        <ele>432.60000610352</ele>
        <time>2022-06-11T07:33:53.000Z</time>
      </trkpt>
      <trkpt lat="49.78444" lon="5.32654">
        <ele>430.79998779297</ele>
        <time>2022-06-11T07:34:00.000Z</time>
      </trkpt>
      <trkpt lat="49.78462" lon="5.32616">
        <ele>428.20001220703</ele>
        <time>2022-06-11T07:34:06.000Z</time>
      </trkpt>
      <trkpt lat="49.78466" lon="5.3261">
        <ele>428</ele>
        <time>2022-06-11T07:34:07.000Z</time>
      </trkpt>
      <trkpt lat="49.78482" lon="5.32592">
        <ele>426.79998779297</ele>
        <time>2022-06-11T07:34:11.000Z</time>
      </trkpt>
      <trkpt lat="49.78493" lon="5.32587">
        <ele>425.20001220703</ele>
        <time>2022-06-11T07:34:13.000Z</time>
      </trkpt>
      <trkpt lat="49.78506" lon="5.32586">
        <ele>423.20001220703</ele>
        <time>2022-06-11T07:34:15.000Z</time>
      </trkpt>
      <trkpt lat="49.78526" lon="5.32586">
        <ele>420.79998779297</ele>
        <time>2022-06-11T07:34:18.000Z</time>
      </trkpt>
      <trkpt lat="49.78572" lon="5.32593">
        <ele>420.20001220703</ele>
        <time>2022-06-11T07:34:26.000Z</time>
      </trkpt>
      <trkpt lat="49.78614" lon="5.326">
        <ele>423.60000610352</ele>
        <time>2022-06-11T07:34:34.000Z</time>
      </trkpt>
      <trkpt lat="49.78619" lon="5.326">
        <ele>424.20001220703</ele>
        <time>2022-06-11T07:34:35.000Z</time>
      </trkpt>
      <trkpt lat="49.78628" lon="5.32602">
        <ele>424.79998779297</ele>
        <time>2022-06-11T07:34:37.000Z</time>
      </trkpt>
      <trkpt lat="49.78638" lon="5.32603">
        <ele>425.39999389648</ele>
        <time>2022-06-11T07:34:39.000Z</time>
      </trkpt>
      <trkpt lat="49.78658" lon="5.32607">
        <ele>426.79998779297</ele>
        <time>2022-06-11T07:34:43.000Z</time>
      </trkpt>
      <trkpt lat="49.78675" lon="5.32607">
        <ele>428</ele>
        <time>2022-06-11T07:34:47.000Z</time>
      </trkpt>
      <trkpt lat="49.7868" lon="5.32605">
        <ele>428.20001220703</ele>
        <time>2022-06-11T07:34:49.000Z</time>
      </trkpt>
      <trkpt lat="49.78684" lon="5.32602">
        <ele>428.20001220703</ele>
        <time>2022-06-11T07:34:51.000Z</time>
      </trkpt>
      <trkpt lat="49.78686" lon="5.32603">
        <ele>428.20001220703</ele>
        <time>2022-06-11T07:34:52.000Z</time>
      </trkpt>
      <trkpt lat="49.78691" lon="5.32607">
        <ele>428.60000610352</ele>
        <time>2022-06-11T07:34:55.000Z</time>
      </trkpt>
      <trkpt lat="49.78705" lon="5.326">
        <ele>428.20001220703</ele>
        <time>2022-06-11T07:34:59.000Z</time>
      </trkpt>
      <trkpt lat="49.78707" lon="5.32595">
        <ele>427.60000610352</ele>
        <time>2022-06-11T07:35:00.000Z</time>
      </trkpt>
      <trkpt lat="49.78713" lon="5.32576">
        <ele>425</ele>
        <time>2022-06-11T07:35:03.000Z</time>
      </trkpt>
      <trkpt lat="49.7873" lon="5.32532">
        <ele>420.60000610352</ele>
        <time>2022-06-11T07:35:10.000Z</time>
      </trkpt>
      <trkpt lat="49.78733" lon="5.32525">
        <ele>420</ele>
        <time>2022-06-11T07:35:11.000Z</time>
      </trkpt>
      <trkpt lat="49.78737" lon="5.32511">
        <ele>420.20001220703</ele>
        <time>2022-06-11T07:35:13.000Z</time>
      </trkpt>
      <trkpt lat="49.78746" lon="5.32475">
        <ele>424.79998779297</ele>
        <time>2022-06-11T07:35:18.000Z</time>
      </trkpt>
      <trkpt lat="49.78749" lon="5.3246">
        <ele>427.79998779297</ele>
        <time>2022-06-11T07:35:20.000Z</time>
      </trkpt>
      <trkpt lat="49.78758" lon="5.32415">
        <ele>435.60000610352</ele>
        <time>2022-06-11T07:35:26.000Z</time>
      </trkpt>
      <trkpt lat="49.78761" lon="5.32399">
        <ele>437</ele>
        <time>2022-06-11T07:35:28.000Z</time>
      </trkpt>
      <trkpt lat="49.78776" lon="5.32337">
        <ele>439.60000610352</ele>
        <time>2022-06-11T07:35:36.000Z</time>
      </trkpt>
      <trkpt lat="49.78791" lon="5.32301">
        <ele>439</ele>
        <time>2022-06-11T07:35:41.000Z</time>
      </trkpt>
      <trkpt lat="49.78798" lon="5.32287">
        <ele>439</ele>
        <time>2022-06-11T07:35:43.000Z</time>
      </trkpt>
      <trkpt lat="49.78803" lon="5.32275">
        <ele>437.79998779297</ele>
        <time>2022-06-11T07:35:45.000Z</time>
      </trkpt>
      <trkpt lat="49.78805" lon="5.32258">
        <ele>436.79998779297</ele>
        <time>2022-06-11T07:35:47.000Z</time>
      </trkpt>
      <trkpt lat="49.78805" lon="5.3224">
        <ele>436</ele>
        <time>2022-06-11T07:35:49.000Z</time>
      </trkpt>
      <trkpt lat="49.78803" lon="5.32231">
        <ele>436</ele>
        <time>2022-06-11T07:35:50.000Z</time>
      </trkpt>
      <trkpt lat="49.78801" lon="5.32221">
        <ele>436</ele>
        <time>2022-06-11T07:35:51.000Z</time>
      </trkpt>
      <trkpt lat="49.78785" lon="5.32159">
        <ele>436</ele>
        <time>2022-06-11T07:35:58.000Z</time>
      </trkpt>
      <trkpt lat="49.78779" lon="5.32132">
        <ele>436</ele>
        <time>2022-06-11T07:36:01.000Z</time>
      </trkpt>
      <trkpt lat="49.78774" lon="5.32104">
        <ele>435.60000610352</ele>
        <time>2022-06-11T07:36:04.000Z</time>
      </trkpt>
      <trkpt lat="49.78773" lon="5.32095">
        <ele>435.20001220703</ele>
        <time>2022-06-11T07:36:05.000Z</time>
      </trkpt>
      <trkpt lat="49.78764" lon="5.32049">
        <ele>434.79998779297</ele>
        <time>2022-06-11T07:36:10.000Z</time>
      </trkpt>
      <trkpt lat="49.78763" lon="5.32039">
        <ele>435.39999389648</ele>
        <time>2022-06-11T07:36:11.000Z</time>
      </trkpt>
      <trkpt lat="49.78754" lon="5.31981">
        <ele>437.39999389648</ele>
        <time>2022-06-11T07:36:17.000Z</time>
      </trkpt>
      <trkpt lat="49.78751" lon="5.31961">
        <ele>438</ele>
        <time>2022-06-11T07:36:19.000Z</time>
      </trkpt>
      <trkpt lat="49.78744" lon="5.31923">
        <ele>438.60000610352</ele>
        <time>2022-06-11T07:36:23.000Z</time>
      </trkpt>
      <trkpt lat="49.78733" lon="5.31883">
        <ele>438</ele>
        <time>2022-06-11T07:36:27.000Z</time>
      </trkpt>
      <trkpt lat="49.78706" lon="5.31802">
        <ele>436.20001220703</ele>
        <time>2022-06-11T07:36:35.000Z</time>
      </trkpt>
      <trkpt lat="49.7869" lon="5.31756">
        <ele>433.60000610352</ele>
        <time>2022-06-11T07:36:39.000Z</time>
      </trkpt>
      <trkpt lat="49.7868" lon="5.31721">
        <ele>432.60000610352</ele>
        <time>2022-06-11T07:36:42.000Z</time>
      </trkpt>
      <trkpt lat="49.78677" lon="5.31709">
        <ele>432.60000610352</ele>
        <time>2022-06-11T07:36:43.000Z</time>
      </trkpt>
      <trkpt lat="49.78666" lon="5.31642">
        <ele>429.60000610352</ele>
        <time>2022-06-11T07:36:49.000Z</time>
      </trkpt>
      <trkpt lat="49.78664" lon="5.31632">
        <ele>428.79998779297</ele>
        <time>2022-06-11T07:36:50.000Z</time>
      </trkpt>
      <trkpt lat="49.78656" lon="5.31554">
        <ele>424.20001220703</ele>
        <time>2022-06-11T07:36:58.000Z</time>
      </trkpt>
      <trkpt lat="49.78663" lon="5.31534">
        <ele>424.39999389648</ele>
        <time>2022-06-11T07:37:01.000Z</time>
      </trkpt>
      <trkpt lat="49.78679" lon="5.31516">
        <ele>423.79998779297</ele>
        <time>2022-06-11T07:37:05.000Z</time>
      </trkpt>
      <trkpt lat="49.78685" lon="5.31514">
        <ele>423.60000610352</ele>
        <time>2022-06-11T07:37:07.000Z</time>
      </trkpt>
      <trkpt lat="49.78686" lon="5.31512">
        <ele>423.60000610352</ele>
        <time>2022-06-11T07:37:08.000Z</time>
      </trkpt>
      <trkpt lat="49.78697" lon="5.31499">
        <ele>422.60000610352</ele>
        <time>2022-06-11T07:37:13.000Z</time>
      </trkpt>
      <trkpt lat="49.78706" lon="5.31498">
        <ele>422</ele>
        <time>2022-06-11T07:37:15.000Z</time>
      </trkpt>
      <trkpt lat="49.78711" lon="5.31499">
        <ele>421.79998779297</ele>
        <time>2022-06-11T07:37:16.000Z</time>
      </trkpt>
      <trkpt lat="49.78717" lon="5.31502">
        <ele>421.79998779297</ele>
        <time>2022-06-11T07:37:17.000Z</time>
      </trkpt>
      <trkpt lat="49.78729" lon="5.31509">
        <ele>421.60000610352</ele>
        <time>2022-06-11T07:37:19.000Z</time>
      </trkpt>
      <trkpt lat="49.78735" lon="5.31514">
        <ele>421.39999389648</ele>
        <time>2022-06-11T07:37:20.000Z</time>
      </trkpt>
      <trkpt lat="49.78746" lon="5.31526">
        <ele>421</ele>
        <time>2022-06-11T07:37:22.000Z</time>
      </trkpt>
      <trkpt lat="49.78765" lon="5.3154">
        <ele>419.79998779297</ele>
        <time>2022-06-11T07:37:25.000Z</time>
      </trkpt>
      <trkpt lat="49.78772" lon="5.31542">
        <ele>419.20001220703</ele>
        <time>2022-06-11T07:37:26.000Z</time>
      </trkpt>
      <trkpt lat="49.78786" lon="5.31541">
        <ele>417.60000610352</ele>
        <time>2022-06-11T07:37:28.000Z</time>
      </trkpt>
      <trkpt lat="49.78794" lon="5.3154">
        <ele>417.39999389648</ele>
        <time>2022-06-11T07:37:29.000Z</time>
      </trkpt>
      <trkpt lat="49.78808" lon="5.31538">
        <ele>416.60000610352</ele>
        <time>2022-06-11T07:37:31.000Z</time>
      </trkpt>
      <trkpt lat="49.78835" lon="5.31533">
        <ele>415</ele>
        <time>2022-06-11T07:37:35.000Z</time>
      </trkpt>
      <trkpt lat="49.78842" lon="5.31529">
        <ele>414.39999389648</ele>
        <time>2022-06-11T07:37:36.000Z</time>
      </trkpt>
      <trkpt lat="49.78858" lon="5.31505">
        <ele>410.39999389648</ele>
        <time>2022-06-11T07:37:39.000Z</time>
      </trkpt>
      <trkpt lat="49.78871" lon="5.31474">
        <ele>407.60000610352</ele>
        <time>2022-06-11T07:37:42.000Z</time>
      </trkpt>
      <trkpt lat="49.78875" lon="5.31464">
        <ele>406.60000610352</ele>
        <time>2022-06-11T07:37:43.000Z</time>
      </trkpt>
      <trkpt lat="49.78881" lon="5.31457">
        <ele>405.60000610352</ele>
        <time>2022-06-11T07:37:44.000Z</time>
      </trkpt>
      <trkpt lat="49.78886" lon="5.3145">
        <ele>404.60000610352</ele>
        <time>2022-06-11T07:37:45.000Z</time>
      </trkpt>
      <trkpt lat="49.78893" lon="5.31445">
        <ele>403.39999389648</ele>
        <time>2022-06-11T07:37:46.000Z</time>
      </trkpt>
      <trkpt lat="49.78901" lon="5.31442">
        <ele>402.60000610352</ele>
        <time>2022-06-11T07:37:47.000Z</time>
      </trkpt>
      <trkpt lat="49.78917" lon="5.31437">
        <ele>401.60000610352</ele>
        <time>2022-06-11T07:37:49.000Z</time>
      </trkpt>
      <trkpt lat="49.78926" lon="5.31435">
        <ele>401.39999389648</ele>
        <time>2022-06-11T07:37:50.000Z</time>
      </trkpt>
      <trkpt lat="49.78935" lon="5.31435">
        <ele>401.79998779297</ele>
        <time>2022-06-11T07:37:51.000Z</time>
      </trkpt>
      <trkpt lat="49.78953" lon="5.31438">
        <ele>402.20001220703</ele>
        <time>2022-06-11T07:37:53.000Z</time>
      </trkpt>
      <trkpt lat="49.78962" lon="5.3144">
        <ele>403</ele>
        <time>2022-06-11T07:37:54.000Z</time>
      </trkpt>
      <trkpt lat="49.78986" lon="5.31448">
        <ele>405.39999389648</ele>
        <time>2022-06-11T07:37:57.000Z</time>
      </trkpt>
      <trkpt lat="49.78999" lon="5.31452">
        <ele>407.39999389648</ele>
        <time>2022-06-11T07:37:59.000Z</time>
      </trkpt>
      <trkpt lat="49.79033" lon="5.31457">
        <ele>412</ele>
        <time>2022-06-11T07:38:05.000Z</time>
      </trkpt>
      <trkpt lat="49.79038" lon="5.31455">
        <ele>412.60000610352</ele>
        <time>2022-06-11T07:38:06.000Z</time>
      </trkpt>
      <trkpt lat="49.79055" lon="5.3144">
        <ele>413.60000610352</ele>
        <time>2022-06-11T07:38:09.000Z</time>
      </trkpt>
      <trkpt lat="49.79085" lon="5.31402">
        <ele>417.39999389648</ele>
        <time>2022-06-11T07:38:15.000Z</time>
      </trkpt>
      <trkpt lat="49.79108" lon="5.31376">
        <ele>419.39999389648</ele>
        <time>2022-06-11T07:38:20.000Z</time>
      </trkpt>
      <trkpt lat="49.79112" lon="5.31372">
        <ele>419.79998779297</ele>
        <time>2022-06-11T07:38:21.000Z</time>
      </trkpt>
      <trkpt lat="49.79129" lon="5.31359">
        <ele>421.20001220703</ele>
        <time>2022-06-11T07:38:25.000Z</time>
      </trkpt>
      <trkpt lat="49.79138" lon="5.31354">
        <ele>422</ele>
        <time>2022-06-11T07:38:27.000Z</time>
      </trkpt>
      <trkpt lat="49.79142" lon="5.31351">
        <ele>422.60000610352</ele>
        <time>2022-06-11T07:38:28.000Z</time>
      </trkpt>
      <trkpt lat="49.79154" lon="5.31344">
        <ele>422.79998779297</ele>
        <time>2022-06-11T07:38:31.000Z</time>
      </trkpt>
      <trkpt lat="49.7916" lon="5.31337">
        <ele>423.20001220703</ele>
        <time>2022-06-11T07:38:33.000Z</time>
      </trkpt>
      <trkpt lat="49.79161" lon="5.3133">
        <ele>423.39999389648</ele>
        <time>2022-06-11T07:38:34.000Z</time>
      </trkpt>
      <trkpt lat="49.79161" lon="5.31324">
        <ele>423.79998779297</ele>
        <time>2022-06-11T07:38:35.000Z</time>
      </trkpt>
      <trkpt lat="49.79161" lon="5.31316">
        <ele>424.39999389648</ele>
        <time>2022-06-11T07:38:37.000Z</time>
      </trkpt>
      <trkpt lat="49.79161" lon="5.31313">
        <ele>424.60000610352</ele>
        <time>2022-06-11T07:38:38.000Z</time>
      </trkpt>
      <trkpt lat="49.7916" lon="5.31309">
        <ele>425</ele>
        <time>2022-06-11T07:38:39.000Z</time>
      </trkpt>
      <trkpt lat="49.79157" lon="5.31299">
        <ele>425.79998779297</ele>
        <time>2022-06-11T07:38:42.000Z</time>
      </trkpt>
      <trkpt lat="49.79155" lon="5.31295">
        <ele>426</ele>
        <time>2022-06-11T07:38:43.000Z</time>
      </trkpt>
      <trkpt lat="49.79153" lon="5.31288">
        <ele>426.60000610352</ele>
        <time>2022-06-11T07:38:45.000Z</time>
      </trkpt>
      <trkpt lat="49.79151" lon="5.31276">
        <ele>427.60000610352</ele>
        <time>2022-06-11T07:38:48.000Z</time>
      </trkpt>
      <trkpt lat="49.79149" lon="5.31269">
        <ele>428</ele>
        <time>2022-06-11T07:38:50.000Z</time>
      </trkpt>
      <trkpt lat="49.79149" lon="5.31266">
        <ele>428.20001220703</ele>
        <time>2022-06-11T07:38:51.000Z</time>
      </trkpt>
      <trkpt lat="49.79148" lon="5.31259">
        <ele>428.39999389648</ele>
        <time>2022-06-11T07:38:53.000Z</time>
      </trkpt>
      <trkpt lat="49.79146" lon="5.31249">
        <ele>428.79998779297</ele>
        <time>2022-06-11T07:38:56.000Z</time>
      </trkpt>
      <trkpt lat="49.79145" lon="5.31237">
        <ele>429.20001220703</ele>
        <time>2022-06-11T07:38:59.000Z</time>
      </trkpt>
      <trkpt lat="49.79142" lon="5.31222">
        <ele>429.79998779297</ele>
        <time>2022-06-11T07:39:03.000Z</time>
      </trkpt>
      <trkpt lat="49.79141" lon="5.31219">
        <ele>430</ele>
        <time>2022-06-11T07:39:04.000Z</time>
      </trkpt>
      <trkpt lat="49.7914" lon="5.31208">
        <ele>430.39999389648</ele>
        <time>2022-06-11T07:39:07.000Z</time>
      </trkpt>
      <trkpt lat="49.79137" lon="5.31194">
        <ele>430.79998779297</ele>
        <time>2022-06-11T07:39:11.000Z</time>
      </trkpt>
      <trkpt lat="49.79136" lon="5.31186">
        <ele>431.20001220703</ele>
        <time>2022-06-11T07:39:14.000Z</time>
      </trkpt>
      <trkpt lat="49.79136" lon="5.31184">
        <ele>431.39999389648</ele>
        <time>2022-06-11T07:39:15.000Z</time>
      </trkpt>
      <trkpt lat="49.79133" lon="5.31173">
        <ele>432</ele>
        <time>2022-06-11T07:39:18.000Z</time>
      </trkpt>
      <trkpt lat="49.7913" lon="5.31158">
        <ele>432.79998779297</ele>
        <time>2022-06-11T07:39:22.000Z</time>
      </trkpt>
      <trkpt lat="49.79127" lon="5.31147">
        <ele>433.79998779297</ele>
        <time>2022-06-11T07:39:25.000Z</time>
      </trkpt>
      <trkpt lat="49.79126" lon="5.31142">
        <ele>434.20001220703</ele>
        <time>2022-06-11T07:39:26.000Z</time>
      </trkpt>
      <trkpt lat="49.79123" lon="5.31121">
        <ele>435.79998779297</ele>
        <time>2022-06-11T07:39:30.000Z</time>
      </trkpt>
      <trkpt lat="49.79122" lon="5.31116">
        <ele>436.20001220703</ele>
        <time>2022-06-11T07:39:31.000Z</time>
      </trkpt>
      <trkpt lat="49.7912" lon="5.31102">
        <ele>437.20001220703</ele>
        <time>2022-06-11T07:39:34.000Z</time>
      </trkpt>
      <trkpt lat="49.79117" lon="5.31086">
        <ele>438.60000610352</ele>
        <time>2022-06-11T07:39:38.000Z</time>
      </trkpt>
      <trkpt lat="49.79115" lon="5.31079">
        <ele>439.39999389648</ele>
        <time>2022-06-11T07:39:40.000Z</time>
      </trkpt>
      <trkpt lat="49.7911" lon="5.3107">
        <ele>440.39999389648</ele>
        <time>2022-06-11T07:39:43.000Z</time>
      </trkpt>
      <trkpt lat="49.79104" lon="5.31065">
        <ele>441</ele>
        <time>2022-06-11T07:39:45.000Z</time>
      </trkpt>
      <trkpt lat="49.79096" lon="5.31056">
        <ele>442.20001220703</ele>
        <time>2022-06-11T07:39:48.000Z</time>
      </trkpt>
      <trkpt lat="49.79088" lon="5.31047">
        <ele>443.39999389648</ele>
        <time>2022-06-11T07:39:51.000Z</time>
      </trkpt>
      <trkpt lat="49.79086" lon="5.31044">
        <ele>443.79998779297</ele>
        <time>2022-06-11T07:39:52.000Z</time>
      </trkpt>
      <trkpt lat="49.7907" lon="5.31028">
        <ele>446.20001220703</ele>
        <time>2022-06-11T07:39:57.000Z</time>
      </trkpt>
      <trkpt lat="49.79066" lon="5.31025">
        <ele>446.60000610352</ele>
        <time>2022-06-11T07:39:58.000Z</time>
      </trkpt>
      <trkpt lat="49.79051" lon="5.31014">
        <ele>448</ele>
        <time>2022-06-11T07:40:03.000Z</time>
      </trkpt>
      <trkpt lat="49.79048" lon="5.31011">
        <ele>448.20001220703</ele>
        <time>2022-06-11T07:40:04.000Z</time>
      </trkpt>
      <trkpt lat="49.79026" lon="5.30996">
        <ele>449.79998779297</ele>
        <time>2022-06-11T07:40:10.000Z</time>
      </trkpt>
      <trkpt lat="49.79021" lon="5.30994">
        <ele>450</ele>
        <time>2022-06-11T07:40:11.000Z</time>
      </trkpt>
      <trkpt lat="49.78992" lon="5.3098">
        <ele>450</ele>
        <time>2022-06-11T07:40:17.000Z</time>
      </trkpt>
      <trkpt lat="49.78965" lon="5.30962">
        <ele>448.79998779297</ele>
        <time>2022-06-11T07:40:22.000Z</time>
      </trkpt>
      <trkpt lat="49.7895" lon="5.30954">
        <ele>448.39999389648</ele>
        <time>2022-06-11T07:40:25.000Z</time>
      </trkpt>
      <trkpt lat="49.78925" lon="5.30943">
        <ele>447.20001220703</ele>
        <time>2022-06-11T07:40:29.000Z</time>
      </trkpt>
      <trkpt lat="49.78919" lon="5.30939">
        <ele>446.39999389648</ele>
        <time>2022-06-11T07:40:30.000Z</time>
      </trkpt>
      <trkpt lat="49.78897" lon="5.30928">
        <ele>443.60000610352</ele>
        <time>2022-06-11T07:40:33.000Z</time>
      </trkpt>
      <trkpt lat="49.78883" lon="5.30922">
        <ele>441.79998779297</ele>
        <time>2022-06-11T07:40:35.000Z</time>
      </trkpt>
      <trkpt lat="49.78869" lon="5.30916">
        <ele>440</ele>
        <time>2022-06-11T07:40:37.000Z</time>
      </trkpt>
      <trkpt lat="49.78855" lon="5.30912">
        <ele>438.39999389648</ele>
        <time>2022-06-11T07:40:39.000Z</time>
      </trkpt>
      <trkpt lat="49.78848" lon="5.30909">
        <ele>437.60000610352</ele>
        <time>2022-06-11T07:40:40.000Z</time>
      </trkpt>
      <trkpt lat="49.78825" lon="5.30897">
        <ele>435.20001220703</ele>
        <time>2022-06-11T07:40:44.000Z</time>
      </trkpt>
      <trkpt lat="49.78819" lon="5.30893">
        <ele>434.79998779297</ele>
        <time>2022-06-11T07:40:45.000Z</time>
      </trkpt>
      <trkpt lat="49.7881" lon="5.30883">
        <ele>434</ele>
        <time>2022-06-11T07:40:47.000Z</time>
      </trkpt>
      <trkpt lat="49.78802" lon="5.3087">
        <ele>434</ele>
        <time>2022-06-11T07:40:49.000Z</time>
      </trkpt>
      <trkpt lat="49.78798" lon="5.30864">
        <ele>433.79998779297</ele>
        <time>2022-06-11T07:40:50.000Z</time>
      </trkpt>
      <trkpt lat="49.7878" lon="5.30823">
        <ele>433.20001220703</ele>
        <time>2022-06-11T07:40:55.000Z</time>
      </trkpt>
      <trkpt lat="49.78767" lon="5.30795">
        <ele>433.60000610352</ele>
        <time>2022-06-11T07:40:59.000Z</time>
      </trkpt>
      <trkpt lat="49.78763" lon="5.3079">
        <ele>434</ele>
        <time>2022-06-11T07:41:00.000Z</time>
      </trkpt>
      <trkpt lat="49.78742" lon="5.3076">
        <ele>435.60000610352</ele>
        <time>2022-06-11T07:41:05.000Z</time>
      </trkpt>
      <trkpt lat="49.78732" lon="5.3075">
        <ele>436</ele>
        <time>2022-06-11T07:41:07.000Z</time>
      </trkpt>
      <trkpt lat="49.78727" lon="5.30745">
        <ele>435.79998779297</ele>
        <time>2022-06-11T07:41:08.000Z</time>
      </trkpt>
      <trkpt lat="49.78706" lon="5.30724">
        <ele>435.20001220703</ele>
        <time>2022-06-11T07:41:13.000Z</time>
      </trkpt>
      <trkpt lat="49.7867" lon="5.30694">
        <ele>433.79998779297</ele>
        <time>2022-06-11T07:41:21.000Z</time>
      </trkpt>
      <trkpt lat="49.78639" lon="5.30673">
        <ele>433</ele>
        <time>2022-06-11T07:41:27.000Z</time>
      </trkpt>
      <trkpt lat="49.78623" lon="5.30664">
        <ele>433</ele>
        <time>2022-06-11T07:41:30.000Z</time>
      </trkpt>
      <trkpt lat="49.78618" lon="5.30663">
        <ele>432.79998779297</ele>
        <time>2022-06-11T07:41:31.000Z</time>
      </trkpt>
      <trkpt lat="49.78612" lon="5.30666">
        <ele>432.60000610352</ele>
        <time>2022-06-11T07:41:32.000Z</time>
      </trkpt>
      <trkpt lat="49.78594" lon="5.30682">
        <ele>430.60000610352</ele>
        <time>2022-06-11T07:41:35.000Z</time>
      </trkpt>
      <trkpt lat="49.78588" lon="5.30689">
        <ele>429.79998779297</ele>
        <time>2022-06-11T07:41:36.000Z</time>
      </trkpt>
      <trkpt lat="49.78574" lon="5.30708">
        <ele>429</ele>
        <time>2022-06-11T07:41:39.000Z</time>
      </trkpt>
      <trkpt lat="49.78565" lon="5.3072">
        <ele>429</ele>
        <time>2022-06-11T07:41:41.000Z</time>
      </trkpt>
      <trkpt lat="49.78555" lon="5.30731">
        <ele>428.20001220703</ele>
        <time>2022-06-11T07:41:45.000Z</time>
      </trkpt>
      <trkpt lat="49.78545" lon="5.30729">
        <ele>428</ele>
        <time>2022-06-11T07:45:29.000Z</time>
      </trkpt>
      <trkpt lat="49.78542" lon="5.3072">
        <ele>428.20001220703</ele>
        <time>2022-06-11T07:45:31.000Z</time>
      </trkpt>
      <trkpt lat="49.78533" lon="5.30694">
        <ele>427.79998779297</ele>
        <time>2022-06-11T07:45:35.000Z</time>
      </trkpt>
      <trkpt lat="49.78527" lon="5.3068">
        <ele>428</ele>
        <time>2022-06-11T07:45:37.000Z</time>
      </trkpt>
      <trkpt lat="49.78518" lon="5.3066">
        <ele>428</ele>
        <time>2022-06-11T07:45:40.000Z</time>
      </trkpt>
      <trkpt lat="49.78508" lon="5.30642">
        <ele>428.60000610352</ele>
        <time>2022-06-11T07:45:43.000Z</time>
      </trkpt>
      <trkpt lat="49.785" lon="5.30636">
        <ele>428.60000610352</ele>
        <time>2022-06-11T07:45:45.000Z</time>
      </trkpt>
      <trkpt lat="49.78487" lon="5.30624">
        <ele>428.20001220703</ele>
        <time>2022-06-11T07:45:50.000Z</time>
      </trkpt>
      <trkpt lat="49.78475" lon="5.30609">
        <ele>427.60000610352</ele>
        <time>2022-06-11T07:45:55.000Z</time>
      </trkpt>
      <trkpt lat="49.78458" lon="5.30591">
        <ele>426.39999389648</ele>
        <time>2022-06-11T07:46:00.000Z</time>
      </trkpt>
      <trkpt lat="49.78454" lon="5.30589">
        <ele>426</ele>
        <time>2022-06-11T07:46:02.000Z</time>
      </trkpt>
      <trkpt lat="49.7845" lon="5.30588">
        <ele>426</ele>
        <time>2022-06-11T07:46:04.000Z</time>
      </trkpt>
      <trkpt lat="49.78434" lon="5.30579">
        <ele>426</ele>
        <time>2022-06-11T07:46:11.000Z</time>
      </trkpt>
      <trkpt lat="49.78414" lon="5.30568">
        <ele>427.20001220703</ele>
        <time>2022-06-11T07:46:16.000Z</time>
      </trkpt>
      <trkpt lat="49.784" lon="5.30562">
        <ele>428.79998779297</ele>
        <time>2022-06-11T07:46:19.000Z</time>
      </trkpt>
      <trkpt lat="49.7839" lon="5.30559">
        <ele>429.20001220703</ele>
        <time>2022-06-11T07:46:21.000Z</time>
      </trkpt>
      <trkpt lat="49.78363" lon="5.30548">
        <ele>429.79998779297</ele>
        <time>2022-06-11T07:46:26.000Z</time>
      </trkpt>
      <trkpt lat="49.78359" lon="5.30544">
        <ele>429.39999389648</ele>
        <time>2022-06-11T07:46:27.000Z</time>
      </trkpt>
      <trkpt lat="49.78342" lon="5.30517">
        <ele>428.20001220703</ele>
        <time>2022-06-11T07:46:33.000Z</time>
      </trkpt>
      <trkpt lat="49.78326" lon="5.30485">
        <ele>428.79998779297</ele>
        <time>2022-06-11T07:46:38.000Z</time>
      </trkpt>
      <trkpt lat="49.78322" lon="5.3048">
        <ele>428.79998779297</ele>
        <time>2022-06-11T07:46:39.000Z</time>
      </trkpt>
      <trkpt lat="49.78306" lon="5.30456">
        <ele>429.39999389648</ele>
        <time>2022-06-11T07:46:43.000Z</time>
      </trkpt>
      <trkpt lat="49.78297" lon="5.30445">
        <ele>429.79998779297</ele>
        <time>2022-06-11T07:46:45.000Z</time>
      </trkpt>
      <trkpt lat="49.7828" lon="5.3042">
        <ele>430.60000610352</ele>
        <time>2022-06-11T07:46:49.000Z</time>
      </trkpt>
      <trkpt lat="49.78265" lon="5.30403">
        <ele>430.60000610352</ele>
        <time>2022-06-11T07:46:52.000Z</time>
      </trkpt>
      <trkpt lat="49.78251" lon="5.30389">
        <ele>430.39999389648</ele>
        <time>2022-06-11T07:46:55.000Z</time>
      </trkpt>
      <trkpt lat="49.78232" lon="5.30362">
        <ele>429.20001220703</ele>
        <time>2022-06-11T07:47:00.000Z</time>
      </trkpt>
      <trkpt lat="49.78227" lon="5.30349">
        <ele>428.79998779297</ele>
        <time>2022-06-11T07:47:02.000Z</time>
      </trkpt>
      <trkpt lat="49.78219" lon="5.3033">
        <ele>428.20001220703</ele>
        <time>2022-06-11T07:47:05.000Z</time>
      </trkpt>
      <trkpt lat="49.78213" lon="5.30319">
        <ele>427.79998779297</ele>
        <time>2022-06-11T07:47:07.000Z</time>
      </trkpt>
      <trkpt lat="49.7821" lon="5.30312">
        <ele>427.60000610352</ele>
        <time>2022-06-11T07:47:08.000Z</time>
      </trkpt>
      <trkpt lat="49.78202" lon="5.30283">
        <ele>427.60000610352</ele>
        <time>2022-06-11T07:47:12.000Z</time>
      </trkpt>
      <trkpt lat="49.78197" lon="5.30238">
        <ele>427.60000610352</ele>
        <time>2022-06-11T07:47:17.000Z</time>
      </trkpt>
      <trkpt lat="49.78195" lon="5.30219">
        <ele>427.39999389648</ele>
        <time>2022-06-11T07:47:20.000Z</time>
      </trkpt>
      <trkpt lat="49.78193" lon="5.30211">
        <ele>427.20001220703</ele>
        <time>2022-06-11T07:47:21.000Z</time>
      </trkpt>
      <trkpt lat="49.78183" lon="5.30169">
        <ele>424.20001220703</ele>
        <time>2022-06-11T07:47:26.000Z</time>
      </trkpt>
      <trkpt lat="49.78182" lon="5.30161">
        <ele>423.39999389648</ele>
        <time>2022-06-11T07:47:27.000Z</time>
      </trkpt>
      <trkpt lat="49.78176" lon="5.30123">
        <ele>421.20001220703</ele>
        <time>2022-06-11T07:47:31.000Z</time>
      </trkpt>
      <trkpt lat="49.78175" lon="5.30112">
        <ele>421</ele>
        <time>2022-06-11T07:47:32.000Z</time>
      </trkpt>
      <trkpt lat="49.78173" lon="5.30089">
        <ele>421</ele>
        <time>2022-06-11T07:47:34.000Z</time>
      </trkpt>
      <trkpt lat="49.78169" lon="5.30058">
        <ele>421.79998779297</ele>
        <time>2022-06-11T07:47:37.000Z</time>
      </trkpt>
      <trkpt lat="49.78164" lon="5.30043">
        <ele>422.20001220703</ele>
        <time>2022-06-11T07:47:40.000Z</time>
      </trkpt>
      <trkpt lat="49.78163" lon="5.30017">
        <ele>423</ele>
        <time>2022-06-11T07:47:45.000Z</time>
      </trkpt>
      <trkpt lat="49.78159" lon="5.29993">
        <ele>423.39999389648</ele>
        <time>2022-06-11T07:47:49.000Z</time>
      </trkpt>
      <trkpt lat="49.78151" lon="5.29966">
        <ele>423.20001220703</ele>
        <time>2022-06-11T07:47:55.000Z</time>
      </trkpt>
      <trkpt lat="49.78139" lon="5.29945">
        <ele>422.60000610352</ele>
        <time>2022-06-11T07:48:00.000Z</time>
      </trkpt>
      <trkpt lat="49.78124" lon="5.29914">
        <ele>422</ele>
        <time>2022-06-11T07:48:05.000Z</time>
      </trkpt>
      <trkpt lat="49.78118" lon="5.29902">
        <ele>422</ele>
        <time>2022-06-11T07:48:07.000Z</time>
      </trkpt>
      <trkpt lat="49.78105" lon="5.29878">
        <ele>422.20001220703</ele>
        <time>2022-06-11T07:48:11.000Z</time>
      </trkpt>
      <trkpt lat="49.78096" lon="5.29854">
        <ele>423</ele>
        <time>2022-06-11T07:48:15.000Z</time>
      </trkpt>
      <trkpt lat="49.78094" lon="5.29848">
        <ele>423.60000610352</ele>
        <time>2022-06-11T07:48:16.000Z</time>
      </trkpt>
      <trkpt lat="49.78079" lon="5.29806">
        <ele>426.79998779297</ele>
        <time>2022-06-11T07:48:22.000Z</time>
      </trkpt>
      <trkpt lat="49.78062" lon="5.29755">
        <ele>428.20001220703</ele>
        <time>2022-06-11T07:48:29.000Z</time>
      </trkpt>
      <trkpt lat="49.7805" lon="5.29719">
        <ele>425.60000610352</ele>
        <time>2022-06-11T07:48:33.000Z</time>
      </trkpt>
      <trkpt lat="49.78047" lon="5.29709">
        <ele>425</ele>
        <time>2022-06-11T07:48:34.000Z</time>
      </trkpt>
      <trkpt lat="49.78045" lon="5.29699">
        <ele>424.39999389648</ele>
        <time>2022-06-11T07:48:35.000Z</time>
      </trkpt>
      <trkpt lat="49.78037" lon="5.29677">
        <ele>423.60000610352</ele>
        <time>2022-06-11T07:48:38.000Z</time>
      </trkpt>
      <trkpt lat="49.78023" lon="5.29657">
        <ele>423.39999389648</ele>
        <time>2022-06-11T07:48:43.000Z</time>
      </trkpt>
      <trkpt lat="49.78009" lon="5.29644">
        <ele>423.39999389648</ele>
        <time>2022-06-11T07:48:48.000Z</time>
      </trkpt>
      <trkpt lat="49.77996" lon="5.29629">
        <ele>424</ele>
        <time>2022-06-11T07:48:52.000Z</time>
      </trkpt>
      <trkpt lat="49.77992" lon="5.29625">
        <ele>424.20001220703</ele>
        <time>2022-06-11T07:48:53.000Z</time>
      </trkpt>
      <trkpt lat="49.77966" lon="5.29612">
        <ele>424.39999389648</ele>
        <time>2022-06-11T07:48:59.000Z</time>
      </trkpt>
      <trkpt lat="49.77959" lon="5.29607">
        <ele>424.39999389648</ele>
        <time>2022-06-11T07:49:01.000Z</time>
      </trkpt>
      <trkpt lat="49.77945" lon="5.29603">
        <ele>424.20001220703</ele>
        <time>2022-06-11T07:49:04.000Z</time>
      </trkpt>
      <trkpt lat="49.77941" lon="5.29602">
        <ele>424.20001220703</ele>
        <time>2022-06-11T07:49:05.000Z</time>
      </trkpt>
      <trkpt lat="49.77927" lon="5.29597">
        <ele>424.60000610352</ele>
        <time>2022-06-11T07:49:09.000Z</time>
      </trkpt>
      <trkpt lat="49.77922" lon="5.29595">
        <ele>424.79998779297</ele>
        <time>2022-06-11T07:49:10.000Z</time>
      </trkpt>
      <trkpt lat="49.77908" lon="5.29591">
        <ele>425.60000610352</ele>
        <time>2022-06-11T07:49:13.000Z</time>
      </trkpt>
      <trkpt lat="49.77897" lon="5.29587">
        <ele>426.39999389648</ele>
        <time>2022-06-11T07:49:15.000Z</time>
      </trkpt>
      <trkpt lat="49.77895" lon="5.29586">
        <ele>426.39999389648</ele>
        <time>2022-06-11T07:49:16.000Z</time>
      </trkpt>
      <trkpt lat="49.77887" lon="5.29584">
        <ele>427</ele>
        <time>2022-06-11T07:49:18.000Z</time>
      </trkpt>
      <trkpt lat="49.7787" lon="5.29578">
        <ele>428</ele>
        <time>2022-06-11T07:49:22.000Z</time>
      </trkpt>
      <trkpt lat="49.77852" lon="5.29569">
        <ele>429</ele>
        <time>2022-06-11T07:49:26.000Z</time>
      </trkpt>
      <trkpt lat="49.77844" lon="5.29565">
        <ele>429.39999389648</ele>
        <time>2022-06-11T07:49:28.000Z</time>
      </trkpt>
      <trkpt lat="49.77832" lon="5.29557">
        <ele>430</ele>
        <time>2022-06-11T07:49:32.000Z</time>
      </trkpt>
      <trkpt lat="49.77826" lon="5.29551">
        <ele>430.39999389648</ele>
        <time>2022-06-11T07:49:34.000Z</time>
      </trkpt>
      <trkpt lat="49.77817" lon="5.29539">
        <ele>432</ele>
        <time>2022-06-11T07:49:38.000Z</time>
      </trkpt>
      <trkpt lat="49.77813" lon="5.29528">
        <ele>433.39999389648</ele>
        <time>2022-06-11T07:49:42.000Z</time>
      </trkpt>
      <trkpt lat="49.77813" lon="5.29519">
        <ele>434.39999389648</ele>
        <time>2022-06-11T07:49:44.000Z</time>
      </trkpt>
      <trkpt lat="49.77825" lon="5.29493">
        <ele>437</ele>
        <time>2022-06-11T07:49:49.000Z</time>
      </trkpt>
      <trkpt lat="49.77839" lon="5.29462">
        <ele>439</ele>
        <time>2022-06-11T07:49:54.000Z</time>
      </trkpt>
      <trkpt lat="49.77842" lon="5.29456">
        <ele>439.60000610352</ele>
        <time>2022-06-11T07:49:55.000Z</time>
      </trkpt>
      <trkpt lat="49.77855" lon="5.29428">
        <ele>442.20001220703</ele>
        <time>2022-06-11T07:50:00.000Z</time>
      </trkpt>
      <trkpt lat="49.77859" lon="5.29419">
        <ele>442.60000610352</ele>
        <time>2022-06-11T07:50:02.000Z</time>
      </trkpt>
      <trkpt lat="49.77867" lon="5.29399">
        <ele>444</ele>
        <time>2022-06-11T07:50:06.000Z</time>
      </trkpt>
      <trkpt lat="49.77872" lon="5.29386">
        <ele>445</ele>
        <time>2022-06-11T07:50:08.000Z</time>
      </trkpt>
      <trkpt lat="49.77887" lon="5.29354">
        <ele>444.79998779297</ele>
        <time>2022-06-11T07:50:12.000Z</time>
      </trkpt>
      <trkpt lat="49.77904" lon="5.29304">
        <ele>443.39999389648</ele>
        <time>2022-06-11T07:50:18.000Z</time>
      </trkpt>
      <trkpt lat="49.77909" lon="5.29288">
        <ele>442.79998779297</ele>
        <time>2022-06-11T07:50:20.000Z</time>
      </trkpt>
      <trkpt lat="49.77913" lon="5.29281">
        <ele>442.39999389648</ele>
        <time>2022-06-11T07:50:21.000Z</time>
      </trkpt>
      <trkpt lat="49.77923" lon="5.29261">
        <ele>441.60000610352</ele>
        <time>2022-06-11T07:50:24.000Z</time>
      </trkpt>
      <trkpt lat="49.77927" lon="5.29256">
        <ele>441.39999389648</ele>
        <time>2022-06-11T07:50:25.000Z</time>
      </trkpt>
      <trkpt lat="49.77942" lon="5.29236">
        <ele>440.20001220703</ele>
        <time>2022-06-11T07:50:29.000Z</time>
      </trkpt>
      <trkpt lat="49.77944" lon="5.29231">
        <ele>440</ele>
        <time>2022-06-11T07:50:30.000Z</time>
      </trkpt>
      <trkpt lat="49.77946" lon="5.29217">
        <ele>440.39999389648</ele>
        <time>2022-06-11T07:50:33.000Z</time>
      </trkpt>
      <trkpt lat="49.77938" lon="5.29215">
        <ele>441</ele>
        <time>2022-06-11T07:50:37.000Z</time>
      </trkpt>
      <trkpt lat="49.77935" lon="5.29215">
        <ele>441.20001220703</ele>
        <time>2022-06-11T07:50:38.000Z</time>
      </trkpt>
      <trkpt lat="49.7792" lon="5.29217">
        <ele>442.39999389648</ele>
        <time>2022-06-11T07:50:42.000Z</time>
      </trkpt>
      <trkpt lat="49.77898" lon="5.29218">
        <ele>444</ele>
        <time>2022-06-11T07:50:47.000Z</time>
      </trkpt>
      <trkpt lat="49.77888" lon="5.29218">
        <ele>444.20001220703</ele>
        <time>2022-06-11T07:50:49.000Z</time>
      </trkpt>
      <trkpt lat="49.77874" lon="5.29218">
        <ele>444.79998779297</ele>
        <time>2022-06-11T07:50:52.000Z</time>
      </trkpt>
      <trkpt lat="49.77854" lon="5.29217">
        <ele>446</ele>
        <time>2022-06-11T07:50:56.000Z</time>
      </trkpt>
      <trkpt lat="49.77848" lon="5.29216">
        <ele>446.60000610352</ele>
        <time>2022-06-11T07:50:57.000Z</time>
      </trkpt>
      <trkpt lat="49.77824" lon="5.2921">
        <ele>448</ele>
        <time>2022-06-11T07:51:01.000Z</time>
      </trkpt>
      <trkpt lat="49.77799" lon="5.29202">
        <ele>447.60000610352</ele>
        <time>2022-06-11T07:51:05.000Z</time>
      </trkpt>
      <trkpt lat="49.77756" lon="5.29178">
        <ele>442.79998779297</ele>
        <time>2022-06-11T07:51:12.000Z</time>
      </trkpt>
      <trkpt lat="49.77715" lon="5.29141">
        <ele>440</ele>
        <time>2022-06-11T07:51:19.000Z</time>
      </trkpt>
      <trkpt lat="49.7771" lon="5.29135">
        <ele>440</ele>
        <time>2022-06-11T07:51:20.000Z</time>
      </trkpt>
      <trkpt lat="49.77685" lon="5.29108">
        <ele>439.39999389648</ele>
        <time>2022-06-11T07:51:25.000Z</time>
      </trkpt>
      <trkpt lat="49.7768" lon="5.29102">
        <ele>439.39999389648</ele>
        <time>2022-06-11T07:51:26.000Z</time>
      </trkpt>
      <trkpt lat="49.7765" lon="5.29061">
        <ele>438</ele>
        <time>2022-06-11T07:51:32.000Z</time>
      </trkpt>
      <trkpt lat="49.77644" lon="5.29054">
        <ele>437.60000610352</ele>
        <time>2022-06-11T07:51:33.000Z</time>
      </trkpt>
      <trkpt lat="49.77611" lon="5.29007">
        <ele>436.20001220703</ele>
        <time>2022-06-11T07:51:40.000Z</time>
      </trkpt>
      <trkpt lat="49.77607" lon="5.29002">
        <ele>436.20001220703</ele>
        <time>2022-06-11T07:51:41.000Z</time>
      </trkpt>
      <trkpt lat="49.77591" lon="5.2899">
        <ele>436</ele>
        <time>2022-06-11T07:51:44.000Z</time>
      </trkpt>
      <trkpt lat="49.77572" lon="5.28981">
        <ele>435.39999389648</ele>
        <time>2022-06-11T07:51:48.000Z</time>
      </trkpt>
      <trkpt lat="49.77561" lon="5.28978">
        <ele>435</ele>
        <time>2022-06-11T07:51:50.000Z</time>
      </trkpt>
      <trkpt lat="49.77526" lon="5.28974">
        <ele>434</ele>
        <time>2022-06-11T07:51:55.000Z</time>
      </trkpt>
      <trkpt lat="49.77519" lon="5.28973">
        <ele>434</ele>
        <time>2022-06-11T07:51:56.000Z</time>
      </trkpt>
      <trkpt lat="49.77505" lon="5.28971">
        <ele>433.79998779297</ele>
        <time>2022-06-11T07:51:58.000Z</time>
      </trkpt>
      <trkpt lat="49.77476" lon="5.28964">
        <ele>430.60000610352</ele>
        <time>2022-06-11T07:52:02.000Z</time>
      </trkpt>
      <trkpt lat="49.77443" lon="5.2896">
        <ele>429.60000610352</ele>
        <time>2022-06-11T07:52:07.000Z</time>
      </trkpt>
      <trkpt lat="49.77436" lon="5.28959">
        <ele>429.39999389648</ele>
        <time>2022-06-11T07:52:08.000Z</time>
      </trkpt>
      <trkpt lat="49.77398" lon="5.2895">
        <ele>430.39999389648</ele>
        <time>2022-06-11T07:52:14.000Z</time>
      </trkpt>
      <trkpt lat="49.77386" lon="5.28947">
        <ele>431</ele>
        <time>2022-06-11T07:52:16.000Z</time>
      </trkpt>
      <trkpt lat="49.77376" lon="5.28941">
        <ele>431.60000610352</ele>
        <time>2022-06-11T07:52:18.000Z</time>
      </trkpt>
      <trkpt lat="49.77366" lon="5.28932">
        <ele>431.60000610352</ele>
        <time>2022-06-11T07:52:20.000Z</time>
      </trkpt>
      <trkpt lat="49.77346" lon="5.28911">
        <ele>431.60000610352</ele>
        <time>2022-06-11T07:52:24.000Z</time>
      </trkpt>
      <trkpt lat="49.77317" lon="5.28884">
        <ele>430.79998779297</ele>
        <time>2022-06-11T07:52:30.000Z</time>
      </trkpt>
      <trkpt lat="49.77313" lon="5.28879">
        <ele>430.79998779297</ele>
        <time>2022-06-11T07:52:31.000Z</time>
      </trkpt>
      <trkpt lat="49.77294" lon="5.28857">
        <ele>430.79998779297</ele>
        <time>2022-06-11T07:52:35.000Z</time>
      </trkpt>
      <trkpt lat="49.77262" lon="5.28819">
        <ele>431.39999389648</ele>
        <time>2022-06-11T07:52:41.000Z</time>
      </trkpt>
      <trkpt lat="49.77233" lon="5.28772">
        <ele>431</ele>
        <time>2022-06-11T07:52:48.000Z</time>
      </trkpt>
      <trkpt lat="49.77206" lon="5.28716">
        <ele>430.20001220703</ele>
        <time>2022-06-11T07:52:56.000Z</time>
      </trkpt>
      <trkpt lat="49.77184" lon="5.28671">
        <ele>431.60000610352</ele>
        <time>2022-06-11T07:53:03.000Z</time>
      </trkpt>
      <trkpt lat="49.77174" lon="5.28653">
        <ele>432.20001220703</ele>
        <time>2022-06-11T07:53:06.000Z</time>
      </trkpt>
      <trkpt lat="49.77162" lon="5.28626">
        <ele>433</ele>
        <time>2022-06-11T07:53:11.000Z</time>
      </trkpt>
      <trkpt lat="49.77161" lon="5.2862">
        <ele>433.39999389648</ele>
        <time>2022-06-11T07:53:12.000Z</time>
      </trkpt>
      <trkpt lat="49.77161" lon="5.28611">
        <ele>434</ele>
        <time>2022-06-11T07:53:14.000Z</time>
      </trkpt>
      <trkpt lat="49.77162" lon="5.28609">
        <ele>434.20001220703</ele>
        <time>2022-06-11T07:53:15.000Z</time>
      </trkpt>
      <trkpt lat="49.77174" lon="5.28598">
        <ele>435.60000610352</ele>
        <time>2022-06-11T07:53:19.000Z</time>
      </trkpt>
      <trkpt lat="49.77196" lon="5.28581">
        <ele>436.79998779297</ele>
        <time>2022-06-11T07:53:25.000Z</time>
      </trkpt>
      <trkpt lat="49.77222" lon="5.28562">
        <ele>434.39999389648</ele>
        <time>2022-06-11T07:53:30.000Z</time>
      </trkpt>
      <trkpt lat="49.77241" lon="5.2855">
        <ele>432</ele>
        <time>2022-06-11T07:53:33.000Z</time>
      </trkpt>
      <trkpt lat="49.77257" lon="5.2854">
        <ele>429.60000610352</ele>
        <time>2022-06-11T07:53:35.000Z</time>
      </trkpt>
      <trkpt lat="49.77275" lon="5.28529">
        <ele>428.60000610352</ele>
        <time>2022-06-11T07:53:37.000Z</time>
      </trkpt>
      <trkpt lat="49.77294" lon="5.28517">
        <ele>427.60000610352</ele>
        <time>2022-06-11T07:53:39.000Z</time>
      </trkpt>
      <trkpt lat="49.77313" lon="5.28507">
        <ele>426.60000610352</ele>
        <time>2022-06-11T07:53:41.000Z</time>
      </trkpt>
      <trkpt lat="49.77324" lon="5.28501">
        <ele>425.20001220703</ele>
        <time>2022-06-11T07:53:42.000Z</time>
      </trkpt>
      <trkpt lat="49.77345" lon="5.2849">
        <ele>422</ele>
        <time>2022-06-11T07:53:44.000Z</time>
      </trkpt>
      <trkpt lat="49.77355" lon="5.28484">
        <ele>419.60000610352</ele>
        <time>2022-06-11T07:53:45.000Z</time>
      </trkpt>
      <trkpt lat="49.77365" lon="5.28478">
        <ele>417.60000610352</ele>
        <time>2022-06-11T07:53:46.000Z</time>
      </trkpt>
      <trkpt lat="49.77375" lon="5.28471">
        <ele>416</ele>
        <time>2022-06-11T07:53:47.000Z</time>
      </trkpt>
      <trkpt lat="49.77384" lon="5.28464">
        <ele>414.79998779297</ele>
        <time>2022-06-11T07:53:48.000Z</time>
      </trkpt>
      <trkpt lat="49.77392" lon="5.28456">
        <ele>413.79998779297</ele>
        <time>2022-06-11T07:53:49.000Z</time>
      </trkpt>
      <trkpt lat="49.774" lon="5.28447">
        <ele>413.20001220703</ele>
        <time>2022-06-11T07:53:50.000Z</time>
      </trkpt>
      <trkpt lat="49.77408" lon="5.28438">
        <ele>412.79998779297</ele>
        <time>2022-06-11T07:53:51.000Z</time>
      </trkpt>
      <trkpt lat="49.77414" lon="5.2843">
        <ele>412</ele>
        <time>2022-06-11T07:53:52.000Z</time>
      </trkpt>
      <trkpt lat="49.77419" lon="5.28422">
        <ele>411.60000610352</ele>
        <time>2022-06-11T07:53:53.000Z</time>
      </trkpt>
      <trkpt lat="49.77425" lon="5.28407">
        <ele>411</ele>
        <time>2022-06-11T07:53:55.000Z</time>
      </trkpt>
      <trkpt lat="49.7743" lon="5.28397">
        <ele>410.60000610352</ele>
        <time>2022-06-11T07:53:57.000Z</time>
      </trkpt>
      <trkpt lat="49.77435" lon="5.2839">
        <ele>410</ele>
        <time>2022-06-11T07:53:59.000Z</time>
      </trkpt>
      <trkpt lat="49.77442" lon="5.28378">
        <ele>408.20001220703</ele>
        <time>2022-06-11T07:54:02.000Z</time>
      </trkpt>
      <trkpt lat="49.77447" lon="5.28371">
        <ele>407</ele>
        <time>2022-06-11T07:54:04.000Z</time>
      </trkpt>
      <trkpt lat="49.77455" lon="5.28364">
        <ele>406</ele>
        <time>2022-06-11T07:54:06.000Z</time>
      </trkpt>
      <trkpt lat="49.77463" lon="5.28356">
        <ele>404.79998779297</ele>
        <time>2022-06-11T07:54:08.000Z</time>
      </trkpt>
      <trkpt lat="49.7747" lon="5.28351">
        <ele>403.79998779297</ele>
        <time>2022-06-11T07:54:10.000Z</time>
      </trkpt>
      <trkpt lat="49.77477" lon="5.28349">
        <ele>402.79998779297</ele>
        <time>2022-06-11T07:54:12.000Z</time>
      </trkpt>
      <trkpt lat="49.77481" lon="5.28349">
        <ele>402.39999389648</ele>
        <time>2022-06-11T07:54:13.000Z</time>
      </trkpt>
      <trkpt lat="49.77489" lon="5.2835">
        <ele>402</ele>
        <time>2022-06-11T07:54:15.000Z</time>
      </trkpt>
      <trkpt lat="49.77505" lon="5.2836">
        <ele>401.20001220703</ele>
        <time>2022-06-11T07:54:18.000Z</time>
      </trkpt>
      <trkpt lat="49.77526" lon="5.2838">
        <ele>399</ele>
        <time>2022-06-11T07:54:24.000Z</time>
      </trkpt>
      <trkpt lat="49.77532" lon="5.28401">
        <ele>398.39999389648</ele>
        <time>2022-06-11T07:54:29.000Z</time>
      </trkpt>
      <trkpt lat="49.77532" lon="5.28408">
        <ele>398.39999389648</ele>
        <time>2022-06-11T07:54:30.000Z</time>
      </trkpt>
      <trkpt lat="49.77531" lon="5.28417">
        <ele>398.79998779297</ele>
        <time>2022-06-11T07:54:31.000Z</time>
      </trkpt>
      <trkpt lat="49.7753" lon="5.28427">
        <ele>399.39999389648</ele>
        <time>2022-06-11T07:54:32.000Z</time>
      </trkpt>
      <trkpt lat="49.77528" lon="5.28436">
        <ele>399.79998779297</ele>
        <time>2022-06-11T07:54:33.000Z</time>
      </trkpt>
      <trkpt lat="49.77525" lon="5.28454">
        <ele>400.20001220703</ele>
        <time>2022-06-11T07:54:35.000Z</time>
      </trkpt>
      <trkpt lat="49.77522" lon="5.28462">
        <ele>400.39999389648</ele>
        <time>2022-06-11T07:54:36.000Z</time>
      </trkpt>
      <trkpt lat="49.77518" lon="5.28475">
        <ele>400.79998779297</ele>
        <time>2022-06-11T07:54:38.000Z</time>
      </trkpt>
      <trkpt lat="49.77514" lon="5.28489">
        <ele>401.20001220703</ele>
        <time>2022-06-11T07:54:40.000Z</time>
      </trkpt>
      <trkpt lat="49.77514" lon="5.28496">
        <ele>401.39999389648</ele>
        <time>2022-06-11T07:54:41.000Z</time>
      </trkpt>
      <trkpt lat="49.77521" lon="5.28509">
        <ele>401.60000610352</ele>
        <time>2022-06-11T07:54:44.000Z</time>
      </trkpt>
      <trkpt lat="49.77536" lon="5.28515">
        <ele>400.39999389648</ele>
        <time>2022-06-11T07:54:49.000Z</time>
      </trkpt>
      <trkpt lat="49.77539" lon="5.28513">
        <ele>400</ele>
        <time>2022-06-11T07:54:50.000Z</time>
      </trkpt>
      <trkpt lat="49.77545" lon="5.28509">
        <ele>399</ele>
        <time>2022-06-11T07:54:52.000Z</time>
      </trkpt>
      <trkpt lat="49.77553" lon="5.28509">
        <ele>398.20001220703</ele>
        <time>2022-06-11T07:54:54.000Z</time>
      </trkpt>
      <trkpt lat="49.77561" lon="5.28507">
        <ele>397.60000610352</ele>
        <time>2022-06-11T07:54:56.000Z</time>
      </trkpt>
      <trkpt lat="49.77568" lon="5.28501">
        <ele>397.39999389648</ele>
        <time>2022-06-11T07:54:58.000Z</time>
      </trkpt>
      <trkpt lat="49.77576" lon="5.28489">
        <ele>396.39999389648</ele>
        <time>2022-06-11T07:55:00.000Z</time>
      </trkpt>
      <trkpt lat="49.77585" lon="5.28471">
        <ele>394.79998779297</ele>
        <time>2022-06-11T07:55:02.000Z</time>
      </trkpt>
      <trkpt lat="49.77598" lon="5.28446">
        <ele>392.39999389648</ele>
        <time>2022-06-11T07:55:04.000Z</time>
      </trkpt>
      <trkpt lat="49.77657" lon="5.28372">
        <ele>378.39999389648</ele>
        <time>2022-06-11T07:55:07.000Z</time>
      </trkpt>
      <trkpt lat="49.77665" lon="5.2836">
        <ele>376.60000610352</ele>
        <time>2022-06-11T07:55:08.000Z</time>
      </trkpt>
      <trkpt lat="49.77669" lon="5.28351">
        <ele>375.20001220703</ele>
        <time>2022-06-11T07:55:09.000Z</time>
      </trkpt>
      <trkpt lat="49.77679" lon="5.28329">
        <ele>370.60000610352</ele>
        <time>2022-06-11T07:55:11.000Z</time>
      </trkpt>
      <trkpt lat="49.77686" lon="5.28317">
        <ele>368.20001220703</ele>
        <time>2022-06-11T07:55:12.000Z</time>
      </trkpt>
      <trkpt lat="49.77692" lon="5.28306">
        <ele>366</ele>
        <time>2022-06-11T07:55:13.000Z</time>
      </trkpt>
      <trkpt lat="49.77698" lon="5.28297">
        <ele>364.39999389648</ele>
        <time>2022-06-11T07:55:14.000Z</time>
      </trkpt>
      <trkpt lat="49.77703" lon="5.2829">
        <ele>363.79998779297</ele>
        <time>2022-06-11T07:55:15.000Z</time>
      </trkpt>
      <trkpt lat="49.77708" lon="5.28285">
        <ele>363.60000610352</ele>
        <time>2022-06-11T07:55:16.000Z</time>
      </trkpt>
      <trkpt lat="49.77713" lon="5.2828">
        <ele>363.39999389648</ele>
        <time>2022-06-11T07:55:17.000Z</time>
      </trkpt>
      <trkpt lat="49.77727" lon="5.28278">
        <ele>364.60000610352</ele>
        <time>2022-06-11T07:55:20.000Z</time>
      </trkpt>
      <trkpt lat="49.77732" lon="5.28279">
        <ele>365.39999389648</ele>
        <time>2022-06-11T07:55:21.000Z</time>
      </trkpt>
      <trkpt lat="49.77745" lon="5.28283">
        <ele>367.79998779297</ele>
        <time>2022-06-11T07:55:23.000Z</time>
      </trkpt>
      <trkpt lat="49.77752" lon="5.28283">
        <ele>368.79998779297</ele>
        <time>2022-06-11T07:55:24.000Z</time>
      </trkpt>
      <trkpt lat="49.77759" lon="5.28282">
        <ele>369.39999389648</ele>
        <time>2022-06-11T07:55:25.000Z</time>
      </trkpt>
      <trkpt lat="49.7777" lon="5.28275">
        <ele>368.60000610352</ele>
        <time>2022-06-11T07:55:27.000Z</time>
      </trkpt>
      <trkpt lat="49.77782" lon="5.28275">
        <ele>369.20001220703</ele>
        <time>2022-06-11T07:55:30.000Z</time>
      </trkpt>
      <trkpt lat="49.77784" lon="5.28276">
        <ele>369.20001220703</ele>
        <time>2022-06-11T07:55:31.000Z</time>
      </trkpt>
      <trkpt lat="49.7779" lon="5.28282">
        <ele>370</ele>
        <time>2022-06-11T07:55:33.000Z</time>
      </trkpt>
      <trkpt lat="49.77792" lon="5.28285">
        <ele>370.20001220703</ele>
        <time>2022-06-11T07:55:34.000Z</time>
      </trkpt>
      <trkpt lat="49.77796" lon="5.2829">
        <ele>370.60000610352</ele>
        <time>2022-06-11T07:55:35.000Z</time>
      </trkpt>
      <trkpt lat="49.77811" lon="5.28307">
        <ele>372.20001220703</ele>
        <time>2022-06-11T07:55:39.000Z</time>
      </trkpt>
      <trkpt lat="49.77823" lon="5.2832">
        <ele>374</ele>
        <time>2022-06-11T07:55:42.000Z</time>
      </trkpt>
      <trkpt lat="49.77834" lon="5.28329">
        <ele>375.79998779297</ele>
        <time>2022-06-11T07:55:45.000Z</time>
      </trkpt>
      <trkpt lat="49.77849" lon="5.28346">
        <ele>377.20001220703</ele>
        <time>2022-06-11T07:55:50.000Z</time>
      </trkpt>
      <trkpt lat="49.77855" lon="5.28355">
        <ele>377.60000610352</ele>
        <time>2022-06-11T07:55:52.000Z</time>
      </trkpt>
      <trkpt lat="49.77863" lon="5.28364">
        <ele>378</ele>
        <time>2022-06-11T07:55:55.000Z</time>
      </trkpt>
      <trkpt lat="49.77865" lon="5.28367">
        <ele>378.20001220703</ele>
        <time>2022-06-11T07:55:56.000Z</time>
      </trkpt>
      <trkpt lat="49.77875" lon="5.28383">
        <ele>378</ele>
        <time>2022-06-11T07:56:00.000Z</time>
      </trkpt>
      <trkpt lat="49.77878" lon="5.28387">
        <ele>378.20001220703</ele>
        <time>2022-06-11T07:56:01.000Z</time>
      </trkpt>
      <trkpt lat="49.77883" lon="5.28396">
        <ele>378.39999389648</ele>
        <time>2022-06-11T07:56:04.000Z</time>
      </trkpt>
      <trkpt lat="49.77889" lon="5.28404">
        <ele>378.79998779297</ele>
        <time>2022-06-11T07:56:06.000Z</time>
      </trkpt>
      <trkpt lat="49.77891" lon="5.28409">
        <ele>379</ele>
        <time>2022-06-11T07:56:07.000Z</time>
      </trkpt>
      <trkpt lat="49.77896" lon="5.28417">
        <ele>379.39999389648</ele>
        <time>2022-06-11T07:56:09.000Z</time>
      </trkpt>
      <trkpt lat="49.77901" lon="5.28428">
        <ele>380.39999389648</ele>
        <time>2022-06-11T07:56:12.000Z</time>
      </trkpt>
      <trkpt lat="49.77907" lon="5.28442">
        <ele>381.79998779297</ele>
        <time>2022-06-11T07:56:15.000Z</time>
      </trkpt>
      <trkpt lat="49.77912" lon="5.2846">
        <ele>384.20001220703</ele>
        <time>2022-06-11T07:56:19.000Z</time>
      </trkpt>
      <trkpt lat="49.77916" lon="5.28473">
        <ele>386</ele>
        <time>2022-06-11T07:56:22.000Z</time>
      </trkpt>
      <trkpt lat="49.77922" lon="5.28489">
        <ele>388.39999389648</ele>
        <time>2022-06-11T07:56:26.000Z</time>
      </trkpt>
      <trkpt lat="49.77929" lon="5.28507">
        <ele>391</ele>
        <time>2022-06-11T07:56:30.000Z</time>
      </trkpt>
      <trkpt lat="49.77933" lon="5.28518">
        <ele>392.60000610352</ele>
        <time>2022-06-11T07:56:33.000Z</time>
      </trkpt>
      <trkpt lat="49.77935" lon="5.28523">
        <ele>393.39999389648</ele>
        <time>2022-06-11T07:56:34.000Z</time>
      </trkpt>
      <trkpt lat="49.77938" lon="5.28532">
        <ele>394</ele>
        <time>2022-06-11T07:56:36.000Z</time>
      </trkpt>
      <trkpt lat="49.77942" lon="5.28545">
        <ele>395.79998779297</ele>
        <time>2022-06-11T07:56:39.000Z</time>
      </trkpt>
      <trkpt lat="49.77945" lon="5.28553">
        <ele>396.60000610352</ele>
        <time>2022-06-11T07:56:41.000Z</time>
      </trkpt>
      <trkpt lat="49.77946" lon="5.28558">
        <ele>396.79998779297</ele>
        <time>2022-06-11T07:56:42.000Z</time>
      </trkpt>
      <trkpt lat="49.77949" lon="5.2857">
        <ele>397.60000610352</ele>
        <time>2022-06-11T07:56:45.000Z</time>
      </trkpt>
      <trkpt lat="49.77951" lon="5.28578">
        <ele>398.20001220703</ele>
        <time>2022-06-11T07:56:47.000Z</time>
      </trkpt>
      <trkpt lat="49.77954" lon="5.28586">
        <ele>398.39999389648</ele>
        <time>2022-06-11T07:56:49.000Z</time>
      </trkpt>
      <trkpt lat="49.77956" lon="5.28597">
        <ele>399</ele>
        <time>2022-06-11T07:56:52.000Z</time>
      </trkpt>
      <trkpt lat="49.77958" lon="5.28604">
        <ele>399.39999389648</ele>
        <time>2022-06-11T07:56:54.000Z</time>
      </trkpt>
      <trkpt lat="49.77957" lon="5.28618">
        <ele>401</ele>
        <time>2022-06-11T07:56:57.000Z</time>
      </trkpt>
      <trkpt lat="49.77956" lon="5.28636">
        <ele>403.60000610352</ele>
        <time>2022-06-11T07:57:01.000Z</time>
      </trkpt>
      <trkpt lat="49.77955" lon="5.2864">
        <ele>404.20001220703</ele>
        <time>2022-06-11T07:57:02.000Z</time>
      </trkpt>
      <trkpt lat="49.77955" lon="5.28653">
        <ele>406.20001220703</ele>
        <time>2022-06-11T07:57:05.000Z</time>
      </trkpt>
      <trkpt lat="49.77956" lon="5.28669">
        <ele>407.79998779297</ele>
        <time>2022-06-11T07:57:09.000Z</time>
      </trkpt>
      <trkpt lat="49.77957" lon="5.28681">
        <ele>408.39999389648</ele>
        <time>2022-06-11T07:57:12.000Z</time>
      </trkpt>
      <trkpt lat="49.77959" lon="5.28689">
        <ele>408.60000610352</ele>
        <time>2022-06-11T07:57:14.000Z</time>
      </trkpt>
      <trkpt lat="49.77958" lon="5.28691">
        <ele>408.79998779297</ele>
        <time>2022-06-11T07:57:15.000Z</time>
      </trkpt>
      <trkpt lat="49.77959" lon="5.28701">
        <ele>409.39999389648</ele>
        <time>2022-06-11T07:57:18.000Z</time>
      </trkpt>
      <trkpt lat="49.77961" lon="5.28714">
        <ele>410</ele>
        <time>2022-06-11T07:57:21.000Z</time>
      </trkpt>
      <trkpt lat="49.77961" lon="5.28719">
        <ele>410.39999389648</ele>
        <time>2022-06-11T07:57:22.000Z</time>
      </trkpt>
      <trkpt lat="49.77959" lon="5.28745">
        <ele>411.79998779297</ele>
        <time>2022-06-11T07:57:27.000Z</time>
      </trkpt>
      <trkpt lat="49.77957" lon="5.28759">
        <ele>412</ele>
        <time>2022-06-11T07:57:29.000Z</time>
      </trkpt>
      <trkpt lat="49.77956" lon="5.28775">
        <ele>412.39999389648</ele>
        <time>2022-06-11T07:57:31.000Z</time>
      </trkpt>
      <trkpt lat="49.77958" lon="5.28795">
        <ele>412.79998779297</ele>
        <time>2022-06-11T07:57:34.000Z</time>
      </trkpt>
      <trkpt lat="49.77959" lon="5.28801">
        <ele>413</ele>
        <time>2022-06-11T07:57:35.000Z</time>
      </trkpt>
      <trkpt lat="49.77965" lon="5.28829">
        <ele>413.79998779297</ele>
        <time>2022-06-11T07:57:39.000Z</time>
      </trkpt>
      <trkpt lat="49.77966" lon="5.28843">
        <ele>414.60000610352</ele>
        <time>2022-06-11T07:57:41.000Z</time>
      </trkpt>
      <trkpt lat="49.77967" lon="5.28851">
        <ele>415</ele>
        <time>2022-06-11T07:57:42.000Z</time>
      </trkpt>
      <trkpt lat="49.77971" lon="5.28869">
        <ele>416</ele>
        <time>2022-06-11T07:57:45.000Z</time>
      </trkpt>
      <trkpt lat="49.77975" lon="5.28881">
        <ele>416.60000610352</ele>
        <time>2022-06-11T07:57:47.000Z</time>
      </trkpt>
      <trkpt lat="49.77977" lon="5.28888">
        <ele>417</ele>
        <time>2022-06-11T07:57:48.000Z</time>
      </trkpt>
      <trkpt lat="49.77988" lon="5.28913">
        <ele>419.20001220703</ele>
        <time>2022-06-11T07:57:51.000Z</time>
      </trkpt>
      <trkpt lat="49.77991" lon="5.28921">
        <ele>420.20001220703</ele>
        <time>2022-06-11T07:57:52.000Z</time>
      </trkpt>
      <trkpt lat="49.78" lon="5.2894">
        <ele>421.79998779297</ele>
        <time>2022-06-11T07:57:55.000Z</time>
      </trkpt>
      <trkpt lat="49.78011" lon="5.28957">
        <ele>424.20001220703</ele>
        <time>2022-06-11T07:57:59.000Z</time>
      </trkpt>
      <trkpt lat="49.7802" lon="5.28967">
        <ele>426</ele>
        <time>2022-06-11T07:58:02.000Z</time>
      </trkpt>
      <trkpt lat="49.7803" lon="5.28972">
        <ele>427</ele>
        <time>2022-06-11T07:58:05.000Z</time>
      </trkpt>
      <trkpt lat="49.78037" lon="5.28973">
        <ele>427.79998779297</ele>
        <time>2022-06-11T07:58:07.000Z</time>
      </trkpt>
      <trkpt lat="49.78048" lon="5.28974">
        <ele>429.60000610352</ele>
        <time>2022-06-11T07:58:10.000Z</time>
      </trkpt>
      <trkpt lat="49.78052" lon="5.28975">
        <ele>430.20001220703</ele>
        <time>2022-06-11T07:58:11.000Z</time>
      </trkpt>
      <trkpt lat="49.78059" lon="5.28975">
        <ele>431.60000610352</ele>
        <time>2022-06-11T07:58:13.000Z</time>
      </trkpt>
      <trkpt lat="49.78071" lon="5.28975">
        <ele>433.60000610352</ele>
        <time>2022-06-11T07:58:16.000Z</time>
      </trkpt>
      <trkpt lat="49.78082" lon="5.28976">
        <ele>435.39999389648</ele>
        <time>2022-06-11T07:58:19.000Z</time>
      </trkpt>
      <trkpt lat="49.78086" lon="5.28977">
        <ele>436</ele>
        <time>2022-06-11T07:58:20.000Z</time>
      </trkpt>
      <trkpt lat="49.78098" lon="5.28978">
        <ele>437</ele>
        <time>2022-06-11T07:58:23.000Z</time>
      </trkpt>
      <trkpt lat="49.78114" lon="5.28979">
        <ele>437.60000610352</ele>
        <time>2022-06-11T07:58:27.000Z</time>
      </trkpt>
      <trkpt lat="49.78123" lon="5.2898">
        <ele>437.79998779297</ele>
        <time>2022-06-11T07:58:29.000Z</time>
      </trkpt>
      <trkpt lat="49.78127" lon="5.2898">
        <ele>437.79998779297</ele>
        <time>2022-06-11T07:58:30.000Z</time>
      </trkpt>
      <trkpt lat="49.78145" lon="5.28982">
        <ele>437.20001220703</ele>
        <time>2022-06-11T07:58:34.000Z</time>
      </trkpt>
      <trkpt lat="49.78163" lon="5.28982">
        <ele>436</ele>
        <time>2022-06-11T07:58:38.000Z</time>
      </trkpt>
      <trkpt lat="49.78167" lon="5.28983">
        <ele>436</ele>
        <time>2022-06-11T07:58:39.000Z</time>
      </trkpt>
      <trkpt lat="49.78184" lon="5.28984">
        <ele>435.60000610352</ele>
        <time>2022-06-11T07:58:43.000Z</time>
      </trkpt>
      <trkpt lat="49.78192" lon="5.28986">
        <ele>435.39999389648</ele>
        <time>2022-06-11T07:58:45.000Z</time>
      </trkpt>
      <trkpt lat="49.78197" lon="5.28986">
        <ele>435.20001220703</ele>
        <time>2022-06-11T07:58:46.000Z</time>
      </trkpt>
      <trkpt lat="49.78201" lon="5.28985">
        <ele>435</ele>
        <time>2022-06-11T07:58:47.000Z</time>
      </trkpt>
      <trkpt lat="49.78206" lon="5.28977">
        <ele>434.79998779297</ele>
        <time>2022-06-11T07:58:49.000Z</time>
      </trkpt>
      <trkpt lat="49.7821" lon="5.28959">
        <ele>434.79998779297</ele>
        <time>2022-06-11T07:58:52.000Z</time>
      </trkpt>
      <trkpt lat="49.78211" lon="5.28952">
        <ele>434.60000610352</ele>
        <time>2022-06-11T07:58:53.000Z</time>
      </trkpt>
      <trkpt lat="49.78212" lon="5.28945">
        <ele>434.79998779297</ele>
        <time>2022-06-11T07:58:54.000Z</time>
      </trkpt>
      <trkpt lat="49.78224" lon="5.28899">
        <ele>436.20001220703</ele>
        <time>2022-06-11T07:59:00.000Z</time>
      </trkpt>
      <trkpt lat="49.78229" lon="5.28865">
        <ele>436.60000610352</ele>
        <time>2022-06-11T07:59:04.000Z</time>
      </trkpt>
      <trkpt lat="49.78231" lon="5.28849">
        <ele>436.79998779297</ele>
        <time>2022-06-11T07:59:06.000Z</time>
      </trkpt>
      <trkpt lat="49.78231" lon="5.28841">
        <ele>436.39999389648</ele>
        <time>2022-06-11T07:59:07.000Z</time>
      </trkpt>
      <trkpt lat="49.7823" lon="5.28806">
        <ele>436</ele>
        <time>2022-06-11T07:59:11.000Z</time>
      </trkpt>
      <trkpt lat="49.78231" lon="5.28738">
        <ele>437.20001220703</ele>
        <time>2022-06-11T07:59:19.000Z</time>
      </trkpt>
      <trkpt lat="49.78242" lon="5.2867">
        <ele>438.60000610352</ele>
        <time>2022-06-11T07:59:27.000Z</time>
      </trkpt>
      <trkpt lat="49.78254" lon="5.28628">
        <ele>439</ele>
        <time>2022-06-11T07:59:32.000Z</time>
      </trkpt>
      <trkpt lat="49.78257" lon="5.28611">
        <ele>439</ele>
        <time>2022-06-11T07:59:34.000Z</time>
      </trkpt>
      <trkpt lat="49.78274" lon="5.28547">
        <ele>438.79998779297</ele>
        <time>2022-06-11T07:59:41.000Z</time>
      </trkpt>
      <trkpt lat="49.78278" lon="5.2853">
        <ele>438.20001220703</ele>
        <time>2022-06-11T07:59:43.000Z</time>
      </trkpt>
      <trkpt lat="49.7829" lon="5.28481">
        <ele>437.20001220703</ele>
        <time>2022-06-11T07:59:49.000Z</time>
      </trkpt>
      <trkpt lat="49.78297" lon="5.2844">
        <ele>436</ele>
        <time>2022-06-11T07:59:54.000Z</time>
      </trkpt>
      <trkpt lat="49.78299" lon="5.28424">
        <ele>435</ele>
        <time>2022-06-11T07:59:56.000Z</time>
      </trkpt>
      <trkpt lat="49.783" lon="5.28398">
        <ele>434</ele>
        <time>2022-06-11T07:59:59.000Z</time>
      </trkpt>
      <trkpt lat="49.78305" lon="5.28364">
        <ele>432.60000610352</ele>
        <time>2022-06-11T08:00:03.000Z</time>
      </trkpt>
      <trkpt lat="49.78308" lon="5.2834">
        <ele>432</ele>
        <time>2022-06-11T08:00:06.000Z</time>
      </trkpt>
      <trkpt lat="49.78313" lon="5.28308">
        <ele>432</ele>
        <time>2022-06-11T08:00:10.000Z</time>
      </trkpt>
      <trkpt lat="49.78319" lon="5.28268">
        <ele>432.39999389648</ele>
        <time>2022-06-11T08:00:15.000Z</time>
      </trkpt>
      <trkpt lat="49.78322" lon="5.2826">
        <ele>432.60000610352</ele>
        <time>2022-06-11T08:00:16.000Z</time>
      </trkpt>
      <trkpt lat="49.78334" lon="5.28203">
        <ele>432.20001220703</ele>
        <time>2022-06-11T08:00:22.000Z</time>
      </trkpt>
      <trkpt lat="49.78353" lon="5.28135">
        <ele>430.60000610352</ele>
        <time>2022-06-11T08:00:29.000Z</time>
      </trkpt>
      <trkpt lat="49.78355" lon="5.28125">
        <ele>430.20001220703</ele>
        <time>2022-06-11T08:00:30.000Z</time>
      </trkpt>
      <trkpt lat="49.78362" lon="5.28096">
        <ele>429.20001220703</ele>
        <time>2022-06-11T08:00:33.000Z</time>
      </trkpt>
      <trkpt lat="49.78365" lon="5.28075">
        <ele>429</ele>
        <time>2022-06-11T08:00:35.000Z</time>
      </trkpt>
      <trkpt lat="49.78367" lon="5.28043">
        <ele>428</ele>
        <time>2022-06-11T08:00:38.000Z</time>
      </trkpt>
      <trkpt lat="49.78367" lon="5.28022">
        <ele>428</ele>
        <time>2022-06-11T08:00:40.000Z</time>
      </trkpt>
      <trkpt lat="49.78367" lon="5.2801">
        <ele>428</ele>
        <time>2022-06-11T08:00:41.000Z</time>
      </trkpt>
      <trkpt lat="49.78366" lon="5.27999">
        <ele>428</ele>
        <time>2022-06-11T08:00:42.000Z</time>
      </trkpt>
      <trkpt lat="49.78366" lon="5.27988">
        <ele>427.79998779297</ele>
        <time>2022-06-11T08:00:43.000Z</time>
      </trkpt>
      <trkpt lat="49.78365" lon="5.27976">
        <ele>427.39999389648</ele>
        <time>2022-06-11T08:00:44.000Z</time>
      </trkpt>
      <trkpt lat="49.78363" lon="5.27952">
        <ele>426.20001220703</ele>
        <time>2022-06-11T08:00:46.000Z</time>
      </trkpt>
      <trkpt lat="49.78362" lon="5.2793">
        <ele>425.39999389648</ele>
        <time>2022-06-11T08:00:48.000Z</time>
      </trkpt>
      <trkpt lat="49.78362" lon="5.27921">
        <ele>424.79998779297</ele>
        <time>2022-06-11T08:00:49.000Z</time>
      </trkpt>
      <trkpt lat="49.78362" lon="5.27914">
        <ele>424.20001220703</ele>
        <time>2022-06-11T08:00:50.000Z</time>
      </trkpt>
      <trkpt lat="49.78363" lon="5.27909">
        <ele>424</ele>
        <time>2022-06-11T08:00:51.000Z</time>
      </trkpt>
      <trkpt lat="49.78365" lon="5.27905">
        <ele>423.79998779297</ele>
        <time>2022-06-11T08:00:52.000Z</time>
      </trkpt>
      <trkpt lat="49.78371" lon="5.27909">
        <ele>424</ele>
        <time>2022-06-11T08:00:56.000Z</time>
      </trkpt>
      <trkpt lat="49.78382" lon="5.27926">
        <ele>423.79998779297</ele>
        <time>2022-06-11T08:01:00.000Z</time>
      </trkpt>
      <trkpt lat="49.78386" lon="5.27939">
        <ele>424.20001220703</ele>
        <time>2022-06-11T08:01:02.000Z</time>
      </trkpt>
      <trkpt lat="49.78394" lon="5.27967">
        <ele>425.20001220703</ele>
        <time>2022-06-11T08:01:06.000Z</time>
      </trkpt>
      <trkpt lat="49.78401" lon="5.27988">
        <ele>425.60000610352</ele>
        <time>2022-06-11T08:01:09.000Z</time>
      </trkpt>
      <trkpt lat="49.7841" lon="5.28013">
        <ele>426</ele>
        <time>2022-06-11T08:01:12.000Z</time>
      </trkpt>
      <trkpt lat="49.78431" lon="5.28069">
        <ele>426.79998779297</ele>
        <time>2022-06-11T08:01:19.000Z</time>
      </trkpt>
      <trkpt lat="49.78435" lon="5.28085">
        <ele>427</ele>
        <time>2022-06-11T08:01:21.000Z</time>
      </trkpt>
      <trkpt lat="49.78444" lon="5.28107">
        <ele>427</ele>
        <time>2022-06-11T08:01:24.000Z</time>
      </trkpt>
      <trkpt lat="49.78458" lon="5.28123">
        <ele>426.39999389648</ele>
        <time>2022-06-11T08:01:27.000Z</time>
      </trkpt>
      <trkpt lat="49.78482" lon="5.28136">
        <ele>426</ele>
        <time>2022-06-11T08:01:31.000Z</time>
      </trkpt>
      <trkpt lat="49.78489" lon="5.28141">
        <ele>426.20001220703</ele>
        <time>2022-06-11T08:01:32.000Z</time>
      </trkpt>
      <trkpt lat="49.78507" lon="5.28159">
        <ele>427</ele>
        <time>2022-06-11T08:01:35.000Z</time>
      </trkpt>
      <trkpt lat="49.78513" lon="5.28167">
        <ele>427.20001220703</ele>
        <time>2022-06-11T08:01:36.000Z</time>
      </trkpt>
      <trkpt lat="49.7853" lon="5.28186">
        <ele>427.79998779297</ele>
        <time>2022-06-11T08:01:39.000Z</time>
      </trkpt>
      <trkpt lat="49.78556" lon="5.28217">
        <ele>426.60000610352</ele>
        <time>2022-06-11T08:01:44.000Z</time>
      </trkpt>
      <trkpt lat="49.78572" lon="5.28235">
        <ele>425.60000610352</ele>
        <time>2022-06-11T08:01:47.000Z</time>
      </trkpt>
      <trkpt lat="49.78587" lon="5.28252">
        <ele>424.79998779297</ele>
        <time>2022-06-11T08:01:50.000Z</time>
      </trkpt>
      <trkpt lat="49.78596" lon="5.28261">
        <ele>424.39999389648</ele>
        <time>2022-06-11T08:01:52.000Z</time>
      </trkpt>
      <trkpt lat="49.78605" lon="5.28262">
        <ele>424.60000610352</ele>
        <time>2022-06-11T08:01:54.000Z</time>
      </trkpt>
      <trkpt lat="49.78611" lon="5.28247">
        <ele>425.20001220703</ele>
        <time>2022-06-11T08:01:57.000Z</time>
      </trkpt>
      <trkpt lat="49.78615" lon="5.28227">
        <ele>426.39999389648</ele>
        <time>2022-06-11T08:02:00.000Z</time>
      </trkpt>
      <trkpt lat="49.78618" lon="5.28212">
        <ele>427.20001220703</ele>
        <time>2022-06-11T08:02:02.000Z</time>
      </trkpt>
      <trkpt lat="49.78619" lon="5.28204">
        <ele>427</ele>
        <time>2022-06-11T08:02:03.000Z</time>
      </trkpt>
      <trkpt lat="49.78628" lon="5.28152">
        <ele>427</ele>
        <time>2022-06-11T08:02:09.000Z</time>
      </trkpt>
      <trkpt lat="49.78637" lon="5.28096">
        <ele>421.79998779297</ele>
        <time>2022-06-11T08:02:14.000Z</time>
      </trkpt>
      <trkpt lat="49.78639" lon="5.28083">
        <ele>420.20001220703</ele>
        <time>2022-06-11T08:02:15.000Z</time>
      </trkpt>
      <trkpt lat="49.78642" lon="5.28055">
        <ele>417</ele>
        <time>2022-06-11T08:02:17.000Z</time>
      </trkpt>
      <trkpt lat="49.78644" lon="5.28041">
        <ele>416</ele>
        <time>2022-06-11T08:02:18.000Z</time>
      </trkpt>
      <trkpt lat="49.78645" lon="5.28027">
        <ele>415.20001220703</ele>
        <time>2022-06-11T08:02:19.000Z</time>
      </trkpt>
      <trkpt lat="49.78647" lon="5.28014">
        <ele>414.39999389648</ele>
        <time>2022-06-11T08:02:20.000Z</time>
      </trkpt>
      <trkpt lat="49.7865" lon="5.28001">
        <ele>413.20001220703</ele>
        <time>2022-06-11T08:02:21.000Z</time>
      </trkpt>
      <trkpt lat="49.78654" lon="5.27978">
        <ele>412.79998779297</ele>
        <time>2022-06-11T08:02:23.000Z</time>
      </trkpt>
      <trkpt lat="49.78656" lon="5.27967">
        <ele>412.60000610352</ele>
        <time>2022-06-11T08:02:24.000Z</time>
      </trkpt>
      <trkpt lat="49.78666" lon="5.27922">
        <ele>412</ele>
        <time>2022-06-11T08:02:29.000Z</time>
      </trkpt>
      <trkpt lat="49.78669" lon="5.27914">
        <ele>412</ele>
        <time>2022-06-11T08:02:30.000Z</time>
      </trkpt>
      <trkpt lat="49.78678" lon="5.2788">
        <ele>410.79998779297</ele>
        <time>2022-06-11T08:02:34.000Z</time>
      </trkpt>
      <trkpt lat="49.78681" lon="5.27863">
        <ele>410</ele>
        <time>2022-06-11T08:02:36.000Z</time>
      </trkpt>
      <trkpt lat="49.78685" lon="5.27849">
        <ele>409.79998779297</ele>
        <time>2022-06-11T08:02:38.000Z</time>
      </trkpt>
      <trkpt lat="49.78687" lon="5.27841">
        <ele>409.60000610352</ele>
        <time>2022-06-11T08:02:39.000Z</time>
      </trkpt>
      <trkpt lat="49.78688" lon="5.2782">
        <ele>409</ele>
        <time>2022-06-11T08:02:42.000Z</time>
      </trkpt>
      <trkpt lat="49.78688" lon="5.27814">
        <ele>409</ele>
        <time>2022-06-11T08:02:43.000Z</time>
      </trkpt>
      <trkpt lat="49.78687" lon="5.2778">
        <ele>408</ele>
        <time>2022-06-11T08:02:48.000Z</time>
      </trkpt>
      <trkpt lat="49.78687" lon="5.27767">
        <ele>407.60000610352</ele>
        <time>2022-06-11T08:02:50.000Z</time>
      </trkpt>
      <trkpt lat="49.78688" lon="5.27743">
        <ele>405.79998779297</ele>
        <time>2022-06-11T08:02:53.000Z</time>
      </trkpt>
      <trkpt lat="49.78689" lon="5.27726">
        <ele>403.60000610352</ele>
        <time>2022-06-11T08:02:55.000Z</time>
      </trkpt>
      <trkpt lat="49.78691" lon="5.2771">
        <ele>402.20001220703</ele>
        <time>2022-06-11T08:02:57.000Z</time>
      </trkpt>
      <trkpt lat="49.78694" lon="5.27697">
        <ele>401</ele>
        <time>2022-06-11T08:02:59.000Z</time>
      </trkpt>
      <trkpt lat="49.78694" lon="5.27691">
        <ele>400.39999389648</ele>
        <time>2022-06-11T08:03:00.000Z</time>
      </trkpt>
      <trkpt lat="49.78698" lon="5.27663">
        <ele>397.60000610352</ele>
        <time>2022-06-11T08:03:04.000Z</time>
      </trkpt>
      <trkpt lat="49.787" lon="5.27657">
        <ele>397.39999389648</ele>
        <time>2022-06-11T08:03:05.000Z</time>
      </trkpt>
      <trkpt lat="49.78702" lon="5.2765">
        <ele>397.20001220703</ele>
        <time>2022-06-11T08:03:06.000Z</time>
      </trkpt>
      <trkpt lat="49.78707" lon="5.2764">
        <ele>396.79998779297</ele>
        <time>2022-06-11T08:03:08.000Z</time>
      </trkpt>
      <trkpt lat="49.78713" lon="5.27634">
        <ele>397.20001220703</ele>
        <time>2022-06-11T08:03:10.000Z</time>
      </trkpt>
      <trkpt lat="49.78718" lon="5.2763">
        <ele>397.60000610352</ele>
        <time>2022-06-11T08:03:12.000Z</time>
      </trkpt>
      <trkpt lat="49.78725" lon="5.27624">
        <ele>398</ele>
        <time>2022-06-11T08:03:38.000Z</time>
      </trkpt>
      <trkpt lat="49.78736" lon="5.27625">
        <ele>398</ele>
        <time>2022-06-11T08:03:41.000Z</time>
      </trkpt>
      <trkpt lat="49.78742" lon="5.27628">
        <ele>397.79998779297</ele>
        <time>2022-06-11T08:03:43.000Z</time>
      </trkpt>
      <trkpt lat="49.78748" lon="5.27637">
        <ele>398</ele>
        <time>2022-06-11T08:03:45.000Z</time>
      </trkpt>
      <trkpt lat="49.78751" lon="5.27639">
        <ele>398</ele>
        <time>2022-06-11T08:03:46.000Z</time>
      </trkpt>
      <trkpt lat="49.78757" lon="5.2764">
        <ele>397.60000610352</ele>
        <time>2022-06-11T08:03:48.000Z</time>
      </trkpt>
      <trkpt lat="49.7876" lon="5.27641">
        <ele>397.20001220703</ele>
        <time>2022-06-11T08:03:49.000Z</time>
      </trkpt>
      <trkpt lat="49.78762" lon="5.27641">
        <ele>396.60000610352</ele>
        <time>2022-06-11T08:03:50.000Z</time>
      </trkpt>
      <trkpt lat="49.78773" lon="5.27641">
        <ele>394.39999389648</ele>
        <time>2022-06-11T08:03:53.000Z</time>
      </trkpt>
      <trkpt lat="49.78778" lon="5.27642">
        <ele>393.39999389648</ele>
        <time>2022-06-11T08:03:54.000Z</time>
      </trkpt>
      <trkpt lat="49.78787" lon="5.27639">
        <ele>391.20001220703</ele>
        <time>2022-06-11T08:03:56.000Z</time>
      </trkpt>
      <trkpt lat="49.78795" lon="5.27632">
        <ele>388.39999389648</ele>
        <time>2022-06-11T08:03:58.000Z</time>
      </trkpt>
      <trkpt lat="49.78799" lon="5.27627">
        <ele>386.79998779297</ele>
        <time>2022-06-11T08:03:59.000Z</time>
      </trkpt>
      <trkpt lat="49.78806" lon="5.27616">
        <ele>384.60000610352</ele>
        <time>2022-06-11T08:04:01.000Z</time>
      </trkpt>
      <trkpt lat="49.78812" lon="5.27605">
        <ele>383.20001220703</ele>
        <time>2022-06-11T08:04:03.000Z</time>
      </trkpt>
      <trkpt lat="49.78816" lon="5.27599">
        <ele>381.60000610352</ele>
        <time>2022-06-11T08:04:04.000Z</time>
      </trkpt>
      <trkpt lat="49.7882" lon="5.27593">
        <ele>379.79998779297</ele>
        <time>2022-06-11T08:04:05.000Z</time>
      </trkpt>
      <trkpt lat="49.78823" lon="5.27587">
        <ele>378</ele>
        <time>2022-06-11T08:04:06.000Z</time>
      </trkpt>
      <trkpt lat="49.78826" lon="5.27581">
        <ele>376.79998779297</ele>
        <time>2022-06-11T08:04:07.000Z</time>
      </trkpt>
      <trkpt lat="49.7883" lon="5.27574">
        <ele>375.60000610352</ele>
        <time>2022-06-11T08:04:08.000Z</time>
      </trkpt>
      <trkpt lat="49.78832" lon="5.27568">
        <ele>374.39999389648</ele>
        <time>2022-06-11T08:04:09.000Z</time>
      </trkpt>
      <trkpt lat="49.78834" lon="5.27561">
        <ele>373.60000610352</ele>
        <time>2022-06-11T08:04:10.000Z</time>
      </trkpt>
      <trkpt lat="49.78835" lon="5.27547">
        <ele>372.39999389648</ele>
        <time>2022-06-11T08:04:12.000Z</time>
      </trkpt>
      <trkpt lat="49.78835" lon="5.27541">
        <ele>371.79998779297</ele>
        <time>2022-06-11T08:04:13.000Z</time>
      </trkpt>
      <trkpt lat="49.78835" lon="5.27534">
        <ele>371.60000610352</ele>
        <time>2022-06-11T08:04:14.000Z</time>
      </trkpt>
      <trkpt lat="49.78832" lon="5.27522">
        <ele>371.60000610352</ele>
        <time>2022-06-11T08:04:16.000Z</time>
      </trkpt>
      <trkpt lat="49.78831" lon="5.27517">
        <ele>371.39999389648</ele>
        <time>2022-06-11T08:04:17.000Z</time>
      </trkpt>
      <trkpt lat="49.78829" lon="5.27511">
        <ele>371</ele>
        <time>2022-06-11T08:04:18.000Z</time>
      </trkpt>
      <trkpt lat="49.78825" lon="5.27498">
        <ele>371</ele>
        <time>2022-06-11T08:04:20.000Z</time>
      </trkpt>
      <trkpt lat="49.78819" lon="5.27483">
        <ele>369.39999389648</ele>
        <time>2022-06-11T08:04:22.000Z</time>
      </trkpt>
      <trkpt lat="49.78813" lon="5.27469">
        <ele>367.60000610352</ele>
        <time>2022-06-11T08:04:24.000Z</time>
      </trkpt>
      <trkpt lat="49.78806" lon="5.27457">
        <ele>365.60000610352</ele>
        <time>2022-06-11T08:04:26.000Z</time>
      </trkpt>
      <trkpt lat="49.78803" lon="5.2745">
        <ele>364.60000610352</ele>
        <time>2022-06-11T08:04:27.000Z</time>
      </trkpt>
      <trkpt lat="49.78801" lon="5.27444">
        <ele>363.39999389648</ele>
        <time>2022-06-11T08:04:28.000Z</time>
      </trkpt>
      <trkpt lat="49.78799" lon="5.27428">
        <ele>360.79998779297</ele>
        <time>2022-06-11T08:04:30.000Z</time>
      </trkpt>
      <trkpt lat="49.78799" lon="5.27421">
        <ele>359.60000610352</ele>
        <time>2022-06-11T08:04:31.000Z</time>
      </trkpt>
      <trkpt lat="49.78799" lon="5.27414">
        <ele>358.79998779297</ele>
        <time>2022-06-11T08:04:32.000Z</time>
      </trkpt>
      <trkpt lat="49.78797" lon="5.27408">
        <ele>358.20001220703</ele>
        <time>2022-06-11T08:04:33.000Z</time>
      </trkpt>
      <trkpt lat="49.78795" lon="5.27404">
        <ele>357.60000610352</ele>
        <time>2022-06-11T08:04:34.000Z</time>
      </trkpt>
      <trkpt lat="49.78789" lon="5.27396">
        <ele>356.60000610352</ele>
        <time>2022-06-11T08:04:36.000Z</time>
      </trkpt>
      <trkpt lat="49.7878" lon="5.27391">
        <ele>355.20001220703</ele>
        <time>2022-06-11T08:04:38.000Z</time>
      </trkpt>
      <trkpt lat="49.78774" lon="5.27389">
        <ele>354.39999389648</ele>
        <time>2022-06-11T08:04:39.000Z</time>
      </trkpt>
      <trkpt lat="49.78767" lon="5.27388">
        <ele>353.60000610352</ele>
        <time>2022-06-11T08:04:40.000Z</time>
      </trkpt>
      <trkpt lat="49.7876" lon="5.27387">
        <ele>352.79998779297</ele>
        <time>2022-06-11T08:04:41.000Z</time>
      </trkpt>
      <trkpt lat="49.78754" lon="5.27386">
        <ele>352.39999389648</ele>
        <time>2022-06-11T08:04:42.000Z</time>
      </trkpt>
      <trkpt lat="49.78749" lon="5.27383">
        <ele>351.79998779297</ele>
        <time>2022-06-11T08:04:43.000Z</time>
      </trkpt>
      <trkpt lat="49.78746" lon="5.27379">
        <ele>351.39999389648</ele>
        <time>2022-06-11T08:04:44.000Z</time>
      </trkpt>
      <trkpt lat="49.78746" lon="5.27375">
        <ele>351.20001220703</ele>
        <time>2022-06-11T08:04:45.000Z</time>
      </trkpt>
      <trkpt lat="49.78747" lon="5.2737">
        <ele>351</ele>
        <time>2022-06-11T08:04:46.000Z</time>
      </trkpt>
      <trkpt lat="49.7875" lon="5.27359">
        <ele>349.20001220703</ele>
        <time>2022-06-11T08:04:48.000Z</time>
      </trkpt>
      <trkpt lat="49.78753" lon="5.27354">
        <ele>348.39999389648</ele>
        <time>2022-06-11T08:04:49.000Z</time>
      </trkpt>
      <trkpt lat="49.78759" lon="5.27342">
        <ele>347.20001220703</ele>
        <time>2022-06-11T08:04:51.000Z</time>
      </trkpt>
      <trkpt lat="49.78766" lon="5.27327">
        <ele>346.79998779297</ele>
        <time>2022-06-11T08:04:54.000Z</time>
      </trkpt>
      <trkpt lat="49.78768" lon="5.27323">
        <ele>347.20001220703</ele>
        <time>2022-06-11T08:04:55.000Z</time>
      </trkpt>
      <trkpt lat="49.78771" lon="5.27318">
        <ele>347.39999389648</ele>
        <time>2022-06-11T08:04:56.000Z</time>
      </trkpt>
      <trkpt lat="49.78776" lon="5.27302">
        <ele>346.79998779297</ele>
        <time>2022-06-11T08:04:59.000Z</time>
      </trkpt>
      <trkpt lat="49.78778" lon="5.27297">
        <ele>346.79998779297</ele>
        <time>2022-06-11T08:05:00.000Z</time>
      </trkpt>
      <trkpt lat="49.78783" lon="5.27283">
        <ele>345.39999389648</ele>
        <time>2022-06-11T08:05:02.000Z</time>
      </trkpt>
      <trkpt lat="49.7879" lon="5.27269">
        <ele>344.20001220703</ele>
        <time>2022-06-11T08:05:04.000Z</time>
      </trkpt>
      <trkpt lat="49.78793" lon="5.27261">
        <ele>343.60000610352</ele>
        <time>2022-06-11T08:05:05.000Z</time>
      </trkpt>
      <trkpt lat="49.78796" lon="5.27252">
        <ele>343</ele>
        <time>2022-06-11T08:05:06.000Z</time>
      </trkpt>
      <trkpt lat="49.78804" lon="5.27224">
        <ele>341.60000610352</ele>
        <time>2022-06-11T08:05:09.000Z</time>
      </trkpt>
      <trkpt lat="49.78809" lon="5.27203">
        <ele>340.20001220703</ele>
        <time>2022-06-11T08:05:11.000Z</time>
      </trkpt>
      <trkpt lat="49.78814" lon="5.27189">
        <ele>339.20001220703</ele>
        <time>2022-06-11T08:05:13.000Z</time>
      </trkpt>
      <trkpt lat="49.78821" lon="5.27171">
        <ele>337</ele>
        <time>2022-06-11T08:05:16.000Z</time>
      </trkpt>
      <trkpt lat="49.78823" lon="5.27166">
        <ele>336.60000610352</ele>
        <time>2022-06-11T08:05:17.000Z</time>
      </trkpt>
      <trkpt lat="49.78826" lon="5.27162">
        <ele>336.60000610352</ele>
        <time>2022-06-11T08:05:18.000Z</time>
      </trkpt>
      <trkpt lat="49.7883" lon="5.27154">
        <ele>336.39999389648</ele>
        <time>2022-06-11T08:05:20.000Z</time>
      </trkpt>
      <trkpt lat="49.78836" lon="5.27146">
        <ele>335.39999389648</ele>
        <time>2022-06-11T08:05:22.000Z</time>
      </trkpt>
      <trkpt lat="49.78844" lon="5.27138">
        <ele>334</ele>
        <time>2022-06-11T08:05:24.000Z</time>
      </trkpt>
      <trkpt lat="49.78854" lon="5.27127">
        <ele>332.79998779297</ele>
        <time>2022-06-11T08:05:26.000Z</time>
      </trkpt>
      <trkpt lat="49.78858" lon="5.2712">
        <ele>332</ele>
        <time>2022-06-11T08:05:27.000Z</time>
      </trkpt>
      <trkpt lat="49.78861" lon="5.27112">
        <ele>330</ele>
        <time>2022-06-11T08:05:28.000Z</time>
      </trkpt>
      <trkpt lat="49.78867" lon="5.27095">
        <ele>327</ele>
        <time>2022-06-11T08:05:30.000Z</time>
      </trkpt>
      <trkpt lat="49.78864" lon="5.27062">
        <ele>323.20001220703</ele>
        <time>2022-06-11T08:05:33.000Z</time>
      </trkpt>
      <trkpt lat="49.78862" lon="5.27051">
        <ele>321.79998779297</ele>
        <time>2022-06-11T08:05:34.000Z</time>
      </trkpt>
      <trkpt lat="49.78861" lon="5.27041">
        <ele>322</ele>
        <time>2022-06-11T08:05:35.000Z</time>
      </trkpt>
      <trkpt lat="49.7886" lon="5.27032">
        <ele>322.79998779297</ele>
        <time>2022-06-11T08:05:36.000Z</time>
      </trkpt>
      <trkpt lat="49.78853" lon="5.27006">
        <ele>324.79998779297</ele>
        <time>2022-06-11T08:05:39.000Z</time>
      </trkpt>
      <trkpt lat="49.78848" lon="5.26989">
        <ele>327.20001220703</ele>
        <time>2022-06-11T08:05:41.000Z</time>
      </trkpt>
      <trkpt lat="49.78844" lon="5.26965">
        <ele>328.20001220703</ele>
        <time>2022-06-11T08:05:44.000Z</time>
      </trkpt>
      <trkpt lat="49.78838" lon="5.26938">
        <ele>330</ele>
        <time>2022-06-11T08:05:47.000Z</time>
      </trkpt>
      <trkpt lat="49.78833" lon="5.26915">
        <ele>332</ele>
        <time>2022-06-11T08:05:50.000Z</time>
      </trkpt>
      <trkpt lat="49.78831" lon="5.269">
        <ele>333</ele>
        <time>2022-06-11T08:05:52.000Z</time>
      </trkpt>
      <trkpt lat="49.78833" lon="5.26884">
        <ele>333</ele>
        <time>2022-06-11T08:05:54.000Z</time>
      </trkpt>
      <trkpt lat="49.78835" lon="5.26877">
        <ele>333</ele>
        <time>2022-06-11T08:05:55.000Z</time>
      </trkpt>
      <trkpt lat="49.78846" lon="5.26828">
        <ele>332.60000610352</ele>
        <time>2022-06-11T08:06:01.000Z</time>
      </trkpt>
      <trkpt lat="49.78859" lon="5.26789">
        <ele>328.79998779297</ele>
        <time>2022-06-11T08:06:07.000Z</time>
      </trkpt>
      <trkpt lat="49.78862" lon="5.26778">
        <ele>328.39999389648</ele>
        <time>2022-06-11T08:06:09.000Z</time>
      </trkpt>
      <trkpt lat="49.78862" lon="5.26755">
        <ele>328</ele>
        <time>2022-06-11T08:06:13.000Z</time>
      </trkpt>
      <trkpt lat="49.78857" lon="5.26726">
        <ele>327.60000610352</ele>
        <time>2022-06-11T08:06:17.000Z</time>
      </trkpt>
      <trkpt lat="49.78855" lon="5.2672">
        <ele>327.60000610352</ele>
        <time>2022-06-11T08:06:18.000Z</time>
      </trkpt>
      <trkpt lat="49.78845" lon="5.26692">
        <ele>327.60000610352</ele>
        <time>2022-06-11T08:06:23.000Z</time>
      </trkpt>
      <trkpt lat="49.78843" lon="5.26686">
        <ele>327.39999389648</ele>
        <time>2022-06-11T08:06:24.000Z</time>
      </trkpt>
      <trkpt lat="49.78831" lon="5.26648">
        <ele>328.39999389648</ele>
        <time>2022-06-11T08:06:29.000Z</time>
      </trkpt>
      <trkpt lat="49.78828" lon="5.2664">
        <ele>328.39999389648</ele>
        <time>2022-06-11T08:06:30.000Z</time>
      </trkpt>
      <trkpt lat="49.78821" lon="5.26606">
        <ele>327.39999389648</ele>
        <time>2022-06-11T08:06:34.000Z</time>
      </trkpt>
      <trkpt lat="49.78818" lon="5.2659">
        <ele>324.60000610352</ele>
        <time>2022-06-11T08:06:36.000Z</time>
      </trkpt>
      <trkpt lat="49.78809" lon="5.26541">
        <ele>322</ele>
        <time>2022-06-11T08:06:42.000Z</time>
      </trkpt>
      <trkpt lat="49.78804" lon="5.26502">
        <ele>324.39999389648</ele>
        <time>2022-06-11T08:06:47.000Z</time>
      </trkpt>
      <trkpt lat="49.78802" lon="5.26495">
        <ele>324.79998779297</ele>
        <time>2022-06-11T08:06:48.000Z</time>
      </trkpt>
      <trkpt lat="49.78801" lon="5.26488">
        <ele>325.20001220703</ele>
        <time>2022-06-11T08:06:49.000Z</time>
      </trkpt>
      <trkpt lat="49.78793" lon="5.26444">
        <ele>327</ele>
        <time>2022-06-11T08:06:55.000Z</time>
      </trkpt>
      <trkpt lat="49.7879" lon="5.2643">
        <ele>326.79998779297</ele>
        <time>2022-06-11T08:06:57.000Z</time>
      </trkpt>
      <trkpt lat="49.78789" lon="5.26407">
        <ele>325.20001220703</ele>
        <time>2022-06-11T08:07:00.000Z</time>
      </trkpt>
      <trkpt lat="49.78788" lon="5.26364">
        <ele>321.79998779297</ele>
        <time>2022-06-11T08:07:06.000Z</time>
      </trkpt>
      <trkpt lat="49.78787" lon="5.26357">
        <ele>321.60000610352</ele>
        <time>2022-06-11T08:07:07.000Z</time>
      </trkpt>
      <trkpt lat="49.78782" lon="5.26332">
        <ele>319.79998779297</ele>
        <time>2022-06-11T08:07:11.000Z</time>
      </trkpt>
      <trkpt lat="49.7878" lon="5.26326">
        <ele>319.60000610352</ele>
        <time>2022-06-11T08:07:12.000Z</time>
      </trkpt>
      <trkpt lat="49.78771" lon="5.26303">
        <ele>318.39999389648</ele>
        <time>2022-06-11T08:07:16.000Z</time>
      </trkpt>
      <trkpt lat="49.78768" lon="5.26297">
        <ele>318.20001220703</ele>
        <time>2022-06-11T08:07:17.000Z</time>
      </trkpt>
      <trkpt lat="49.78754" lon="5.26274">
        <ele>317</ele>
        <time>2022-06-11T08:07:22.000Z</time>
      </trkpt>
      <trkpt lat="49.78741" lon="5.2627">
        <ele>317.60000610352</ele>
        <time>2022-06-11T08:07:25.000Z</time>
      </trkpt>
      <trkpt lat="49.78736" lon="5.26269">
        <ele>318</ele>
        <time>2022-06-11T08:07:26.000Z</time>
      </trkpt>
      <trkpt lat="49.78716" lon="5.26265">
        <ele>319</ele>
        <time>2022-06-11T08:07:30.000Z</time>
      </trkpt>
      <trkpt lat="49.78706" lon="5.26263">
        <ele>319.20001220703</ele>
        <time>2022-06-11T08:07:32.000Z</time>
      </trkpt>
      <trkpt lat="49.78683" lon="5.26257">
        <ele>318.79998779297</ele>
        <time>2022-06-11T08:07:37.000Z</time>
      </trkpt>
      <trkpt lat="49.78678" lon="5.26256">
        <ele>318.39999389648</ele>
        <time>2022-06-11T08:07:38.000Z</time>
      </trkpt>
      <trkpt lat="49.78669" lon="5.26255">
        <ele>317.60000610352</ele>
        <time>2022-06-11T08:07:40.000Z</time>
      </trkpt>
      <trkpt lat="49.78652" lon="5.26255">
        <ele>316</ele>
        <time>2022-06-11T08:07:43.000Z</time>
      </trkpt>
      <trkpt lat="49.78647" lon="5.26255">
        <ele>315.60000610352</ele>
        <time>2022-06-11T08:07:44.000Z</time>
      </trkpt>
      <trkpt lat="49.78626" lon="5.26253">
        <ele>314</ele>
        <time>2022-06-11T08:07:48.000Z</time>
      </trkpt>
      <trkpt lat="49.78615" lon="5.26252">
        <ele>313.39999389648</ele>
        <time>2022-06-11T08:07:50.000Z</time>
      </trkpt>
      <trkpt lat="49.78577" lon="5.26246">
        <ele>312</ele>
        <time>2022-06-11T08:07:57.000Z</time>
      </trkpt>
      <trkpt lat="49.78565" lon="5.26243">
        <ele>311.79998779297</ele>
        <time>2022-06-11T08:07:59.000Z</time>
      </trkpt>
      <trkpt lat="49.78548" lon="5.26238">
        <ele>311.20001220703</ele>
        <time>2022-06-11T08:08:02.000Z</time>
      </trkpt>
      <trkpt lat="49.78523" lon="5.26229">
        <ele>310.79998779297</ele>
        <time>2022-06-11T08:08:06.000Z</time>
      </trkpt>
      <trkpt lat="49.78512" lon="5.26222">
        <ele>310.79998779297</ele>
        <time>2022-06-11T08:08:08.000Z</time>
      </trkpt>
      <trkpt lat="49.7849" lon="5.26203">
        <ele>311.20001220703</ele>
        <time>2022-06-11T08:08:12.000Z</time>
      </trkpt>
      <trkpt lat="49.7848" lon="5.26191">
        <ele>310.60000610352</ele>
        <time>2022-06-11T08:08:14.000Z</time>
      </trkpt>
      <trkpt lat="49.78467" lon="5.26175">
        <ele>308.60000610352</ele>
        <time>2022-06-11T08:08:17.000Z</time>
      </trkpt>
      <trkpt lat="49.78459" lon="5.26167">
        <ele>307.60000610352</ele>
        <time>2022-06-11T08:08:19.000Z</time>
      </trkpt>
      <trkpt lat="49.78448" lon="5.26156">
        <ele>307</ele>
        <time>2022-06-11T08:08:22.000Z</time>
      </trkpt>
      <trkpt lat="49.78428" lon="5.26143">
        <ele>307.39999389648</ele>
        <time>2022-06-11T08:08:27.000Z</time>
      </trkpt>
      <trkpt lat="49.78398" lon="5.26124">
        <ele>307.60000610352</ele>
        <time>2022-06-11T08:08:34.000Z</time>
      </trkpt>
      <trkpt lat="49.78367" lon="5.26102">
        <ele>310</ele>
        <time>2022-06-11T08:08:41.000Z</time>
      </trkpt>
      <trkpt lat="49.78345" lon="5.26088">
        <ele>311.79998779297</ele>
        <time>2022-06-11T08:08:46.000Z</time>
      </trkpt>
      <trkpt lat="49.7834" lon="5.26086">
        <ele>312</ele>
        <time>2022-06-11T08:08:47.000Z</time>
      </trkpt>
      <trkpt lat="49.78317" lon="5.26078">
        <ele>311.20001220703</ele>
        <time>2022-06-11T08:08:52.000Z</time>
      </trkpt>
      <trkpt lat="49.78285" lon="5.26073">
        <ele>305.79998779297</ele>
        <time>2022-06-11T08:08:58.000Z</time>
      </trkpt>
      <trkpt lat="49.7828" lon="5.26071">
        <ele>305.20001220703</ele>
        <time>2022-06-11T08:08:59.000Z</time>
      </trkpt>
      <trkpt lat="49.78259" lon="5.26062">
        <ele>303.79998779297</ele>
        <time>2022-06-11T08:09:03.000Z</time>
      </trkpt>
      <trkpt lat="49.78226" lon="5.26049">
        <ele>300.60000610352</ele>
        <time>2022-06-11T08:09:09.000Z</time>
      </trkpt>
      <trkpt lat="49.78215" lon="5.26047">
        <ele>299.39999389648</ele>
        <time>2022-06-11T08:09:11.000Z</time>
      </trkpt>
      <trkpt lat="49.78206" lon="5.26049">
        <ele>298.39999389648</ele>
        <time>2022-06-11T08:09:13.000Z</time>
      </trkpt>
      <trkpt lat="49.7819" lon="5.26056">
        <ele>298.20001220703</ele>
        <time>2022-06-11T08:09:18.000Z</time>
      </trkpt>
      <trkpt lat="49.78181" lon="5.26041">
        <ele>296.79998779297</ele>
        <time>2022-06-11T08:09:22.000Z</time>
      </trkpt>
      <trkpt lat="49.7818" lon="5.26035">
        <ele>296.79998779297</ele>
        <time>2022-06-11T08:09:23.000Z</time>
      </trkpt>
      <trkpt lat="49.78178" lon="5.26028">
        <ele>297</ele>
        <time>2022-06-11T08:09:24.000Z</time>
      </trkpt>
      <trkpt lat="49.78179" lon="5.26011">
        <ele>297.79998779297</ele>
        <time>2022-06-11T08:09:26.000Z</time>
      </trkpt>
      <trkpt lat="49.7818" lon="5.26003">
        <ele>298.39999389648</ele>
        <time>2022-06-11T08:09:27.000Z</time>
      </trkpt>
      <trkpt lat="49.78184" lon="5.25977">
        <ele>301.39999389648</ele>
        <time>2022-06-11T08:09:30.000Z</time>
      </trkpt>
      <trkpt lat="49.78186" lon="5.25961">
        <ele>303.60000610352</ele>
        <time>2022-06-11T08:09:32.000Z</time>
      </trkpt>
      <trkpt lat="49.78193" lon="5.25914">
        <ele>309.60000610352</ele>
        <time>2022-06-11T08:09:39.000Z</time>
      </trkpt>
      <trkpt lat="49.78197" lon="5.25893">
        <ele>311.79998779297</ele>
        <time>2022-06-11T08:09:44.000Z</time>
      </trkpt>
      <trkpt lat="49.78202" lon="5.25895">
        <ele>311.60000610352</ele>
        <time>2022-06-11T08:09:46.000Z</time>
      </trkpt>
      <trkpt lat="49.78204" lon="5.25898">
        <ele>311.20001220703</ele>
        <time>2022-06-11T08:09:47.000Z</time>
      </trkpt>
      <trkpt lat="49.78209" lon="5.25907">
        <ele>310.39999389648</ele>
        <time>2022-06-11T08:09:49.000Z</time>
      </trkpt>
      <trkpt lat="49.78215" lon="5.25916">
        <ele>309.20001220703</ele>
        <time>2022-06-11T08:09:51.000Z</time>
      </trkpt>
      <trkpt lat="49.7822" lon="5.2592">
        <ele>308.39999389648</ele>
        <time>2022-06-11T08:09:52.000Z</time>
      </trkpt>
      <trkpt lat="49.78255" lon="5.25954">
        <ele>303</ele>
        <time>2022-06-11T08:10:00.000Z</time>
      </trkpt>
      <trkpt lat="49.78281" lon="5.2597">
        <ele>303.60000610352</ele>
        <time>2022-06-11T08:10:06.000Z</time>
      </trkpt>
      <trkpt lat="49.78305" lon="5.25984">
        <ele>306.79998779297</ele>
        <time>2022-06-11T08:10:12.000Z</time>
      </trkpt>
      <trkpt lat="49.7832" lon="5.25991">
        <ele>310</ele>
        <time>2022-06-11T08:10:16.000Z</time>
      </trkpt>
      <trkpt lat="49.78327" lon="5.25994">
        <ele>312</ele>
        <time>2022-06-11T08:10:18.000Z</time>
      </trkpt>
      <trkpt lat="49.78338" lon="5.25998">
        <ele>314.39999389648</ele>
        <time>2022-06-11T08:10:21.000Z</time>
      </trkpt>
      <trkpt lat="49.78349" lon="5.26001">
        <ele>314.39999389648</ele>
        <time>2022-06-11T08:10:25.000Z</time>
      </trkpt>
      <trkpt lat="49.78353" lon="5.26001">
        <ele>314.20001220703</ele>
        <time>2022-06-11T08:10:26.000Z</time>
      </trkpt>
      <trkpt lat="49.78374" lon="5.26004">
        <ele>313.20001220703</ele>
        <time>2022-06-11T08:10:32.000Z</time>
      </trkpt>
      <trkpt lat="49.78392" lon="5.26008">
        <ele>310.79998779297</ele>
        <time>2022-06-11T08:10:37.000Z</time>
      </trkpt>
      <trkpt lat="49.78398" lon="5.2601">
        <ele>310</ele>
        <time>2022-06-11T08:10:39.000Z</time>
      </trkpt>
      <trkpt lat="49.78404" lon="5.26012">
        <ele>309.60000610352</ele>
        <time>2022-06-11T08:10:41.000Z</time>
      </trkpt>
      <trkpt lat="49.78417" lon="5.26016">
        <ele>308.60000610352</ele>
        <time>2022-06-11T08:10:45.000Z</time>
      </trkpt>
      <trkpt lat="49.7842" lon="5.26017">
        <ele>308.20001220703</ele>
        <time>2022-06-11T08:10:46.000Z</time>
      </trkpt>
      <trkpt lat="49.78436" lon="5.26028">
        <ele>306.79998779297</ele>
        <time>2022-06-11T08:10:51.000Z</time>
      </trkpt>
      <trkpt lat="49.7844" lon="5.2603">
        <ele>306.79998779297</ele>
        <time>2022-06-11T08:10:52.000Z</time>
      </trkpt>
      <trkpt lat="49.78453" lon="5.26038">
        <ele>306.39999389648</ele>
        <time>2022-06-11T08:10:55.000Z</time>
      </trkpt>
      <trkpt lat="49.78465" lon="5.26045">
        <ele>306.79998779297</ele>
        <time>2022-06-11T08:10:58.000Z</time>
      </trkpt>
      <trkpt lat="49.78468" lon="5.26046">
        <ele>307</ele>
        <time>2022-06-11T08:10:59.000Z</time>
      </trkpt>
      <trkpt lat="49.78486" lon="5.26051">
        <ele>309.39999389648</ele>
        <time>2022-06-11T08:11:04.000Z</time>
      </trkpt>
      <trkpt lat="49.7849" lon="5.26051">
        <ele>310.39999389648</ele>
        <time>2022-06-11T08:11:05.000Z</time>
      </trkpt>
      <trkpt lat="49.78507" lon="5.26054">
        <ele>314.39999389648</ele>
        <time>2022-06-11T08:11:09.000Z</time>
      </trkpt>
      <trkpt lat="49.7851" lon="5.26056">
        <ele>315</ele>
        <time>2022-06-11T08:11:10.000Z</time>
      </trkpt>
      <trkpt lat="49.78513" lon="5.2606">
        <ele>315.39999389648</ele>
        <time>2022-06-11T08:11:11.000Z</time>
      </trkpt>
      <trkpt lat="49.78519" lon="5.26072">
        <ele>315.79998779297</ele>
        <time>2022-06-11T08:11:14.000Z</time>
      </trkpt>
      <trkpt lat="49.7852" lon="5.26079">
        <ele>315.39999389648</ele>
        <time>2022-06-11T08:11:15.000Z</time>
      </trkpt>
      <trkpt lat="49.78522" lon="5.26101">
        <ele>313</ele>
        <time>2022-06-11T08:11:18.000Z</time>
      </trkpt>
      <trkpt lat="49.78527" lon="5.26116">
        <ele>311.60000610352</ele>
        <time>2022-06-11T08:11:20.000Z</time>
      </trkpt>
      <trkpt lat="49.7854" lon="5.26133">
        <ele>312</ele>
        <time>2022-06-11T08:11:23.000Z</time>
      </trkpt>
      <trkpt lat="49.78555" lon="5.26143">
        <ele>313.60000610352</ele>
        <time>2022-06-11T08:11:26.000Z</time>
      </trkpt>
      <trkpt lat="49.78574" lon="5.26148">
        <ele>316</ele>
        <time>2022-06-11T08:11:29.000Z</time>
      </trkpt>
      <trkpt lat="49.7862" lon="5.26167">
        <ele>317.39999389648</ele>
        <time>2022-06-11T08:11:37.000Z</time>
      </trkpt>
      <trkpt lat="49.78653" lon="5.26172">
        <ele>321</ele>
        <time>2022-06-11T08:11:44.000Z</time>
      </trkpt>
      <trkpt lat="49.78669" lon="5.26175">
        <ele>322.39999389648</ele>
        <time>2022-06-11T08:11:47.000Z</time>
      </trkpt>
      <trkpt lat="49.78686" lon="5.26174">
        <ele>323.20001220703</ele>
        <time>2022-06-11T08:11:50.000Z</time>
      </trkpt>
      <trkpt lat="49.78702" lon="5.26168">
        <ele>324.60000610352</ele>
        <time>2022-06-11T08:11:55.000Z</time>
      </trkpt>
      <trkpt lat="49.78725" lon="5.26169">
        <ele>322</ele>
        <time>2022-06-11T08:12:02.000Z</time>
      </trkpt>
      <trkpt lat="49.78746" lon="5.26174">
        <ele>319.39999389648</ele>
        <time>2022-06-11T08:12:07.000Z</time>
      </trkpt>
      <trkpt lat="49.78761" lon="5.26178">
        <ele>317.79998779297</ele>
        <time>2022-06-11T08:12:10.000Z</time>
      </trkpt>
      <trkpt lat="49.7877" lon="5.26189">
        <ele>316.60000610352</ele>
        <time>2022-06-11T08:12:12.000Z</time>
      </trkpt>
      <trkpt lat="49.78777" lon="5.26201">
        <ele>315</ele>
        <time>2022-06-11T08:12:14.000Z</time>
      </trkpt>
      <trkpt lat="49.78793" lon="5.26231">
        <ele>313.79998779297</ele>
        <time>2022-06-11T08:12:18.000Z</time>
      </trkpt>
      <trkpt lat="49.78816" lon="5.26283">
        <ele>315</ele>
        <time>2022-06-11T08:12:24.000Z</time>
      </trkpt>
      <trkpt lat="49.78819" lon="5.26292">
        <ele>315.20001220703</ele>
        <time>2022-06-11T08:12:25.000Z</time>
      </trkpt>
      <trkpt lat="49.78824" lon="5.26311">
        <ele>315</ele>
        <time>2022-06-11T08:12:27.000Z</time>
      </trkpt>
      <trkpt lat="49.78832" lon="5.2634">
        <ele>314.79998779297</ele>
        <time>2022-06-11T08:12:30.000Z</time>
      </trkpt>
      <trkpt lat="49.78844" lon="5.26387">
        <ele>313.60000610352</ele>
        <time>2022-06-11T08:12:35.000Z</time>
      </trkpt>
      <trkpt lat="49.78847" lon="5.26396">
        <ele>314.20001220703</ele>
        <time>2022-06-11T08:12:36.000Z</time>
      </trkpt>
      <trkpt lat="49.78857" lon="5.26448">
        <ele>315</ele>
        <time>2022-06-11T08:12:42.000Z</time>
      </trkpt>
      <trkpt lat="49.78859" lon="5.26455">
        <ele>315</ele>
        <time>2022-06-11T08:12:43.000Z</time>
      </trkpt>
      <trkpt lat="49.78866" lon="5.26464">
        <ele>315.79998779297</ele>
        <time>2022-06-11T08:12:45.000Z</time>
      </trkpt>
      <trkpt lat="49.78877" lon="5.26479">
        <ele>318.39999389648</ele>
        <time>2022-06-11T08:12:49.000Z</time>
      </trkpt>
      <trkpt lat="49.78876" lon="5.2649">
        <ele>319</ele>
        <time>2022-06-11T08:12:52.000Z</time>
      </trkpt>
      <trkpt lat="49.78875" lon="5.26513">
        <ele>320.39999389648</ele>
        <time>2022-06-11T08:12:56.000Z</time>
      </trkpt>
      <trkpt lat="49.78876" lon="5.26519">
        <ele>321</ele>
        <time>2022-06-11T08:12:57.000Z</time>
      </trkpt>
      <trkpt lat="49.78878" lon="5.26525">
        <ele>321.60000610352</ele>
        <time>2022-06-11T08:12:58.000Z</time>
      </trkpt>
      <trkpt lat="49.78884" lon="5.26547">
        <ele>322.60000610352</ele>
        <time>2022-06-11T08:13:01.000Z</time>
      </trkpt>
      <trkpt lat="49.78886" lon="5.26554">
        <ele>322.60000610352</ele>
        <time>2022-06-11T08:13:02.000Z</time>
      </trkpt>
      <trkpt lat="49.78891" lon="5.26568">
        <ele>322.39999389648</ele>
        <time>2022-06-11T08:13:04.000Z</time>
      </trkpt>
      <trkpt lat="49.789" lon="5.26595">
        <ele>322.39999389648</ele>
        <time>2022-06-11T08:13:08.000Z</time>
      </trkpt>
      <trkpt lat="49.78918" lon="5.2664">
        <ele>323</ele>
        <time>2022-06-11T08:13:14.000Z</time>
      </trkpt>
      <trkpt lat="49.78922" lon="5.26657">
        <ele>322.60000610352</ele>
        <time>2022-06-11T08:13:16.000Z</time>
      </trkpt>
      <trkpt lat="49.78926" lon="5.26681">
        <ele>322.79998779297</ele>
        <time>2022-06-11T08:13:19.000Z</time>
      </trkpt>
      <trkpt lat="49.7893" lon="5.26712">
        <ele>323.60000610352</ele>
        <time>2022-06-11T08:13:24.000Z</time>
      </trkpt>
      <trkpt lat="49.78928" lon="5.26725">
        <ele>323.39999389648</ele>
        <time>2022-06-11T08:13:26.000Z</time>
      </trkpt>
      <trkpt lat="49.78924" lon="5.26743">
        <ele>324</ele>
        <time>2022-06-11T08:13:28.000Z</time>
      </trkpt>
      <trkpt lat="49.7891" lon="5.26798">
        <ele>325</ele>
        <time>2022-06-11T08:13:34.000Z</time>
      </trkpt>
      <trkpt lat="49.78894" lon="5.26867">
        <ele>323.79998779297</ele>
        <time>2022-06-11T08:13:41.000Z</time>
      </trkpt>
      <trkpt lat="49.78889" lon="5.2692">
        <ele>322.20001220703</ele>
        <time>2022-06-11T08:13:47.000Z</time>
      </trkpt>
      <trkpt lat="49.78889" lon="5.26928">
        <ele>322</ele>
        <time>2022-06-11T08:13:48.000Z</time>
      </trkpt>
      <trkpt lat="49.78894" lon="5.26951">
        <ele>320.20001220703</ele>
        <time>2022-06-11T08:13:51.000Z</time>
      </trkpt>
      <trkpt lat="49.78896" lon="5.26959">
        <ele>319.60000610352</ele>
        <time>2022-06-11T08:13:52.000Z</time>
      </trkpt>
      <trkpt lat="49.78898" lon="5.26966">
        <ele>319.20001220703</ele>
        <time>2022-06-11T08:13:53.000Z</time>
      </trkpt>
      <trkpt lat="49.78905" lon="5.26982">
        <ele>318.79998779297</ele>
        <time>2022-06-11T08:13:56.000Z</time>
      </trkpt>
      <trkpt lat="49.78911" lon="5.26989">
        <ele>319</ele>
        <time>2022-06-11T08:13:58.000Z</time>
      </trkpt>
      <trkpt lat="49.78915" lon="5.26993">
        <ele>319.20001220703</ele>
        <time>2022-06-11T08:13:59.000Z</time>
      </trkpt>
      <trkpt lat="49.78921" lon="5.27001">
        <ele>319.60000610352</ele>
        <time>2022-06-11T08:14:01.000Z</time>
      </trkpt>
      <trkpt lat="49.78934" lon="5.27022">
        <ele>320.39999389648</ele>
        <time>2022-06-11T08:14:05.000Z</time>
      </trkpt>
      <trkpt lat="49.78938" lon="5.27028">
        <ele>320.39999389648</ele>
        <time>2022-06-11T08:14:06.000Z</time>
      </trkpt>
      <trkpt lat="49.7895" lon="5.27037">
        <ele>322</ele>
        <time>2022-06-11T08:14:09.000Z</time>
      </trkpt>
      <trkpt lat="49.78958" lon="5.27043">
        <ele>322.39999389648</ele>
        <time>2022-06-11T08:14:11.000Z</time>
      </trkpt>
      <trkpt lat="49.78962" lon="5.27047">
        <ele>322.20001220703</ele>
        <time>2022-06-11T08:14:12.000Z</time>
      </trkpt>
      <trkpt lat="49.78972" lon="5.27061">
        <ele>321.79998779297</ele>
        <time>2022-06-11T08:14:15.000Z</time>
      </trkpt>
      <trkpt lat="49.78978" lon="5.27075">
        <ele>321</ele>
        <time>2022-06-11T08:14:18.000Z</time>
      </trkpt>
      <trkpt lat="49.78981" lon="5.27088">
        <ele>319.79998779297</ele>
        <time>2022-06-11T08:14:20.000Z</time>
      </trkpt>
      <trkpt lat="49.78988" lon="5.27122">
        <ele>318.39999389648</ele>
        <time>2022-06-11T08:14:25.000Z</time>
      </trkpt>
      <trkpt lat="49.78992" lon="5.27142">
        <ele>318.39999389648</ele>
        <time>2022-06-11T08:14:31.000Z</time>
      </trkpt>
      <trkpt lat="49.78993" lon="5.27159">
        <ele>319.39999389648</ele>
        <time>2022-06-11T08:14:39.000Z</time>
      </trkpt>
      <trkpt lat="49.78993" lon="5.27162">
        <ele>319.60000610352</ele>
        <time>2022-06-11T08:14:40.000Z</time>
      </trkpt>
      <trkpt lat="49.78991" lon="5.27211">
        <ele>324.79998779297</ele>
        <time>2022-06-11T08:15:04.000Z</time>
      </trkpt>
      <trkpt lat="49.78992" lon="5.27218">
        <ele>325.39999389648</ele>
        <time>2022-06-11T08:15:07.000Z</time>
      </trkpt>
      <trkpt lat="49.78994" lon="5.27236">
        <ele>327.20001220703</ele>
        <time>2022-06-11T08:15:12.000Z</time>
      </trkpt>
      <trkpt lat="49.78998" lon="5.27253">
        <ele>328.60000610352</ele>
        <time>2022-06-11T08:15:16.000Z</time>
      </trkpt>
      <trkpt lat="49.79001" lon="5.27263">
        <ele>329.20001220703</ele>
        <time>2022-06-11T08:15:18.000Z</time>
      </trkpt>
      <trkpt lat="49.79003" lon="5.27272">
        <ele>329.39999389648</ele>
        <time>2022-06-11T08:15:20.000Z</time>
      </trkpt>
      <trkpt lat="49.79006" lon="5.27283">
        <ele>329.79998779297</ele>
        <time>2022-06-11T08:15:23.000Z</time>
      </trkpt>
      <trkpt lat="49.79007" lon="5.27289">
        <ele>330</ele>
        <time>2022-06-11T08:15:24.000Z</time>
      </trkpt>
      <trkpt lat="49.79011" lon="5.27307">
        <ele>331.39999389648</ele>
        <time>2022-06-11T08:15:28.000Z</time>
      </trkpt>
      <trkpt lat="49.79013" lon="5.27314">
        <ele>332.60000610352</ele>
        <time>2022-06-11T08:15:30.000Z</time>
      </trkpt>
      <trkpt lat="49.79015" lon="5.27318">
        <ele>333.20001220703</ele>
        <time>2022-06-11T08:15:31.000Z</time>
      </trkpt>
      <trkpt lat="49.79016" lon="5.27331">
        <ele>334.39999389648</ele>
        <time>2022-06-11T08:15:34.000Z</time>
      </trkpt>
      <trkpt lat="49.79017" lon="5.27342">
        <ele>334.39999389648</ele>
        <time>2022-06-11T08:15:36.000Z</time>
      </trkpt>
      <trkpt lat="49.7902" lon="5.2738">
        <ele>335</ele>
        <time>2022-06-11T08:15:42.000Z</time>
      </trkpt>
      <trkpt lat="49.79022" lon="5.27415">
        <ele>333.79998779297</ele>
        <time>2022-06-11T08:15:47.000Z</time>
      </trkpt>
      <trkpt lat="49.79019" lon="5.27473">
        <ele>334.20001220703</ele>
        <time>2022-06-11T08:15:53.000Z</time>
      </trkpt>
      <trkpt lat="49.79013" lon="5.27512">
        <ele>336.39999389648</ele>
        <time>2022-06-11T08:15:57.000Z</time>
      </trkpt>
      <trkpt lat="49.7901" lon="5.27539">
        <ele>337</ele>
        <time>2022-06-11T08:16:00.000Z</time>
      </trkpt>
      <trkpt lat="49.7901" lon="5.27549">
        <ele>337.39999389648</ele>
        <time>2022-06-11T08:16:01.000Z</time>
      </trkpt>
      <trkpt lat="49.79013" lon="5.27587">
        <ele>338.60000610352</ele>
        <time>2022-06-11T08:16:05.000Z</time>
      </trkpt>
      <trkpt lat="49.79021" lon="5.27649">
        <ele>336.79998779297</ele>
        <time>2022-06-11T08:16:12.000Z</time>
      </trkpt>
      <trkpt lat="49.79028" lon="5.27677">
        <ele>336.20001220703</ele>
        <time>2022-06-11T08:16:15.000Z</time>
      </trkpt>
      <trkpt lat="49.79031" lon="5.27685">
        <ele>336</ele>
        <time>2022-06-11T08:16:16.000Z</time>
      </trkpt>
      <trkpt lat="49.79046" lon="5.27734">
        <ele>335</ele>
        <time>2022-06-11T08:16:22.000Z</time>
      </trkpt>
      <trkpt lat="49.7905" lon="5.2774">
        <ele>335</ele>
        <time>2022-06-11T08:16:23.000Z</time>
      </trkpt>
      <trkpt lat="49.7906" lon="5.27759">
        <ele>334.39999389648</ele>
        <time>2022-06-11T08:16:26.000Z</time>
      </trkpt>
      <trkpt lat="49.79064" lon="5.27764">
        <ele>334.20001220703</ele>
        <time>2022-06-11T08:16:27.000Z</time>
      </trkpt>
      <trkpt lat="49.79082" lon="5.27781">
        <ele>334.39999389648</ele>
        <time>2022-06-11T08:16:31.000Z</time>
      </trkpt>
      <trkpt lat="49.79114" lon="5.27801">
        <ele>336.20001220703</ele>
        <time>2022-06-11T08:16:37.000Z</time>
      </trkpt>
      <trkpt lat="49.79147" lon="5.27825">
        <ele>335.39999389648</ele>
        <time>2022-06-11T08:16:44.000Z</time>
      </trkpt>
      <trkpt lat="49.79178" lon="5.2786">
        <ele>335.20001220703</ele>
        <time>2022-06-11T08:16:51.000Z</time>
      </trkpt>
      <trkpt lat="49.79207" lon="5.27905">
        <ele>337.79998779297</ele>
        <time>2022-06-11T08:16:58.000Z</time>
      </trkpt>
      <trkpt lat="49.79216" lon="5.27918">
        <ele>337.79998779297</ele>
        <time>2022-06-11T08:17:00.000Z</time>
      </trkpt>
      <trkpt lat="49.79234" lon="5.27951">
        <ele>338.20001220703</ele>
        <time>2022-06-11T08:17:05.000Z</time>
      </trkpt>
      <trkpt lat="49.79247" lon="5.27981">
        <ele>338</ele>
        <time>2022-06-11T08:17:09.000Z</time>
      </trkpt>
      <trkpt lat="49.79256" lon="5.28002">
        <ele>337.79998779297</ele>
        <time>2022-06-11T08:17:12.000Z</time>
      </trkpt>
      <trkpt lat="49.79259" lon="5.28009">
        <ele>337.60000610352</ele>
        <time>2022-06-11T08:17:13.000Z</time>
      </trkpt>
      <trkpt lat="49.79281" lon="5.28052">
        <ele>336.39999389648</ele>
        <time>2022-06-11T08:17:19.000Z</time>
      </trkpt>
      <trkpt lat="49.79284" lon="5.28059">
        <ele>336.20001220703</ele>
        <time>2022-06-11T08:17:20.000Z</time>
      </trkpt>
      <trkpt lat="49.79301" lon="5.28088">
        <ele>336.39999389648</ele>
        <time>2022-06-11T08:17:24.000Z</time>
      </trkpt>
      <trkpt lat="49.79321" lon="5.28127">
        <ele>335.79998779297</ele>
        <time>2022-06-11T08:17:30.000Z</time>
      </trkpt>
      <trkpt lat="49.79324" lon="5.28133">
        <ele>335.39999389648</ele>
        <time>2022-06-11T08:17:31.000Z</time>
      </trkpt>
      <trkpt lat="49.79327" lon="5.28141">
        <ele>335</ele>
        <time>2022-06-11T08:17:32.000Z</time>
      </trkpt>
      <trkpt lat="49.79339" lon="5.28177">
        <ele>334.79998779297</ele>
        <time>2022-06-11T08:17:37.000Z</time>
      </trkpt>
      <trkpt lat="49.7934" lon="5.28185">
        <ele>334.79998779297</ele>
        <time>2022-06-11T08:17:38.000Z</time>
      </trkpt>
      <trkpt lat="49.79345" lon="5.28206">
        <ele>335.79998779297</ele>
        <time>2022-06-11T08:17:41.000Z</time>
      </trkpt>
      <trkpt lat="49.79348" lon="5.28229">
        <ele>336.39999389648</ele>
        <time>2022-06-11T08:17:44.000Z</time>
      </trkpt>
      <trkpt lat="49.79348" lon="5.28236">
        <ele>336.39999389648</ele>
        <time>2022-06-11T08:17:45.000Z</time>
      </trkpt>
      <trkpt lat="49.79349" lon="5.28262">
        <ele>337</ele>
        <time>2022-06-11T08:17:48.000Z</time>
      </trkpt>
      <trkpt lat="49.79347" lon="5.28285">
        <ele>336.79998779297</ele>
        <time>2022-06-11T08:17:50.000Z</time>
      </trkpt>
      <trkpt lat="49.79345" lon="5.28295">
        <ele>336.20001220703</ele>
        <time>2022-06-11T08:17:51.000Z</time>
      </trkpt>
      <trkpt lat="49.79344" lon="5.28316">
        <ele>336.20001220703</ele>
        <time>2022-06-11T08:17:53.000Z</time>
      </trkpt>
      <trkpt lat="49.79344" lon="5.28335">
        <ele>336</ele>
        <time>2022-06-11T08:17:55.000Z</time>
      </trkpt>
      <trkpt lat="49.79344" lon="5.28391">
        <ele>338.39999389648</ele>
        <time>2022-06-11T08:18:00.000Z</time>
      </trkpt>
      <trkpt lat="49.79345" lon="5.28402">
        <ele>339.20001220703</ele>
        <time>2022-06-11T08:18:01.000Z</time>
      </trkpt>
      <trkpt lat="49.79349" lon="5.28443">
        <ele>343.60000610352</ele>
        <time>2022-06-11T08:18:05.000Z</time>
      </trkpt>
      <trkpt lat="49.79349" lon="5.28481">
        <ele>347.60000610352</ele>
        <time>2022-06-11T08:18:09.000Z</time>
      </trkpt>
      <trkpt lat="49.79348" lon="5.285">
        <ele>349.79998779297</ele>
        <time>2022-06-11T08:18:11.000Z</time>
      </trkpt>
      <trkpt lat="49.79346" lon="5.28529">
        <ele>350.79998779297</ele>
        <time>2022-06-11T08:18:14.000Z</time>
      </trkpt>
      <trkpt lat="49.79344" lon="5.28538">
        <ele>351.20001220703</ele>
        <time>2022-06-11T08:18:15.000Z</time>
      </trkpt>
      <trkpt lat="49.79342" lon="5.28547">
        <ele>351.79998779297</ele>
        <time>2022-06-11T08:18:16.000Z</time>
      </trkpt>
      <trkpt lat="49.79325" lon="5.28597">
        <ele>354.60000610352</ele>
        <time>2022-06-11T08:18:22.000Z</time>
      </trkpt>
      <trkpt lat="49.79309" lon="5.28635">
        <ele>353.60000610352</ele>
        <time>2022-06-11T08:18:27.000Z</time>
      </trkpt>
      <trkpt lat="49.79297" lon="5.28666">
        <ele>355.60000610352</ele>
        <time>2022-06-11T08:18:31.000Z</time>
      </trkpt>
      <trkpt lat="49.79289" lon="5.28688">
        <ele>354.20001220703</ele>
        <time>2022-06-11T08:18:34.000Z</time>
      </trkpt>
      <trkpt lat="49.79272" lon="5.28743">
        <ele>359.79998779297</ele>
        <time>2022-06-11T08:18:41.000Z</time>
      </trkpt>
      <trkpt lat="49.7927" lon="5.28751">
        <ele>360.39999389648</ele>
        <time>2022-06-11T08:18:42.000Z</time>
      </trkpt>
      <trkpt lat="49.79267" lon="5.28767">
        <ele>360.20001220703</ele>
        <time>2022-06-11T08:18:44.000Z</time>
      </trkpt>
      <trkpt lat="49.79265" lon="5.28804">
        <ele>357.60000610352</ele>
        <time>2022-06-11T08:18:48.000Z</time>
      </trkpt>
      <trkpt lat="49.79268" lon="5.28864">
        <ele>350.79998779297</ele>
        <time>2022-06-11T08:18:55.000Z</time>
      </trkpt>
      <trkpt lat="49.7927" lon="5.28872">
        <ele>350.20001220703</ele>
        <time>2022-06-11T08:18:56.000Z</time>
      </trkpt>
      <trkpt lat="49.79279" lon="5.28903">
        <ele>347.79998779297</ele>
        <time>2022-06-11T08:19:00.000Z</time>
      </trkpt>
      <trkpt lat="49.79283" lon="5.28921">
        <ele>348</ele>
        <time>2022-06-11T08:19:02.000Z</time>
      </trkpt>
      <trkpt lat="49.79281" lon="5.28939">
        <ele>349.79998779297</ele>
        <time>2022-06-11T08:19:04.000Z</time>
      </trkpt>
      <trkpt lat="49.7928" lon="5.28947">
        <ele>351</ele>
        <time>2022-06-11T08:19:05.000Z</time>
      </trkpt>
      <trkpt lat="49.79278" lon="5.28955">
        <ele>352.39999389648</ele>
        <time>2022-06-11T08:19:06.000Z</time>
      </trkpt>
      <trkpt lat="49.79277" lon="5.28963">
        <ele>353</ele>
        <time>2022-06-11T08:19:07.000Z</time>
      </trkpt>
      <trkpt lat="49.79277" lon="5.28971">
        <ele>353</ele>
        <time>2022-06-11T08:19:08.000Z</time>
      </trkpt>
      <trkpt lat="49.79278" lon="5.28985">
        <ele>353.39999389648</ele>
        <time>2022-06-11T08:19:10.000Z</time>
      </trkpt>
      <trkpt lat="49.79279" lon="5.28997">
        <ele>353.60000610352</ele>
        <time>2022-06-11T08:19:12.000Z</time>
      </trkpt>
      <trkpt lat="49.79279" lon="5.29001">
        <ele>353.60000610352</ele>
        <time>2022-06-11T08:19:13.000Z</time>
      </trkpt>
      <trkpt lat="49.7928" lon="5.29009">
        <ele>354</ele>
        <time>2022-06-11T08:19:15.000Z</time>
      </trkpt>
      <trkpt lat="49.79279" lon="5.29011">
        <ele>354.20001220703</ele>
        <time>2022-06-11T08:19:16.000Z</time>
      </trkpt>
      <trkpt lat="49.79278" lon="5.29012">
        <ele>354.79998779297</ele>
        <time>2022-06-11T08:19:17.000Z</time>
      </trkpt>
      <trkpt lat="49.79273" lon="5.29032">
        <ele>357</ele>
        <time>2022-06-11T08:19:22.000Z</time>
      </trkpt>
      <trkpt lat="49.79271" lon="5.29038">
        <ele>358</ele>
        <time>2022-06-11T08:19:23.000Z</time>
      </trkpt>
      <trkpt lat="49.79261" lon="5.2907">
        <ele>363.60000610352</ele>
        <time>2022-06-11T08:19:28.000Z</time>
      </trkpt>
      <trkpt lat="49.7926" lon="5.29078">
        <ele>364.39999389648</ele>
        <time>2022-06-11T08:19:29.000Z</time>
      </trkpt>
      <trkpt lat="49.79257" lon="5.29102">
        <ele>363.60000610352</ele>
        <time>2022-06-11T08:19:32.000Z</time>
      </trkpt>
      <trkpt lat="49.79256" lon="5.29126">
        <ele>363.20001220703</ele>
        <time>2022-06-11T08:19:35.000Z</time>
      </trkpt>
      <trkpt lat="49.79256" lon="5.29141">
        <ele>363.20001220703</ele>
        <time>2022-06-11T08:19:37.000Z</time>
      </trkpt>
      <trkpt lat="49.79257" lon="5.29157">
        <ele>363.39999389648</ele>
        <time>2022-06-11T08:19:39.000Z</time>
      </trkpt>
      <trkpt lat="49.79259" lon="5.2918">
        <ele>362</ele>
        <time>2022-06-11T08:19:42.000Z</time>
      </trkpt>
      <trkpt lat="49.79261" lon="5.29195">
        <ele>361.60000610352</ele>
        <time>2022-06-11T08:19:44.000Z</time>
      </trkpt>
      <trkpt lat="49.79265" lon="5.29232">
        <ele>364.39999389648</ele>
        <time>2022-06-11T08:19:49.000Z</time>
      </trkpt>
      <trkpt lat="49.79268" lon="5.29246">
        <ele>365.79998779297</ele>
        <time>2022-06-11T08:19:51.000Z</time>
      </trkpt>
      <trkpt lat="49.79276" lon="5.2928">
        <ele>365.79998779297</ele>
        <time>2022-06-11T08:19:56.000Z</time>
      </trkpt>
      <trkpt lat="49.79282" lon="5.29307">
        <ele>363.60000610352</ele>
        <time>2022-06-11T08:20:00.000Z</time>
      </trkpt>
      <trkpt lat="49.79287" lon="5.2933">
        <ele>359.79998779297</ele>
        <time>2022-06-11T08:20:03.000Z</time>
      </trkpt>
      <trkpt lat="49.79291" lon="5.29353">
        <ele>360</ele>
        <time>2022-06-11T08:20:06.000Z</time>
      </trkpt>
      <trkpt lat="49.79296" lon="5.29396">
        <ele>361.79998779297</ele>
        <time>2022-06-11T08:20:11.000Z</time>
      </trkpt>
      <trkpt lat="49.79295" lon="5.29422">
        <ele>362.60000610352</ele>
        <time>2022-06-11T08:20:14.000Z</time>
      </trkpt>
      <trkpt lat="49.79293" lon="5.29438">
        <ele>363.20001220703</ele>
        <time>2022-06-11T08:20:16.000Z</time>
      </trkpt>
      <trkpt lat="49.79291" lon="5.29446">
        <ele>363.79998779297</ele>
        <time>2022-06-11T08:20:17.000Z</time>
      </trkpt>
      <trkpt lat="49.79275" lon="5.29499">
        <ele>365.60000610352</ele>
        <time>2022-06-11T08:20:24.000Z</time>
      </trkpt>
      <trkpt lat="49.79273" lon="5.29506">
        <ele>366.20001220703</ele>
        <time>2022-06-11T08:20:25.000Z</time>
      </trkpt>
      <trkpt lat="49.79266" lon="5.29544">
        <ele>368.39999389648</ele>
        <time>2022-06-11T08:20:30.000Z</time>
      </trkpt>
      <trkpt lat="49.79268" lon="5.29593">
        <ele>367.39999389648</ele>
        <time>2022-06-11T08:20:36.000Z</time>
      </trkpt>
      <trkpt lat="49.79269" lon="5.29608">
        <ele>367.20001220703</ele>
        <time>2022-06-11T08:20:38.000Z</time>
      </trkpt>
      <trkpt lat="49.79275" lon="5.2964">
        <ele>368.20001220703</ele>
        <time>2022-06-11T08:20:42.000Z</time>
      </trkpt>
      <trkpt lat="49.7928" lon="5.2967">
        <ele>369.79998779297</ele>
        <time>2022-06-11T08:20:46.000Z</time>
      </trkpt>
      <trkpt lat="49.79283" lon="5.29685">
        <ele>369.79998779297</ele>
        <time>2022-06-11T08:20:48.000Z</time>
      </trkpt>
      <trkpt lat="49.79297" lon="5.29744">
        <ele>370.20001220703</ele>
        <time>2022-06-11T08:20:55.000Z</time>
      </trkpt>
      <trkpt lat="49.79299" lon="5.29753">
        <ele>370</ele>
        <time>2022-06-11T08:20:56.000Z</time>
      </trkpt>
      <trkpt lat="49.79302" lon="5.29772">
        <ele>370</ele>
        <time>2022-06-11T08:20:58.000Z</time>
      </trkpt>
      <trkpt lat="49.79301" lon="5.29801">
        <ele>371.60000610352</ele>
        <time>2022-06-11T08:21:01.000Z</time>
      </trkpt>
      <trkpt lat="49.79299" lon="5.2981">
        <ele>371.60000610352</ele>
        <time>2022-06-11T08:21:02.000Z</time>
      </trkpt>
      <trkpt lat="49.79295" lon="5.2985">
        <ele>371.60000610352</ele>
        <time>2022-06-11T08:21:06.000Z</time>
      </trkpt>
      <trkpt lat="49.79296" lon="5.29859">
        <ele>370.79998779297</ele>
        <time>2022-06-11T08:21:07.000Z</time>
      </trkpt>
      <trkpt lat="49.79294" lon="5.29927">
        <ele>365.39999389648</ele>
        <time>2022-06-11T08:21:14.000Z</time>
      </trkpt>
      <trkpt lat="49.79296" lon="5.30014">
        <ele>357</ele>
        <time>2022-06-11T08:21:23.000Z</time>
      </trkpt>
      <trkpt lat="49.79298" lon="5.30081">
        <ele>361.39999389648</ele>
        <time>2022-06-11T08:21:30.000Z</time>
      </trkpt>
      <trkpt lat="49.79298" lon="5.30091">
        <ele>361.79998779297</ele>
        <time>2022-06-11T08:21:31.000Z</time>
      </trkpt>
      <trkpt lat="49.79297" lon="5.30129">
        <ele>363</ele>
        <time>2022-06-11T08:21:35.000Z</time>
      </trkpt>
      <trkpt lat="49.79292" lon="5.30147">
        <ele>364</ele>
        <time>2022-06-11T08:21:37.000Z</time>
      </trkpt>
      <trkpt lat="49.79275" lon="5.30172">
        <ele>367.20001220703</ele>
        <time>2022-06-11T08:21:41.000Z</time>
      </trkpt>
      <trkpt lat="49.79255" lon="5.30186">
        <ele>370.20001220703</ele>
        <time>2022-06-11T08:21:45.000Z</time>
      </trkpt>
      <trkpt lat="49.79235" lon="5.30183">
        <ele>371.39999389648</ele>
        <time>2022-06-11T08:21:49.000Z</time>
      </trkpt>
      <trkpt lat="49.7922" lon="5.30173">
        <ele>372.60000610352</ele>
        <time>2022-06-11T08:21:53.000Z</time>
      </trkpt>
      <trkpt lat="49.79216" lon="5.3017">
        <ele>372.79998779297</ele>
        <time>2022-06-11T08:21:54.000Z</time>
      </trkpt>
      <trkpt lat="49.79208" lon="5.30166">
        <ele>373.60000610352</ele>
        <time>2022-06-11T08:21:56.000Z</time>
      </trkpt>
      <trkpt lat="49.79197" lon="5.30158">
        <ele>374.39999389648</ele>
        <time>2022-06-11T08:21:59.000Z</time>
      </trkpt>
      <trkpt lat="49.79189" lon="5.30154">
        <ele>375</ele>
        <time>2022-06-11T08:22:01.000Z</time>
      </trkpt>
      <trkpt lat="49.79182" lon="5.30148">
        <ele>375.60000610352</ele>
        <time>2022-06-11T08:22:03.000Z</time>
      </trkpt>
      <trkpt lat="49.79165" lon="5.30139">
        <ele>377</ele>
        <time>2022-06-11T08:22:07.000Z</time>
      </trkpt>
      <trkpt lat="49.79152" lon="5.30133">
        <ele>378</ele>
        <time>2022-06-11T08:22:10.000Z</time>
      </trkpt>
      <trkpt lat="49.79145" lon="5.3013">
        <ele>378.60000610352</ele>
        <time>2022-06-11T08:22:12.000Z</time>
      </trkpt>
      <trkpt lat="49.79141" lon="5.30129">
        <ele>379</ele>
        <time>2022-06-11T08:22:13.000Z</time>
      </trkpt>
      <trkpt lat="49.79133" lon="5.30127">
        <ele>379.39999389648</ele>
        <time>2022-06-11T08:22:15.000Z</time>
      </trkpt>
      <trkpt lat="49.79121" lon="5.30125">
        <ele>379.79998779297</ele>
        <time>2022-06-11T08:22:18.000Z</time>
      </trkpt>
      <trkpt lat="49.79107" lon="5.30126">
        <ele>380</ele>
        <time>2022-06-11T08:22:21.000Z</time>
      </trkpt>
      <trkpt lat="49.79082" lon="5.30123">
        <ele>381.79998779297</ele>
        <time>2022-06-11T08:22:26.000Z</time>
      </trkpt>
      <trkpt lat="49.79077" lon="5.30122">
        <ele>382.20001220703</ele>
        <time>2022-06-11T08:22:27.000Z</time>
      </trkpt>
      <trkpt lat="49.79068" lon="5.30121">
        <ele>382.60000610352</ele>
        <time>2022-06-11T08:22:29.000Z</time>
      </trkpt>
      <trkpt lat="49.79045" lon="5.30118">
        <ele>384.60000610352</ele>
        <time>2022-06-11T08:22:34.000Z</time>
      </trkpt>
      <trkpt lat="49.7904" lon="5.30119">
        <ele>384.79998779297</ele>
        <time>2022-06-11T08:22:35.000Z</time>
      </trkpt>
      <trkpt lat="49.79036" lon="5.3012">
        <ele>385</ele>
        <time>2022-06-11T08:22:36.000Z</time>
      </trkpt>
      <trkpt lat="49.79022" lon="5.30122">
        <ele>386.39999389648</ele>
        <time>2022-06-11T08:22:39.000Z</time>
      </trkpt>
      <trkpt lat="49.79017" lon="5.30124">
        <ele>386.79998779297</ele>
        <time>2022-06-11T08:22:40.000Z</time>
      </trkpt>
      <trkpt lat="49.79007" lon="5.30127">
        <ele>387.79998779297</ele>
        <time>2022-06-11T08:22:42.000Z</time>
      </trkpt>
      <trkpt lat="49.78984" lon="5.30139">
        <ele>390.39999389648</ele>
        <time>2022-06-11T08:22:47.000Z</time>
      </trkpt>
      <trkpt lat="49.78975" lon="5.30143">
        <ele>390.39999389648</ele>
        <time>2022-06-11T08:22:49.000Z</time>
      </trkpt>
      <trkpt lat="49.78953" lon="5.30153">
        <ele>388.60000610352</ele>
        <time>2022-06-11T08:22:54.000Z</time>
      </trkpt>
      <trkpt lat="49.78949" lon="5.30156">
        <ele>388.20001220703</ele>
        <time>2022-06-11T08:22:55.000Z</time>
      </trkpt>
      <trkpt lat="49.78941" lon="5.30162">
        <ele>386.79998779297</ele>
        <time>2022-06-11T08:22:57.000Z</time>
      </trkpt>
      <trkpt lat="49.78935" lon="5.30169">
        <ele>386.60000610352</ele>
        <time>2022-06-11T08:22:59.000Z</time>
      </trkpt>
      <trkpt lat="49.78921" lon="5.30188">
        <ele>384.79998779297</ele>
        <time>2022-06-11T08:23:03.000Z</time>
      </trkpt>
      <trkpt lat="49.78914" lon="5.30198">
        <ele>385.60000610352</ele>
        <time>2022-06-11T08:23:05.000Z</time>
      </trkpt>
      <trkpt lat="49.7891" lon="5.30202">
        <ele>385.79998779297</ele>
        <time>2022-06-11T08:23:06.000Z</time>
      </trkpt>
      <trkpt lat="49.78898" lon="5.30216">
        <ele>386</ele>
        <time>2022-06-11T08:23:09.000Z</time>
      </trkpt>
      <trkpt lat="49.78889" lon="5.30222">
        <ele>386.79998779297</ele>
        <time>2022-06-11T08:23:11.000Z</time>
      </trkpt>
      <trkpt lat="49.78879" lon="5.30228">
        <ele>387.60000610352</ele>
        <time>2022-06-11T08:23:14.000Z</time>
      </trkpt>
      <trkpt lat="49.78873" lon="5.30231">
        <ele>387.39999389648</ele>
        <time>2022-06-11T08:23:16.000Z</time>
      </trkpt>
      <trkpt lat="49.78865" lon="5.30231">
        <ele>387.39999389648</ele>
        <time>2022-06-11T08:23:19.000Z</time>
      </trkpt>
      <trkpt lat="49.78859" lon="5.30232">
        <ele>388</ele>
        <time>2022-06-11T08:23:21.000Z</time>
      </trkpt>
      <trkpt lat="49.78851" lon="5.30232">
        <ele>388.60000610352</ele>
        <time>2022-06-11T08:23:24.000Z</time>
      </trkpt>
      <trkpt lat="49.7884" lon="5.3023">
        <ele>389</ele>
        <time>2022-06-11T08:23:27.000Z</time>
      </trkpt>
      <trkpt lat="49.78837" lon="5.30229">
        <ele>389.39999389648</ele>
        <time>2022-06-11T08:23:28.000Z</time>
      </trkpt>
      <trkpt lat="49.78823" lon="5.3022">
        <ele>390</ele>
        <time>2022-06-11T08:23:32.000Z</time>
      </trkpt>
      <trkpt lat="49.78812" lon="5.30213">
        <ele>390.79998779297</ele>
        <time>2022-06-11T08:23:35.000Z</time>
      </trkpt>
      <trkpt lat="49.78801" lon="5.30206">
        <ele>391.79998779297</ele>
        <time>2022-06-11T08:23:38.000Z</time>
      </trkpt>
      <trkpt lat="49.78793" lon="5.30201">
        <ele>392.39999389648</ele>
        <time>2022-06-11T08:23:40.000Z</time>
      </trkpt>
      <trkpt lat="49.7878" lon="5.30197">
        <ele>393.60000610352</ele>
        <time>2022-06-11T08:23:44.000Z</time>
      </trkpt>
      <trkpt lat="49.78776" lon="5.30197">
        <ele>393.79998779297</ele>
        <time>2022-06-11T08:23:45.000Z</time>
      </trkpt>
      <trkpt lat="49.78761" lon="5.30198">
        <ele>395.20001220703</ele>
        <time>2022-06-11T08:23:49.000Z</time>
      </trkpt>
      <trkpt lat="49.78757" lon="5.302">
        <ele>395.79998779297</ele>
        <time>2022-06-11T08:23:50.000Z</time>
      </trkpt>
      <trkpt lat="49.78747" lon="5.30204">
        <ele>397.20001220703</ele>
        <time>2022-06-11T08:23:52.000Z</time>
      </trkpt>
      <trkpt lat="49.78735" lon="5.3021">
        <ele>399</ele>
        <time>2022-06-11T08:23:55.000Z</time>
      </trkpt>
      <trkpt lat="49.7873" lon="5.30213">
        <ele>399.60000610352</ele>
        <time>2022-06-11T08:23:56.000Z</time>
      </trkpt>
      <trkpt lat="49.78721" lon="5.30218">
        <ele>401.39999389648</ele>
        <time>2022-06-11T08:23:58.000Z</time>
      </trkpt>
      <trkpt lat="49.78709" lon="5.30226">
        <ele>404.39999389648</ele>
        <time>2022-06-11T08:24:01.000Z</time>
      </trkpt>
      <trkpt lat="49.78705" lon="5.30229">
        <ele>405</ele>
        <time>2022-06-11T08:24:02.000Z</time>
      </trkpt>
      <trkpt lat="49.78698" lon="5.30235">
        <ele>406.60000610352</ele>
        <time>2022-06-11T08:24:04.000Z</time>
      </trkpt>
      <trkpt lat="49.7869" lon="5.3024">
        <ele>407.79998779297</ele>
        <time>2022-06-11T08:24:06.000Z</time>
      </trkpt>
      <trkpt lat="49.78683" lon="5.30246">
        <ele>408.60000610352</ele>
        <time>2022-06-11T08:24:08.000Z</time>
      </trkpt>
      <trkpt lat="49.78679" lon="5.30248">
        <ele>409.20001220703</ele>
        <time>2022-06-11T08:24:09.000Z</time>
      </trkpt>
      <trkpt lat="49.78676" lon="5.3025">
        <ele>409.39999389648</ele>
        <time>2022-06-11T08:24:10.000Z</time>
      </trkpt>
      <trkpt lat="49.78669" lon="5.30255">
        <ele>410.39999389648</ele>
        <time>2022-06-11T08:24:12.000Z</time>
      </trkpt>
      <trkpt lat="49.7866" lon="5.30264">
        <ele>411.60000610352</ele>
        <time>2022-06-11T08:24:15.000Z</time>
      </trkpt>
      <trkpt lat="49.78657" lon="5.30267">
        <ele>411.60000610352</ele>
        <time>2022-06-11T08:24:16.000Z</time>
      </trkpt>
      <trkpt lat="49.78653" lon="5.30272">
        <ele>411.79998779297</ele>
        <time>2022-06-11T08:24:18.000Z</time>
      </trkpt>
      <trkpt lat="49.78647" lon="5.3028">
        <ele>412.20001220703</ele>
        <time>2022-06-11T08:24:21.000Z</time>
      </trkpt>
      <trkpt lat="49.78644" lon="5.30285">
        <ele>412.79998779297</ele>
        <time>2022-06-11T08:24:23.000Z</time>
      </trkpt>
      <trkpt lat="49.78642" lon="5.30289">
        <ele>413.20001220703</ele>
        <time>2022-06-11T08:24:24.000Z</time>
      </trkpt>
      <trkpt lat="49.78636" lon="5.30298">
        <ele>413.79998779297</ele>
        <time>2022-06-11T08:24:27.000Z</time>
      </trkpt>
      <trkpt lat="49.78633" lon="5.30304">
        <ele>414.39999389648</ele>
        <time>2022-06-11T08:24:29.000Z</time>
      </trkpt>
      <trkpt lat="49.78631" lon="5.30307">
        <ele>414.79998779297</ele>
        <time>2022-06-11T08:24:30.000Z</time>
      </trkpt>
      <trkpt lat="49.78626" lon="5.3032">
        <ele>415.79998779297</ele>
        <time>2022-06-11T08:24:33.000Z</time>
      </trkpt>
      <trkpt lat="49.78624" lon="5.30326">
        <ele>416</ele>
        <time>2022-06-11T08:24:35.000Z</time>
      </trkpt>
      <trkpt lat="49.78622" lon="5.3033">
        <ele>416.20001220703</ele>
        <time>2022-06-11T08:24:36.000Z</time>
      </trkpt>
      <trkpt lat="49.78619" lon="5.30342">
        <ele>417.60000610352</ele>
        <time>2022-06-11T08:24:39.000Z</time>
      </trkpt>
      <trkpt lat="49.78615" lon="5.30353">
        <ele>419.20001220703</ele>
        <time>2022-06-11T08:24:42.000Z</time>
      </trkpt>
      <trkpt lat="49.78613" lon="5.30365">
        <ele>420.20001220703</ele>
        <time>2022-06-11T08:24:45.000Z</time>
      </trkpt>
      <trkpt lat="49.78612" lon="5.30378">
        <ele>421</ele>
        <time>2022-06-11T08:24:48.000Z</time>
      </trkpt>
      <trkpt lat="49.78611" lon="5.30391">
        <ele>421.79998779297</ele>
        <time>2022-06-11T08:24:51.000Z</time>
      </trkpt>
      <trkpt lat="49.7861" lon="5.30406">
        <ele>422.79998779297</ele>
        <time>2022-06-11T08:24:54.000Z</time>
      </trkpt>
      <trkpt lat="49.78609" lon="5.30411">
        <ele>423</ele>
        <time>2022-06-11T08:24:55.000Z</time>
      </trkpt>
      <trkpt lat="49.78607" lon="5.30422">
        <ele>423.79998779297</ele>
        <time>2022-06-11T08:24:57.000Z</time>
      </trkpt>
      <trkpt lat="49.78603" lon="5.3044">
        <ele>424.39999389648</ele>
        <time>2022-06-11T08:25:00.000Z</time>
      </trkpt>
      <trkpt lat="49.78601" lon="5.30451">
        <ele>425.20001220703</ele>
        <time>2022-06-11T08:25:02.000Z</time>
      </trkpt>
      <trkpt lat="49.78601" lon="5.30457">
        <ele>425.60000610352</ele>
        <time>2022-06-11T08:25:03.000Z</time>
      </trkpt>
      <trkpt lat="49.786" lon="5.30474">
        <ele>426.79998779297</ele>
        <time>2022-06-11T08:25:06.000Z</time>
      </trkpt>
      <trkpt lat="49.78598" lon="5.30482">
        <ele>427.39999389648</ele>
        <time>2022-06-11T08:25:08.000Z</time>
      </trkpt>
      <trkpt lat="49.78598" lon="5.30486">
        <ele>427.60000610352</ele>
        <time>2022-06-11T08:25:09.000Z</time>
      </trkpt>
      <trkpt lat="49.78597" lon="5.30498">
        <ele>428.39999389648</ele>
        <time>2022-06-11T08:25:12.000Z</time>
      </trkpt>
      <trkpt lat="49.78597" lon="5.30511">
        <ele>429.39999389648</ele>
        <time>2022-06-11T08:25:15.000Z</time>
      </trkpt>
      <trkpt lat="49.78596" lon="5.30529">
        <ele>430.39999389648</ele>
        <time>2022-06-11T08:25:19.000Z</time>
      </trkpt>
      <trkpt lat="49.78597" lon="5.3054">
        <ele>431.20001220703</ele>
        <time>2022-06-11T08:25:21.000Z</time>
      </trkpt>
      <trkpt lat="49.78597" lon="5.30546">
        <ele>431.60000610352</ele>
        <time>2022-06-11T08:25:22.000Z</time>
      </trkpt>
      <trkpt lat="49.786" lon="5.30561">
        <ele>432.39999389648</ele>
        <time>2022-06-11T08:25:25.000Z</time>
      </trkpt>
      <trkpt lat="49.786" lon="5.30577">
        <ele>433</ele>
        <time>2022-06-11T08:25:28.000Z</time>
      </trkpt>
      <trkpt lat="49.78591" lon="5.30611">
        <ele>433.60000610352</ele>
        <time>2022-06-11T08:25:33.000Z</time>
      </trkpt>
      <trkpt lat="49.78574" lon="5.30662">
        <ele>430</ele>
        <time>2022-06-11T08:25:39.000Z</time>
      </trkpt>
      <trkpt lat="49.78554" lon="5.30714">
        <ele>428.60000610352</ele>
        <time>2022-06-11T08:25:46.000Z</time>
      </trkpt>
      <trkpt lat="49.78547" lon="5.30733">
        <ele>428</ele>
        <time>2022-06-11T08:27:16.000Z</time>
      </trkpt>
      <trkpt lat="49.78545" lon="5.30728">
        <ele>428</ele>
        <time>2022-06-11T08:27:18.000Z</time>
      </trkpt>
      <trkpt lat="49.7854" lon="5.3072">
        <ele>428</ele>
        <time>2022-06-11T08:27:20.000Z</time>
      </trkpt>
      <trkpt lat="49.78535" lon="5.3071">
        <ele>428</ele>
        <time>2022-06-11T08:27:22.000Z</time>
      </trkpt>
      <trkpt lat="49.78531" lon="5.30698">
        <ele>427.79998779297</ele>
        <time>2022-06-11T08:27:24.000Z</time>
      </trkpt>
      <trkpt lat="49.78521" lon="5.30674">
        <ele>428</ele>
        <time>2022-06-11T08:27:28.000Z</time>
      </trkpt>
      <trkpt lat="49.78502" lon="5.30643">
        <ele>428.39999389648</ele>
        <time>2022-06-11T08:27:34.000Z</time>
      </trkpt>
      <trkpt lat="49.78486" lon="5.3063">
        <ele>428.20001220703</ele>
        <time>2022-06-11T08:27:38.000Z</time>
      </trkpt>
      <trkpt lat="49.78483" lon="5.30627">
        <ele>428.20001220703</ele>
        <time>2022-06-11T08:27:39.000Z</time>
      </trkpt>
      <trkpt lat="49.78467" lon="5.30609">
        <ele>427</ele>
        <time>2022-06-11T08:27:44.000Z</time>
      </trkpt>
      <trkpt lat="49.78463" lon="5.30606">
        <ele>426.79998779297</ele>
        <time>2022-06-11T08:27:45.000Z</time>
      </trkpt>
      <trkpt lat="49.7845" lon="5.30593">
        <ele>426</ele>
        <time>2022-06-11T08:27:49.000Z</time>
      </trkpt>
      <trkpt lat="49.78439" lon="5.30585">
        <ele>426</ele>
        <time>2022-06-11T08:27:53.000Z</time>
      </trkpt>
      <trkpt lat="49.7842" lon="5.30572">
        <ele>426.60000610352</ele>
        <time>2022-06-11T08:28:00.000Z</time>
      </trkpt>
      <trkpt lat="49.78397" lon="5.3056">
        <ele>429</ele>
        <time>2022-06-11T08:28:05.000Z</time>
      </trkpt>
      <trkpt lat="49.78375" lon="5.3055">
        <ele>429.79998779297</ele>
        <time>2022-06-11T08:28:10.000Z</time>
      </trkpt>
      <trkpt lat="49.78355" lon="5.30542">
        <ele>429.20001220703</ele>
        <time>2022-06-11T08:28:15.000Z</time>
      </trkpt>
      <trkpt lat="49.78346" lon="5.30536">
        <ele>428.60000610352</ele>
        <time>2022-06-11T08:28:17.000Z</time>
      </trkpt>
      <trkpt lat="49.78337" lon="5.30527">
        <ele>428</ele>
        <time>2022-06-11T08:28:19.000Z</time>
      </trkpt>
      <trkpt lat="49.78333" lon="5.30524">
        <ele>427.79998779297</ele>
        <time>2022-06-11T08:28:20.000Z</time>
      </trkpt>
      <trkpt lat="49.78322" lon="5.30505">
        <ele>428</ele>
        <time>2022-06-11T08:28:24.000Z</time>
      </trkpt>
      <trkpt lat="49.78314" lon="5.30485">
        <ele>428.39999389648</ele>
        <time>2022-06-11T08:28:28.000Z</time>
      </trkpt>
      <trkpt lat="49.78306" lon="5.3047">
        <ele>429</ele>
        <time>2022-06-11T08:28:31.000Z</time>
      </trkpt>
      <trkpt lat="49.78299" lon="5.30459">
        <ele>429.20001220703</ele>
        <time>2022-06-11T08:28:33.000Z</time>
      </trkpt>
      <trkpt lat="49.78276" lon="5.30428">
        <ele>430</ele>
        <time>2022-06-11T08:28:39.000Z</time>
      </trkpt>
      <trkpt lat="49.78258" lon="5.30405">
        <ele>430.20001220703</ele>
        <time>2022-06-11T08:28:44.000Z</time>
      </trkpt>
      <trkpt lat="49.78241" lon="5.30386">
        <ele>429.79998779297</ele>
        <time>2022-06-11T08:28:48.000Z</time>
      </trkpt>
      <trkpt lat="49.78237" lon="5.3038">
        <ele>429.39999389648</ele>
        <time>2022-06-11T08:28:49.000Z</time>
      </trkpt>
      <trkpt lat="49.78215" lon="5.30344">
        <ele>428</ele>
        <time>2022-06-11T08:28:54.000Z</time>
      </trkpt>
      <trkpt lat="49.78206" lon="5.30324">
        <ele>427.20001220703</ele>
        <time>2022-06-11T08:28:57.000Z</time>
      </trkpt>
      <trkpt lat="49.78202" lon="5.30318">
        <ele>427</ele>
        <time>2022-06-11T08:28:58.000Z</time>
      </trkpt>
      <trkpt lat="49.78197" lon="5.30306">
        <ele>427.20001220703</ele>
        <time>2022-06-11T08:29:00.000Z</time>
      </trkpt>
      <trkpt lat="49.78193" lon="5.30285">
        <ele>427.20001220703</ele>
        <time>2022-06-11T08:29:03.000Z</time>
      </trkpt>
      <trkpt lat="49.78192" lon="5.30277">
        <ele>427.39999389648</ele>
        <time>2022-06-11T08:29:04.000Z</time>
      </trkpt>
      <trkpt lat="49.78193" lon="5.30255">
        <ele>427.60000610352</ele>
        <time>2022-06-11T08:29:07.000Z</time>
      </trkpt>
      <trkpt lat="49.78194" lon="5.30234">
        <ele>427.39999389648</ele>
        <time>2022-06-11T08:29:10.000Z</time>
      </trkpt>
      <trkpt lat="49.78193" lon="5.30222">
        <ele>427.39999389648</ele>
        <time>2022-06-11T08:29:12.000Z</time>
      </trkpt>
      <trkpt lat="49.78192" lon="5.30173">
        <ele>425</ele>
        <time>2022-06-11T08:29:18.000Z</time>
      </trkpt>
      <trkpt lat="49.78191" lon="5.30165">
        <ele>424.39999389648</ele>
        <time>2022-06-11T08:29:19.000Z</time>
      </trkpt>
      <trkpt lat="49.7819" lon="5.30144">
        <ele>423</ele>
        <time>2022-06-11T08:29:21.000Z</time>
      </trkpt>
      <trkpt lat="49.78187" lon="5.30113">
        <ele>421.79998779297</ele>
        <time>2022-06-11T08:29:24.000Z</time>
      </trkpt>
      <trkpt lat="49.78185" lon="5.30101">
        <ele>421.39999389648</ele>
        <time>2022-06-11T08:29:25.000Z</time>
      </trkpt>
      <trkpt lat="49.78183" lon="5.30081">
        <ele>421.20001220703</ele>
        <time>2022-06-11T08:29:27.000Z</time>
      </trkpt>
      <trkpt lat="49.7818" lon="5.30066">
        <ele>421.60000610352</ele>
        <time>2022-06-11T08:29:29.000Z</time>
      </trkpt>
      <trkpt lat="49.7817" lon="5.30042">
        <ele>422.20001220703</ele>
        <time>2022-06-11T08:29:33.000Z</time>
      </trkpt>
      <trkpt lat="49.78169" lon="5.30035">
        <ele>422.60000610352</ele>
        <time>2022-06-11T08:29:34.000Z</time>
      </trkpt>
      <trkpt lat="49.78169" lon="5.30025">
        <ele>423</ele>
        <time>2022-06-11T08:29:36.000Z</time>
      </trkpt>
      <trkpt lat="49.78165" lon="5.30005">
        <ele>423.20001220703</ele>
        <time>2022-06-11T08:29:39.000Z</time>
      </trkpt>
      <trkpt lat="49.78163" lon="5.29999">
        <ele>423.39999389648</ele>
        <time>2022-06-11T08:29:40.000Z</time>
      </trkpt>
      <trkpt lat="49.78152" lon="5.29969">
        <ele>423.20001220703</ele>
        <time>2022-06-11T08:29:47.000Z</time>
      </trkpt>
      <trkpt lat="49.78143" lon="5.29954">
        <ele>422.60000610352</ele>
        <time>2022-06-11T08:29:52.000Z</time>
      </trkpt>
      <trkpt lat="49.78129" lon="5.29932">
        <ele>422.39999389648</ele>
        <time>2022-06-11T08:29:57.000Z</time>
      </trkpt>
      <trkpt lat="49.78126" lon="5.29925">
        <ele>422.20001220703</ele>
        <time>2022-06-11T08:29:58.000Z</time>
      </trkpt>
      <trkpt lat="49.78112" lon="5.29897">
        <ele>422</ele>
        <time>2022-06-11T08:30:03.000Z</time>
      </trkpt>
      <trkpt lat="49.78097" lon="5.29865">
        <ele>422.60000610352</ele>
        <time>2022-06-11T08:30:09.000Z</time>
      </trkpt>
      <trkpt lat="49.78082" lon="5.29831">
        <ele>424.79998779297</ele>
        <time>2022-06-11T08:30:15.000Z</time>
      </trkpt>
      <trkpt lat="49.7808" lon="5.29825">
        <ele>425.20001220703</ele>
        <time>2022-06-11T08:30:16.000Z</time>
      </trkpt>
      <trkpt lat="49.78072" lon="5.29796">
        <ele>427.60000610352</ele>
        <time>2022-06-11T08:30:21.000Z</time>
      </trkpt>
      <trkpt lat="49.7807" lon="5.29789">
        <ele>428</ele>
        <time>2022-06-11T08:30:22.000Z</time>
      </trkpt>
      <trkpt lat="49.78052" lon="5.29736">
        <ele>426.60000610352</ele>
        <time>2022-06-11T08:30:29.000Z</time>
      </trkpt>
      <trkpt lat="49.78047" lon="5.29717">
        <ele>425.20001220703</ele>
        <time>2022-06-11T08:30:31.000Z</time>
      </trkpt>
      <trkpt lat="49.78043" lon="5.29701">
        <ele>424.20001220703</ele>
        <time>2022-06-11T08:30:33.000Z</time>
      </trkpt>
      <trkpt lat="49.78041" lon="5.29693">
        <ele>423.79998779297</ele>
        <time>2022-06-11T08:30:34.000Z</time>
      </trkpt>
      <trkpt lat="49.78036" lon="5.29679">
        <ele>423.39999389648</ele>
        <time>2022-06-11T08:30:36.000Z</time>
      </trkpt>
      <trkpt lat="49.78033" lon="5.29673">
        <ele>423.39999389648</ele>
        <time>2022-06-11T08:30:37.000Z</time>
      </trkpt>
      <trkpt lat="49.78025" lon="5.29664">
        <ele>423</ele>
        <time>2022-06-11T08:30:39.000Z</time>
      </trkpt>
      <trkpt lat="49.78016" lon="5.29657">
        <ele>423</ele>
        <time>2022-06-11T08:30:41.000Z</time>
      </trkpt>
      <trkpt lat="49.77994" lon="5.29637">
        <ele>423.20001220703</ele>
        <time>2022-06-11T08:30:46.000Z</time>
      </trkpt>
      <trkpt lat="49.77965" lon="5.2961">
        <ele>424.39999389648</ele>
        <time>2022-06-11T08:30:52.000Z</time>
      </trkpt>
      <trkpt lat="49.77951" lon="5.29602">
        <ele>424.20001220703</ele>
        <time>2022-06-11T08:30:55.000Z</time>
      </trkpt>
      <trkpt lat="49.77942" lon="5.29598">
        <ele>424.60000610352</ele>
        <time>2022-06-11T08:30:57.000Z</time>
      </trkpt>
      <trkpt lat="49.77933" lon="5.29594">
        <ele>424.79998779297</ele>
        <time>2022-06-11T08:30:59.000Z</time>
      </trkpt>
      <trkpt lat="49.77916" lon="5.29588">
        <ele>425.60000610352</ele>
        <time>2022-06-11T08:31:03.000Z</time>
      </trkpt>
      <trkpt lat="49.77911" lon="5.29586">
        <ele>425.79998779297</ele>
        <time>2022-06-11T08:31:04.000Z</time>
      </trkpt>
      <trkpt lat="49.77896" lon="5.2958">
        <ele>426.79998779297</ele>
        <time>2022-06-11T08:31:08.000Z</time>
      </trkpt>
      <trkpt lat="49.77892" lon="5.2958">
        <ele>427</ele>
        <time>2022-06-11T08:31:09.000Z</time>
      </trkpt>
      <trkpt lat="49.77886" lon="5.29577">
        <ele>427.39999389648</ele>
        <time>2022-06-11T08:31:11.000Z</time>
      </trkpt>
      <trkpt lat="49.77877" lon="5.29574">
        <ele>427.79998779297</ele>
        <time>2022-06-11T08:31:14.000Z</time>
      </trkpt>
      <trkpt lat="49.77873" lon="5.29573">
        <ele>428</ele>
        <time>2022-06-11T08:31:15.000Z</time>
      </trkpt>
      <trkpt lat="49.77866" lon="5.2957">
        <ele>428.39999389648</ele>
        <time>2022-06-11T08:31:17.000Z</time>
      </trkpt>
      <trkpt lat="49.77857" lon="5.29568">
        <ele>428.79998779297</ele>
        <time>2022-06-11T08:31:20.000Z</time>
      </trkpt>
      <trkpt lat="49.77845" lon="5.29563">
        <ele>429.39999389648</ele>
        <time>2022-06-11T08:31:23.000Z</time>
      </trkpt>
      <trkpt lat="49.77838" lon="5.2956">
        <ele>429.79998779297</ele>
        <time>2022-06-11T08:31:25.000Z</time>
      </trkpt>
      <trkpt lat="49.77822" lon="5.29549">
        <ele>430.79998779297</ele>
        <time>2022-06-11T08:31:29.000Z</time>
      </trkpt>
      <trkpt lat="49.77814" lon="5.29544">
        <ele>431.60000610352</ele>
        <time>2022-06-11T08:31:31.000Z</time>
      </trkpt>
      <trkpt lat="49.77801" lon="5.29538">
        <ele>432</ele>
        <time>2022-06-11T08:31:35.000Z</time>
      </trkpt>
      <trkpt lat="49.77799" lon="5.29538">
        <ele>431.79998779297</ele>
        <time>2022-06-11T08:31:36.000Z</time>
      </trkpt>
      <trkpt lat="49.77797" lon="5.29539">
        <ele>431.79998779297</ele>
        <time>2022-06-11T08:31:37.000Z</time>
      </trkpt>
      <trkpt lat="49.77787" lon="5.29548">
        <ele>431.20001220703</ele>
        <time>2022-06-11T08:31:40.000Z</time>
      </trkpt>
      <trkpt lat="49.77772" lon="5.29557">
        <ele>430.20001220703</ele>
        <time>2022-06-11T08:31:43.000Z</time>
      </trkpt>
      <trkpt lat="49.77767" lon="5.29561">
        <ele>430</ele>
        <time>2022-06-11T08:31:44.000Z</time>
      </trkpt>
      <trkpt lat="49.77756" lon="5.29565">
        <ele>430.60000610352</ele>
        <time>2022-06-11T08:31:46.000Z</time>
      </trkpt>
      <trkpt lat="49.77744" lon="5.29567">
        <ele>432</ele>
        <time>2022-06-11T08:31:48.000Z</time>
      </trkpt>
      <trkpt lat="49.77738" lon="5.29567">
        <ele>432.60000610352</ele>
        <time>2022-06-11T08:31:49.000Z</time>
      </trkpt>
      <trkpt lat="49.77717" lon="5.29569">
        <ele>433.39999389648</ele>
        <time>2022-06-11T08:31:53.000Z</time>
      </trkpt>
      <trkpt lat="49.77714" lon="5.2957">
        <ele>433.20001220703</ele>
        <time>2022-06-11T08:31:54.000Z</time>
      </trkpt>
      <trkpt lat="49.77696" lon="5.29568">
        <ele>432.60000610352</ele>
        <time>2022-06-11T08:31:59.000Z</time>
      </trkpt>
      <trkpt lat="49.7767" lon="5.29565">
        <ele>430.20001220703</ele>
        <time>2022-06-11T08:32:04.000Z</time>
      </trkpt>
      <trkpt lat="49.77633" lon="5.2957">
        <ele>429.39999389648</ele>
        <time>2022-06-11T08:32:10.000Z</time>
      </trkpt>
      <trkpt lat="49.77627" lon="5.29572">
        <ele>429.60000610352</ele>
        <time>2022-06-11T08:32:11.000Z</time>
      </trkpt>
      <trkpt lat="49.77616" lon="5.29572">
        <ele>429.60000610352</ele>
        <time>2022-06-11T08:32:13.000Z</time>
      </trkpt>
      <trkpt lat="49.77601" lon="5.29567">
        <ele>428</ele>
        <time>2022-06-11T08:32:16.000Z</time>
      </trkpt>
      <trkpt lat="49.7759" lon="5.29565">
        <ele>426.79998779297</ele>
        <time>2022-06-11T08:32:18.000Z</time>
      </trkpt>
      <trkpt lat="49.77575" lon="5.29562">
        <ele>424.20001220703</ele>
        <time>2022-06-11T08:32:20.000Z</time>
      </trkpt>
      <trkpt lat="49.77568" lon="5.29563">
        <ele>422.60000610352</ele>
        <time>2022-06-11T08:32:21.000Z</time>
      </trkpt>
      <trkpt lat="49.7756" lon="5.29565">
        <ele>421.20001220703</ele>
        <time>2022-06-11T08:32:22.000Z</time>
      </trkpt>
      <trkpt lat="49.77553" lon="5.29568">
        <ele>420.60000610352</ele>
        <time>2022-06-11T08:32:23.000Z</time>
      </trkpt>
      <trkpt lat="49.77541" lon="5.29576">
        <ele>419.39999389648</ele>
        <time>2022-06-11T08:32:25.000Z</time>
      </trkpt>
      <trkpt lat="49.77536" lon="5.2958">
        <ele>419</ele>
        <time>2022-06-11T08:32:26.000Z</time>
      </trkpt>
      <trkpt lat="49.77531" lon="5.29585">
        <ele>419.20001220703</ele>
        <time>2022-06-11T08:32:27.000Z</time>
      </trkpt>
      <trkpt lat="49.77523" lon="5.29596">
        <ele>419.39999389648</ele>
        <time>2022-06-11T08:32:29.000Z</time>
      </trkpt>
      <trkpt lat="49.77518" lon="5.29604">
        <ele>419.60000610352</ele>
        <time>2022-06-11T08:32:30.000Z</time>
      </trkpt>
      <trkpt lat="49.77514" lon="5.29613">
        <ele>419.79998779297</ele>
        <time>2022-06-11T08:32:31.000Z</time>
      </trkpt>
      <trkpt lat="49.77496" lon="5.29644">
        <ele>420</ele>
        <time>2022-06-11T08:32:34.000Z</time>
      </trkpt>
      <trkpt lat="49.77481" lon="5.29663">
        <ele>419</ele>
        <time>2022-06-11T08:32:36.000Z</time>
      </trkpt>
      <trkpt lat="49.77454" lon="5.29694">
        <ele>418.79998779297</ele>
        <time>2022-06-11T08:32:40.000Z</time>
      </trkpt>
      <trkpt lat="49.77441" lon="5.29707">
        <ele>419.79998779297</ele>
        <time>2022-06-11T08:32:42.000Z</time>
      </trkpt>
      <trkpt lat="49.77434" lon="5.29712">
        <ele>420.20001220703</ele>
        <time>2022-06-11T08:32:43.000Z</time>
      </trkpt>
      <trkpt lat="49.77415" lon="5.29727">
        <ele>420</ele>
        <time>2022-06-11T08:32:46.000Z</time>
      </trkpt>
      <trkpt lat="49.77387" lon="5.29758">
        <ele>419.60000610352</ele>
        <time>2022-06-11T08:32:52.000Z</time>
      </trkpt>
      <trkpt lat="49.77372" lon="5.29774">
        <ele>419.79998779297</ele>
        <time>2022-06-11T08:32:55.000Z</time>
      </trkpt>
      <trkpt lat="49.77362" lon="5.29784">
        <ele>420.20001220703</ele>
        <time>2022-06-11T08:32:57.000Z</time>
      </trkpt>
      <trkpt lat="49.77324" lon="5.29819">
        <ele>421.20001220703</ele>
        <time>2022-06-11T08:33:04.000Z</time>
      </trkpt>
      <trkpt lat="49.77311" lon="5.29833">
        <ele>422</ele>
        <time>2022-06-11T08:33:06.000Z</time>
      </trkpt>
      <trkpt lat="49.773" lon="5.29851">
        <ele>422.20001220703</ele>
        <time>2022-06-11T08:33:08.000Z</time>
      </trkpt>
      <trkpt lat="49.77292" lon="5.29871">
        <ele>421.60000610352</ele>
        <time>2022-06-11T08:33:10.000Z</time>
      </trkpt>
      <trkpt lat="49.77286" lon="5.29892">
        <ele>420.79998779297</ele>
        <time>2022-06-11T08:33:12.000Z</time>
      </trkpt>
      <trkpt lat="49.77282" lon="5.29902">
        <ele>420</ele>
        <time>2022-06-11T08:33:13.000Z</time>
      </trkpt>
      <trkpt lat="49.77268" lon="5.29925">
        <ele>417.79998779297</ele>
        <time>2022-06-11T08:33:16.000Z</time>
      </trkpt>
      <trkpt lat="49.77247" lon="5.29956">
        <ele>416</ele>
        <time>2022-06-11T08:33:20.000Z</time>
      </trkpt>
      <trkpt lat="49.77243" lon="5.29966">
        <ele>415.60000610352</ele>
        <time>2022-06-11T08:33:21.000Z</time>
      </trkpt>
      <trkpt lat="49.77238" lon="5.29975">
        <ele>415</ele>
        <time>2022-06-11T08:33:22.000Z</time>
      </trkpt>
      <trkpt lat="49.77214" lon="5.30008">
        <ele>412</ele>
        <time>2022-06-11T08:33:26.000Z</time>
      </trkpt>
      <trkpt lat="49.77193" lon="5.30024">
        <ele>409.39999389648</ele>
        <time>2022-06-11T08:33:29.000Z</time>
      </trkpt>
      <trkpt lat="49.7718" lon="5.30031">
        <ele>408.20001220703</ele>
        <time>2022-06-11T08:33:31.000Z</time>
      </trkpt>
      <trkpt lat="49.77166" lon="5.30026">
        <ele>407.20001220703</ele>
        <time>2022-06-11T08:33:33.000Z</time>
      </trkpt>
      <trkpt lat="49.77159" lon="5.3002">
        <ele>407</ele>
        <time>2022-06-11T08:33:34.000Z</time>
      </trkpt>
      <trkpt lat="49.77152" lon="5.30014">
        <ele>406.79998779297</ele>
        <time>2022-06-11T08:33:35.000Z</time>
      </trkpt>
      <trkpt lat="49.77145" lon="5.30007">
        <ele>406.39999389648</ele>
        <time>2022-06-11T08:33:36.000Z</time>
      </trkpt>
      <trkpt lat="49.77131" lon="5.29994">
        <ele>405.79998779297</ele>
        <time>2022-06-11T08:33:38.000Z</time>
      </trkpt>
      <trkpt lat="49.77115" lon="5.29981">
        <ele>405.39999389648</ele>
        <time>2022-06-11T08:33:40.000Z</time>
      </trkpt>
      <trkpt lat="49.77102" lon="5.2997">
        <ele>405.79998779297</ele>
        <time>2022-06-11T08:33:42.000Z</time>
      </trkpt>
      <trkpt lat="49.77083" lon="5.29955">
        <ele>406.60000610352</ele>
        <time>2022-06-11T08:33:45.000Z</time>
      </trkpt>
      <trkpt lat="49.77052" lon="5.29928">
        <ele>407</ele>
        <time>2022-06-11T08:33:51.000Z</time>
      </trkpt>
      <trkpt lat="49.77016" lon="5.29898">
        <ele>407</ele>
        <time>2022-06-11T08:33:58.000Z</time>
      </trkpt>
      <trkpt lat="49.76977" lon="5.29866">
        <ele>407</ele>
        <time>2022-06-11T08:34:05.000Z</time>
      </trkpt>
      <trkpt lat="49.76945" lon="5.29839">
        <ele>405</ele>
        <time>2022-06-11T08:34:11.000Z</time>
      </trkpt>
      <trkpt lat="49.76929" lon="5.29825">
        <ele>403.39999389648</ele>
        <time>2022-06-11T08:34:14.000Z</time>
      </trkpt>
      <trkpt lat="49.76907" lon="5.29807">
        <ele>403.20001220703</ele>
        <time>2022-06-11T08:34:18.000Z</time>
      </trkpt>
      <trkpt lat="49.76876" lon="5.29776">
        <ele>403.39999389648</ele>
        <time>2022-06-11T08:34:24.000Z</time>
      </trkpt>
      <trkpt lat="49.76868" lon="5.29763">
        <ele>404</ele>
        <time>2022-06-11T08:34:26.000Z</time>
      </trkpt>
      <trkpt lat="49.76857" lon="5.29741">
        <ele>404.20001220703</ele>
        <time>2022-06-11T08:34:29.000Z</time>
      </trkpt>
      <trkpt lat="49.76839" lon="5.29702">
        <ele>403.20001220703</ele>
        <time>2022-06-11T08:34:34.000Z</time>
      </trkpt>
      <trkpt lat="49.76832" lon="5.29686">
        <ele>402.39999389648</ele>
        <time>2022-06-11T08:34:36.000Z</time>
      </trkpt>
      <trkpt lat="49.76827" lon="5.29678">
        <ele>402</ele>
        <time>2022-06-11T08:34:37.000Z</time>
      </trkpt>
      <trkpt lat="49.76807" lon="5.29657">
        <ele>400</ele>
        <time>2022-06-11T08:34:40.000Z</time>
      </trkpt>
      <trkpt lat="49.76799" lon="5.2965">
        <ele>399.79998779297</ele>
        <time>2022-06-11T08:34:41.000Z</time>
      </trkpt>
      <trkpt lat="49.76791" lon="5.29645">
        <ele>399.79998779297</ele>
        <time>2022-06-11T08:34:42.000Z</time>
      </trkpt>
      <trkpt lat="49.76776" lon="5.29633">
        <ele>400</ele>
        <time>2022-06-11T08:34:44.000Z</time>
      </trkpt>
      <trkpt lat="49.7677" lon="5.29628">
        <ele>400.39999389648</ele>
        <time>2022-06-11T08:34:45.000Z</time>
      </trkpt>
      <trkpt lat="49.76763" lon="5.29622">
        <ele>400.79998779297</ele>
        <time>2022-06-11T08:34:46.000Z</time>
      </trkpt>
      <trkpt lat="49.76734" lon="5.29599">
        <ele>399.20001220703</ele>
        <time>2022-06-11T08:34:51.000Z</time>
      </trkpt>
      <trkpt lat="49.76709" lon="5.29578">
        <ele>396.39999389648</ele>
        <time>2022-06-11T08:34:56.000Z</time>
      </trkpt>
      <trkpt lat="49.76704" lon="5.29575">
        <ele>396</ele>
        <time>2022-06-11T08:34:57.000Z</time>
      </trkpt>
      <trkpt lat="49.76681" lon="5.29552">
        <ele>398</ele>
        <time>2022-06-11T08:35:02.000Z</time>
      </trkpt>
      <trkpt lat="49.76671" lon="5.29544">
        <ele>399.39999389648</ele>
        <time>2022-06-11T08:35:04.000Z</time>
      </trkpt>
      <trkpt lat="49.76665" lon="5.2953">
        <ele>402.20001220703</ele>
        <time>2022-06-11T08:35:07.000Z</time>
      </trkpt>
      <trkpt lat="49.76666" lon="5.29525">
        <ele>403</ele>
        <time>2022-06-11T08:35:08.000Z</time>
      </trkpt>
      <trkpt lat="49.76669" lon="5.29519">
        <ele>403.60000610352</ele>
        <time>2022-06-11T08:35:10.000Z</time>
      </trkpt>
      <trkpt lat="49.76673" lon="5.29513">
        <ele>403.79998779297</ele>
        <time>2022-06-11T08:35:12.000Z</time>
      </trkpt>
      <trkpt lat="49.76675" lon="5.2951">
        <ele>403.79998779297</ele>
        <time>2022-06-11T08:35:13.000Z</time>
      </trkpt>
      <trkpt lat="49.76676" lon="5.29508">
        <ele>404</ele>
        <time>2022-06-11T08:35:14.000Z</time>
      </trkpt>
      <trkpt lat="49.76687" lon="5.29501">
        <ele>404.60000610352</ele>
        <time>2022-06-11T08:35:18.000Z</time>
      </trkpt>
      <trkpt lat="49.76697" lon="5.2949">
        <ele>405.20001220703</ele>
        <time>2022-06-11T08:35:22.000Z</time>
      </trkpt>
      <trkpt lat="49.76702" lon="5.29479">
        <ele>405.60000610352</ele>
        <time>2022-06-11T08:35:24.000Z</time>
      </trkpt>
      <trkpt lat="49.76707" lon="5.2947">
        <ele>406.20001220703</ele>
        <time>2022-06-11T08:35:26.000Z</time>
      </trkpt>
      <trkpt lat="49.76713" lon="5.29454">
        <ele>407.60000610352</ele>
        <time>2022-06-11T08:35:29.000Z</time>
      </trkpt>
      <trkpt lat="49.76718" lon="5.29444">
        <ele>408.20001220703</ele>
        <time>2022-06-11T08:35:31.000Z</time>
      </trkpt>
      <trkpt lat="49.7672" lon="5.29438">
        <ele>408.39999389648</ele>
        <time>2022-06-11T08:35:32.000Z</time>
      </trkpt>
      <trkpt lat="49.76733" lon="5.29403">
        <ele>409</ele>
        <time>2022-06-11T08:35:38.000Z</time>
      </trkpt>
      <trkpt lat="49.76744" lon="5.29375">
        <ele>409.39999389648</ele>
        <time>2022-06-11T08:35:43.000Z</time>
      </trkpt>
      <trkpt lat="49.76747" lon="5.29367">
        <ele>409.39999389648</ele>
        <time>2022-06-11T08:35:45.000Z</time>
      </trkpt>
      <trkpt lat="49.76755" lon="5.29337">
        <ele>409</ele>
        <time>2022-06-11T08:35:51.000Z</time>
      </trkpt>
      <trkpt lat="49.76765" lon="5.29309">
        <ele>410.39999389648</ele>
        <time>2022-06-11T08:35:56.000Z</time>
      </trkpt>
      <trkpt lat="49.76779" lon="5.29276">
        <ele>412.60000610352</ele>
        <time>2022-06-11T08:36:02.000Z</time>
      </trkpt>
      <trkpt lat="49.76788" lon="5.29245">
        <ele>414.20001220703</ele>
        <time>2022-06-11T08:36:07.000Z</time>
      </trkpt>
      <trkpt lat="49.76798" lon="5.29213">
        <ele>415.60000610352</ele>
        <time>2022-06-11T08:36:13.000Z</time>
      </trkpt>
      <trkpt lat="49.768" lon="5.29208">
        <ele>415.79998779297</ele>
        <time>2022-06-11T08:36:14.000Z</time>
      </trkpt>
      <trkpt lat="49.76808" lon="5.29183">
        <ele>416.20001220703</ele>
        <time>2022-06-11T08:36:18.000Z</time>
      </trkpt>
      <trkpt lat="49.76824" lon="5.29138">
        <ele>417.20001220703</ele>
        <time>2022-06-11T08:36:25.000Z</time>
      </trkpt>
      <trkpt lat="49.76843" lon="5.29088">
        <ele>418</ele>
        <time>2022-06-11T08:36:33.000Z</time>
      </trkpt>
      <trkpt lat="49.76846" lon="5.29082">
        <ele>418.20001220703</ele>
        <time>2022-06-11T08:36:34.000Z</time>
      </trkpt>
      <trkpt lat="49.76854" lon="5.29057">
        <ele>417.79998779297</ele>
        <time>2022-06-11T08:36:38.000Z</time>
      </trkpt>
      <trkpt lat="49.76858" lon="5.29043">
        <ele>417.60000610352</ele>
        <time>2022-06-11T08:36:40.000Z</time>
      </trkpt>
      <trkpt lat="49.76862" lon="5.2903">
        <ele>417.79998779297</ele>
        <time>2022-06-11T08:36:42.000Z</time>
      </trkpt>
      <trkpt lat="49.7687" lon="5.29008">
        <ele>417.39999389648</ele>
        <time>2022-06-11T08:36:46.000Z</time>
      </trkpt>
      <trkpt lat="49.76881" lon="5.28961">
        <ele>416.60000610352</ele>
        <time>2022-06-11T08:36:54.000Z</time>
      </trkpt>
      <trkpt lat="49.76882" lon="5.28955">
        <ele>416.79998779297</ele>
        <time>2022-06-11T08:36:55.000Z</time>
      </trkpt>
      <trkpt lat="49.76877" lon="5.2894">
        <ele>417.20001220703</ele>
        <time>2022-06-11T08:36:58.000Z</time>
      </trkpt>
      <trkpt lat="49.76873" lon="5.28933">
        <ele>417.20001220703</ele>
        <time>2022-06-11T08:36:59.000Z</time>
      </trkpt>
      <trkpt lat="49.76858" lon="5.28926">
        <ele>417</ele>
        <time>2022-06-11T08:37:03.000Z</time>
      </trkpt>
      <trkpt lat="49.76842" lon="5.2892">
        <ele>417</ele>
        <time>2022-06-11T08:37:07.000Z</time>
      </trkpt>
      <trkpt lat="49.76829" lon="5.28915">
        <ele>417.39999389648</ele>
        <time>2022-06-11T08:37:10.000Z</time>
      </trkpt>
      <trkpt lat="49.76819" lon="5.28914">
        <ele>417.79998779297</ele>
        <time>2022-06-11T08:37:12.000Z</time>
      </trkpt>
      <trkpt lat="49.76815" lon="5.28914">
        <ele>418</ele>
        <time>2022-06-11T08:37:13.000Z</time>
      </trkpt>
      <trkpt lat="49.7681" lon="5.28914">
        <ele>418.20001220703</ele>
        <time>2022-06-11T08:37:14.000Z</time>
      </trkpt>
      <trkpt lat="49.76794" lon="5.28915">
        <ele>418.60000610352</ele>
        <time>2022-06-11T08:37:18.000Z</time>
      </trkpt>
      <trkpt lat="49.76789" lon="5.28917">
        <ele>418.79998779297</ele>
        <time>2022-06-11T08:37:19.000Z</time>
      </trkpt>
      <trkpt lat="49.76778" lon="5.28919">
        <ele>419.20001220703</ele>
        <time>2022-06-11T08:37:21.000Z</time>
      </trkpt>
      <trkpt lat="49.76769" lon="5.28924">
        <ele>419.60000610352</ele>
        <time>2022-06-11T08:37:23.000Z</time>
      </trkpt>
      <trkpt lat="49.76765" lon="5.28928">
        <ele>419.79998779297</ele>
        <time>2022-06-11T08:37:24.000Z</time>
      </trkpt>
      <trkpt lat="49.76761" lon="5.28931">
        <ele>419.79998779297</ele>
        <time>2022-06-11T08:37:25.000Z</time>
      </trkpt>
      <trkpt lat="49.76754" lon="5.28939">
        <ele>419.79998779297</ele>
        <time>2022-06-11T08:37:27.000Z</time>
      </trkpt>
      <trkpt lat="49.76747" lon="5.28945">
        <ele>419.39999389648</ele>
        <time>2022-06-11T08:37:29.000Z</time>
      </trkpt>
      <trkpt lat="49.76737" lon="5.28951">
        <ele>419</ele>
        <time>2022-06-11T08:37:31.000Z</time>
      </trkpt>
      <trkpt lat="49.76727" lon="5.28957">
        <ele>419</ele>
        <time>2022-06-11T08:37:33.000Z</time>
      </trkpt>
      <trkpt lat="49.76723" lon="5.28958">
        <ele>419</ele>
        <time>2022-06-11T08:37:34.000Z</time>
      </trkpt>
      <trkpt lat="49.76706" lon="5.28961">
        <ele>419.60000610352</ele>
        <time>2022-06-11T08:37:38.000Z</time>
      </trkpt>
      <trkpt lat="49.76701" lon="5.28959">
        <ele>419.79998779297</ele>
        <time>2022-06-11T08:37:39.000Z</time>
      </trkpt>
      <trkpt lat="49.76685" lon="5.28951">
        <ele>420</ele>
        <time>2022-06-11T08:37:42.000Z</time>
      </trkpt>
      <trkpt lat="49.76665" lon="5.28938">
        <ele>420</ele>
        <time>2022-06-11T08:37:46.000Z</time>
      </trkpt>
      <trkpt lat="49.76636" lon="5.28917">
        <ele>420</ele>
        <time>2022-06-11T08:37:51.000Z</time>
      </trkpt>
      <trkpt lat="49.76624" lon="5.28909">
        <ele>420</ele>
        <time>2022-06-11T08:37:53.000Z</time>
      </trkpt>
      <trkpt lat="49.76601" lon="5.28895">
        <ele>419.39999389648</ele>
        <time>2022-06-11T08:37:57.000Z</time>
      </trkpt>
      <trkpt lat="49.7659" lon="5.28887">
        <ele>419.20001220703</ele>
        <time>2022-06-11T08:37:59.000Z</time>
      </trkpt>
      <trkpt lat="49.76567" lon="5.2887">
        <ele>417.60000610352</ele>
        <time>2022-06-11T08:38:03.000Z</time>
      </trkpt>
      <trkpt lat="49.76548" lon="5.28856">
        <ele>417.60000610352</ele>
        <time>2022-06-11T08:38:06.000Z</time>
      </trkpt>
      <trkpt lat="49.76523" lon="5.28841">
        <ele>417.39999389648</ele>
        <time>2022-06-11T08:38:10.000Z</time>
      </trkpt>
      <trkpt lat="49.7651" lon="5.28831">
        <ele>417.20001220703</ele>
        <time>2022-06-11T08:38:13.000Z</time>
      </trkpt>
      <trkpt lat="49.76501" lon="5.28827">
        <ele>417.20001220703</ele>
        <time>2022-06-11T08:38:15.000Z</time>
      </trkpt>
      <trkpt lat="49.76497" lon="5.28826">
        <ele>417.20001220703</ele>
        <time>2022-06-11T08:38:16.000Z</time>
      </trkpt>
      <trkpt lat="49.76494" lon="5.28828">
        <ele>417.39999389648</ele>
        <time>2022-06-11T08:38:17.000Z</time>
      </trkpt>
      <trkpt lat="49.76492" lon="5.28842">
        <ele>418.60000610352</ele>
        <time>2022-06-11T08:38:20.000Z</time>
      </trkpt>
      <trkpt lat="49.76492" lon="5.28856">
        <ele>419.60000610352</ele>
        <time>2022-06-11T08:38:22.000Z</time>
      </trkpt>
      <trkpt lat="49.7649" lon="5.28883">
        <ele>421.20001220703</ele>
        <time>2022-06-11T08:38:25.000Z</time>
      </trkpt>
      <trkpt lat="49.7649" lon="5.28892">
        <ele>421.60000610352</ele>
        <time>2022-06-11T08:38:26.000Z</time>
      </trkpt>
      <trkpt lat="49.76489" lon="5.28902">
        <ele>422</ele>
        <time>2022-06-11T08:38:27.000Z</time>
      </trkpt>
      <trkpt lat="49.76489" lon="5.28923">
        <ele>422.39999389648</ele>
        <time>2022-06-11T08:38:29.000Z</time>
      </trkpt>
      <trkpt lat="49.76489" lon="5.28933">
        <ele>422.39999389648</ele>
        <time>2022-06-11T08:38:30.000Z</time>
      </trkpt>
      <trkpt lat="49.76489" lon="5.28954">
        <ele>422.20001220703</ele>
        <time>2022-06-11T08:38:32.000Z</time>
      </trkpt>
      <trkpt lat="49.76492" lon="5.28994">
        <ele>421.20001220703</ele>
        <time>2022-06-11T08:38:36.000Z</time>
      </trkpt>
      <trkpt lat="49.76493" lon="5.29004">
        <ele>421</ele>
        <time>2022-06-11T08:38:37.000Z</time>
      </trkpt>
      <trkpt lat="49.76495" lon="5.29014">
        <ele>420.60000610352</ele>
        <time>2022-06-11T08:38:38.000Z</time>
      </trkpt>
      <trkpt lat="49.76499" lon="5.29029">
        <ele>419.79998779297</ele>
        <time>2022-06-11T08:38:40.000Z</time>
      </trkpt>
      <trkpt lat="49.76502" lon="5.29037">
        <ele>419.39999389648</ele>
        <time>2022-06-11T08:38:41.000Z</time>
      </trkpt>
      <trkpt lat="49.76516" lon="5.29083">
        <ele>418.79998779297</ele>
        <time>2022-06-11T08:38:47.000Z</time>
      </trkpt>
      <trkpt lat="49.76527" lon="5.29122">
        <ele>417.39999389648</ele>
        <time>2022-06-11T08:38:51.000Z</time>
      </trkpt>
      <trkpt lat="49.7653" lon="5.29134">
        <ele>416.79998779297</ele>
        <time>2022-06-11T08:38:52.000Z</time>
      </trkpt>
      <trkpt lat="49.76538" lon="5.2917">
        <ele>415.79998779297</ele>
        <time>2022-06-11T08:38:55.000Z</time>
      </trkpt>
      <trkpt lat="49.76542" lon="5.29195">
        <ele>415.39999389648</ele>
        <time>2022-06-11T08:38:57.000Z</time>
      </trkpt>
      <trkpt lat="49.76543" lon="5.29208">
        <ele>416</ele>
        <time>2022-06-11T08:38:58.000Z</time>
      </trkpt>
      <trkpt lat="49.76546" lon="5.29233">
        <ele>416</ele>
        <time>2022-06-11T08:39:00.000Z</time>
      </trkpt>
      <trkpt lat="49.7655" lon="5.29267">
        <ele>415.20001220703</ele>
        <time>2022-06-11T08:39:03.000Z</time>
      </trkpt>
      <trkpt lat="49.76551" lon="5.29278">
        <ele>414.60000610352</ele>
        <time>2022-06-11T08:39:04.000Z</time>
      </trkpt>
      <trkpt lat="49.76552" lon="5.29289">
        <ele>413.79998779297</ele>
        <time>2022-06-11T08:39:05.000Z</time>
      </trkpt>
      <trkpt lat="49.76558" lon="5.29315">
        <ele>412.39999389648</ele>
        <time>2022-06-11T08:39:08.000Z</time>
      </trkpt>
      <trkpt lat="49.76559" lon="5.29322">
        <ele>412.20001220703</ele>
        <time>2022-06-11T08:39:09.000Z</time>
      </trkpt>
      <trkpt lat="49.76559" lon="5.29344">
        <ele>411.20001220703</ele>
        <time>2022-06-11T08:39:12.000Z</time>
      </trkpt>
      <trkpt lat="49.76559" lon="5.29368">
        <ele>410.39999389648</ele>
        <time>2022-06-11T08:39:15.000Z</time>
      </trkpt>
      <trkpt lat="49.76556" lon="5.29379">
        <ele>409.79998779297</ele>
        <time>2022-06-11T08:39:17.000Z</time>
      </trkpt>
      <trkpt lat="49.7655" lon="5.29383">
        <ele>409</ele>
        <time>2022-06-11T08:39:19.000Z</time>
      </trkpt>
      <trkpt lat="49.76547" lon="5.29383">
        <ele>408.79998779297</ele>
        <time>2022-06-11T08:39:20.000Z</time>
      </trkpt>
      <trkpt lat="49.76541" lon="5.29383">
        <ele>408.39999389648</ele>
        <time>2022-06-11T08:39:22.000Z</time>
      </trkpt>
      <trkpt lat="49.7653" lon="5.29382">
        <ele>407.79998779297</ele>
        <time>2022-06-11T08:39:25.000Z</time>
      </trkpt>
      <trkpt lat="49.76526" lon="5.29383">
        <ele>407.60000610352</ele>
        <time>2022-06-11T08:39:26.000Z</time>
      </trkpt>
      <trkpt lat="49.76514" lon="5.29383">
        <ele>407.20001220703</ele>
        <time>2022-06-11T08:39:29.000Z</time>
      </trkpt>
      <trkpt lat="49.76503" lon="5.29384">
        <ele>407.20001220703</ele>
        <time>2022-06-11T08:39:32.000Z</time>
      </trkpt>
      <trkpt lat="49.76499" lon="5.29385">
        <ele>407.20001220703</ele>
        <time>2022-06-11T08:39:33.000Z</time>
      </trkpt>
      <trkpt lat="49.7649" lon="5.29386">
        <ele>407.60000610352</ele>
        <time>2022-06-11T08:39:35.000Z</time>
      </trkpt>
      <trkpt lat="49.76475" lon="5.29386">
        <ele>408.20001220703</ele>
        <time>2022-06-11T08:39:38.000Z</time>
      </trkpt>
      <trkpt lat="49.7647" lon="5.29386">
        <ele>408.60000610352</ele>
        <time>2022-06-11T08:39:39.000Z</time>
      </trkpt>
      <trkpt lat="49.76449" lon="5.29383">
        <ele>410</ele>
        <time>2022-06-11T08:39:43.000Z</time>
      </trkpt>
      <trkpt lat="49.76433" lon="5.29379">
        <ele>411</ele>
        <time>2022-06-11T08:39:46.000Z</time>
      </trkpt>
      <trkpt lat="49.76417" lon="5.29376">
        <ele>411.79998779297</ele>
        <time>2022-06-11T08:39:49.000Z</time>
      </trkpt>
      <trkpt lat="49.76401" lon="5.29375">
        <ele>412.39999389648</ele>
        <time>2022-06-11T08:39:52.000Z</time>
      </trkpt>
      <trkpt lat="49.76373" lon="5.29376">
        <ele>413</ele>
        <time>2022-06-11T08:39:57.000Z</time>
      </trkpt>
      <trkpt lat="49.76368" lon="5.29376">
        <ele>413.20001220703</ele>
        <time>2022-06-11T08:39:58.000Z</time>
      </trkpt>
      <trkpt lat="49.76339" lon="5.29378">
        <ele>413.39999389648</ele>
        <time>2022-06-11T08:40:03.000Z</time>
      </trkpt>
      <trkpt lat="49.76333" lon="5.29378">
        <ele>413.60000610352</ele>
        <time>2022-06-11T08:40:04.000Z</time>
      </trkpt>
      <trkpt lat="49.76322" lon="5.29378">
        <ele>414</ele>
        <time>2022-06-11T08:40:06.000Z</time>
      </trkpt>
      <trkpt lat="49.76301" lon="5.2938">
        <ele>414.20001220703</ele>
        <time>2022-06-11T08:40:10.000Z</time>
      </trkpt>
      <trkpt lat="49.76266" lon="5.29382">
        <ele>414.60000610352</ele>
        <time>2022-06-11T08:40:16.000Z</time>
      </trkpt>
      <trkpt lat="49.76231" lon="5.29383">
        <ele>414</ele>
        <time>2022-06-11T08:40:22.000Z</time>
      </trkpt>
      <trkpt lat="49.7619" lon="5.29387">
        <ele>413</ele>
        <time>2022-06-11T08:40:29.000Z</time>
      </trkpt>
      <trkpt lat="49.76157" lon="5.2939">
        <ele>412.20001220703</ele>
        <time>2022-06-11T08:40:34.000Z</time>
      </trkpt>
      <trkpt lat="49.76151" lon="5.2939">
        <ele>412.20001220703</ele>
        <time>2022-06-11T08:40:35.000Z</time>
      </trkpt>
      <trkpt lat="49.76137" lon="5.29392">
        <ele>412</ele>
        <time>2022-06-11T08:40:37.000Z</time>
      </trkpt>
      <trkpt lat="49.76115" lon="5.29399">
        <ele>411.39999389648</ele>
        <time>2022-06-11T08:40:40.000Z</time>
      </trkpt>
      <trkpt lat="49.76108" lon="5.29402">
        <ele>411</ele>
        <time>2022-06-11T08:40:41.000Z</time>
      </trkpt>
      <trkpt lat="49.76073" lon="5.29419">
        <ele>407.79998779297</ele>
        <time>2022-06-11T08:40:46.000Z</time>
      </trkpt>
      <trkpt lat="49.76059" lon="5.29426">
        <ele>407.20001220703</ele>
        <time>2022-06-11T08:40:48.000Z</time>
      </trkpt>
      <trkpt lat="49.7604" lon="5.29435">
        <ele>406</ele>
        <time>2022-06-11T08:40:51.000Z</time>
      </trkpt>
      <trkpt lat="49.76021" lon="5.29444">
        <ele>404.39999389648</ele>
        <time>2022-06-11T08:40:54.000Z</time>
      </trkpt>
      <trkpt lat="49.76001" lon="5.29454">
        <ele>403.20001220703</ele>
        <time>2022-06-11T08:40:57.000Z</time>
      </trkpt>
      <trkpt lat="49.75981" lon="5.29464">
        <ele>401.20001220703</ele>
        <time>2022-06-11T08:41:00.000Z</time>
      </trkpt>
      <trkpt lat="49.75974" lon="5.29467">
        <ele>400.79998779297</ele>
        <time>2022-06-11T08:41:01.000Z</time>
      </trkpt>
      <trkpt lat="49.75954" lon="5.29477">
        <ele>399.60000610352</ele>
        <time>2022-06-11T08:41:04.000Z</time>
      </trkpt>
      <trkpt lat="49.75934" lon="5.29489">
        <ele>398.39999389648</ele>
        <time>2022-06-11T08:41:07.000Z</time>
      </trkpt>
      <trkpt lat="49.75927" lon="5.29493">
        <ele>398</ele>
        <time>2022-06-11T08:41:08.000Z</time>
      </trkpt>
      <trkpt lat="49.7589" lon="5.29515">
        <ele>397.20001220703</ele>
        <time>2022-06-11T08:41:13.000Z</time>
      </trkpt>
      <trkpt lat="49.75882" lon="5.2952">
        <ele>397</ele>
        <time>2022-06-11T08:41:14.000Z</time>
      </trkpt>
      <trkpt lat="49.75866" lon="5.29531">
        <ele>395.79998779297</ele>
        <time>2022-06-11T08:41:16.000Z</time>
      </trkpt>
      <trkpt lat="49.75848" lon="5.29541">
        <ele>394</ele>
        <time>2022-06-11T08:41:18.000Z</time>
      </trkpt>
      <trkpt lat="49.75829" lon="5.29551">
        <ele>391.60000610352</ele>
        <time>2022-06-11T08:41:20.000Z</time>
      </trkpt>
      <trkpt lat="49.75809" lon="5.29557">
        <ele>389.20001220703</ele>
        <time>2022-06-11T08:41:22.000Z</time>
      </trkpt>
      <trkpt lat="49.7579" lon="5.2956">
        <ele>387.60000610352</ele>
        <time>2022-06-11T08:41:24.000Z</time>
      </trkpt>
      <trkpt lat="49.75773" lon="5.2956">
        <ele>386.39999389648</ele>
        <time>2022-06-11T08:41:26.000Z</time>
      </trkpt>
      <trkpt lat="49.75745" lon="5.2956">
        <ele>384</ele>
        <time>2022-06-11T08:41:29.000Z</time>
      </trkpt>
      <trkpt lat="49.75726" lon="5.29558">
        <ele>384.20001220703</ele>
        <time>2022-06-11T08:41:31.000Z</time>
      </trkpt>
      <trkpt lat="49.75709" lon="5.29557">
        <ele>386.20001220703</ele>
        <time>2022-06-11T08:41:33.000Z</time>
      </trkpt>
      <trkpt lat="49.75681" lon="5.29555">
        <ele>387.79998779297</ele>
        <time>2022-06-11T08:41:37.000Z</time>
      </trkpt>
      <trkpt lat="49.75655" lon="5.29554">
        <ele>388.39999389648</ele>
        <time>2022-06-11T08:41:42.000Z</time>
      </trkpt>
      <trkpt lat="49.7564" lon="5.29555">
        <ele>388.79998779297</ele>
        <time>2022-06-11T08:41:45.000Z</time>
      </trkpt>
      <trkpt lat="49.7563" lon="5.29555">
        <ele>389.39999389648</ele>
        <time>2022-06-11T08:41:47.000Z</time>
      </trkpt>
      <trkpt lat="49.75615" lon="5.29554">
        <ele>390.20001220703</ele>
        <time>2022-06-11T08:41:50.000Z</time>
      </trkpt>
      <trkpt lat="49.7561" lon="5.29554">
        <ele>390</ele>
        <time>2022-06-11T08:41:51.000Z</time>
      </trkpt>
      <trkpt lat="49.7559" lon="5.29552">
        <ele>389.60000610352</ele>
        <time>2022-06-11T08:41:55.000Z</time>
      </trkpt>
      <trkpt lat="49.75574" lon="5.29553">
        <ele>388.39999389648</ele>
        <time>2022-06-11T08:41:58.000Z</time>
      </trkpt>
      <trkpt lat="49.75553" lon="5.29555">
        <ele>386.60000610352</ele>
        <time>2022-06-11T08:42:02.000Z</time>
      </trkpt>
      <trkpt lat="49.75531" lon="5.2956">
        <ele>384.79998779297</ele>
        <time>2022-06-11T08:42:06.000Z</time>
      </trkpt>
      <trkpt lat="49.7552" lon="5.29566">
        <ele>383.79998779297</ele>
        <time>2022-06-11T08:42:08.000Z</time>
      </trkpt>
      <trkpt lat="49.75511" lon="5.29578">
        <ele>383</ele>
        <time>2022-06-11T08:42:10.000Z</time>
      </trkpt>
      <trkpt lat="49.75504" lon="5.29594">
        <ele>382.39999389648</ele>
        <time>2022-06-11T08:42:12.000Z</time>
      </trkpt>
      <trkpt lat="49.75495" lon="5.29619">
        <ele>381.60000610352</ele>
        <time>2022-06-11T08:42:15.000Z</time>
      </trkpt>
      <trkpt lat="49.75483" lon="5.29642">
        <ele>381.79998779297</ele>
        <time>2022-06-11T08:42:18.000Z</time>
      </trkpt>
      <trkpt lat="49.75472" lon="5.29656">
        <ele>381.20001220703</ele>
        <time>2022-06-11T08:42:20.000Z</time>
      </trkpt>
      <trkpt lat="49.75446" lon="5.29684">
        <ele>380.39999389648</ele>
        <time>2022-06-11T08:42:24.000Z</time>
      </trkpt>
      <trkpt lat="49.75431" lon="5.29699">
        <ele>379.60000610352</ele>
        <time>2022-06-11T08:42:26.000Z</time>
      </trkpt>
      <trkpt lat="49.75417" lon="5.29716">
        <ele>378.60000610352</ele>
        <time>2022-06-11T08:42:28.000Z</time>
      </trkpt>
      <trkpt lat="49.75403" lon="5.29734">
        <ele>376.60000610352</ele>
        <time>2022-06-11T08:42:30.000Z</time>
      </trkpt>
      <trkpt lat="49.75396" lon="5.29744">
        <ele>376</ele>
        <time>2022-06-11T08:42:31.000Z</time>
      </trkpt>
      <trkpt lat="49.7539" lon="5.29755">
        <ele>375.60000610352</ele>
        <time>2022-06-11T08:42:32.000Z</time>
      </trkpt>
      <trkpt lat="49.75379" lon="5.29776">
        <ele>376.79998779297</ele>
        <time>2022-06-11T08:42:34.000Z</time>
      </trkpt>
      <trkpt lat="49.75365" lon="5.29802">
        <ele>383.79998779297</ele>
        <time>2022-06-11T08:42:37.000Z</time>
      </trkpt>
      <trkpt lat="49.75357" lon="5.2982">
        <ele>388.39999389648</ele>
        <time>2022-06-11T08:42:39.000Z</time>
      </trkpt>
      <trkpt lat="49.75353" lon="5.2984">
        <ele>392.60000610352</ele>
        <time>2022-06-11T08:42:41.000Z</time>
      </trkpt>
      <trkpt lat="49.75357" lon="5.29854">
        <ele>394</ele>
        <time>2022-06-11T08:42:43.000Z</time>
      </trkpt>
      <trkpt lat="49.75366" lon="5.29864">
        <ele>393.39999389648</ele>
        <time>2022-06-11T08:42:45.000Z</time>
      </trkpt>
      <trkpt lat="49.7537" lon="5.29869">
        <ele>391.79998779297</ele>
        <time>2022-06-11T08:42:46.000Z</time>
      </trkpt>
      <trkpt lat="49.75375" lon="5.29874">
        <ele>389.39999389648</ele>
        <time>2022-06-11T08:42:47.000Z</time>
      </trkpt>
      <trkpt lat="49.75378" lon="5.2988">
        <ele>387.39999389648</ele>
        <time>2022-06-11T08:42:48.000Z</time>
      </trkpt>
      <trkpt lat="49.75384" lon="5.29894">
        <ele>389.39999389648</ele>
        <time>2022-06-11T08:42:50.000Z</time>
      </trkpt>
      <trkpt lat="49.75388" lon="5.29911">
        <ele>392.39999389648</ele>
        <time>2022-06-11T08:42:52.000Z</time>
      </trkpt>
      <trkpt lat="49.75386" lon="5.29936">
        <ele>393.79998779297</ele>
        <time>2022-06-11T08:42:55.000Z</time>
      </trkpt>
      <trkpt lat="49.75379" lon="5.29959">
        <ele>395.60000610352</ele>
        <time>2022-06-11T08:42:58.000Z</time>
      </trkpt>
      <trkpt lat="49.75371" lon="5.29984">
        <ele>397.39999389648</ele>
        <time>2022-06-11T08:43:01.000Z</time>
      </trkpt>
      <trkpt lat="49.75346" lon="5.30057">
        <ele>396.79998779297</ele>
        <time>2022-06-11T08:43:10.000Z</time>
      </trkpt>
      <trkpt lat="49.75328" lon="5.3011">
        <ele>394.39999389648</ele>
        <time>2022-06-11T08:43:17.000Z</time>
      </trkpt>
      <trkpt lat="49.75307" lon="5.30178">
        <ele>393</ele>
        <time>2022-06-11T08:43:26.000Z</time>
      </trkpt>
      <trkpt lat="49.75304" lon="5.30186">
        <ele>393</ele>
        <time>2022-06-11T08:43:27.000Z</time>
      </trkpt>
      <trkpt lat="49.75293" lon="5.30216">
        <ele>394.20001220703</ele>
        <time>2022-06-11T08:43:31.000Z</time>
      </trkpt>
      <trkpt lat="49.75285" lon="5.3024">
        <ele>395.20001220703</ele>
        <time>2022-06-11T08:43:34.000Z</time>
      </trkpt>
      <trkpt lat="49.75279" lon="5.30256">
        <ele>395.20001220703</ele>
        <time>2022-06-11T08:43:36.000Z</time>
      </trkpt>
      <trkpt lat="49.75263" lon="5.30304">
        <ele>396</ele>
        <time>2022-06-11T08:43:42.000Z</time>
      </trkpt>
      <trkpt lat="49.7525" lon="5.30342">
        <ele>393</ele>
        <time>2022-06-11T08:43:47.000Z</time>
      </trkpt>
      <trkpt lat="49.75243" lon="5.30354">
        <ele>392.60000610352</ele>
        <time>2022-06-11T08:43:49.000Z</time>
      </trkpt>
      <trkpt lat="49.75234" lon="5.30355">
        <ele>393.60000610352</ele>
        <time>2022-06-11T08:43:52.000Z</time>
      </trkpt>
      <trkpt lat="49.75232" lon="5.30353">
        <ele>394</ele>
        <time>2022-06-11T08:43:54.000Z</time>
      </trkpt>
      <trkpt lat="49.75235" lon="5.30355">
        <ele>393.39999389648</ele>
        <time>2022-06-11T08:45:06.000Z</time>
      </trkpt>
      <trkpt lat="49.75237" lon="5.30371">
        <ele>391.79998779297</ele>
        <time>2022-06-11T08:45:10.000Z</time>
      </trkpt>
      <trkpt lat="49.75234" lon="5.30381">
        <ele>391</ele>
        <time>2022-06-11T08:45:13.000Z</time>
      </trkpt>
      <trkpt lat="49.75229" lon="5.30396">
        <ele>390.20001220703</ele>
        <time>2022-06-11T08:45:16.000Z</time>
      </trkpt>
      <trkpt lat="49.75216" lon="5.3043">
        <ele>388.79998779297</ele>
        <time>2022-06-11T08:45:22.000Z</time>
      </trkpt>
      <trkpt lat="49.75193" lon="5.30497">
        <ele>388</ele>
        <time>2022-06-11T08:45:32.000Z</time>
      </trkpt>
      <trkpt lat="49.75185" lon="5.30517">
        <ele>390.39999389648</ele>
        <time>2022-06-11T08:45:35.000Z</time>
      </trkpt>
      <trkpt lat="49.75171" lon="5.30555">
        <ele>393.39999389648</ele>
        <time>2022-06-11T08:45:41.000Z</time>
      </trkpt>
      <trkpt lat="49.75169" lon="5.30561">
        <ele>393.60000610352</ele>
        <time>2022-06-11T08:45:42.000Z</time>
      </trkpt>
      <trkpt lat="49.75156" lon="5.30601">
        <ele>392.79998779297</ele>
        <time>2022-06-11T08:45:49.000Z</time>
      </trkpt>
      <trkpt lat="49.75155" lon="5.30604">
        <ele>392.60000610352</ele>
        <time>2022-06-11T08:45:50.000Z</time>
      </trkpt>
      <trkpt lat="49.75155" lon="5.30611">
        <ele>392.39999389648</ele>
        <time>2022-06-11T08:45:52.000Z</time>
      </trkpt>
      <trkpt lat="49.75156" lon="5.30614">
        <ele>392.20001220703</ele>
        <time>2022-06-11T08:45:53.000Z</time>
      </trkpt>
      <trkpt lat="49.75162" lon="5.30618">
        <ele>391</ele>
        <time>2022-06-11T08:45:56.000Z</time>
      </trkpt>
      <trkpt lat="49.75164" lon="5.30619">
        <ele>390.79998779297</ele>
        <time>2022-06-11T08:45:57.000Z</time>
      </trkpt>
      <trkpt lat="49.75167" lon="5.30622">
        <ele>390.20001220703</ele>
        <time>2022-06-11T08:49:44.000Z</time>
      </trkpt>
      <trkpt lat="49.75168" lon="5.30625">
        <ele>390</ele>
        <time>2022-06-11T08:49:45.000Z</time>
      </trkpt>
      <trkpt lat="49.75169" lon="5.30643">
        <ele>390</ele>
        <time>2022-06-11T08:49:49.000Z</time>
      </trkpt>
      <trkpt lat="49.7517" lon="5.3068">
        <ele>392.79998779297</ele>
        <time>2022-06-11T08:49:56.000Z</time>
      </trkpt>
      <trkpt lat="49.75175" lon="5.30707">
        <ele>394.79998779297</ele>
        <time>2022-06-11T08:50:01.000Z</time>
      </trkpt>
      <trkpt lat="49.75181" lon="5.30756">
        <ele>395.79998779297</ele>
        <time>2022-06-11T08:50:09.000Z</time>
      </trkpt>
      <trkpt lat="49.75188" lon="5.30788">
        <ele>396.60000610352</ele>
        <time>2022-06-11T08:50:15.000Z</time>
      </trkpt>
      <trkpt lat="49.75193" lon="5.30813">
        <ele>397.60000610352</ele>
        <time>2022-06-11T08:50:20.000Z</time>
      </trkpt>
      <trkpt lat="49.75195" lon="5.30828">
        <ele>398.20001220703</ele>
        <time>2022-06-11T08:50:23.000Z</time>
      </trkpt>
      <trkpt lat="49.75199" lon="5.30851">
        <ele>398.20001220703</ele>
        <time>2022-06-11T08:50:29.000Z</time>
      </trkpt>
      <trkpt lat="49.752" lon="5.30857">
        <ele>398.39999389648</ele>
        <time>2022-06-11T08:50:31.000Z</time>
      </trkpt>
      <trkpt lat="49.75202" lon="5.30868">
        <ele>398.79998779297</ele>
        <time>2022-06-11T08:50:35.000Z</time>
      </trkpt>
      <trkpt lat="49.75203" lon="5.30874">
        <ele>398.79998779297</ele>
        <time>2022-06-11T08:50:45.000Z</time>
      </trkpt>
      <trkpt lat="49.75204" lon="5.30876">
        <ele>399</ele>
        <time>2022-06-11T08:50:46.000Z</time>
      </trkpt>
      <trkpt lat="49.75203" lon="5.30879">
        <ele>399.20001220703</ele>
        <time>2022-06-11T08:50:47.000Z</time>
      </trkpt>
      <trkpt lat="49.75202" lon="5.30889">
        <ele>400.39999389648</ele>
        <time>2022-06-11T08:51:03.000Z</time>
      </trkpt>
      <trkpt lat="49.75206" lon="5.30911">
        <ele>401.60000610352</ele>
        <time>2022-06-11T08:51:09.000Z</time>
      </trkpt>
      <trkpt lat="49.75213" lon="5.30935">
        <ele>402.60000610352</ele>
        <time>2022-06-11T08:51:15.000Z</time>
      </trkpt>
      <trkpt lat="49.75213" lon="5.30941">
        <ele>403.20001220703</ele>
        <time>2022-06-11T08:51:17.000Z</time>
      </trkpt>
    </trkseg>
  </trk>
</gpx>